# Wetter Temperatur Luftdruck Luftfeuchtigkeit Sichtweite Windgeschwindigkeit Windrichtung Zeit
1 Clear 21 1015 64 10000 2.57 290 11:50 22.04.2021
2 Clear 21 1016 82 10000 2.06 290 11:27 22.04.2021
3 Clear 20 1016 94 10000 2.57 320 10:59 22.04.2021
4 Clear 19 1016 94 10000 2.57 320 10:40 22.04.2021
5 Clear 18 1016 100 10000 3.09 320 10:19 22.04.2021
6 Mist 16 1016 94 3000 3.09 330 09:36 22.04.2021
7 Fog 13 1016 94 400 3.09 320 08:51 22.04.2021
8 Fog 15 1015 94 200 3.6 320 08:23 22.04.2021
9 Fog 14 1015 94 350 3.6 330 07:54 22.04.2021
10 Fog 15 1015 94 400 4.12 330 07:31 22.04.2021
11 Fog 15 1015 94 400 5.14 320 06:46 22.04.2021
12 Fog 15 1015 100 1000 4.12 320 06:19 22.04.2021
13 Clear 16 1014 94 10000 3.09 330 05:23 22.04.2021
14 Clear 17 1015 88 10000 2.06 320 02:27 22.04.2021
15 Clear 18 1015 77 10000 1.03 0 00:23 22.04.2021
16 Clear 18 1015 77 10000 2.57 210 23:41 21.04.2021
17 Clear 18 1015 77 10000 2.57 210 23:20 21.04.2021
18 Clear 18 1015 77 10000 3.6 210 22:40 21.04.2021
19 Clear 18 1015 77 10000 3.6 210 22:20 21.04.2021
20 Clear 18 1015 77 10000 4.12 190 21:41 21.04.2021
21 Clear 18 1015 77 10000 4.12 190 21:22 21.04.2021
22 Clear 18 1015 82 10000 5.14 230 20:32 21.04.2021
23 Clear 17 1014 88 10000 5.14 240 19:57 21.04.2021
24 Clear 18 1014 88 10000 5.14 240 19:38 21.04.2021
25 Clear 18 1014 88 10000 5.14 240 19:18 21.04.2021
26 Clear 19 1014 77 10000 6.69 230 18:42 21.04.2021
27 Clear 19 1014 77 10000 6.69 230 18:22 21.04.2021
28 Clear 20 1014 73 10000 4.63 230 17:45 21.04.2021
29 Clear 21 1014 73 10000 4.63 230 17:22 21.04.2021
30 Clear 22 1015 68 10000 4.63 210 16:41 21.04.2021
31 Clear 24 1015 53 10000 4.12 220 15:52 21.04.2021
32 Clear 24 1015 53 10000 4.12 220 15:28 21.04.2021
33 Clear 24 1015 56 10000 5.14 220 14:46 21.04.2021
34 Clear 24 1015 56 10000 5.14 220 14:28 21.04.2021
35 Clear 24 1016 56 10000 5.14 210 13:51 21.04.2021
36 Clear 24 1016 56 10000 5.14 210 13:23 21.04.2021
37 Clear 24 1016 53 10000 2.57 190 12:52 21.04.2021
38 Clear 24 1016 53 10000 2.57 190 12:28 21.04.2021
39 Clear 22 1016 64 10000 3.6 220 11:47 21.04.2021
40 Clear 22 1016 64 10000 3.6 220 11:25 21.04.2021
41 Clear 22 1016 68 10000 2.57 200 10:42 21.04.2021
42 Clear 19 1016 88 10000 1.03 0 09:58 21.04.2021
43 Clear 19 1016 88 10000 1.03 0 09:33 21.04.2021
44 Clear 13 1016 94 10000 0.51 0 08:53 21.04.2021
45 Clear 14 1016 94 10000 0.51 0 08:27 21.04.2021
46 Clear 13 1015 94 10000 1.03 0 07:59 21.04.2021
47 Clear 14 1015 94 10000 1.03 0 07:29 21.04.2021
48 Clear 14 1015 94 10000 1.03 0 06:23 21.04.2021
49 Clouds 15 1014 94 8000 0.51 0 04:18 21.04.2021
50 Clouds 15 1015 94 8000 3.6 210 00:49 21.04.2021
51 Clear 15 1015 88 10000 3.09 200 23:48 20.04.2021
52 Clear 16 1016 88 10000 3.6 210 22:56 20.04.2021
53 Clear 16 1016 88 10000 3.6 210 22:36 20.04.2021
54 Clear 16 1016 88 10000 3.6 210 22:18 20.04.2021
55 Clear 17 1016 88 10000 3.6 210 21:44 20.04.2021
56 Clear 17 1016 88 10000 3.6 210 21:23 20.04.2021
57 Clear 17 1016 88 10000 3.09 220 20:42 20.04.2021
58 Clear 17 1016 88 10000 3.09 220 20:22 20.04.2021
59 Clear 17 1016 82 10000 3.6 210 19:52 20.04.2021
60 Clear 18 1016 82 10000 3.6 210 19:33 20.04.2021
61 Clear 18 1015 68 10000 3.6 210 18:54 20.04.2021
62 Clear 19 1015 68 10000 3.6 210 18:35 20.04.2021
63 Clear 21 1015 60 10000 3.6 210 17:43 20.04.2021
64 Clear 21 1015 60 10000 3.6 210 17:18 20.04.2021
65 Clear 23 1015 53 10000 5.14 210 16:43 20.04.2021
66 Clear 24 1015 46 10000 4.63 200 15:43 20.04.2021
67 Clear 24 1015 46 10000 4.63 200 15:25 20.04.2021
68 Clear 25 1016 44 10000 4.12 210 14:57 20.04.2021
69 Clear 25 1016 44 10000 4.12 210 14:28 20.04.2021
70 Clear 25 1017 44 10000 3.6 200 13:32 20.04.2021
71 Clear 24 1017 46 10000 4.12 200 12:57 20.04.2021
72 Clear 24 1017 46 10000 4.12 200 12:34 20.04.2021
73 Clear 23 1018 53 10000 3.6 200 11:58 20.04.2021
74 Clear 23 1018 53 10000 3.6 200 11:39 20.04.2021
75 Clear 22 1018 53 10000 3.6 200 11:19 20.04.2021
76 Clear 22 1018 53 10000 3.09 170 10:42 20.04.2021
77 Clear 20 1018 56 10000 4.63 160 10:22 20.04.2021
78 Clear 17 1018 68 10000 3.09 190 09:20 20.04.2021
79 Clear 16 1017 77 10000 3.09 170 08:54 20.04.2021
80 Clear 15 1017 77 10000 3.09 170 08:19 20.04.2021
81 Clear 15 1017 77 10000 3.6 200 07:39 20.04.2021
82 Clear 14 1017 82 10000 4.63 160 06:35 20.04.2021
83 Clear 15 1017 77 10000 3.6 190 05:37 20.04.2021
84 Clear 15 1017 77 10000 3.6 220 04:41 20.04.2021
85 Clear 16 1019 77 10000 2.57 200 00:53 20.04.2021
86 Clear 16 1019 77 10000 2.57 200 00:27 20.04.2021
87 Clear 16 1019 72 10000 2.06 150 23:33 19.04.2021
88 Clear 16 1019 72 10000 2.57 160 22:51 19.04.2021
89 Clear 16 1019 72 10000 2.57 160 22:29 19.04.2021
90 Clear 16 1020 67 10000 2.06 140 21:47 19.04.2021
91 Clear 17 1020 67 10000 2.06 140 21:22 19.04.2021
92 Clear 17 1020 67 10000 2.57 140 20:42 19.04.2021
93 Clear 17 1020 67 10000 2.57 140 20:22 19.04.2021
94 Clouds 18 1020 63 10000 4.12 130 19:50 19.04.2021
95 Clouds 18 1020 63 10000 4.12 130 19:28 19.04.2021
96 Clouds 19 1020 56 10000 4.63 150 18:59 19.04.2021
97 Clouds 19 1020 56 10000 4.63 150 18:41 19.04.2021
98 Clouds 19 1020 56 10000 4.63 150 18:19 19.04.2021
99 Clouds 20 1020 49 10000 5.14 140 17:44 19.04.2021
100 Clouds 20 1020 49 10000 5.14 140 17:24 19.04.2021
101 Clouds 21 1020 46 10000 6.69 150 16:45 19.04.2021
102 Clouds 21 1020 46 10000 6.69 150 16:25 19.04.2021
103 Clouds 22 1020 46 10000 7.2 140 15:43 19.04.2021
104 Clouds 22 1020 46 10000 7.2 140 15:24 19.04.2021
105 Clouds 22 1020 49 10000 8.75 140 14:52 19.04.2021
106 Clouds 22 1020 49 10000 8.75 140 14:31 19.04.2021
107 Clouds 22 1021 49 10000 9.26 140 13:52 19.04.2021
108 Clouds 22 1021 49 10000 9.26 140 13:28 19.04.2021
109 Clouds 22 1021 49 10000 8.75 140 12:48 19.04.2021
110 Clouds 22 1021 49 10000 8.75 140 12:27 19.04.2021
111 Clouds 21 1022 56 10000 9.77 150 11:59 19.04.2021
112 Clouds 20 1022 56 10000 9.77 150 11:27 19.04.2021
113 Clouds 19 1022 72 10000 11.83 170 10:55 19.04.2021
114 Clouds 19 1022 72 10000 11.83 170 10:36 19.04.2021
115 Clouds 19 1022 72 10000 11.83 170 10:18 19.04.2021
116 Clouds 18 1021 77 10000 10.8 180 09:39 19.04.2021
117 Clouds 17 1021 77 10000 10.8 180 09:20 19.04.2021
118 Clouds 17 1021 82 10000 10.8 180 08:32 19.04.2021
119 Clear 17 1021 88 10000 10.29 170 07:49 19.04.2021
120 Clear 17 1021 88 10000 10.29 170 07:21 19.04.2021
121 Clear 18 1020 88 10000 11.83 180 06:45 19.04.2021
122 Clear 19 1020 94 10000 6.69 200 02:41 19.04.2021
123 Clear 19 1020 94 10000 7.2 200 01:40 19.04.2021
124 Clear 20 1019 88 10000 5.66 190 00:33 19.04.2021
125 Clear 19 1019 94 10000 4.63 200 23:19 18.04.2021
126 Clear 19 1018 88 10000 5.14 190 22:53 18.04.2021
127 Clear 19 1018 88 10000 5.14 190 22:31 18.04.2021
128 Clear 19 1018 82 10000 4.63 180 21:45 18.04.2021
129 Clear 19 1018 82 10000 4.63 180 21:23 18.04.2021
130 Clear 19 1017 82 10000 5.14 170 20:41 18.04.2021
131 Clear 19 1017 82 10000 5.14 170 20:21 18.04.2021
132 Clear 20 1015 73 10000 6.69 170 19:56 18.04.2021
133 Clear 21 1015 73 10000 6.69 170 19:36 18.04.2021
134 Clear 23 1014 27 10000 4.63 200 18:59 18.04.2021
135 Clear 24 1014 27 10000 4.63 200 18:38 18.04.2021
136 Clear 24 1014 27 10000 4.63 200 18:20 18.04.2021
137 Clear 27 1014 26 10000 4.63 310 17:42 18.04.2021
138 Clear 28 1014 26 10000 4.63 310 17:24 18.04.2021
139 Clear 28 1013 23 10000 9.26 320 16:45 18.04.2021
140 Clear 29 1013 23 10000 9.26 320 16:19 18.04.2021
141 Clear 29 1013 17 10000 10.8 320 15:41 18.04.2021
142 Clear 30 1013 17 10000 10.8 320 15:23 18.04.2021
143 Clear 30 1013 12 10000 11.32 310 14:42 18.04.2021
144 Clear 30 1013 12 10000 11.32 310 14:20 18.04.2021
145 Clear 32 1013 10 10000 8.23 300 13:54 18.04.2021
146 Clear 31 1013 10 10000 8.23 300 13:32 18.04.2021
147 Clear 36 1013 11 10000 4.63 20 12:49 18.04.2021
148 Clear 35 1013 11 10000 4.63 20 12:24 18.04.2021
149 Clear 33 1013 11 10000 4.63 30 11:41 18.04.2021
150 Clear 32 1013 11 10000 4.63 30 11:20 18.04.2021
151 Clear 29 1014 14 10000 2.57 20 10:46 18.04.2021
152 Clear 28 1014 14 10000 2.57 20 10:21 18.04.2021
153 Clear 29 1014 17 10000 4.63 30 09:45 18.04.2021
154 Clear 26 1014 24 10000 2.06 30 09:26 18.04.2021
155 Clear 24 1014 37 10000 2.06 50 08:54 18.04.2021
156 Clear 20 1014 48 10000 1.54 330 08:29 18.04.2021
157 Clear 19 1014 51 10000 3.6 60 07:55 18.04.2021
158 Clear 18 1014 51 10000 3.6 60 07:55 18.04.2021
159 Clear 18 1014 51 10000 3.6 60 07:36 18.04.2021
160 Clear 19 1014 76 10000 0.51 0 05:41 18.04.2021
161 Clear 18 1014 76 10000 0.51 0 05:22 18.04.2021
162 Clear 17 1016 77 10000 2.06 50 02:27 18.04.2021
163 Clear 17 1016 88 10000 2.06 70 01:48 18.04.2021
164 Clear 16 1016 88 10000 1.54 90 00:36 18.04.2021
165 Clear 17 1017 82 10000 2.06 80 23:31 17.04.2021
166 Clear 17 1017 82 10000 1.54 110 22:51 17.04.2021
167 Clear 19 1017 82 10000 1.54 110 22:30 17.04.2021
168 Clear 19 1017 82 10000 1.54 110 22:30 17.04.2021
169 Clear 16 1017 82 10000 1.03 0 21:46 17.04.2021
170 Clear 16 1017 82 10000 1.03 0 21:28 17.04.2021
171 Clear 17 1017 72 10000 2.06 170 20:46 17.04.2021
172 Clear 18 1017 72 10000 2.06 170 20:25 17.04.2021
173 Clear 19 1016 63 10000 2.57 190 19:44 17.04.2021
174 Clear 18 1016 63 10000 2.57 190 19:20 17.04.2021
175 Clear 20 1016 49 10000 3.09 170 18:55 17.04.2021
176 Clear 21 1016 49 10000 3.09 170 18:26 17.04.2021
177 Clear 22 1016 41 10000 3.09 170 17:49 17.04.2021
178 Clear 23 1016 41 10000 3.09 170 17:30 17.04.2021
179 Clear 26 1016 36 10000 3.09 170 16:42 17.04.2021
180 Clear 26 1016 36 10000 3.09 170 16:23 17.04.2021
181 Clear 27 1016 34 10000 3.6 180 15:38 17.04.2021
182 Clear 28 1016 32 10000 3.09 210 14:49 17.04.2021
183 Clear 28 1016 32 10000 3.09 210 14:29 17.04.2021
184 Clear 27 1017 34 10000 2.57 200 13:45 17.04.2021
185 Clear 27 1017 34 10000 2.57 200 13:18 17.04.2021
186 Clear 26 1018 41 10000 2.06 220 12:35 17.04.2021
187 Clear 25 1018 53 10000 1.54 0 11:58 17.04.2021
188 Clear 26 1018 53 10000 1.54 0 11:38 17.04.2021
189 Clear 26 1018 53 10000 1.54 0 11:19 17.04.2021
190 Clear 23 1018 60 10000 1.03 0 10:39 17.04.2021
191 Clear 20 1018 77 10000 1.54 0 09:51 17.04.2021
192 Clear 14 1018 94 10000 1.03 110 08:55 17.04.2021
193 Clear 12 1018 87 10000 1.54 120 08:33 17.04.2021
194 Clear 12 1018 87 10000 1.54 120 08:33 17.04.2021
195 Clear 11 1017 87 10000 1.03 0 07:54 17.04.2021
196 Clear 14 1017 94 10000 3.09 200 06:34 17.04.2021
197 Clear 16 1018 82 10000 1.54 180 03:48 17.04.2021
198 Clear 16 1018 82 10000 1.03 140 01:35 17.04.2021
199 Clear 17 1018 72 10000 1.54 130 00:40 17.04.2021
200 Clear 17 1018 72 10000 1.54 130 00:19 17.04.2021
201 Clear 18 1018 77 10000 0.51 0 23:43 16.04.2021
202 Clear 16 1018 72 10000 0.51 0 22:52 16.04.2021
203 Clear 19 1018 72 10000 0.51 0 22:25 16.04.2021
204 Clear 19 1018 72 10000 0.51 0 21:58 16.04.2021
205 Clear 19 1018 72 10000 0.51 0 21:40 16.04.2021
206 Clear 20 1018 72 10000 0.51 0 21:21 16.04.2021
207 Clear 18 1018 67 10000 2.06 200 20:45 16.04.2021
208 Clear 19 1018 67 10000 2.06 200 20:18 16.04.2021
209 Clear 20 1018 63 10000 2.06 200 19:47 16.04.2021
210 Clear 22 1018 63 10000 2.06 200 19:20 16.04.2021
211 Clear 21 1018 56 10000 3.09 210 18:28 16.04.2021
212 Clear 23 1018 49 10000 3.09 220 17:53 16.04.2021
213 Clear 25 1018 49 10000 3.09 220 17:20 16.04.2021
214 Clear 25 1018 44 10000 4.12 220 16:56 16.04.2021
215 Clear 26 1018 44 10000 4.12 220 16:38 16.04.2021
216 Clear 26 1018 44 10000 4.12 220 16:19 16.04.2021
217 Clear 28 1018 34 10000 5.66 200 15:39 16.04.2021
218 Clear 27 1018 34 10000 4.63 180 14:47 16.04.2021
219 Clear 28 1018 34 10000 4.63 180 14:28 16.04.2021
220 Clear 29 1018 34 10000 3.09 200 13:58 16.04.2021
221 Clear 28 1018 34 10000 3.09 200 13:36 16.04.2021
222 Clear 28 1018 34 10000 3.09 200 13:18 16.04.2021
223 Clear 26 1019 38 10000 2.57 240 12:42 16.04.2021
224 Clear 26 1019 38 10000 2.57 240 12:21 16.04.2021
225 Clear 24 1018 49 10000 4.12 270 11:42 16.04.2021
226 Clear 23 1018 49 10000 4.12 270 11:21 16.04.2021
227 Clear 23 1018 56 10000 2.57 210 10:42 16.04.2021
228 Clear 22 1018 56 10000 2.57 210 10:23 16.04.2021
229 Clear 20 1018 63 10000 2.57 250 09:44 16.04.2021
230 Clear 20 1018 63 10000 2.57 250 09:23 16.04.2021
231 Clear 18 1018 72 10000 2.57 240 08:45 16.04.2021
232 Clear 17 1018 72 10000 2.57 240 08:24 16.04.2021
233 Clear 15 1018 87 10000 1.03 0 07:45 16.04.2021
234 Clear 15 1018 87 10000 1.03 0 07:25 16.04.2021
235 Clear 16 1017 82 10000 2.06 290 06:41 16.04.2021
236 Clear 16 1018 82 10000 2.06 0 05:32 16.04.2021
237 Clear 16 1018 77 10000 3.09 160 03:31 16.04.2021
238 Clear 19 1019 68 10000 3.6 170 00:46 16.04.2021
239 Clear 19 1019 68 10000 3.6 170 00:22 16.04.2021
240 Clear 19 1019 68 10000 5.14 150 23:57 15.04.2021
241 Clear 19 1019 68 10000 5.14 150 23:34 15.04.2021
242 Clear 19 1019 72 10000 4.12 140 22:50 15.04.2021
243 Clear 19 1019 72 10000 4.12 140 22:26 15.04.2021
244 Clear 18 1019 72 10000 8.23 150 21:47 15.04.2021
245 Clear 18 1019 72 10000 8.23 150 21:29 15.04.2021
246 Clear 19 1019 73 10000 8.75 160 20:58 15.04.2021
247 Clear 19 1019 73 10000 8.75 160 20:38 15.04.2021
248 Clear 19 1019 73 10000 8.75 160 20:18 15.04.2021
249 Clear 19 1019 68 10000 9.77 160 19:41 15.04.2021
250 Clear 19 1019 68 10000 9.77 160 19:21 15.04.2021
251 Clear 20 1018 60 10000 10.8 150 18:41 15.04.2021
252 Clear 21 1018 60 10000 10.8 150 18:20 15.04.2021
253 Clear 21 1018 57 10000 9.26 170 17:54 15.04.2021
254 Clear 21 1018 57 10000 9.26 170 17:33 15.04.2021
255 Clouds 22 1018 53 10000 8.23 200 16:45 15.04.2021
256 Clouds 23 1018 53 10000 8.23 200 16:25 15.04.2021
257 Clear 22 1018 53 10000 6.69 200 15:51 15.04.2021
258 Clear 22 1018 53 10000 6.69 200 15:28 15.04.2021
259 Clear 22 1018 53 10000 8.23 200 14:47 15.04.2021
260 Clear 22 1018 53 10000 8.23 200 14:28 15.04.2021
261 Clear 23 1019 53 10000 10.29 190 13:59 15.04.2021
262 Clear 23 1019 53 10000 10.29 190 13:40 15.04.2021
263 Clouds 22 1019 56 10000 7.72 190 12:59 15.04.2021
264 Clouds 22 1019 56 10000 7.72 190 12:38 15.04.2021
265 Clouds 22 1019 56 10000 7.72 190 12:20 15.04.2021
266 Clouds 22 1019 56 10000 7.72 190 12:20 15.04.2021
267 Clear 22 1019 60 10000 8.23 180 11:42 15.04.2021
268 Clear 21 1019 60 10000 8.23 180 11:22 15.04.2021
269 Clouds 20 1019 77 10000 6.69 210 10:48 15.04.2021
270 Clouds 20 1019 77 10000 6.69 210 10:26 15.04.2021
271 Clouds 19 1019 88 10000 6.69 210 09:37 15.04.2021
272 Clear 18 1018 94 10000 7.72 210 08:58 15.04.2021
273 Clear 18 1018 94 10000 7.72 210 08:38 15.04.2021
274 Clear 17 1017 88 10000 6.69 210 07:48 15.04.2021
275 Clear 17 1017 88 10000 6.69 210 07:22 15.04.2021
276 Clear 17 1016 94 10000 5.66 200 06:38 15.04.2021
277 Clear 17 1016 94 10000 5.66 200 06:20 15.04.2021
278 Clear 16 1017 88 10000 3.6 210 04:49 15.04.2021
279 Clear 17 1018 94 10000 5.66 200 00:24 15.04.2021
280 Clear 17 1018 94 10000 6.17 210 23:37 14.04.2021
281 Clear 17 1018 94 10000 6.17 210 23:18 14.04.2021
282 Clear 17 1019 88 10000 3.6 220 22:43 14.04.2021
283 Clear 18 1019 88 10000 3.6 220 22:22 14.04.2021
284 Clear 18 1019 88 10000 6.17 210 21:43 14.04.2021
285 Clear 18 1019 88 10000 6.17 210 21:23 14.04.2021
286 Clear 18 1019 88 10000 6.69 210 20:55 14.04.2021
287 Clear 18 1019 88 10000 6.69 210 20:32 14.04.2021
288 Clear 19 1018 82 10000 6.17 210 19:51 14.04.2021
289 Clear 19 1018 82 10000 6.17 210 19:20 14.04.2021
290 Clear 20 1018 77 10000 6.69 210 18:56 14.04.2021
291 Clear 20 1018 77 10000 6.69 210 18:22 14.04.2021
292 Clear 20 1018 73 10000 7.2 200 17:58 14.04.2021
293 Clear 21 1018 73 10000 7.2 200 17:25 14.04.2021
294 Clear 22 1018 68 10000 7.2 220 16:54 14.04.2021
295 Clear 24 1018 68 10000 7.2 220 16:26 14.04.2021
296 Clear 25 1018 68 10000 6.17 210 15:42 14.04.2021
297 Clear 24 1018 68 10000 6.17 210 15:24 14.04.2021
298 Clear 23 1018 60 10000 5.66 210 14:51 14.04.2021
299 Clear 23 1018 60 10000 5.66 210 14:27 14.04.2021
300 Clear 24 1019 60 10000 5.14 210 13:58 14.04.2021
301 Clear 24 1019 60 10000 5.14 210 13:37 14.04.2021
302 Clear 24 1019 50 10000 4.63 200 12:39 14.04.2021
303 Clear 22 1019 64 10000 4.12 210 11:44 14.04.2021
304 Clear 22 1019 64 10000 4.12 210 11:25 14.04.2021
305 Clear 24 1019 68 10000 3.6 210 10:56 14.04.2021
306 Clear 22 1019 68 10000 3.6 210 10:33 14.04.2021
307 Clear 20 1020 77 10000 6.17 210 09:43 14.04.2021
308 Clear 19 1020 77 10000 6.17 210 09:21 14.04.2021
309 Clear 19 1019 94 10000 5.66 200 08:47 14.04.2021
310 Clear 17 1019 94 10000 5.66 200 08:22 14.04.2021
311 Clear 17 1019 94 10000 5.66 210 07:27 14.04.2021
312 Clear 15 1019 100 10000 4.63 210 06:27 14.04.2021
313 Mist 16 1019 94 4000 4.63 200 05:23 14.04.2021
314 Clouds 18 1020 94 10000 5.66 210 01:54 14.04.2021
315 Clouds 17 1020 94 7000 5.66 210 00:49 14.04.2021
316 Clouds 17 1020 94 7000 5.66 210 00:27 14.04.2021
317 Fog 18 1020 94 2000 3.09 210 23:31 13.04.2021
318 Clouds 17 1020 94 10000 4.63 210 22:44 13.04.2021
319 Clouds 17 1020 94 10000 4.63 210 22:20 13.04.2021
320 Clouds 18 1020 94 10000 5.66 200 21:48 13.04.2021
321 Clouds 18 1020 94 10000 5.66 200 21:30 13.04.2021
322 Clouds 18 1019 94 10000 4.63 210 20:48 13.04.2021
323 Clouds 18 1019 94 10000 4.63 210 20:24 13.04.2021
324 Clear 18 1019 88 10000 4.12 180 19:57 13.04.2021
325 Clear 18 1019 88 10000 4.12 180 19:25 13.04.2021
326 Clear 20 1019 68 10000 4.12 180 18:48 13.04.2021
327 Clear 20 1019 68 10000 4.12 180 18:30 13.04.2021
328 Clear 21 1018 64 10000 4.12 200 17:40 13.04.2021
329 Clear 22 1018 64 10000 4.12 200 17:19 13.04.2021
330 Clear 23 1018 60 10000 2.57 180 16:45 13.04.2021
331 Clear 24 1018 60 10000 2.57 180 16:26 13.04.2021
332 Clear 25 1018 56 10000 4.63 190 15:55 13.04.2021
333 Clear 25 1018 56 10000 4.63 190 15:36 13.04.2021
334 Clear 25 1018 56 10000 6.17 150 14:54 13.04.2021
335 Clear 25 1018 56 10000 6.17 150 14:24 13.04.2021
336 Clear 28 1018 30 10000 3.09 240 13:53 13.04.2021
337 Clear 30 1018 30 10000 3.09 240 13:27 13.04.2021
338 Clear 29 1018 37 10000 1.54 0 12:58 13.04.2021
339 Clear 29 1018 37 10000 1.54 0 12:37 13.04.2021
340 Clear 27 1018 37 10000 1.54 0 12:18 13.04.2021
341 Clear 26 1018 44 10000 2.06 260 11:36 13.04.2021
342 Clear 23 1018 73 10000 1.54 0 10:57 13.04.2021
343 Clear 24 1018 73 10000 1.54 0 10:39 13.04.2021
344 Clear 21 1019 88 10000 2.57 190 10:18 13.04.2021
345 Clear 16 1018 94 10000 1.03 0 09:42 13.04.2021
346 Clear 16 1018 94 10000 1.03 0 09:18 13.04.2021
347 Clear 16 1018 94 10000 1.03 0 09:18 13.04.2021
348 Clouds 18 1018 94 6000 0.51 0 08:42 13.04.2021
349 Clear 15 1018 100 6000 1.54 0 08:21 13.04.2021
350 Clear 15 1018 100 6000 1.54 0 08:21 13.04.2021
351 Fog 16 1018 93 800 2.06 150 07:37 13.04.2021
352 Fog 15 1018 93 800 2.06 150 07:19 13.04.2021
353 Mist 14 1018 100 1500 0.51 0 06:18 13.04.2021
354 Clear 16 1019 94 10000 3.6 210 02:52 13.04.2021
355 Clear 16 1019 88 10000 3.6 210 01:28 13.04.2021
356 Clear 17 1020 94 10000 4.63 220 23:49 12.04.2021
357 Clear 17 1020 94 10000 4.63 220 23:29 12.04.2021
358 Clouds 17 1020 94 10000 5.66 210 22:45 12.04.2021
359 Clouds 17 1020 94 10000 5.66 210 22:25 12.04.2021
360 Clouds 17 1020 94 7000 6.69 210 21:47 12.04.2021
361 Clouds 17 1020 94 7000 6.69 210 21:24 12.04.2021
362 Clouds 18 1020 94 10000 6.17 210 20:46 12.04.2021
363 Clouds 18 1020 94 10000 6.17 210 20:26 12.04.2021
364 Clouds 18 1020 88 10000 5.66 210 19:58 12.04.2021
365 Clouds 18 1020 88 10000 5.66 210 19:39 12.04.2021
366 Clouds 18 1020 88 10000 5.66 210 19:20 12.04.2021
367 Clear 19 1020 77 10000 6.69 210 18:47 12.04.2021
368 Clear 20 1020 77 10000 6.69 210 18:29 12.04.2021
369 Clear 21 1019 64 10000 5.14 210 17:46 12.04.2021
370 Clear 21 1019 64 10000 5.14 210 17:25 12.04.2021
371 Clear 23 1019 53 10000 6.69 200 16:49 12.04.2021
372 Clear 24 1019 53 10000 6.69 200 16:29 12.04.2021
373 Clear 23 1019 56 10000 5.14 200 15:56 12.04.2021
374 Clear 23 1019 56 10000 5.14 200 15:33 12.04.2021
375 Clear 23 1020 60 10000 4.12 210 14:55 12.04.2021
376 Clear 23 1020 60 10000 4.12 210 14:37 12.04.2021
377 Clear 25 1020 50 10000 3.6 210 13:59 12.04.2021
378 Clear 24 1020 50 10000 3.6 210 13:39 12.04.2021
379 Clear 24 1020 50 10000 3.6 210 13:18 12.04.2021
380 Clear 24 1020 47 10000 2.57 190 12:38 12.04.2021
381 Clear 24 1020 47 10000 2.57 190 12:20 12.04.2021
382 Clear 22 1020 60 10000 2.57 220 11:27 12.04.2021
383 Clear 22 1020 68 10000 1.54 0 10:51 12.04.2021
384 Clear 21 1020 68 10000 1.54 0 10:28 12.04.2021
385 Clear 19 1020 88 10000 2.06 230 09:52 12.04.2021
386 Clear 17 1020 88 10000 2.06 230 09:23 12.04.2021
387 Clear 16 1019 94 10000 2.06 210 08:49 12.04.2021
388 Clear 16 1019 94 10000 2.57 220 07:53 12.04.2021
389 Clear 15 1019 94 10000 2.06 220 07:29 12.04.2021
390 Clear 15 1018 94 10000 0.51 0 06:39 12.04.2021
391 Clear 15 1018 94 10000 0.51 0 05:47 12.04.2021
392 Clear 16 1018 88 10000 3.6 220 02:27 12.04.2021
393 Clear 17 1018 94 10000 5.66 230 00:27 12.04.2021
394 Clear 17 1018 94 10000 5.66 230 23:55 11.04.2021
395 Clear 18 1018 94 10000 5.66 230 23:36 11.04.2021
396 Clear 17 1018 94 10000 5.66 230 23:18 11.04.2021
397 Clear 18 1019 94 10000 5.66 230 22:37 11.04.2021
398 Clear 18 1019 94 10000 5.66 230 22:18 11.04.2021
399 Clouds 19 1019 88 10000 5.66 220 21:41 11.04.2021
400 Clouds 19 1019 88 10000 5.66 220 21:23 11.04.2021
401 Clouds 19 1019 88 10000 6.17 210 20:42 11.04.2021
402 Clouds 19 1019 88 10000 6.17 210 20:23 11.04.2021
403 Clouds 19 1019 82 10000 7.2 210 19:41 11.04.2021
404 Clouds 20 1019 82 10000 7.2 210 19:20 11.04.2021
405 Clouds 20 1018 88 10000 7.2 200 18:55 11.04.2021
406 Clouds 20 1018 88 10000 7.2 200 18:37 11.04.2021
407 Clouds 20 1018 88 10000 7.2 200 18:18 11.04.2021
408 Clear 21 1018 73 10000 8.75 200 17:40 11.04.2021
409 Clear 21 1018 73 10000 8.75 200 17:19 11.04.2021
410 Clear 22 1018 64 10000 9.26 190 16:41 11.04.2021
411 Clear 22 1018 64 10000 9.26 190 16:20 11.04.2021
412 Clear 22 1018 60 10000 8.23 190 15:45 11.04.2021
413 Clear 22 1018 60 10000 8.23 190 15:24 11.04.2021
414 Clear 23 1018 64 10000 8.75 200 14:51 11.04.2021
415 Clear 23 1018 64 10000 8.75 200 14:51 11.04.2021
416 Clear 23 1018 64 10000 8.75 200 14:22 11.04.2021
417 Clear 22 1019 64 10000 9.26 190 13:42 11.04.2021
418 Clear 22 1019 64 10000 9.26 190 13:23 11.04.2021
419 Clear 22 1019 64 10000 8.75 190 12:40 11.04.2021
420 Clouds 21 1019 73 10000 8.23 180 12:20 11.04.2021
421 Clouds 21 1019 73 10000 8.23 180 11:45 11.04.2021
422 Clouds 21 1019 73 10000 8.23 180 11:20 11.04.2021
423 Clouds 21 1018 77 10000 7.2 180 10:45 11.04.2021
424 Clouds 21 1018 77 10000 7.2 180 10:23 11.04.2021
425 Clear 20 1018 82 10000 4.12 200 09:50 11.04.2021
426 Clear 19 1018 82 10000 4.12 200 09:29 11.04.2021
427 Clear 17 1017 88 10000 5.66 220 08:40 11.04.2021
428 Clear 16 1016 94 10000 3.6 220 07:54 11.04.2021
429 Clear 16 1016 94 10000 3.6 220 07:19 11.04.2021
430 Clear 16 1016 94 10000 4.12 210 05:55 11.04.2021
431 Clear 16 1016 94 10000 4.12 210 05:23 11.04.2021
432 Clear 16 1015 94 10000 3.6 200 04:51 11.04.2021
433 Clear 16 1015 94 10000 3.6 200 04:33 11.04.2021
434 Clear 17 1016 88 10000 4.63 200 01:27 11.04.2021
435 Clear 17 1016 88 10000 4.12 200 00:32 11.04.2021
436 Clear 17 1016 88 10000 4.63 200 23:46 10.04.2021
437 Clear 17 1016 88 10000 4.63 210 22:57 10.04.2021
438 Clear 17 1016 88 10000 4.63 210 22:28 10.04.2021
439 Clear 17 1015 82 10000 5.14 200 21:54 10.04.2021
440 Clear 17 1015 82 10000 5.14 200 21:32 10.04.2021
441 Clear 18 1015 82 10000 4.63 190 20:57 10.04.2021
442 Clear 18 1015 82 10000 4.63 190 20:37 10.04.2021
443 Clear 18 1015 77 10000 5.66 180 20:19 10.04.2021
444 Clear 19 1015 77 10000 5.66 180 19:42 10.04.2021
445 Clear 19 1015 77 10000 5.66 180 19:24 10.04.2021
446 Clear 19 1014 77 10000 5.66 180 18:42 10.04.2021
447 Clear 20 1014 77 10000 5.66 180 18:24 10.04.2021
448 Clear 20 1014 73 10000 5.66 170 17:36 10.04.2021
449 Clear 21 1014 68 10000 6.17 170 16:50 10.04.2021
450 Clear 22 1014 68 10000 6.17 170 16:25 10.04.2021
451 Clear 23 1014 64 10000 6.69 180 15:52 10.04.2021
452 Clear 23 1014 60 10000 5.66 180 14:57 10.04.2021
453 Clear 23 1014 60 10000 5.66 180 14:37 10.04.2021
454 Clear 25 1014 47 10000 3.6 200 13:59 10.04.2021
455 Clear 25 1014 47 10000 3.6 200 13:39 10.04.2021
456 Clear 25 1015 53 10000 2.06 250 12:48 10.04.2021
457 Clear 26 1015 53 10000 2.06 250 12:26 10.04.2021
458 Clear 23 1015 68 10000 1.03 0 11:46 10.04.2021
459 Clear 23 1015 68 10000 1.03 0 11:23 10.04.2021
460 Clear 22 1015 73 10000 1.54 0 10:52 10.04.2021
461 Clear 20 1015 82 10000 1.54 0 10:31 10.04.2021
462 Clear 19 1015 88 10000 2.57 210 09:45 10.04.2021
463 Clear 19 1015 88 10000 2.57 210 09:45 10.04.2021
464 Clear 18 1015 88 10000 2.57 210 09:19 10.04.2021
465 Clear 16 1015 94 10000 0.51 0 08:38 10.04.2021
466 Clear 16 1015 94 10000 0.51 0 08:18 10.04.2021
467 Clear 16 1015 94 10000 2.06 210 07:27 10.04.2021
468 Clear 16 1015 94 10000 3.09 230 06:49 10.04.2021
469 Clouds 16 1015 94 10000 3.09 220 05:54 10.04.2021
470 Clear 16 1015 94 10000 2.57 210 03:46 10.04.2021
471 Clear 17 1016 94 10000 3.09 220 02:50 10.04.2021
472 Clear 17 1016 94 10000 3.09 220 02:18 10.04.2021
473 Clouds 18 1016 94 10000 5.66 220 00:40 10.04.2021
474 Clouds 18 1016 88 10000 4.63 220 23:59 09.04.2021
475 Clouds 18 1016 88 10000 4.63 220 23:36 09.04.2021
476 Clouds 19 1016 88 10000 6.17 210 22:57 09.04.2021
477 Clouds 19 1016 88 10000 6.17 210 22:37 09.04.2021
478 Clouds 19 1016 88 10000 7.72 200 21:55 09.04.2021
479 Clouds 19 1016 88 10000 7.72 200 21:37 09.04.2021
480 Clouds 19 1016 88 10000 7.72 200 21:18 09.04.2021
481 Clouds 19 1016 82 10000 7.72 190 20:40 09.04.2021
482 Clouds 19 1016 82 10000 7.72 190 20:21 09.04.2021
483 Clear 19 1016 82 10000 7.2 190 19:43 09.04.2021
484 Clear 20 1016 82 10000 7.2 190 19:23 09.04.2021
485 Clear 20 1016 77 10000 6.17 190 18:50 09.04.2021
486 Clear 21 1016 77 10000 6.17 190 18:29 09.04.2021
487 Clear 21 1016 68 10000 7.72 190 17:52 09.04.2021
488 Clear 22 1016 68 10000 7.72 190 17:33 09.04.2021
489 Clear 23 1016 60 10000 8.75 190 16:55 09.04.2021
490 Clear 23 1016 60 10000 8.75 190 16:32 09.04.2021
491 Clear 23 1016 56 10000 8.75 190 15:50 09.04.2021
492 Clear 23 1016 56 10000 8.75 190 15:26 09.04.2021
493 Clear 24 1017 56 10000 8.23 200 14:51 09.04.2021
494 Clear 24 1017 56 10000 8.23 200 14:30 09.04.2021
495 Clear 24 1018 56 10000 7.72 190 13:51 09.04.2021
496 Clear 24 1018 56 10000 7.72 190 13:23 09.04.2021
497 Clear 22 1018 60 10000 9.26 190 12:51 09.04.2021
498 Clear 23 1018 60 10000 9.26 190 12:32 09.04.2021
499 Clear 22 1019 60 10000 8.75 180 11:45 09.04.2021
500 Clear 22 1019 60 10000 8.75 180 11:22 09.04.2021
501 Clear 22 1019 64 10000 8.75 180 10:46 09.04.2021
502 Clear 21 1019 64 10000 8.75 180 10:20 09.04.2021
503 Clear 20 1019 68 10000 8.23 180 09:30 09.04.2021
504 Clear 18 1019 77 10000 5.14 210 08:57 09.04.2021
505 Clear 18 1019 77 10000 5.14 210 08:37 09.04.2021
506 Clear 17 1018 82 10000 5.14 190 07:36 09.04.2021
507 Clear 17 1018 82 10000 6.17 190 06:34 09.04.2021
508 Clear 17 1018 82 10000 5.14 210 05:53 09.04.2021
509 Clear 17 1019 82 10000 5.66 210 03:50 09.04.2021
510 Clear 17 1020 88 10000 3.6 210 01:32 09.04.2021
511 Clear 17 1020 88 10000 4.12 220 00:37 09.04.2021
512 Clear 17 1020 88 10000 4.12 220 00:18 09.04.2021
513 Clear 18 1020 82 10000 5.14 200 23:18 08.04.2021
514 Clear 18 1021 82 10000 5.66 190 22:42 08.04.2021
515 Clear 18 1021 82 10000 5.66 190 22:21 08.04.2021
516 Clear 17 1021 82 10000 6.17 200 21:55 08.04.2021
517 Clear 17 1021 82 10000 6.17 200 21:36 08.04.2021
518 Clear 18 1021 82 10000 6.17 200 21:18 08.04.2021
519 Clear 18 1020 77 10000 5.66 200 20:47 08.04.2021
520 Clear 18 1020 77 10000 5.66 200 20:25 08.04.2021
521 Clear 18 1020 77 10000 6.17 190 19:45 08.04.2021
522 Clear 18 1020 77 10000 6.17 190 19:19 08.04.2021
523 Clear 20 1020 68 10000 7.72 200 18:46 08.04.2021
524 Clear 20 1020 68 10000 7.72 200 18:21 08.04.2021
525 Clear 21 1020 64 10000 7.72 180 17:49 08.04.2021
526 Clear 22 1020 64 10000 7.72 180 17:24 08.04.2021
527 Clear 21 1020 64 10000 8.75 180 16:51 08.04.2021
528 Clear 21 1020 64 10000 8.75 180 16:31 08.04.2021
529 Clear 22 1020 60 10000 8.23 180 15:48 08.04.2021
530 Clear 23 1020 60 10000 8.23 180 15:28 08.04.2021
531 Clear 23 1020 60 10000 7.72 180 14:46 08.04.2021
532 Clear 23 1020 60 10000 7.72 180 14:27 08.04.2021
533 Clear 22 1020 64 10000 7.2 180 13:57 08.04.2021
534 Clear 22 1020 64 10000 7.2 180 13:39 08.04.2021
535 Clear 22 1020 64 10000 7.2 180 13:21 08.04.2021
536 Clear 22 1021 64 10000 8.23 180 12:38 08.04.2021
537 Clear 21 1021 64 10000 8.23 180 12:18 08.04.2021
538 Clear 21 1021 68 10000 6.69 200 11:43 08.04.2021
539 Clear 20 1021 77 10000 5.66 200 10:59 08.04.2021
540 Clear 20 1021 77 10000 5.66 200 10:36 08.04.2021
541 Clear 19 1021 77 10000 5.66 200 10:18 08.04.2021
542 Clear 19 1020 77 10000 5.14 210 09:41 08.04.2021
543 Clear 17 1019 94 10000 4.63 210 08:46 08.04.2021
544 Clear 16 1019 94 10000 4.63 210 08:28 08.04.2021
545 Clouds 16 1020 94 10000 6.17 210 07:57 08.04.2021
546 Clouds 16 1020 94 10000 6.17 210 07:35 08.04.2021
547 Clear 16 1019 88 10000 5.66 220 03:54 08.04.2021
548 Clear 16 1019 94 10000 5.14 220 01:19 08.04.2021
549 Clear 17 1019 88 10000 5.14 220 00:19 08.04.2021
550 Clear 17 1019 94 10000 4.63 210 23:41 07.04.2021
551 Clear 17 1019 88 10000 5.66 220 23:21 07.04.2021
552 Clear 17 1019 88 10000 5.66 220 22:50 07.04.2021
553 Clear 17 1019 88 10000 5.66 220 22:32 07.04.2021
554 Clear 18 1020 88 10000 6.69 210 21:47 07.04.2021
555 Clear 18 1020 88 10000 6.69 210 21:26 07.04.2021
556 Clear 18 1020 88 10000 8.23 210 20:47 07.04.2021
557 Clear 18 1020 88 10000 8.23 210 20:21 07.04.2021
558 Clear 19 1019 82 10000 8.75 200 19:46 07.04.2021
559 Clear 19 1019 82 10000 8.75 200 19:26 07.04.2021
560 Clear 20 1019 68 10000 8.75 190 18:49 07.04.2021
561 Clear 20 1019 68 10000 8.75 190 18:21 07.04.2021
562 Clouds 21 1020 78 10000 1.34 0 17:56 07.04.2021
563 Clear 21 1018 64 10000 8.75 190 17:37 07.04.2021
564 Clear 21 1018 64 10000 8.75 200 16:58 07.04.2021
565 Clear 21 1018 64 10000 8.75 200 16:38 07.04.2021
566 Clear 22 1018 64 10000 8.75 200 16:19 07.04.2021
567 Clear 22 1018 64 10000 8.75 200 16:19 07.04.2021
568 Clear 22 1018 60 10000 7.2 190 15:40 07.04.2021
569 Clear 22 1018 60 10000 6.69 200 14:58 07.04.2021
570 Clear 22 1018 60 10000 6.69 200 14:32 07.04.2021
571 Clear 23 1019 56 10000 4.63 210 13:53 07.04.2021
572 Clear 23 1019 56 10000 4.63 210 13:53 07.04.2021
573 Clear 23 1019 56 10000 4.63 210 13:27 07.04.2021
574 Clear 22 1019 60 10000 4.63 220 12:57 07.04.2021
575 Clear 22 1019 60 10000 4.63 220 12:25 07.04.2021
576 Clear 21 1019 68 10000 3.09 220 11:59 07.04.2021
577 Clear 21 1019 68 10000 3.09 220 11:29 07.04.2021
578 Clear 21 1019 68 10000 3.09 220 11:29 07.04.2021
579 Clear 21 1019 72 10000 4.12 220 10:59 07.04.2021
580 Clear 20 1019 72 10000 4.12 220 10:30 07.04.2021
581 Clear 18 1018 88 10000 3.6 220 09:46 07.04.2021
582 Clear 18 1018 88 10000 3.6 220 09:27 07.04.2021
583 Clear 17 1018 94 10000 4.63 230 08:47 07.04.2021
584 Clear 16 1018 94 10000 4.63 230 08:23 07.04.2021
585 Clear 16 1017 94 10000 5.14 210 07:44 07.04.2021
586 Clear 16 1017 94 10000 5.14 210 07:25 07.04.2021
587 Clear 16 1017 88 10000 4.12 230 06:33 07.04.2021
588 Clouds 16 1017 94 7000 5.66 220 04:23 07.04.2021
589 Clear 16 1017 94 10000 4.12 220 00:45 07.04.2021
590 Clear 17 1017 88 10000 5.14 220 23:47 06.04.2021
591 Clear 17 1017 88 10000 5.14 220 23:22 06.04.2021
592 Clear 17 1017 88 10000 4.12 210 22:48 06.04.2021
593 Clear 17 1017 88 10000 4.12 210 22:20 06.04.2021
594 Clear 17 1016 82 10000 2.06 190 21:43 06.04.2021
595 Clear 18 1016 82 10000 2.06 190 21:23 06.04.2021
596 Clear 18 1016 82 10000 3.6 210 20:55 06.04.2021
597 Clear 18 1016 82 10000 3.6 210 20:25 06.04.2021
598 Clear 19 1016 77 10000 2.57 220 19:58 06.04.2021
599 Clear 19 1016 77 10000 2.57 220 19:38 06.04.2021
600 Clear 19 1016 77 10000 2.57 220 19:19 06.04.2021
601 Clear 21 1016 56 10000 5.14 230 18:41 06.04.2021
602 Clear 22 1016 56 10000 5.14 230 18:19 06.04.2021
603 Clear 23 1016 46 10000 5.66 200 17:44 06.04.2021
604 Clear 24 1016 46 10000 5.66 200 17:19 06.04.2021
605 Clear 24 1016 41 10000 4.12 170 16:46 06.04.2021
606 Clear 25 1016 41 10000 4.12 170 16:26 06.04.2021
607 Clear 25 1016 38 10000 4.63 200 15:27 06.04.2021
608 Clear 25 1016 41 10000 3.6 220 14:47 06.04.2021
609 Clear 25 1016 41 10000 3.6 220 14:28 06.04.2021
610 Clear 24 1017 43 10000 3.09 180 13:47 06.04.2021
611 Clear 24 1017 43 10000 3.09 180 13:27 06.04.2021
612 Clear 24 1018 49 10000 4.63 180 12:58 06.04.2021
613 Clear 23 1018 49 10000 4.63 180 12:37 06.04.2021
614 Clear 23 1018 49 10000 4.63 180 12:18 06.04.2021
615 Clear 23 1018 49 10000 2.57 200 11:43 06.04.2021
616 Clear 22 1018 49 10000 2.57 200 11:20 06.04.2021
617 Clear 21 1018 60 10000 2.06 210 10:44 06.04.2021
618 Clear 20 1018 60 10000 2.06 210 10:22 06.04.2021
619 Clear 19 1018 63 10000 2.06 170 09:45 06.04.2021
620 Clear 18 1018 72 10000 3.09 230 09:25 06.04.2021
621 Clear 16 1018 82 10000 2.06 220 08:34 06.04.2021
622 Clear 15 1017 82 10000 3.09 260 07:32 06.04.2021
623 Clear 15 1017 82 10000 2.57 250 06:54 06.04.2021
624 Clear 15 1017 82 10000 1.03 260 04:52 06.04.2021
625 Clear 16 1019 77 10000 5.66 150 01:34 06.04.2021
626 Clear 16 1019 82 10000 7.2 160 00:42 06.04.2021
627 Clear 16 1019 82 10000 7.2 160 00:20 06.04.2021
628 Clouds 17 1019 72 10000 6.69 150 23:42 05.04.2021
629 Clouds 17 1019 72 10000 6.69 150 23:18 05.04.2021
630 Clouds 17 1019 77 10000 8.23 150 22:41 05.04.2021
631 Clouds 17 1019 77 10000 8.23 150 22:22 05.04.2021
632 Clouds 17 1019 77 10000 7.72 160 21:39 05.04.2021
633 Clouds 17 1019 77 10000 7.72 160 21:19 05.04.2021
634 Clouds 17 1019 77 10000 9.26 170 20:42 05.04.2021
635 Clouds 17 1019 77 10000 9.26 170 20:22 05.04.2021
636 Clouds 17 1019 77 10000 8.23 180 19:39 05.04.2021
637 Clouds 17 1019 77 10000 8.23 180 19:19 05.04.2021
638 Clouds 17 1019 68 10000 8.23 190 18:42 05.04.2021
639 Clouds 17 1019 68 10000 8.23 190 18:20 05.04.2021
640 Clouds 18 1019 68 10000 9.77 180 17:47 05.04.2021
641 Clouds 18 1019 68 10000 9.77 180 17:24 05.04.2021
642 Clouds 18 1019 68 10000 11.83 180 16:56 05.04.2021
643 Clouds 18 1019 68 10000 11.83 180 16:37 05.04.2021
644 Clouds 18 1019 68 10000 11.83 180 16:18 05.04.2021
645 Clouds 19 1019 68 10000 11.83 180 15:40 05.04.2021
646 Clouds 19 1019 68 10000 11.83 180 15:21 05.04.2021
647 Clouds 19 1020 68 10000 12.35 180 14:36 05.04.2021
648 Clouds 19 1020 68 10000 12.35 180 14:36 05.04.2021
649 Clouds 19 1020 68 10000 10.29 180 13:54 05.04.2021
650 Clouds 19 1020 68 10000 10.29 180 13:29 05.04.2021
651 Clouds 19 1020 68 10000 9.77 180 12:47 05.04.2021
652 Clouds 19 1020 68 10000 9.77 180 12:47 05.04.2021
653 Clouds 19 1020 68 10000 9.77 180 12:26 05.04.2021
654 Clouds 19 1020 73 10000 10.29 190 11:52 05.04.2021
655 Clouds 19 1020 73 10000 10.29 190 11:30 05.04.2021
656 Clouds 19 1020 77 10000 7.2 200 10:56 05.04.2021
657 Clouds 19 1020 77 10000 7.2 200 10:36 05.04.2021
658 Clouds 19 1019 82 10000 5.66 190 09:49 05.04.2021
659 Clouds 19 1019 82 10000 5.66 190 09:26 05.04.2021
660 Clouds 17 1019 94 10000 5.14 200 08:54 05.04.2021
661 Clouds 17 1019 94 10000 5.14 200 08:36 05.04.2021
662 Clouds 17 1019 94 10000 5.14 200 08:18 05.04.2021
663 Clouds 17 1019 88 10000 4.63 210 07:33 05.04.2021
664 Clear 17 1018 94 10000 5.14 210 03:58 05.04.2021
665 Clear 18 1018 88 10000 5.14 200 00:57 05.04.2021
666 Clear 18 1018 88 10000 5.14 200 00:20 05.04.2021
667 Clear 18 1019 88 10000 7.72 190 23:37 04.04.2021
668 Clear 18 1019 88 10000 7.72 190 23:18 04.04.2021
669 Clouds 18 1019 88 10000 8.75 180 22:45 04.04.2021
670 Clouds 18 1019 88 10000 8.75 180 22:25 04.04.2021
671 Clouds 19 1019 88 10000 8.23 180 21:23 04.04.2021
672 Clouds 20 1019 88 10000 7.2 190 20:47 04.04.2021
673 Clouds 20 1019 88 10000 7.2 190 20:23 04.04.2021
674 Clouds 21 1019 83 10000 7.2 190 19:41 04.04.2021
675 Clouds 21 1019 83 10000 7.2 190 19:20 04.04.2021
676 Clouds 21 1018 73 10000 7.2 170 18:56 04.04.2021
677 Clouds 21 1018 73 10000 7.2 170 18:36 04.04.2021
678 Clouds 21 1018 73 10000 7.2 170 18:18 04.04.2021
679 Clouds 22 1018 68 10000 6.17 170 17:25 04.04.2021
680 Clouds 23 1018 68 10000 5.14 180 16:58 04.04.2021
681 Clouds 23 1018 68 10000 5.14 180 16:40 04.04.2021
682 Clouds 22 1019 78 10000 6.69 200 15:56 04.04.2021
683 Clouds 22 1019 78 10000 6.69 200 15:32 04.04.2021
684 Clouds 23 1019 73 10000 4.63 190 14:42 04.04.2021
685 Clouds 23 1019 73 10000 4.63 190 14:24 04.04.2021
686 Clouds 23 1019 73 10000 4.63 190 14:24 04.04.2021
687 Clouds 22 1019 73 10000 4.12 200 13:28 04.04.2021
688 Clouds 23 1019 73 10000 5.14 200 12:52 04.04.2021
689 Clouds 23 1019 73 10000 5.14 200 12:28 04.04.2021
690 Clouds 22 1019 73 10000 4.12 200 11:51 04.04.2021
691 Clouds 22 1019 73 10000 4.12 200 11:31 04.04.2021
692 Clouds 22 1019 94 10000 2.57 170 10:55 04.04.2021
693 Clouds 21 1019 94 10000 2.57 170 10:32 04.04.2021
694 Clouds 20 1018 94 10000 1.54 160 09:52 04.04.2021
695 Clouds 19 1017 94 10000 1.54 0 09:23 04.04.2021
696 Mist 19 1017 94 3000 1.54 0 08:49 04.04.2021
697 Mist 18 1017 94 3000 1.54 0 08:31 04.04.2021
698 Mist 17 1017 100 4000 1.54 140 07:21 04.04.2021
699 Clouds 18 1016 94 10000 1.54 0 06:33 04.04.2021
700 Clouds 18 1017 94 10000 2.06 160 03:25 04.04.2021
701 Clouds 17 1018 94 10000 4.12 160 01:21 04.04.2021
702 Clear 17 1018 94 10000 2.06 140 00:19 04.04.2021
703 Clear 17 1018 88 10000 2.57 150 23:47 03.04.2021
704 Clear 17 1018 88 10000 2.57 150 23:18 03.04.2021
705 Clear 18 1018 82 10000 2.57 120 22:48 03.04.2021
706 Clear 18 1018 82 10000 2.57 120 22:19 03.04.2021
707 Clear 18 1019 82 10000 3.6 120 21:47 03.04.2021
708 Clear 18 1019 82 10000 3.6 120 21:47 03.04.2021
709 Clear 18 1019 82 10000 3.6 120 21:23 03.04.2021
710 Clear 18 1018 77 10000 3.09 140 20:49 03.04.2021
711 Clear 19 1018 77 10000 3.09 140 20:27 03.04.2021
712 Clear 19 1018 68 10000 3.09 130 19:50 03.04.2021
713 Clear 20 1018 68 10000 3.09 130 19:24 03.04.2021
714 Clear 22 1017 49 10000 3.6 140 18:48 03.04.2021
715 Clear 22 1017 49 10000 3.6 140 18:30 03.04.2021
716 Clear 24 1017 31 10000 3.09 350 17:51 03.04.2021
717 Clear 26 1017 31 10000 3.09 350 17:25 03.04.2021
718 Clear 25 1018 27 10000 4.12 320 16:51 03.04.2021
719 Clear 25 1018 27 10000 4.12 320 16:21 03.04.2021
720 Clear 26 1018 25 10000 4.63 320 15:50 03.04.2021
721 Clear 26 1018 25 10000 4.63 320 15:22 03.04.2021
722 Clear 25 1018 31 10000 5.14 320 14:44 03.04.2021
723 Clear 25 1018 31 10000 5.14 320 14:44 03.04.2021
724 Clear 24 1018 31 10000 5.14 320 14:23 03.04.2021
725 Clear 24 1019 41 10000 5.14 320 13:51 03.04.2021
726 Clear 24 1019 41 10000 5.14 320 13:24 03.04.2021
727 Clear 23 1019 43 10000 5.66 310 12:56 03.04.2021
728 Clear 23 1019 43 10000 5.66 310 12:32 03.04.2021
729 Clear 23 1020 46 10000 5.66 320 11:39 03.04.2021
730 Clear 23 1020 46 10000 5.66 320 11:19 03.04.2021
731 Clear 22 1019 49 10000 5.14 330 10:43 03.04.2021
732 Clear 21 1019 49 10000 5.14 330 10:22 03.04.2021
733 Clear 19 1019 59 10000 3.09 330 09:29 03.04.2021
734 Clear 18 1019 77 10000 1.03 0 08:58 03.04.2021
735 Clear 16 1019 77 10000 1.03 0 08:31 03.04.2021
736 Clear 13 1019 82 10000 2.57 30 07:29 03.04.2021
737 Clear 14 1019 87 10000 1.54 320 06:50 03.04.2021
738 Clear 14 1019 82 10000 0.51 300 03:53 03.04.2021
739 Clear 15 1019 77 10000 1.03 210 02:53 03.04.2021
740 Clear 15 1019 77 10000 1.03 210 02:27 03.04.2021
741 Clear 17 1019 72 10000 2.06 240 00:31 03.04.2021
742 Clear 17 1019 67 10000 3.09 240 23:55 02.04.2021
743 Clear 17 1019 67 10000 3.09 240 23:29 02.04.2021
744 Clear 18 1020 63 10000 3.6 230 22:56 02.04.2021
745 Clear 17 1020 63 10000 3.6 230 22:37 02.04.2021
746 Clear 17 1020 68 10000 4.12 230 21:56 02.04.2021
747 Clear 17 1020 68 10000 4.12 230 21:38 02.04.2021
748 Clear 17 1020 68 10000 4.12 230 21:18 02.04.2021
749 Clear 18 1019 68 10000 3.6 220 20:38 02.04.2021
750 Clear 18 1019 68 10000 3.6 220 20:38 02.04.2021
751 Clear 18 1019 68 10000 3.6 220 20:18 02.04.2021
752 Clear 18 1019 63 10000 3.09 170 19:40 02.04.2021
753 Clear 18 1019 63 10000 3.09 170 19:22 02.04.2021
754 Clear 19 1019 56 10000 5.14 180 18:43 02.04.2021
755 Clear 20 1019 56 10000 5.14 180 18:23 02.04.2021
756 Clear 20 1019 56 10000 5.14 180 17:54 02.04.2021
757 Clear 21 1019 56 10000 5.14 180 17:22 02.04.2021
758 Clouds 22 1019 53 10000 5.66 180 16:24 02.04.2021
759 Clear 22 1019 53 10000 5.66 200 15:43 02.04.2021
760 Clear 22 1019 53 10000 5.66 200 15:19 02.04.2021
761 Clear 21 1019 56 10000 4.12 190 14:33 02.04.2021
762 Clouds 21 1020 49 10000 3.09 240 13:50 02.04.2021
763 Clouds 21 1020 49 10000 3.09 240 13:27 02.04.2021
764 Clear 20 1020 52 10000 3.6 210 12:53 02.04.2021
765 Clear 21 1020 52 10000 3.6 210 12:21 02.04.2021
766 Clear 20 1020 60 10000 2.57 230 11:59 02.04.2021
767 Clear 20 1020 60 10000 2.57 230 11:38 02.04.2021
768 Clear 21 1020 56 10000 3.09 190 11:18 02.04.2021
769 Clear 21 1020 56 10000 3.09 190 10:42 02.04.2021
770 Clear 19 1020 63 10000 2.06 190 10:20 02.04.2021
771 Clear 18 1019 77 10000 2.06 230 09:39 02.04.2021
772 Clear 17 1019 77 10000 2.06 230 09:20 02.04.2021
773 Clear 16 1019 82 10000 2.57 230 08:45 02.04.2021
774 Clear 16 1019 82 10000 2.57 230 08:25 02.04.2021
775 Clear 16 1018 88 10000 2.57 240 07:20 02.04.2021
776 Clear 16 1018 82 10000 3.09 230 06:31 02.04.2021
777 Clear 16 1018 77 10000 3.6 230 03:25 02.04.2021
778 Clear 17 1018 67 10000 4.12 230 01:31 02.04.2021
779 Clear 17 1018 67 10000 5.14 190 00:38 02.04.2021
780 Clear 17 1018 67 10000 6.69 190 23:44 01.04.2021
781 Clear 17 1018 67 10000 6.69 190 23:26 01.04.2021
782 Clear 17 1018 67 10000 6.69 190 22:22 01.04.2021
783 Clouds 17 1018 72 10000 6.17 200 21:59 01.04.2021
784 Clouds 17 1018 72 10000 6.17 200 21:41 01.04.2021
785 Clouds 17 1018 72 10000 6.17 200 21:22 01.04.2021
786 Clouds 17 1018 72 10000 8.23 190 20:40 01.04.2021
787 Clouds 17 1018 72 10000 8.23 190 20:21 01.04.2021
788 Clouds 17 1017 67 10000 8.23 180 19:41 01.04.2021
789 Clouds 17 1017 67 10000 8.23 180 19:18 01.04.2021
790 Clear 19 1018 59 10000 10.29 190 18:43 01.04.2021
791 Clear 19 1018 59 10000 10.29 190 18:18 01.04.2021
792 Clear 20 1018 52 10000 10.29 180 17:39 01.04.2021
793 Clear 20 1018 52 10000 10.29 180 17:21 01.04.2021
794 Clear 21 1017 52 10000 9.26 180 16:47 01.04.2021
795 Clear 21 1017 52 10000 9.26 180 16:18 01.04.2021
796 Clear 21 1017 49 10000 8.75 190 15:39 01.04.2021
797 Clear 21 1017 49 10000 8.75 190 15:19 01.04.2021
798 Clear 21 1018 49 10000 7.72 180 14:39 01.04.2021
799 Clear 21 1018 49 10000 7.72 180 14:20 01.04.2021
800 Clear 21 1019 49 10000 8.75 190 13:48 01.04.2021
801 Clear 21 1019 49 10000 8.75 190 13:27 01.04.2021
802 Clear 21 1019 49 10000 7.2 180 12:47 01.04.2021
803 Clear 21 1019 49 10000 7.2 180 12:28 01.04.2021
804 Clear 21 1019 52 10000 7.72 190 11:45 01.04.2021
805 Clear 20 1019 52 10000 7.72 190 11:19 01.04.2021
806 Clouds 20 1020 59 10000 7.2 180 10:47 01.04.2021
807 Clouds 19 1020 59 10000 7.2 180 10:29 01.04.2021
808 Clouds 18 1020 63 10000 7.72 170 09:41 01.04.2021
809 Clouds 18 1020 63 10000 7.72 170 09:22 01.04.2021
810 Clouds 18 1019 72 10000 6.69 170 08:33 01.04.2021
811 Clouds 16 1019 77 10000 6.17 190 07:24 01.04.2021
812 Clouds 16 1018 82 10000 3.6 180 06:58 01.04.2021
813 Clouds 16 1018 82 10000 3.6 180 06:30 01.04.2021
814 Clouds 16 1018 88 10000 4.12 180 03:26 01.04.2021
815 Clouds 16 1019 88 10000 3.09 200 00:38 01.04.2021
816 Clouds 16 1018 88 10000 3.09 200 23:44 31.03.2021
817 Clouds 16 1018 88 10000 2.57 160 22:58 31.03.2021
818 Clouds 16 1018 88 10000 2.57 160 22:39 31.03.2021
819 Clouds 16 1018 88 10000 2.57 160 22:20 31.03.2021
820 Clouds 17 1018 77 10000 2.57 180 21:44 31.03.2021
821 Clouds 17 1018 77 10000 2.57 180 21:20 31.03.2021
822 Clouds 17 1017 77 10000 2.06 160 20:42 31.03.2021
823 Clouds 18 1017 77 10000 2.06 160 20:23 31.03.2021
824 Clouds 18 1017 77 10000 2.06 160 20:23 31.03.2021
825 Clouds 18 1016 77 10000 1.54 140 19:46 31.03.2021
826 Clouds 18 1016 77 10000 1.54 140 19:26 31.03.2021
827 Clouds 18 1016 88 10000 2.06 120 18:59 31.03.2021
828 Clouds 18 1016 88 10000 2.06 120 18:41 31.03.2021
829 Rain 19 1016 88 10000 3.09 120 17:53 31.03.2021
830 Rain 18 1016 88 10000 3.09 120 17:34 31.03.2021
831 Rain 18 1016 88 9000 4.63 180 16:57 31.03.2021
832 Rain 18 1016 88 9000 4.63 180 16:37 31.03.2021
833 Rain 18 1016 88 9000 4.63 180 16:19 31.03.2021
834 Clouds 19 1016 72 10000 5.66 190 15:50 31.03.2021
835 Rain 20 1016 72 10000 5.66 190 15:19 31.03.2021
836 Rain 21 1016 73 10000 2.06 0 14:43 31.03.2021
837 Clouds 21 1016 73 10000 2.06 0 14:20 31.03.2021
838 Clouds 19 1016 88 10000 2.57 320 13:41 31.03.2021
839 Clouds 19 1017 94 8000 3.6 300 12:42 31.03.2021
840 Clouds 19 1017 94 8000 3.6 300 12:21 31.03.2021
841 Rain 19 1017 94 6000 3.6 330 11:51 31.03.2021
842 Rain 19 1017 94 6000 3.6 330 11:21 31.03.2021
843 Rain 18 1016 94 6000 3.6 350 10:47 31.03.2021
844 Rain 18 1016 94 6000 3.6 350 10:25 31.03.2021
845 Rain 18 1016 94 6000 3.6 350 10:25 31.03.2021
846 Rain 18 1016 94 10000 3.6 340 09:42 31.03.2021
847 Rain 18 1016 82 3000 4.12 30 08:55 31.03.2021
848 Rain 18 1016 82 3000 4.12 30 08:37 31.03.2021
849 Drizzle 18 1015 82 10000 5.66 30 07:52 31.03.2021
850 Rain 17 1014 88 10000 6.17 10 06:46 31.03.2021
851 Clouds 17 1015 88 10000 1.03 290 03:51 31.03.2021
852 Clear 16 1015 88 10000 3.09 30 01:43 31.03.2021
853 Clear 16 1015 94 10000 2.57 20 00:49 31.03.2021
854 Clear 16 1015 94 10000 2.57 20 00:21 31.03.2021
855 Clear 16 1016 94 10000 1.54 300 23:41 30.03.2021
856 Clear 17 1015 88 10000 3.09 320 22:59 30.03.2021
857 Clear 17 1015 88 10000 3.09 320 22:40 30.03.2021
858 Clear 17 1015 88 10000 3.09 320 22:40 30.03.2021
859 Clear 17 1015 88 10000 3.09 320 22:21 30.03.2021
860 Clear 17 1015 88 10000 3.6 330 21:49 30.03.2021
861 Clear 17 1015 88 10000 3.6 330 21:21 30.03.2021
862 Clear 18 1014 77 10000 4.12 320 20:53 30.03.2021
863 Clear 18 1014 77 10000 4.12 320 20:53 30.03.2021
864 Clear 18 1014 77 10000 4.12 320 20:28 30.03.2021
865 Clear 18 1014 77 10000 5.14 310 19:51 30.03.2021
866 Clear 19 1014 77 10000 5.14 310 19:27 30.03.2021
867 Clear 20 1014 64 10000 7.2 320 18:40 30.03.2021
868 Clear 21 1014 64 10000 7.2 320 18:20 30.03.2021
869 Clear 22 1013 60 10000 6.69 330 17:42 30.03.2021
870 Clear 21 1013 60 10000 6.69 330 17:23 30.03.2021
871 Clear 23 1013 53 10000 5.66 320 16:45 30.03.2021
872 Clear 22 1013 53 10000 5.66 320 16:24 30.03.2021
873 Clear 24 1013 49 10000 5.14 330 15:21 30.03.2021
874 Clear 23 1014 49 10000 5.66 310 14:57 30.03.2021
875 Clear 23 1014 49 10000 5.66 310 14:22 30.03.2021
876 Clear 22 1015 60 10000 5.66 320 13:59 30.03.2021
877 Clear 22 1015 60 10000 5.66 320 13:38 30.03.2021
878 Clouds 23 1015 64 10000 6.17 310 12:49 30.03.2021
879 Clouds 23 1015 64 10000 6.17 310 12:29 30.03.2021
880 Clouds 21 1015 68 10000 5.14 340 11:59 30.03.2021
881 Clouds 22 1015 68 10000 5.14 340 11:24 30.03.2021
882 Clouds 21 1015 72 10000 5.66 340 10:47 30.03.2021
883 Clouds 20 1015 72 10000 5.66 340 10:29 30.03.2021
884 Clouds 19 1014 77 10000 4.63 360 09:57 30.03.2021
885 Clouds 19 1014 77 10000 4.63 360 09:37 30.03.2021
886 Clouds 19 1014 77 10000 4.63 360 09:18 30.03.2021
887 Clouds 18 1014 88 10000 5.14 10 08:39 30.03.2021
888 Clouds 17 1014 88 10000 5.14 330 07:52 30.03.2021
889 Clouds 17 1014 88 10000 5.14 330 07:22 30.03.2021
890 Clouds 17 1013 94 10000 5.14 340 05:53 30.03.2021
891 Clouds 17 1013 94 10000 5.14 340 05:19 30.03.2021
892 Clear 17 1013 82 10000 3.09 340 00:58 30.03.2021
893 Clear 17 1013 72 10000 2.06 310 23:51 29.03.2021
894 Clear 18 1013 63 10000 1.54 340 22:55 29.03.2021
895 Clear 18 1013 63 10000 1.54 340 22:33 29.03.2021
896 Clear 19 1013 63 10000 1.54 140 21:52 29.03.2021
897 Clear 19 1013 63 10000 1.54 140 21:31 29.03.2021
898 Clear 18 1013 63 10000 2.06 150 20:50 29.03.2021
899 Clear 19 1013 63 10000 2.06 150 20:28 29.03.2021
900 Clear 20 1012 60 10000 2.57 150 19:50 29.03.2021
901 Clear 21 1012 60 10000 2.57 150 19:27 29.03.2021
902 Clear 24 1012 44 10000 3.09 180 18:51 29.03.2021
903 Clear 25 1012 44 10000 3.09 180 18:27 29.03.2021
904 Clear 27 1011 32 10000 2.06 310 17:52 29.03.2021
905 Clear 27 1011 32 10000 2.06 310 17:33 29.03.2021
906 Clear 28 1012 32 10000 1.54 0 16:52 29.03.2021
907 Clear 28 1012 32 10000 1.54 0 16:25 29.03.2021
908 Clear 28 1012 36 10000 2.06 300 15:40 29.03.2021
909 Clear 28 1012 36 10000 2.06 300 15:22 29.03.2021
910 Clear 28 1012 28 10000 5.14 320 14:47 29.03.2021
911 Clear 28 1013 28 10000 5.14 310 13:56 29.03.2021
912 Clear 29 1013 28 10000 5.14 310 13:37 29.03.2021
913 Clear 28 1013 28 10000 5.14 310 13:18 29.03.2021
914 Clear 31 1013 27 10000 4.63 310 12:48 29.03.2021
915 Clear 26 1013 36 10000 2.06 330 11:48 29.03.2021
916 Clear 26 1013 36 10000 2.06 330 11:28 29.03.2021
917 Clear 26 1013 50 10000 2.57 340 10:49 29.03.2021
918 Clear 24 1013 50 10000 2.57 340 10:23 29.03.2021
919 Clear 21 1013 60 10000 2.57 340 09:33 29.03.2021
920 Clear 19 1012 88 10000 1.03 0 08:43 29.03.2021
921 Clear 17 1012 88 10000 1.03 310 08:25 29.03.2021
922 Clear 16 1012 88 10000 0.51 0 07:21 29.03.2021
923 Clear 16 1011 82 10000 0.8 227 06:25 29.03.2021
924 Clear 18 1012 82 10000 1.4 70 02:58 29.03.2021
925 Clear 18 1013 72 10000 2.06 200 00:46 29.03.2021
926 Clear 19 1013 72 10000 2.06 200 00:18 29.03.2021
927 Clear 19 1013 68 10000 4.12 170 23:30 28.03.2021
928 Clear 19 1014 72 10000 4.12 230 22:53 28.03.2021
929 Clear 19 1014 72 10000 4.12 230 22:35 28.03.2021
930 Clear 19 1014 72 10000 3.09 230 21:57 28.03.2021
931 Clear 20 1014 72 10000 3.09 230 21:38 28.03.2021
932 Clear 19 1014 72 10000 3.09 230 21:18 28.03.2021
933 Clear 19 1014 72 10000 3.6 230 20:42 28.03.2021
934 Clear 19 1014 72 10000 3.6 230 20:24 28.03.2021
935 Clear 20 1014 68 10000 4.12 210 19:42 28.03.2021
936 Clear 20 1014 68 10000 4.12 210 19:22 28.03.2021
937 Clear 22 1014 56 10000 4.12 210 18:53 28.03.2021
938 Clear 23 1014 56 10000 4.12 210 18:24 28.03.2021
939 Clear 24 1014 46 10000 5.14 200 17:46 28.03.2021
940 Clear 24 1014 46 10000 5.14 200 17:22 28.03.2021
941 Clear 25 1014 41 10000 5.14 190 16:43 28.03.2021
942 Clear 25 1014 41 10000 5.14 190 16:22 28.03.2021
943 Clear 26 1014 36 10000 5.14 190 15:25 28.03.2021
944 Clear 25 1015 36 10000 4.12 180 14:50 28.03.2021
945 Clear 25 1015 36 10000 4.12 180 14:30 28.03.2021
946 Clear 25 1016 36 10000 4.63 200 13:39 28.03.2021
947 Clear 25 1016 36 10000 4.63 200 13:19 28.03.2021
948 Clear 24 1016 41 10000 2.06 220 12:43 28.03.2021
949 Clear 24 1016 41 10000 2.06 220 12:43 28.03.2021
950 Clear 24 1016 41 10000 2.06 220 12:25 28.03.2021
951 Clear 22 1016 41 10000 1.54 0 11:40 28.03.2021
952 Clear 21 1017 46 10000 1.54 0 11:18 28.03.2021
953 Clear 21 1017 52 10000 1.54 0 10:43 28.03.2021
954 Clear 20 1017 52 10000 1.54 0 10:21 28.03.2021
955 Clear 18 1017 59 10000 1.03 0 09:44 28.03.2021
956 Clear 18 1017 59 10000 1.03 0 09:23 28.03.2021
957 Clear 16 1017 72 10000 0.51 0 08:42 28.03.2021
958 Clear 14 1017 82 10000 1.03 0 07:45 28.03.2021
959 Clear 14 1016 87 10000 0.51 0 06:23 28.03.2021
960 Clear 15 1017 82 10000 0.51 170 03:51 28.03.2021
961 Clear 16 1018 63 10000 2.57 200 00:49 28.03.2021
962 Clear 16 1018 63 10000 2.57 200 00:19 28.03.2021
963 Clear 16 1018 63 10000 3.09 170 23:39 27.03.2021
964 Clear 17 1019 59 10000 6.17 150 22:53 27.03.2021
965 Clear 16 1019 59 10000 6.17 150 22:35 27.03.2021
966 Clear 17 1019 63 10000 8.75 160 21:46 27.03.2021
967 Clear 17 1019 63 10000 8.75 160 21:21 27.03.2021
968 Clear 17 1020 63 10000 7.72 170 20:59 27.03.2021
969 Clear 17 1020 63 10000 7.72 170 20:38 27.03.2021
970 Clear 17 1020 63 10000 7.72 170 20:19 27.03.2021
971 Clear 17 1020 67 10000 6.69 170 19:42 27.03.2021
972 Clear 17 1020 67 10000 6.69 170 19:23 27.03.2021
973 Clouds 18 1020 63 10000 8.23 170 18:48 27.03.2021
974 Clouds 17 1020 63 10000 8.23 170 18:26 27.03.2021
975 Clouds 18 1020 59 10000 9.77 180 17:40 27.03.2021
976 Clouds 19 1020 59 10000 9.77 180 17:20 27.03.2021
977 Clear 19 1020 49 10000 10.29 180 16:48 27.03.2021
978 Clear 19 1020 49 10000 10.29 180 16:27 27.03.2021
979 Clouds 20 1020 42 10000 9.26 180 15:46 27.03.2021
980 Clouds 20 1020 42 10000 9.26 180 15:20 27.03.2021
981 Clouds 21 1019 49 10000 9.26 180 14:44 27.03.2021
982 Clouds 20 1019 49 10000 8.75 170 13:40 27.03.2021
983 Clouds 20 1019 49 10000 8.75 170 13:21 27.03.2021
984 Clouds 21 1020 52 10000 8.23 170 12:50 27.03.2021
985 Rain 19 1020 63 10000 6.69 170 11:55 27.03.2021
986 Rain 19 1020 63 10000 6.69 170 11:37 27.03.2021
987 Rain 19 1020 63 10000 6.69 170 11:19 27.03.2021
988 Clouds 18 1020 77 10000 5.14 160 10:40 27.03.2021
989 Clouds 18 1020 72 10000 4.12 210 09:59 27.03.2021
990 Clouds 19 1020 72 10000 4.12 210 09:22 27.03.2021
991 Clouds 18 1020 72 10000 3.09 180 08:40 27.03.2021
992 Clear 17 1019 88 10000 1.03 0 07:56 27.03.2021
993 Clear 15 1019 88 10000 1.03 140 07:22 27.03.2021
994 Clear 14 1018 94 10000 1.54 0 06:43 27.03.2021
995 Clouds 16 1017 94 10000 0.51 0 04:42 27.03.2021
996 Clouds 17 1016 94 10000 1.03 0 02:58 27.03.2021
997 Rain 17 1016 94 6000 4.12 300 00:45 27.03.2021
998 Rain 17 1016 94 6000 4.12 300 00:25 27.03.2021
999 Rain 17 1016 94 7000 3.6 320 23:38 26.03.2021
1000 Rain 18 1015 82 10000 2.57 340 22:45 26.03.2021
1001 Rain 18 1015 82 10000 2.57 340 22:24 26.03.2021
1002 Clouds 18 1014 82 10000 5.66 340 21:25 26.03.2021
1003 Clouds 18 1014 82 10000 2.57 30 20:58 26.03.2021
1004 Clouds 18 1014 82 10000 2.57 30 20:32 26.03.2021
1005 Clouds 18 1013 82 10000 5.66 320 19:53 26.03.2021
1006 Clouds 18 1013 82 10000 5.66 320 19:35 26.03.2021
1007 Clouds 18 1013 82 10000 4.12 340 18:59 26.03.2021
1008 Clouds 19 1013 82 10000 4.12 340 18:36 26.03.2021
1009 Clouds 20 1013 82 10000 4.12 340 18:18 26.03.2021
1010 Clouds 20 1012 64 10000 5.66 300 17:43 26.03.2021
1011 Clouds 21 1011 60 10000 7.2 300 16:53 26.03.2021
1012 Clouds 21 1011 60 10000 7.2 300 16:30 26.03.2021
1013 Clouds 22 1011 56 10000 5.14 290 15:43 26.03.2021
1014 Clouds 21 1011 68 10000 8.75 310 14:57 26.03.2021
1015 Rain 21 1011 68 10000 8.75 310 14:20 26.03.2021
1016 Clouds 22 1010 56 10000 9.77 310 13:34 26.03.2021
1017 Clouds 22 1011 56 10000 9.26 320 12:48 26.03.2021
1018 Clouds 22 1011 56 10000 10.8 320 11:50 26.03.2021
1019 Clouds 22 1011 56 10000 10.8 320 11:31 26.03.2021
1020 Clouds 21 1011 60 10000 9.26 320 10:46 26.03.2021
1021 Clouds 21 1011 60 10000 9.26 320 10:27 26.03.2021
1022 Clouds 21 1011 68 10000 9.26 340 09:41 26.03.2021
1023 Clouds 20 1010 68 10000 8.23 350 09:00 26.03.2021
1024 Clouds 20 1010 68 10000 8.23 350 08:35 26.03.2021
1025 Rain 19 1010 77 10000 8.23 350 07:58 26.03.2021
1026 Clouds 19 1010 77 10000 8.23 350 07:22 26.03.2021
1027 Clouds 19 1009 77 10000 6.69 360 06:57 26.03.2021
1028 Clouds 19 1009 77 10000 6.69 360 06:26 26.03.2021
1029 Clouds 19 1008 77 10000 6.17 360 05:21 26.03.2021
1030 Fog 18 1008 94 800 8.23 340 01:50 26.03.2021
1031 Fog 17 1008 94 800 8.23 340 00:27 26.03.2021
1032 Fog 17 1008 94 800 6.17 320 23:44 25.03.2021
1033 Mist 17 1008 94 2000 4.63 320 22:51 25.03.2021
1034 Mist 17 1008 94 2000 4.63 320 22:28 25.03.2021
1035 Mist 18 1008 88 2000 7.2 310 21:50 25.03.2021
1036 Mist 18 1008 88 2000 7.2 310 21:31 25.03.2021
1037 Clear 20 1008 73 10000 3.6 330 20:43 25.03.2021
1038 Clear 20 1008 73 10000 3.6 330 20:25 25.03.2021
1039 Clear 20 1008 68 10000 2.57 330 19:45 25.03.2021
1040 Clear 20 1008 68 10000 2.57 330 19:45 25.03.2021
1041 Clear 21 1008 68 10000 2.57 330 19:26 25.03.2021
1042 Clear 22 1008 60 10000 4.63 300 18:47 25.03.2021
1043 Clear 23 1008 60 10000 4.63 300 18:26 25.03.2021
1044 Clear 23 1008 60 10000 4.63 300 18:26 25.03.2021
1045 Clear 25 1008 44 10000 2.57 300 17:45 25.03.2021
1046 Clear 26 1008 44 10000 2.57 300 17:27 25.03.2021
1047 Clear 28 1008 39 10000 5.14 310 16:51 25.03.2021
1048 Clear 28 1008 39 10000 5.14 310 16:51 25.03.2021
1049 Clear 28 1008 39 10000 5.14 310 16:30 25.03.2021
1050 Clear 29 1008 37 10000 5.66 320 15:45 25.03.2021
1051 Clear 29 1008 37 10000 7.72 320 15:21 25.03.2021
1052 Clear 30 1008 32 10000 5.66 300 14:46 25.03.2021
1053 Clear 31 1008 33 10000 5.14 300 13:52 25.03.2021
1054 Clear 31 1008 33 10000 5.14 300 13:24 25.03.2021
1055 Clear 30 1009 35 10000 5.14 310 12:45 25.03.2021
1056 Clear 30 1009 35 10000 5.14 310 12:21 25.03.2021
1057 Clear 28 1010 42 10000 3.09 0 11:52 25.03.2021
1058 Clear 28 1010 42 10000 3.09 0 11:30 25.03.2021
1059 Clear 28 1010 42 10000 3.09 330 10:55 25.03.2021
1060 Clear 26 1010 47 10000 3.09 320 10:26 25.03.2021
1061 Clear 27 1010 50 10000 3.6 340 09:57 25.03.2021
1062 Clear 26 1010 50 10000 3.6 340 09:38 25.03.2021
1063 Clear 24 1010 64 10000 2.57 310 08:57 25.03.2021
1064 Clear 21 1010 73 10000 2.06 330 08:29 25.03.2021
1065 Clear 20 1010 88 10000 1.03 0 07:23 25.03.2021
1066 Clear 17 1010 88 10000 0.51 0 06:26 25.03.2021
1067 Clear 17 1009 88 10000 1.03 0 05:49 25.03.2021
1068 Clear 17 1009 88 10000 1.03 0 05:49 25.03.2021
1069 Clear 18 1010 88 10000 0.51 0 03:59 25.03.2021
1070 Clear 19 1011 82 10000 0.51 0 00:35 25.03.2021
1071 Clear 19 1011 82 10000 0.51 0 00:35 25.03.2021
1072 Clear 20 1012 73 10000 2.06 240 23:55 24.03.2021
1073 Clear 20 1012 73 10000 2.06 240 23:30 24.03.2021
1074 Clear 20 1012 73 10000 2.06 240 23:30 24.03.2021
1075 Clear 20 1012 77 10000 4.63 210 22:50 24.03.2021
1076 Clear 20 1012 77 10000 4.63 210 22:30 24.03.2021
1077 Clear 21 1012 77 10000 4.63 210 21:47 24.03.2021
1078 Clear 21 1012 77 10000 4.63 210 21:25 24.03.2021
1079 Clear 21 1012 77 10000 4.63 210 20:45 24.03.2021
1080 Clear 21 1012 77 10000 4.63 210 20:20 24.03.2021
1081 Clear 22 1012 73 10000 4.63 210 19:52 24.03.2021
1082 Clear 22 1012 73 10000 4.63 210 19:29 24.03.2021
1083 Clear 22 1013 73 10000 4.63 220 18:51 24.03.2021
1084 Clear 22 1013 73 10000 4.63 220 18:51 24.03.2021
1085 Clear 23 1013 73 10000 4.63 220 18:24 24.03.2021
1086 Clear 24 1013 64 10000 5.14 220 17:52 24.03.2021
1087 Clear 25 1013 64 10000 5.14 220 17:32 24.03.2021
1088 Clear 26 1013 57 10000 5.14 220 16:53 24.03.2021
1089 Clear 26 1013 57 10000 5.14 220 16:31 24.03.2021
1090 Clear 27 1013 47 10000 5.66 200 15:55 24.03.2021
1091 Clear 27 1013 47 10000 5.66 200 15:33 24.03.2021
1092 Clear 29 1014 42 10000 7.2 190 14:48 24.03.2021
1093 Clear 29 1014 42 10000 7.2 190 14:27 24.03.2021
1094 Clear 29 1014 42 10000 6.69 190 13:57 24.03.2021
1095 Clear 29 1014 42 10000 6.69 190 13:28 24.03.2021
1096 Clear 28 1014 42 10000 6.17 190 12:45 24.03.2021
1097 Clear 28 1014 42 10000 6.17 190 12:23 24.03.2021
1098 Clear 27 1015 44 10000 4.63 200 11:49 24.03.2021
1099 Clear 27 1015 44 10000 4.63 200 11:20 24.03.2021
1100 Clear 27 1015 47 10000 4.63 190 10:44 24.03.2021
1101 Clear 27 1015 47 10000 4.63 190 10:25 24.03.2021
1102 Clear 26 1015 50 10000 3.6 190 09:54 24.03.2021
1103 Clear 24 1015 57 10000 3.09 220 09:23 24.03.2021
1104 Clear 23 1015 60 10000 3.09 200 08:55 24.03.2021
1105 Clear 23 1015 60 10000 3.09 200 08:29 24.03.2021
1106 Clear 20 1015 77 10000 3.09 200 07:42 24.03.2021
1107 Clear 18 1015 82 10000 1.54 0 06:54 24.03.2021
1108 Clear 18 1015 77 10000 0.51 280 05:52 24.03.2021
1109 Clear 20 1013 68 10000 3.6 190 01:20 24.03.2021
1110 Clear 21 1013 64 10000 3.09 200 00:32 24.03.2021
1111 Clear 22 1013 68 10000 3.09 200 23:23 23.03.2021
1112 Clear 22 1013 68 10000 4.12 140 22:58 23.03.2021
1113 Clear 21 1013 68 10000 4.12 140 22:40 23.03.2021
1114 Clear 23 1013 64 10000 4.63 170 21:59 23.03.2021
1115 Clear 22 1013 64 10000 4.63 170 21:40 23.03.2021
1116 Clear 23 1013 64 10000 4.63 170 21:19 23.03.2021
1117 Clear 23 1012 57 10000 3.09 190 20:42 23.03.2021
1118 Clear 24 1012 57 10000 3.09 190 20:23 23.03.2021
1119 Clear 24 1012 53 10000 6.17 190 19:45 23.03.2021
1120 Clear 24 1012 53 10000 6.17 190 19:25 23.03.2021
1121 Clear 24 1012 64 10000 6.17 210 18:43 23.03.2021
1122 Clear 25 1012 64 10000 6.17 210 18:21 23.03.2021
1123 Clear 26 1012 57 10000 6.17 220 17:44 23.03.2021
1124 Clear 26 1012 57 10000 6.17 220 17:21 23.03.2021
1125 Clear 29 1012 50 10000 5.66 220 16:26 23.03.2021
1126 Clear 29 1012 42 10000 5.14 220 15:59 23.03.2021
1127 Clear 29 1012 42 10000 5.14 220 15:38 23.03.2021
1128 Clear 31 1012 35 10000 5.14 200 14:51 23.03.2021
1129 Clear 31 1012 35 10000 5.14 200 14:21 23.03.2021
1130 Clear 31 1013 30 10000 4.12 190 13:50 23.03.2021
1131 Clear 31 1013 30 10000 4.12 190 13:26 23.03.2021
1132 Clear 31 1013 33 10000 4.63 180 12:47 23.03.2021
1133 Clear 32 1013 33 10000 4.63 180 12:27 23.03.2021
1134 Clear 29 1014 37 10000 4.12 160 11:56 23.03.2021
1135 Clear 29 1014 37 10000 4.12 160 11:36 23.03.2021
1136 Clear 28 1014 42 10000 3.09 180 10:44 23.03.2021
1137 Clear 27 1014 47 10000 3.6 210 10:22 23.03.2021
1138 Clear 27 1008 37 10000 0.89 185 09:57 23.03.2021
1139 Clear 24 1014 53 10000 4.63 150 09:29 23.03.2021
1140 Clear 24 1014 53 10000 4.63 150 08:58 23.03.2021
1141 Clear 23 1014 53 10000 4.63 150 08:39 23.03.2021
1142 Clear 22 1014 53 10000 4.63 150 08:20 23.03.2021
1143 Clear 18 1013 72 10000 2.06 160 07:28 23.03.2021
1144 Clear 18 1012 68 10000 4.12 180 06:57 23.03.2021
1145 Clear 18 1012 68 10000 4.12 180 06:57 23.03.2021
1146 Clear 17 1012 68 10000 4.12 180 06:18 23.03.2021
1147 Clear 18 1011 68 10000 6.17 200 03:20 23.03.2021
1148 Clear 18 1012 68 10000 8.75 180 00:56 23.03.2021
1149 Clear 19 1012 68 10000 6.17 170 23:33 22.03.2021
1150 Clear 19 1013 68 10000 7.2 170 22:46 22.03.2021
1151 Clear 19 1013 68 10000 7.2 170 22:23 22.03.2021
1152 Clear 19 1013 60 10000 5.14 170 21:52 22.03.2021
1153 Clear 20 1013 60 10000 5.14 170 21:29 22.03.2021
1154 Clear 20 1013 56 10000 6.17 190 20:57 22.03.2021
1155 Clear 20 1013 56 10000 6.17 190 20:37 22.03.2021
1156 Clear 20 1013 56 10000 6.17 190 20:18 22.03.2021
1157 Clear 20 1012 73 10000 5.66 230 19:40 22.03.2021
1158 Clear 20 1012 73 10000 5.66 230 19:21 22.03.2021
1159 Clear 21 1012 68 10000 6.69 230 18:45 22.03.2021
1160 Clear 21 1012 68 10000 6.69 230 18:27 22.03.2021
1161 Clear 22 1012 57 10000 6.69 230 17:51 22.03.2021
1162 Clear 23 1012 57 10000 6.69 230 17:24 22.03.2021
1163 Clear 25 1012 44 10000 6.69 220 16:59 22.03.2021
1164 Clear 25 1012 44 10000 6.69 220 16:40 22.03.2021
1165 Clear 26 1012 36 10000 6.17 210 15:58 22.03.2021
1166 Clear 27 1012 36 10000 6.17 210 15:37 22.03.2021
1167 Clear 27 1012 36 10000 6.17 210 15:18 22.03.2021
1168 Clear 27 1012 34 10000 5.14 190 14:49 22.03.2021
1169 Clear 27 1012 34 10000 5.14 190 14:29 22.03.2021
1170 Clear 27 1013 32 10000 5.66 170 13:39 22.03.2021
1171 Clear 27 1013 32 10000 5.66 170 13:19 22.03.2021
1172 Clear 27 1013 34 10000 5.66 150 12:45 22.03.2021
1173 Clear 26 1014 38 10000 7.72 150 12:22 22.03.2021
1174 Clear 27 1014 38 10000 7.72 150 11:46 22.03.2021
1175 Clear 25 1014 38 10000 7.72 150 11:22 22.03.2021
1176 Clear 24 1014 46 10000 7.2 170 10:43 22.03.2021
1177 Clear 24 1014 46 10000 7.2 170 10:24 22.03.2021
1178 Clear 22 1014 53 10000 6.17 190 09:39 22.03.2021
1179 Clear 22 1014 53 10000 6.17 190 09:21 22.03.2021
1180 Clear 21 1014 52 10000 4.12 180 08:43 22.03.2021
1181 Clear 20 1014 52 10000 4.12 180 08:24 22.03.2021
1182 Clear 19 1013 63 10000 4.63 190 07:44 22.03.2021
1183 Clear 17 1013 77 10000 5.14 190 06:53 22.03.2021
1184 Clear 15 1013 72 10000 4.12 160 06:27 22.03.2021
1185 Clear 18 1013 63 10000 4.63 170 02:32 22.03.2021
1186 Clear 18 1014 67 10000 5.14 170 00:33 22.03.2021
1187 Clear 18 1014 63 10000 7.72 140 23:54 21.03.2021
1188 Clear 18 1014 63 10000 7.72 140 23:19 21.03.2021
1189 Clear 18 1014 63 10000 6.69 150 22:56 21.03.2021
1190 Clear 18 1014 63 10000 7.72 140 21:59 21.03.2021
1191 Clear 18 1014 63 10000 7.72 140 21:40 21.03.2021
1192 Clear 18 1014 63 10000 7.72 140 21:22 21.03.2021
1193 Clear 19 1014 59 10000 7.2 150 20:43 21.03.2021
1194 Clear 19 1014 59 10000 7.2 150 20:43 21.03.2021
1195 Clear 19 1014 59 10000 7.2 150 20:24 21.03.2021
1196 Clear 20 1014 60 10000 9.26 160 19:53 21.03.2021
1197 Clear 20 1014 60 10000 9.26 160 19:21 21.03.2021
1198 Clear 20 1014 56 10000 10.8 160 18:50 21.03.2021
1199 Clear 20 1014 56 10000 10.8 160 18:27 21.03.2021
1200 Clear 21 1014 56 10000 9.77 170 17:48 21.03.2021
1201 Clear 21 1014 56 10000 9.77 170 17:21 21.03.2021
1202 Clear 22 1014 53 10000 10.29 180 16:59 21.03.2021
1203 Clear 22 1014 53 10000 10.29 180 16:40 21.03.2021
1204 Clear 23 1014 50 10000 11.32 190 16:21 21.03.2021
1205 Clear 23 1014 50 10000 11.32 190 15:41 21.03.2021
1206 Clear 23 1014 50 10000 11.32 190 15:20 21.03.2021
1207 Clear 24 1015 47 10000 9.77 190 14:46 21.03.2021
1208 Clear 24 1015 47 10000 9.77 190 14:26 21.03.2021
1209 Clear 25 1015 41 10000 9.26 190 13:54 21.03.2021
1210 Clear 25 1015 41 10000 9.26 190 13:25 21.03.2021
1211 Clear 25 1016 34 10000 6.69 170 12:42 21.03.2021
1212 Clear 25 1016 34 10000 6.69 170 12:23 21.03.2021
1213 Clear 25 1016 33 10000 5.66 190 11:38 21.03.2021
1214 Clear 25 1016 33 10000 5.66 190 11:19 21.03.2021
1215 Clear 24 1016 38 10000 4.12 190 10:43 21.03.2021
1216 Clear 24 1016 38 10000 4.12 190 10:23 21.03.2021
1217 Clear 23 1016 46 10000 3.6 170 09:46 21.03.2021
1218 Clear 22 1016 46 10000 3.6 170 09:28 21.03.2021
1219 Clear 20 1016 56 10000 4.12 160 08:44 21.03.2021
1220 Clear 19 1016 56 10000 4.12 160 08:26 21.03.2021
1221 Clear 19 1016 68 10000 7.72 170 07:39 21.03.2021
1222 Clear 17 1016 67 10000 8.75 160 06:56 21.03.2021
1223 Clear 17 1016 67 10000 8.75 160 05:55 21.03.2021
1224 Clear 18 1017 59 10000 10.8 170 02:34 21.03.2021
1225 Clear 18 1018 59 10000 8.23 160 00:43 21.03.2021
1226 Clear 18 1018 59 10000 8.23 160 00:24 21.03.2021
1227 Clouds 18 1018 72 10000 5.66 160 23:50 20.03.2021
1228 Clouds 17 1018 72 10000 5.66 160 23:24 20.03.2021
1229 Clouds 18 1018 68 10000 6.17 170 22:57 20.03.2021
1230 Clouds 18 1018 68 10000 6.17 170 22:24 20.03.2021
1231 Clouds 18 1018 68 10000 8.23 170 21:47 20.03.2021
1232 Clouds 18 1018 68 10000 8.23 170 21:25 20.03.2021
1233 Clouds 18 1018 72 10000 8.23 170 20:48 20.03.2021
1234 Clouds 18 1018 72 10000 8.23 170 20:24 20.03.2021
1235 Clouds 18 1018 68 10000 9.77 180 19:52 20.03.2021
1236 Clouds 18 1018 68 10000 9.77 180 19:29 20.03.2021
1237 Clouds 18 1018 68 10000 10.29 180 18:52 20.03.2021
1238 Clouds 18 1018 68 10000 10.29 180 18:28 20.03.2021
1239 Clouds 19 1018 59 10000 12.35 180 17:58 20.03.2021
1240 Clouds 19 1018 59 10000 12.35 180 17:40 20.03.2021
1241 Clouds 19 1018 59 10000 12.35 180 17:20 20.03.2021
1242 Clouds 20 1018 56 10000 10.8 170 16:39 20.03.2021
1243 Clouds 20 1018 56 10000 10.8 170 16:18 20.03.2021
1244 Clouds 20 1018 52 10000 11.32 170 15:40 20.03.2021
1245 Clouds 21 1018 52 10000 11.32 170 15:22 20.03.2021
1246 Clouds 20 1018 56 10000 11.83 180 14:32 20.03.2021
1247 Clouds 21 1018 60 10000 11.32 180 13:59 20.03.2021
1248 Clouds 21 1018 60 10000 11.32 180 13:30 20.03.2021
1249 Clouds 20 1018 60 10000 10.29 170 12:39 20.03.2021
1250 Clouds 20 1018 60 10000 10.29 170 12:20 20.03.2021
1251 Clouds 20 1018 60 10000 11.83 180 11:43 20.03.2021
1252 Clouds 20 1018 60 10000 11.83 180 11:22 20.03.2021
1253 Clouds 21 1018 56 10000 10.8 180 10:46 20.03.2021
1254 Clouds 21 1018 56 10000 10.8 180 10:23 20.03.2021
1255 Clouds 20 1018 56 10000 10.29 180 09:48 20.03.2021
1256 Clouds 20 1018 56 10000 10.29 180 09:23 20.03.2021
1257 Clouds 20 1017 60 10000 8.23 180 08:53 20.03.2021
1258 Clouds 20 1017 60 10000 8.23 180 08:19 20.03.2021
1259 Clouds 19 1017 63 10000 7.2 170 07:48 20.03.2021
1260 Clouds 19 1017 63 10000 7.2 170 07:29 20.03.2021
1261 Clouds 18 1016 72 10000 8.75 170 06:41 20.03.2021
1262 Clouds 18 1016 82 10000 8.75 180 05:29 20.03.2021
1263 Clouds 18 1015 77 10000 8.23 180 03:45 20.03.2021
1264 Clouds 18 1015 72 10000 6.17 180 01:43 20.03.2021
1265 Clouds 19 1015 68 10000 8.75 180 23:48 19.03.2021
1266 Clouds 19 1015 68 10000 8.75 180 23:21 19.03.2021
1267 Clouds 19 1015 63 10000 8.23 170 22:45 19.03.2021
1268 Clouds 19 1015 63 10000 8.23 170 22:24 19.03.2021
1269 Clouds 19 1015 59 10000 8.75 160 21:51 19.03.2021
1270 Clouds 19 1015 59 10000 8.75 160 21:21 19.03.2021
1271 Clouds 19 1015 63 10000 8.75 180 20:46 19.03.2021
1272 Clouds 19 1015 63 10000 8.75 180 20:27 19.03.2021
1273 Clouds 19 1015 63 10000 8.75 180 20:27 19.03.2021
1274 Clouds 19 1015 68 10000 6.69 190 19:52 19.03.2021
1275 Clouds 19 1015 68 10000 6.69 190 19:25 19.03.2021
1276 Clouds 19 1015 68 10000 8.23 180 18:58 19.03.2021
1277 Clouds 19 1015 68 10000 8.23 180 18:36 19.03.2021
1278 Clouds 19 1015 68 10000 8.23 180 18:18 19.03.2021
1279 Clouds 19 1015 60 10000 8.75 180 17:48 19.03.2021
1280 Clouds 20 1015 60 10000 8.75 180 17:23 19.03.2021
1281 Clouds 20 1015 56 10000 8.23 190 16:44 19.03.2021
1282 Clouds 21 1015 56 10000 8.23 190 16:26 19.03.2021
1283 Clouds 21 1015 53 10000 8.75 190 15:43 19.03.2021
1284 Clouds 21 1015 53 10000 8.75 190 15:22 19.03.2021
1285 Clouds 22 1016 53 10000 8.23 180 14:42 19.03.2021
1286 Clouds 22 1016 53 10000 8.23 180 14:21 19.03.2021
1287 Clouds 22 1016 53 10000 6.17 200 13:34 19.03.2021
1288 Clouds 22 1017 53 10000 6.69 190 12:49 19.03.2021
1289 Clouds 22 1017 53 10000 6.69 190 12:30 19.03.2021
1290 Clouds 22 1017 53 10000 7.72 170 11:40 19.03.2021
1291 Clouds 21 1017 56 10000 6.69 170 10:53 19.03.2021
1292 Clouds 20 1017 56 10000 6.69 170 10:30 19.03.2021
1293 Clouds 20 1018 56 10000 8.23 170 09:49 19.03.2021
1294 Clouds 20 1018 56 10000 8.23 170 09:30 19.03.2021
1295 Clouds 19 1018 59 10000 9.26 170 08:54 19.03.2021
1296 Clouds 19 1018 59 10000 9.26 170 08:36 19.03.2021
1297 Clouds 18 1017 68 10000 9.26 170 07:54 19.03.2021
1298 Clouds 18 1017 68 10000 9.26 170 07:35 19.03.2021
1299 Clouds 16 1018 72 10000 6.69 170 06:48 19.03.2021
1300 Rain 17 1017 94 6000 4.63 160 02:45 19.03.2021
1301 Clouds 16 1016 82 10000 1.54 100 00:52 19.03.2021
1302 Clouds 17 1016 72 10000 1.03 0 23:30 18.03.2021
1303 Clouds 17 1016 72 10000 1.03 0 23:30 18.03.2021
1304 Clouds 17 1016 68 10000 2.57 220 22:58 18.03.2021
1305 Clouds 17 1016 68 10000 2.57 220 22:39 18.03.2021
1306 Clouds 18 1016 68 10000 2.57 220 22:19 18.03.2021
1307 Clear 18 1016 68 10000 3.09 220 21:39 18.03.2021
1308 Clouds 19 1016 68 10000 4.63 220 20:51 18.03.2021
1309 Clouds 19 1016 68 10000 4.63 220 20:32 18.03.2021
1310 Clouds 19 1015 72 10000 5.14 230 19:58 18.03.2021
1311 Clouds 19 1015 72 10000 5.14 230 19:40 18.03.2021
1312 Clouds 19 1015 72 10000 5.14 230 19:19 18.03.2021
1313 Clouds 20 1014 68 10000 5.14 220 18:34 18.03.2021
1314 Clouds 20 1014 64 10000 5.14 240 17:51 18.03.2021
1315 Clouds 21 1014 64 10000 5.14 240 17:26 18.03.2021
1316 Clouds 21 1014 60 10000 4.63 260 16:49 18.03.2021
1317 Clouds 21 1014 60 10000 4.63 260 16:30 18.03.2021
1318 Clouds 21 1014 73 10000 5.14 310 15:49 18.03.2021
1319 Clouds 21 1014 73 10000 5.14 310 15:29 18.03.2021
1320 Clouds 21 1013 73 10000 7.2 310 14:57 18.03.2021
1321 Clouds 21 1013 73 10000 7.2 310 14:33 18.03.2021
1322 Clouds 22 1014 73 10000 6.69 300 13:54 18.03.2021
1323 Clouds 23 1014 73 10000 6.69 300 13:27 18.03.2021
1324 Clouds 23 1014 68 10000 6.17 310 12:46 18.03.2021
1325 Clouds 22 1014 68 10000 6.17 310 12:28 18.03.2021
1326 Clouds 22 1014 68 10000 6.17 320 11:55 18.03.2021
1327 Clouds 22 1014 68 10000 6.17 320 11:34 18.03.2021
1328 Clouds 21 1013 73 10000 6.69 310 10:51 18.03.2021
1329 Clouds 21 1013 73 10000 6.69 310 10:28 18.03.2021
1330 Clouds 21 1013 64 10000 6.69 330 09:58 18.03.2021
1331 Clouds 21 1013 64 10000 6.69 330 09:30 18.03.2021
1332 Clouds 20 1013 82 10000 6.69 320 08:57 18.03.2021
1333 Clouds 19 1013 82 10000 6.69 320 08:33 18.03.2021
1334 Clear 17 1012 82 10000 3.09 360 07:58 18.03.2021
1335 Clear 18 1012 82 10000 3.09 360 07:40 18.03.2021
1336 Clear 15 1011 94 10000 3.6 350 06:40 18.03.2021
1337 Clear 15 1011 94 10000 3.6 350 06:21 18.03.2021
1338 Clear 16 1011 88 10000 3.09 30 05:25 18.03.2021
1339 Clear 17 1011 88 10000 2.06 180 00:40 18.03.2021
1340 Clear 19 1011 82 10000 1.03 0 23:19 17.03.2021
1341 Clear 18 1011 88 10000 3.09 230 22:38 17.03.2021
1342 Clear 19 1011 88 10000 3.09 230 22:20 17.03.2021
1343 Clear 19 1011 88 10000 3.6 240 21:49 17.03.2021
1344 Clear 19 1011 88 10000 3.6 240 21:30 17.03.2021
1345 Clear 21 1011 83 10000 4.12 230 20:48 17.03.2021
1346 Clear 21 1011 83 10000 4.12 230 20:26 17.03.2021
1347 Clear 19 1011 83 10000 5.66 230 19:58 17.03.2021
1348 Clear 19 1011 83 10000 5.66 230 19:58 17.03.2021
1349 Clear 20 1011 83 10000 5.66 230 19:39 17.03.2021
1350 Clear 21 1011 83 10000 5.66 230 19:19 17.03.2021
1351 Clear 21 1011 78 10000 4.63 230 18:47 17.03.2021
1352 Clear 22 1011 78 10000 4.63 230 18:29 17.03.2021
1353 Clear 24 1011 60 10000 5.14 220 17:32 17.03.2021
1354 Clear 25 1011 57 10000 7.2 200 16:58 17.03.2021
1355 Clear 25 1011 57 10000 7.2 200 16:39 17.03.2021
1356 Clear 26 1011 57 10000 7.2 200 16:20 17.03.2021
1357 Clear 26 1011 50 10000 7.2 210 15:44 17.03.2021
1358 Clear 26 1011 50 10000 7.2 210 15:25 17.03.2021
1359 Clear 27 1011 44 10000 5.66 200 14:37 17.03.2021
1360 Clear 27 1011 44 10000 5.66 200 14:18 17.03.2021
1361 Clear 27 1011 41 10000 4.12 190 13:52 17.03.2021
1362 Clear 27 1011 41 10000 4.12 190 13:24 17.03.2021
1363 Clear 26 1011 44 10000 3.09 170 12:37 17.03.2021
1364 Clear 26 1011 44 10000 3.09 170 12:19 17.03.2021
1365 Clear 25 1012 50 10000 4.12 170 11:40 17.03.2021
1366 Clear 26 1012 50 10000 4.12 170 11:20 17.03.2021
1367 Clear 25 1012 50 10000 3.6 210 10:50 17.03.2021
1368 Clear 24 1012 50 10000 3.6 210 10:22 17.03.2021
1369 Clear 22 1012 60 10000 5.14 190 09:43 17.03.2021
1370 Clear 22 1012 60 10000 5.14 190 09:20 17.03.2021
1371 Clear 20 1012 64 10000 4.63 190 08:47 17.03.2021
1372 Clear 20 1012 64 10000 4.63 190 08:27 17.03.2021
1373 Clear 19 1012 72 10000 3.09 240 07:43 17.03.2021
1374 Clear 17 1011 82 10000 3.09 240 06:57 17.03.2021
1375 Clear 17 1011 82 10000 3.09 240 06:28 17.03.2021
1376 Clear 17 1011 77 10000 7.2 200 03:32 17.03.2021
1377 Clear 17 1011 82 10000 5.66 180 02:41 17.03.2021
1378 Clear 17 1012 77 10000 6.69 170 00:39 17.03.2021
1379 Clear 18 1012 72 10000 7.72 170 23:27 16.03.2021
1380 Clouds 18 1012 68 10000 9.77 170 22:46 16.03.2021
1381 Clouds 18 1012 68 10000 9.77 170 22:28 16.03.2021
1382 Clouds 18 1013 68 10000 9.26 170 21:45 16.03.2021
1383 Clouds 18 1013 68 10000 9.26 170 21:26 16.03.2021
1384 Clouds 18 1013 72 10000 9.26 170 20:58 16.03.2021
1385 Clouds 19 1013 72 10000 9.26 170 20:20 16.03.2021
1386 Clouds 19 1013 72 10000 8.75 180 19:52 16.03.2021
1387 Clouds 19 1013 72 10000 8.75 180 19:34 16.03.2021
1388 Clouds 19 1013 72 10000 9.26 180 18:58 16.03.2021
1389 Clouds 19 1013 72 10000 9.26 180 18:39 16.03.2021
1390 Clouds 20 1013 72 10000 9.26 180 18:20 16.03.2021
1391 Clouds 20 1013 64 10000 9.77 190 17:45 16.03.2021
1392 Clouds 20 1013 64 10000 9.77 190 17:24 16.03.2021
1393 Clouds 21 1013 60 10000 10.29 180 16:50 16.03.2021
1394 Clouds 21 1013 60 10000 10.29 180 16:26 16.03.2021
1395 Clouds 22 1013 56 10000 9.77 180 15:46 16.03.2021
1396 Clouds 22 1013 56 10000 9.77 180 15:21 16.03.2021
1397 Clouds 22 1013 56 10000 9.77 180 14:57 16.03.2021
1398 Clouds 22 1013 56 10000 9.77 180 14:39 16.03.2021
1399 Clouds 23 1013 56 10000 9.77 180 14:19 16.03.2021
1400 Clouds 23 1013 56 10000 8.75 180 13:46 16.03.2021
1401 Clouds 23 1013 56 10000 8.75 180 13:23 16.03.2021
1402 Clouds 23 1014 53 10000 8.75 180 12:48 16.03.2021
1403 Clouds 23 1014 53 10000 8.75 180 12:29 16.03.2021
1404 Clouds 23 1015 49 10000 8.75 190 11:41 16.03.2021
1405 Clouds 23 1015 49 10000 8.75 190 11:21 16.03.2021
1406 Clouds 22 1015 53 10000 8.23 190 10:27 16.03.2021
1407 Clouds 21 1015 60 10000 7.2 180 09:49 16.03.2021
1408 Clouds 21 1015 60 10000 7.2 180 09:30 16.03.2021
1409 Clouds 20 1015 60 10000 7.2 170 08:59 16.03.2021
1410 Clouds 20 1015 60 10000 7.2 170 08:40 16.03.2021
1411 Clouds 20 1015 60 10000 7.2 170 08:20 16.03.2021
1412 Clouds 18 1015 72 10000 6.69 180 07:36 16.03.2021
1413 Clouds 17 1015 72 10000 5.66 190 06:40 16.03.2021
1414 Clear 16 1015 77 10000 4.12 190 05:52 16.03.2021
1415 Clear 16 1015 77 10000 4.12 190 05:34 16.03.2021
1416 Clear 18 1017 85 10000 1.79 293 02:45 16.03.2021
1417 Clouds 18 1015 77 10000 6.17 170 02:24 16.03.2021
1418 Clear 18 1015 77 10000 8.23 180 23:58 15.03.2021
1419 Clear 18 1015 77 10000 8.23 180 23:29 15.03.2021
1420 Clear 18 1015 77 10000 8.23 180 23:29 15.03.2021
1421 Clear 18 1015 77 10000 8.23 180 23:29 15.03.2021
1422 Clear 18 1016 77 10000 7.2 180 22:53 15.03.2021
1423 Clear 18 1016 77 10000 7.2 180 22:34 15.03.2021
1424 Clear 18 1016 77 10000 7.2 190 21:55 15.03.2021
1425 Clear 18 1016 77 10000 7.2 190 21:36 15.03.2021
1426 Clear 18 1016 77 10000 7.2 190 21:18 15.03.2021
1427 Clouds 18 1015 77 10000 7.2 180 20:40 15.03.2021
1428 Clouds 19 1015 77 10000 7.2 180 20:22 15.03.2021
1429 Clouds 18 1015 82 10000 6.17 160 19:51 15.03.2021
1430 Clouds 18 1015 82 10000 6.17 160 19:33 15.03.2021
1431 Clouds 18 1015 77 10000 9.26 170 18:57 15.03.2021
1432 Clouds 19 1015 77 10000 9.26 170 18:32 15.03.2021
1433 Clouds 19 1015 77 10000 7.72 180 17:56 15.03.2021
1434 Clouds 20 1015 77 10000 7.72 180 17:33 15.03.2021
1435 Clouds 19 1015 82 10000 8.75 170 16:56 15.03.2021
1436 Clouds 18 1015 82 10000 8.75 170 16:35 15.03.2021
1437 Rain 19 1015 88 10000 7.72 160 15:47 15.03.2021
1438 Rain 19 1015 88 10000 7.72 160 15:27 15.03.2021
1439 Rain 20 1015 68 8000 8.75 180 14:45 15.03.2021
1440 Rain 21 1015 68 8000 8.75 180 14:27 15.03.2021
1441 Rain 21 1015 68 10000 9.77 180 13:55 15.03.2021
1442 Rain 21 1015 68 10000 9.77 180 13:34 15.03.2021
1443 Rain 19 1015 82 10000 6.17 180 12:51 15.03.2021
1444 Rain 19 1015 82 10000 6.17 180 12:20 15.03.2021
1445 Rain 19 1016 88 8000 6.17 160 11:57 15.03.2021
1446 Rain 19 1016 88 8000 6.17 160 11:38 15.03.2021
1447 Rain 19 1016 88 8000 6.17 160 11:18 15.03.2021
1448 Rain 18 1015 88 8000 7.72 180 10:34 15.03.2021
1449 Rain 18 1015 88 8000 5.66 180 09:59 15.03.2021
1450 Rain 18 1015 88 8000 5.66 180 09:40 15.03.2021
1451 Rain 17 1015 94 4000 6.69 180 09:20 15.03.2021
1452 Rain 17 1015 88 4000 7.2 190 08:41 15.03.2021
1453 Rain 17 1015 94 10000 6.17 180 08:21 15.03.2021
1454 Rain 16 1014 94 10000 8.23 170 07:33 15.03.2021
1455 Rain 16 1014 94 10000 7.72 190 06:48 15.03.2021
1456 Rain 16 1014 94 7000 7.72 190 05:35 15.03.2021
1457 Rain 17 1013 94 4000 10.29 200 03:19 15.03.2021
1458 Rain 19 1011 82 10000 4.63 210 00:21 15.03.2021
1459 Clouds 20 1011 77 10000 5.14 210 23:23 14.03.2021
1460 Clouds 20 1011 73 10000 7.2 180 22:49 14.03.2021
1461 Clouds 20 1011 73 10000 7.2 180 22:28 14.03.2021
1462 Clouds 19 1010 73 10000 8.23 190 21:52 14.03.2021
1463 Clouds 20 1010 73 10000 8.23 190 21:23 14.03.2021
1464 Clouds 20 1010 73 10000 8.23 180 20:52 14.03.2021
1465 Clouds 20 1010 73 10000 8.23 180 20:29 14.03.2021
1466 Clouds 19 1010 73 10000 8.23 190 19:59 14.03.2021
1467 Clouds 20 1010 73 10000 8.23 190 19:41 14.03.2021
1468 Clouds 19 1010 73 10000 8.23 190 19:18 14.03.2021
1469 Rain 20 1011 77 10000 5.66 180 18:36 14.03.2021
1470 Clouds 21 1012 68 10000 7.72 180 17:54 14.03.2021
1471 Clouds 20 1012 68 10000 7.72 180 17:36 14.03.2021
1472 Rain 20 1012 68 10000 7.72 180 17:18 14.03.2021
1473 Rain 20 1012 68 10000 8.75 180 16:40 14.03.2021
1474 Clouds 20 1012 68 10000 8.75 180 16:19 14.03.2021
1475 Clouds 20 1012 83 10000 7.2 170 15:42 14.03.2021
1476 Rain 21 1013 64 10000 7.2 190 14:51 14.03.2021
1477 Rain 21 1013 64 10000 7.2 190 14:31 14.03.2021
1478 Clouds 21 1013 68 10000 5.66 170 13:55 14.03.2021
1479 Clouds 21 1013 68 10000 5.66 170 13:36 14.03.2021
1480 Clouds 20 1015 68 10000 7.2 180 12:58 14.03.2021
1481 Clouds 20 1015 68 10000 7.2 180 12:40 14.03.2021
1482 Clouds 21 1015 68 10000 7.2 180 12:22 14.03.2021
1483 Clouds 20 1015 68 10000 8.75 180 11:38 14.03.2021
1484 Clouds 21 1015 68 10000 8.75 180 11:19 14.03.2021
1485 Clouds 21 1016 64 10000 7.72 180 10:38 14.03.2021
1486 Clouds 21 1016 64 10000 7.72 180 10:19 14.03.2021
1487 Clouds 20 1016 64 10000 7.2 180 09:56 14.03.2021
1488 Clouds 20 1016 64 10000 7.2 180 09:38 14.03.2021
1489 Clouds 20 1016 64 10000 7.2 180 09:20 14.03.2021
1490 Clouds 20 1016 64 10000 6.17 180 08:36 14.03.2021
1491 Clouds 19 1016 72 10000 6.69 180 07:56 14.03.2021
1492 Clouds 19 1016 72 10000 6.69 180 07:27 14.03.2021
1493 Clouds 19 1016 72 10000 4.63 180 05:34 14.03.2021
1494 Clouds 19 1015 94 10000 3.09 210 01:27 14.03.2021
1495 Clouds 19 1015 94 10000 2.06 260 00:20 14.03.2021
1496 Clouds 19 1015 88 10000 2.57 310 23:59 13.03.2021
1497 Clouds 19 1015 88 10000 2.57 310 23:40 13.03.2021
1498 Rain 19 1015 88 10000 2.57 310 23:19 13.03.2021
1499 Rain 19 1015 94 8000 6.17 310 22:46 13.03.2021
1500 Drizzle 19 1015 94 8000 6.17 310 22:21 13.03.2021
1501 Clouds 21 1014 83 10000 6.17 320 21:35 13.03.2021
1502 Clouds 21 1014 73 10000 5.14 340 20:59 13.03.2021
1503 Clouds 21 1014 73 10000 5.14 340 20:41 13.03.2021
1504 Clouds 21 1014 73 10000 5.14 340 20:23 13.03.2021
1505 Clouds 21 1013 78 10000 4.12 350 19:40 13.03.2021
1506 Clouds 21 1013 78 10000 4.12 350 19:22 13.03.2021
1507 Clouds 21 1012 78 10000 4.63 320 18:42 13.03.2021
1508 Clouds 22 1012 78 10000 4.63 320 18:20 13.03.2021
1509 Clouds 23 1011 57 10000 5.14 310 17:51 13.03.2021
1510 Clouds 23 1011 57 10000 5.14 310 17:31 13.03.2021
1511 Clouds 24 1011 57 10000 9.26 320 16:53 13.03.2021
1512 Clouds 24 1011 57 10000 9.26 320 16:35 13.03.2021
1513 Clouds 24 1010 57 10000 11.83 300 15:56 13.03.2021
1514 Clouds 24 1010 57 10000 11.83 300 15:19 13.03.2021
1515 Clouds 25 1010 53 10000 8.75 310 14:41 13.03.2021
1516 Clouds 25 1010 53 10000 8.75 310 14:21 13.03.2021
1517 Clouds 25 1010 53 10000 8.75 310 13:30 13.03.2021
1518 Clouds 25 1010 57 10000 7.72 320 12:53 13.03.2021
1519 Clouds 25 1010 57 10000 7.72 320 12:35 13.03.2021
1520 Clouds 25 1011 60 10000 7.72 320 11:58 13.03.2021
1521 Clouds 24 1011 60 10000 7.72 320 11:39 13.03.2021
1522 Clouds 24 1011 60 10000 7.72 320 11:20 13.03.2021
1523 Clouds 23 1011 64 10000 8.23 320 10:31 13.03.2021
1524 Clouds 22 1011 68 10000 8.75 340 09:59 13.03.2021
1525 Clouds 22 1011 68 10000 8.75 340 09:33 13.03.2021
1526 Clouds 21 1011 77 10000 8.75 340 08:54 13.03.2021
1527 Clouds 20 1011 77 10000 8.75 340 08:26 13.03.2021
1528 Clouds 20 1011 82 10000 7.2 340 07:57 13.03.2021
1529 Clouds 19 1011 82 10000 7.2 340 07:38 13.03.2021
1530 Clear 16 1008 94 10000 4.63 350 05:30 13.03.2021
1531 Clear 16 1009 94 10000 2.06 340 02:42 13.03.2021
1532 Clear 16 1009 94 10000 2.06 40 00:36 13.03.2021
1533 Clear 18 1010 94 10000 2.06 360 23:48 12.03.2021
1534 Clear 18 1010 94 10000 2.06 360 23:30 12.03.2021
1535 Clear 18 1009 94 10000 3.09 100 22:41 12.03.2021
1536 Clear 18 1009 94 10000 3.09 100 22:21 12.03.2021
1537 Clear 18 1010 88 10000 2.06 140 21:39 12.03.2021
1538 Clear 18 1010 88 10000 2.06 140 21:21 12.03.2021
1539 Clear 18 1008 88 10000 2.57 180 20:55 12.03.2021
1540 Clear 18 1008 88 10000 2.57 180 20:31 12.03.2021
1541 Clear 19 1007 88 10000 2.57 160 19:54 12.03.2021
1542 Clear 19 1007 88 10000 2.57 160 19:34 12.03.2021
1543 Clear 20 1007 73 10000 2.57 140 18:54 12.03.2021
1544 Clear 21 1007 73 10000 2.57 140 18:33 12.03.2021
1545 Clear 22 1007 64 10000 3.6 150 17:47 12.03.2021
1546 Clear 22 1007 64 10000 3.6 150 17:29 12.03.2021
1547 Clear 24 1007 53 10000 3.6 160 16:54 12.03.2021
1548 Clear 25 1007 53 10000 3.6 160 16:33 12.03.2021
1549 Clear 26 1007 38 10000 2.06 330 15:51 12.03.2021
1550 Clear 27 1007 38 10000 2.06 330 15:25 12.03.2021
1551 Clear 26 1008 38 10000 3.6 310 14:47 12.03.2021
1552 Clear 27 1008 38 10000 3.6 310 14:20 12.03.2021
1553 Clear 26 1009 38 10000 4.63 300 13:42 12.03.2021
1554 Clear 27 1009 38 10000 4.63 300 13:21 12.03.2021
1555 Clear 26 1009 44 10000 4.12 300 12:56 12.03.2021
1556 Clear 26 1009 44 10000 4.12 300 12:36 12.03.2021
1557 Clear 25 1009 44 10000 4.12 300 12:18 12.03.2021
1558 Clear 25 1010 46 10000 4.63 310 11:47 12.03.2021
1559 Clear 24 1010 46 10000 4.63 310 11:19 12.03.2021
1560 Clear 24 1010 49 10000 4.63 320 10:45 12.03.2021
1561 Clear 23 1010 49 10000 4.63 320 10:22 12.03.2021
1562 Clear 22 1011 56 10000 5.14 330 09:48 12.03.2021
1563 Clear 21 1011 56 10000 5.14 330 09:19 12.03.2021
1564 Clear 21 1010 60 10000 4.63 330 08:40 12.03.2021
1565 Clear 18 1010 63 10000 5.14 340 07:51 12.03.2021
1566 Clear 17 1010 67 10000 3.6 10 07:29 12.03.2021
1567 Clear 17 1010 55 10000 4.12 330 06:44 12.03.2021
1568 Clear 16 1009 63 10000 5.14 340 05:56 12.03.2021
1569 Clear 17 1011 77 10000 2.06 330 00:59 12.03.2021
1570 Clear 17 1012 72 10000 2.57 310 23:59 11.03.2021
1571 Clear 19 1012 72 10000 2.57 310 23:19 11.03.2021
1572 Clear 19 1012 82 10000 1.54 0 22:41 11.03.2021
1573 Clear 20 1012 82 10000 1.54 0 22:21 11.03.2021
1574 Clear 19 1012 82 10000 1.03 0 21:46 11.03.2021
1575 Clear 19 1012 82 10000 1.03 0 21:26 11.03.2021
1576 Clear 20 1012 73 10000 1.03 0 20:49 11.03.2021
1577 Clear 19 1012 73 10000 1.03 0 20:23 11.03.2021
1578 Clear 19 1012 64 10000 1.03 0 19:56 11.03.2021
1579 Clear 19 1012 64 10000 1.03 0 19:36 11.03.2021
1580 Clear 21 1012 56 10000 3.09 220 18:54 11.03.2021
1581 Clear 21 1012 56 10000 3.09 220 18:35 11.03.2021
1582 Clouds 22 1012 56 10000 3.09 200 17:57 11.03.2021
1583 Clouds 22 1012 56 10000 3.09 200 17:39 11.03.2021
1584 Clouds 23 1012 53 10000 4.12 190 16:42 11.03.2021
1585 Clouds 23 1012 53 10000 4.12 190 16:24 11.03.2021
1586 Clouds 24 1012 50 10000 6.17 210 15:44 11.03.2021
1587 Clouds 24 1012 50 10000 6.17 210 15:21 11.03.2021
1588 Clouds 25 1012 38 10000 2.57 0 14:45 11.03.2021
1589 Clouds 24 1012 38 10000 2.57 0 14:19 11.03.2021
1590 Clouds 23 1013 43 10000 2.06 0 13:46 11.03.2021
1591 Clouds 23 1013 43 10000 2.06 0 13:22 11.03.2021
1592 Clouds 23 1013 49 10000 3.6 240 12:56 11.03.2021
1593 Clouds 23 1013 49 10000 3.6 240 12:31 11.03.2021
1594 Clouds 24 1013 46 10000 2.57 150 11:57 11.03.2021
1595 Clouds 24 1013 46 10000 2.57 150 11:37 11.03.2021
1596 Clouds 21 1013 46 10000 2.57 150 11:19 11.03.2021
1597 Clouds 21 1014 60 10000 5.14 170 10:28 11.03.2021
1598 Clouds 21 1014 60 10000 5.14 170 09:53 11.03.2021
1599 Clouds 21 1014 60 10000 5.14 170 09:34 11.03.2021
1600 Clouds 21 1014 60 10000 5.66 160 08:59 11.03.2021
1601 Clouds 21 1014 60 10000 5.66 160 08:40 11.03.2021
1602 Clouds 19 1014 77 10000 3.6 170 07:59 11.03.2021
1603 Clouds 17 1014 88 10000 3.09 170 07:21 11.03.2021
1604 Clouds 16 1013 94 10000 2.06 140 06:48 11.03.2021
1605 Clouds 15 1013 94 10000 2.06 140 06:23 11.03.2021
1606 Clouds 18 1014 94 10000 0.45 225 02:48 11.03.2021
1607 Rain 18 1012 100 10000 0.51 0 00:45 11.03.2021
1608 Rain 18 1011 94 10000 1.03 350 23:25 10.03.2021
1609 Rain 18 1011 94 10000 1.03 350 23:25 10.03.2021
1610 Rain 18 1011 94 10000 4.12 310 22:43 10.03.2021
1611 Rain 18 1011 94 10000 4.12 310 22:23 10.03.2021
1612 Rain 19 1011 94 3000 6.17 280 21:45 10.03.2021
1613 Rain 19 1011 94 3000 6.17 280 21:44 10.03.2021
1614 Rain 19 1011 94 3000 6.17 280 21:44 10.03.2021
1615 Rain 19 1010 94 1100 6.69 310 21:21 10.03.2021
1616 Rain 19 1010 94 10000 5.14 310 20:45 10.03.2021
1617 Rain 19 1010 94 10000 5.14 310 20:27 10.03.2021
1618 Rain 19 1009 94 10000 8.75 320 19:43 10.03.2021
1619 Rain 20 1009 94 10000 8.75 320 19:24 10.03.2021
1620 Rain 20 1009 94 10000 6.17 300 18:44 10.03.2021
1621 Rain 20 1008 88 10000 8.23 330 18:24 10.03.2021
1622 Rain 20 1008 88 10000 7.72 320 17:55 10.03.2021
1623 Rain 20 1008 88 10000 7.72 320 17:36 10.03.2021
1624 Rain 20 1008 88 10000 7.72 320 17:18 10.03.2021
1625 Rain 21 1007 88 10000 7.2 280 16:41 10.03.2021
1626 Rain 20 1007 88 10000 7.2 280 16:22 10.03.2021
1627 Rain 20 1007 88 10000 9.77 330 15:44 10.03.2021
1628 Rain 21 1007 88 10000 9.77 330 15:22 10.03.2021
1629 Rain 21 1007 88 10000 9.77 330 14:48 10.03.2021
1630 Rain 21 1007 88 10000 9.77 330 14:20 10.03.2021
1631 Rain 21 1007 88 10000 9.77 330 14:20 10.03.2021
1632 Rain 21 1007 88 10000 11.32 330 13:51 10.03.2021
1633 Rain 21 1007 94 10000 10.29 330 13:27 10.03.2021
1634 Rain 20 1007 94 10000 10.29 330 12:45 10.03.2021
1635 Rain 20 1007 94 3000 5.66 290 12:19 10.03.2021
1636 Rain 20 1007 94 3000 9.26 330 11:43 10.03.2021
1637 Rain 20 1007 94 3000 9.26 330 11:19 10.03.2021
1638 Rain 19 1007 94 3000 7.2 340 10:46 10.03.2021
1639 Rain 20 1007 94 3000 7.2 340 10:28 10.03.2021
1640 Rain 19 1007 94 7000 9.26 350 09:45 10.03.2021
1641 Rain 19 1007 94 7000 9.26 350 09:24 10.03.2021
1642 Rain 19 1007 94 7000 9.26 350 09:24 10.03.2021
1643 Rain 19 1007 94 7000 9.26 350 09:24 10.03.2021
1644 Drizzle 19 1006 94 7000 9.77 350 08:57 10.03.2021
1645 Drizzle 19 1006 94 7000 9.77 350 08:39 10.03.2021
1646 Rain 19 1006 94 7000 9.77 350 08:20 10.03.2021
1647 Drizzle 19 1006 88 10000 9.26 350 07:40 10.03.2021
1648 Rain 19 1006 88 10000 9.26 350 07:18 10.03.2021
1649 Rain 20 1006 94 10000 10.29 350 06:44 10.03.2021
1650 Rain 19 1006 94 10000 9.26 350 02:42 10.03.2021
1651 Rain 18 1006 88 4000 10.29 360 23:53 09.03.2021
1652 Rain 18 1006 88 4000 10.29 360 23:26 09.03.2021
1653 Rain 18 1007 88 6000 8.75 360 22:47 09.03.2021
1654 Rain 18 1007 88 6000 8.75 360 22:28 09.03.2021
1655 Rain 18 1007 94 6000 9.26 350 21:56 09.03.2021
1656 Rain 18 1007 94 6000 9.26 350 21:37 09.03.2021
1657 Rain 18 1007 94 6000 9.26 350 21:18 09.03.2021
1658 Rain 19 1007 72 10000 9.77 360 20:43 09.03.2021
1659 Rain 20 1007 72 10000 9.77 360 20:21 09.03.2021
1660 Rain 19 1007 68 10000 11.32 340 19:53 09.03.2021
1661 Clouds 20 1007 68 10000 11.83 340 19:28 09.03.2021
1662 Rain 19 1007 72 10000 11.32 330 18:51 09.03.2021
1663 Rain 20 1007 72 10000 11.32 330 18:28 09.03.2021
1664 Rain 19 1007 77 8000 13.38 330 17:54 09.03.2021
1665 Rain 20 1007 77 8000 13.38 330 17:34 09.03.2021
1666 Rain 20 1006 64 10000 14.92 330 16:55 09.03.2021
1667 Rain 20 1006 64 10000 14.92 330 16:37 09.03.2021
1668 Clouds 20 1006 64 10000 14.92 330 16:19 09.03.2021
1669 Clouds 20 1007 64 10000 14.4 320 15:44 09.03.2021
1670 Clouds 20 1007 64 10000 12.35 330 15:22 09.03.2021
1671 Clouds 20 1007 60 10000 14.92 330 14:36 09.03.2021
1672 Clouds 20 1007 60 10000 14.92 330 14:18 09.03.2021
1673 Clouds 20 1007 60 10000 14.4 320 13:38 09.03.2021
1674 Clouds 20 1007 60 10000 14.4 320 13:20 09.03.2021
1675 Clouds 21 1007 49 10000 13.38 320 12:42 09.03.2021
1676 Clouds 21 1007 49 10000 13.38 320 12:22 09.03.2021
1677 Clouds 21 1008 49 10000 12.86 330 11:42 09.03.2021
1678 Clouds 20 1008 49 10000 12.86 330 11:21 09.03.2021
1679 Clouds 20 1008 49 10000 12.86 330 11:21 09.03.2021
1680 Clouds 19 1009 56 10000 12.35 330 10:56 09.03.2021
1681 Clouds 19 1009 56 10000 12.35 330 10:38 09.03.2021
1682 Clouds 19 1009 56 10000 12.35 330 10:19 09.03.2021
1683 Clouds 19 1009 59 10000 8.75 340 09:44 09.03.2021
1684 Clouds 19 1009 59 10000 8.75 340 09:26 09.03.2021
1685 Clouds 18 1009 55 10000 8.75 10 08:48 09.03.2021
1686 Clouds 18 1009 55 10000 8.75 10 08:28 09.03.2021
1687 Clouds 16 1009 59 10000 7.2 10 07:40 09.03.2021
1688 Clouds 16 1009 59 10000 7.2 10 07:21 09.03.2021
1689 Clouds 16 1010 59 10000 5.14 10 06:18 09.03.2021
1690 Clouds 15 1009 63 10000 4.12 360 05:46 09.03.2021
1691 Clear 14 1011 67 10000 2.57 20 00:34 09.03.2021
1692 Clear 14 1011 67 10000 2.06 360 23:45 08.03.2021
1693 Clear 16 1011 67 10000 2.06 360 23:27 08.03.2021
1694 Clear 15 1011 67 10000 1.03 0 22:55 08.03.2021
1695 Clear 15 1011 67 10000 1.03 0 22:36 08.03.2021
1696 Clear 16 1011 67 10000 1.03 0 22:18 08.03.2021
1697 Clear 16 1012 63 10000 1.54 70 21:35 08.03.2021
1698 Clear 15 1012 59 10000 2.06 180 20:48 08.03.2021
1699 Clear 15 1012 59 10000 2.06 180 20:28 08.03.2021
1700 Clear 17 1012 55 10000 3.6 200 19:59 08.03.2021
1701 Clear 17 1012 55 10000 3.6 200 19:37 08.03.2021
1702 Clear 18 1011 52 10000 4.12 190 18:44 08.03.2021
1703 Clear 18 1011 52 10000 4.12 190 18:23 08.03.2021
1704 Clear 18 1011 45 10000 5.14 200 17:56 08.03.2021
1705 Clear 18 1011 45 10000 5.14 200 17:38 08.03.2021
1706 Clear 19 1011 40 10000 5.66 200 16:56 08.03.2021
1707 Clear 20 1011 40 10000 5.66 200 16:33 08.03.2021
1708 Clear 21 1012 43 10000 6.69 170 15:57 08.03.2021
1709 Clear 21 1012 43 10000 6.69 170 15:31 08.03.2021
1710 Clear 21 1012 37 10000 6.17 190 14:59 08.03.2021
1711 Clear 22 1012 37 10000 6.17 190 14:21 08.03.2021
1712 Clouds 21 1012 43 10000 6.17 200 13:44 08.03.2021
1713 Clouds 21 1012 43 10000 6.17 200 13:22 08.03.2021
1714 Clouds 21 1013 49 10000 6.17 180 12:49 08.03.2021
1715 Clouds 21 1013 49 10000 6.17 180 12:29 08.03.2021
1716 Clouds 20 1013 49 10000 5.14 190 11:45 08.03.2021
1717 Clouds 20 1013 49 10000 5.14 190 11:20 08.03.2021
1718 Clouds 20 1014 45 10000 5.66 180 10:47 08.03.2021
1719 Clouds 20 1014 45 10000 5.66 180 10:28 08.03.2021
1720 Clear 20 1013 48 10000 5.14 190 09:45 08.03.2021
1721 Clear 19 1013 48 10000 5.14 190 09:25 08.03.2021
1722 Clouds 18 1013 52 10000 5.66 190 08:31 08.03.2021
1723 Clouds 17 1014 59 10000 5.14 190 07:49 08.03.2021
1724 Clouds 17 1014 59 10000 5.14 190 07:21 08.03.2021
1725 Clouds 17 1014 67 10000 6.69 190 05:19 08.03.2021
1726 Clear 16 1014 72 10000 5.14 190 01:45 08.03.2021
1727 Clear 16 1014 77 10000 4.12 200 00:41 08.03.2021
1728 Clear 16 1015 77 10000 3.6 190 23:53 07.03.2021
1729 Clear 17 1015 77 10000 3.6 190 23:20 07.03.2021
1730 Clouds 16 1015 77 10000 4.12 180 22:45 07.03.2021
1731 Clouds 17 1015 77 10000 4.12 180 22:26 07.03.2021
1732 Clear 17 1016 72 10000 5.66 180 21:49 07.03.2021
1733 Clear 17 1016 72 10000 5.66 180 21:31 07.03.2021
1734 Clouds 17 1016 72 10000 5.14 170 20:56 07.03.2021
1735 Clouds 17 1016 72 10000 5.14 170 20:37 07.03.2021
1736 Clouds 17 1016 72 10000 5.14 170 20:18 07.03.2021
1737 Clouds 17 1016 72 10000 5.14 170 19:40 07.03.2021
1738 Clouds 18 1016 72 10000 5.14 170 19:22 07.03.2021
1739 Clouds 18 1016 63 10000 6.69 170 18:51 07.03.2021
1740 Clouds 18 1016 63 10000 6.69 170 18:21 07.03.2021
1741 Clouds 18 1016 68 10000 7.2 170 17:57 07.03.2021
1742 Clouds 18 1016 68 10000 7.2 170 17:37 07.03.2021
1743 Clouds 19 1016 68 10000 7.2 170 17:18 07.03.2021
1744 Clouds 19 1016 59 10000 9.26 170 16:42 07.03.2021
1745 Clouds 19 1016 59 10000 9.26 170 16:20 07.03.2021
1746 Clouds 19 1016 63 10000 9.26 190 15:49 07.03.2021
1747 Clouds 19 1016 63 10000 9.26 190 15:31 07.03.2021
1748 Clouds 19 1016 68 10000 9.26 180 14:47 07.03.2021
1749 Clouds 19 1016 68 10000 9.26 180 14:29 07.03.2021
1750 Clouds 19 1016 72 10000 9.26 200 13:48 07.03.2021
1751 Clouds 19 1016 72 10000 9.26 200 13:26 07.03.2021
1752 Rain 19 1017 82 10000 7.72 180 12:48 07.03.2021
1753 Rain 19 1017 82 10000 7.72 180 12:30 07.03.2021
1754 Rain 19 1017 94 10000 7.2 170 11:54 07.03.2021
1755 Rain 19 1017 94 7000 7.2 180 11:23 07.03.2021
1756 Rain 19 1017 88 6000 5.14 190 10:51 07.03.2021
1757 Rain 20 1017 83 8000 5.14 190 10:33 07.03.2021
1758 Rain 21 1017 78 10000 3.09 180 09:52 07.03.2021
1759 Rain 21 1017 78 10000 3.09 180 09:27 07.03.2021
1760 Rain 20 1017 77 10000 0.51 0 08:57 07.03.2021
1761 Rain 20 1017 77 10000 0.51 0 08:38 07.03.2021
1762 Rain 20 1017 77 10000 0.51 0 08:20 07.03.2021
1763 Clouds 18 1016 88 10000 2.57 90 05:26 07.03.2021
1764 Clear 18 1016 82 10000 2.06 40 02:33 07.03.2021
1765 Clear 18 1017 82 10000 1.03 0 00:33 07.03.2021
1766 Clear 18 1017 77 10000 1.03 90 23:40 06.03.2021
1767 Clear 18 1017 77 10000 1.03 90 23:20 06.03.2021
1768 Clear 19 1017 72 10000 1.03 10 22:45 06.03.2021
1769 Clear 19 1017 72 10000 1.03 10 22:21 06.03.2021
1770 Clear 19 1017 72 10000 1.54 0 21:41 06.03.2021
1771 Clear 19 1017 72 10000 1.54 0 21:41 06.03.2021
1772 Clear 19 1017 72 10000 1.54 0 21:20 06.03.2021
1773 Clear 20 1017 68 10000 3.09 220 20:41 06.03.2021
1774 Clouds 21 1016 64 10000 3.6 250 19:55 06.03.2021
1775 Clouds 21 1016 64 10000 3.6 250 19:37 06.03.2021
1776 Clouds 21 1016 64 10000 3.6 250 19:18 06.03.2021
1777 Clouds 22 1015 56 10000 4.63 230 18:41 06.03.2021
1778 Clouds 22 1015 56 10000 4.63 230 18:20 06.03.2021
1779 Clouds 23 1015 46 10000 5.14 260 17:48 06.03.2021
1780 Clouds 24 1015 46 10000 5.14 260 17:27 06.03.2021
1781 Clouds 25 1015 41 10000 5.66 260 16:53 06.03.2021
1782 Clouds 25 1015 41 10000 5.66 260 16:31 06.03.2021
1783 Clouds 25 1015 41 10000 5.66 320 15:55 06.03.2021
1784 Clouds 25 1015 41 10000 5.66 320 15:34 06.03.2021
1785 Clouds 25 1015 44 10000 5.14 250 14:57 06.03.2021
1786 Clouds 25 1015 44 10000 5.14 250 14:31 06.03.2021
1787 Clouds 24 1015 50 10000 4.63 350 13:50 06.03.2021
1788 Clouds 24 1015 50 10000 4.63 350 13:32 06.03.2021
1789 Clouds 24 1015 64 10000 6.17 300 12:58 06.03.2021
1790 Clouds 24 1015 64 10000 6.17 300 12:38 06.03.2021
1791 Clouds 23 1015 64 10000 6.17 300 12:18 06.03.2021
1792 Clouds 23 1014 68 10000 5.66 320 11:29 06.03.2021
1793 Clouds 24 1014 64 10000 4.63 330 10:59 06.03.2021
1794 Clouds 24 1014 64 10000 4.63 330 10:41 06.03.2021
1795 Clouds 23 1014 68 10000 5.66 40 09:56 06.03.2021
1796 Clouds 22 1014 68 10000 5.66 40 09:24 06.03.2021
1797 Clouds 21 1014 77 10000 4.63 30 08:54 06.03.2021
1798 Clouds 20 1014 72 10000 5.14 30 08:30 06.03.2021
1799 Clouds 18 1013 72 10000 4.63 20 07:55 06.03.2021
1800 Clouds 17 1013 77 10000 3.6 30 07:22 06.03.2021
1801 Clear 16 1012 88 10000 3.09 360 06:27 06.03.2021
1802 Clear 17 1010 88 10000 3.09 320 03:47 06.03.2021
1803 Clear 19 1011 88 10000 1.54 350 01:42 06.03.2021
1804 Clear 19 1011 88 10000 0.51 0 00:46 06.03.2021
1805 Clear 18 1011 77 10000 3.09 220 23:49 05.03.2021
1806 Clear 18 1011 77 10000 3.09 220 23:19 05.03.2021
1807 Clear 18 1011 77 10000 3.09 220 23:19 05.03.2021
1808 Clear 19 1012 73 10000 3.6 220 22:44 05.03.2021
1809 Clear 19 1012 73 10000 3.6 220 22:22 05.03.2021
1810 Clear 19 1012 77 10000 5.14 220 21:51 05.03.2021
1811 Clear 19 1012 77 10000 5.14 220 21:31 05.03.2021
1812 Clear 19 1012 82 10000 6.17 230 20:50 05.03.2021
1813 Clear 20 1012 82 10000 6.17 230 20:26 05.03.2021
1814 Clear 20 1011 77 10000 7.2 240 19:54 05.03.2021
1815 Clear 20 1011 77 10000 7.2 240 19:26 05.03.2021
1816 Clear 21 1012 73 10000 7.2 220 18:55 05.03.2021
1817 Clear 21 1012 73 10000 7.2 220 18:36 05.03.2021
1818 Clear 21 1012 73 10000 7.2 220 18:18 05.03.2021
1819 Clear 22 1012 56 10000 7.2 200 17:34 05.03.2021
1820 Clear 24 1012 50 10000 8.75 190 16:46 05.03.2021
1821 Clear 24 1012 50 10000 8.75 190 16:24 05.03.2021
1822 Clear 25 1012 47 10000 7.72 190 15:56 05.03.2021
1823 Clear 25 1012 47 10000 7.72 190 15:37 05.03.2021
1824 Clear 25 1012 47 10000 7.72 190 15:18 05.03.2021
1825 Clear 26 1012 41 10000 8.23 200 14:38 05.03.2021
1826 Clear 26 1013 41 10000 6.69 210 13:55 05.03.2021
1827 Clear 26 1013 41 10000 6.69 210 13:55 05.03.2021
1828 Clear 26 1013 41 10000 6.69 210 13:22 05.03.2021
1829 Clear 26 1013 36 10000 6.17 190 12:49 05.03.2021
1830 Clear 27 1013 34 10000 2.57 0 11:54 05.03.2021
1831 Clear 27 1013 34 10000 2.57 0 11:36 05.03.2021
1832 Clear 26 1013 34 10000 2.57 0 11:18 05.03.2021
1833 Clear 25 1014 38 10000 2.06 0 10:40 05.03.2021
1834 Clear 25 1014 38 10000 2.06 0 10:21 05.03.2021
1835 Clear 23 1013 46 10000 1.54 0 09:47 05.03.2021
1836 Clear 23 1013 46 10000 1.54 0 09:26 05.03.2021
1837 Clear 21 1013 52 10000 2.06 190 08:40 05.03.2021
1838 Clear 20 1013 52 10000 2.06 190 08:22 05.03.2021
1839 Clear 19 1013 60 10000 1.54 0 07:39 05.03.2021
1840 Clear 18 1013 77 10000 1.03 0 06:50 05.03.2021
1841 Clear 18 1013 77 10000 1.03 0 06:30 05.03.2021
1842 Clear 19 1013 63 10000 7.72 180 01:52 05.03.2021
1843 Clear 18 1014 68 10000 6.69 170 00:34 05.03.2021
1844 Clear 18 1014 68 10000 6.17 170 23:31 04.03.2021
1845 Clear 19 1014 72 10000 5.14 170 22:38 04.03.2021
1846 Clear 19 1014 72 10000 5.14 170 22:19 04.03.2021
1847 Clear 19 1015 63 10000 5.66 180 21:42 04.03.2021
1848 Clear 19 1015 63 10000 5.66 180 21:23 04.03.2021
1849 Clouds 19 1015 63 10000 5.14 170 20:41 04.03.2021
1850 Clouds 19 1015 63 10000 5.14 170 20:21 04.03.2021
1851 Clouds 19 1014 56 10000 6.69 180 19:54 04.03.2021
1852 Clouds 20 1014 56 10000 6.69 180 19:30 04.03.2021
1853 Clouds 20 1014 56 10000 7.72 170 18:59 04.03.2021
1854 Clouds 20 1014 56 10000 7.72 170 18:59 04.03.2021
1855 Clouds 20 1014 56 10000 7.72 170 18:59 04.03.2021
1856 Clouds 20 1014 56 10000 7.72 170 18:38 04.03.2021
1857 Clouds 20 1014 56 10000 7.72 170 18:19 04.03.2021
1858 Clouds 21 1014 52 10000 9.77 180 17:42 04.03.2021
1859 Clouds 21 1014 52 10000 9.77 180 17:20 04.03.2021
1860 Clouds 22 1014 49 10000 8.23 170 16:44 04.03.2021
1861 Clouds 22 1014 49 10000 8.23 170 16:44 04.03.2021
1862 Clouds 22 1014 49 10000 8.23 170 16:44 04.03.2021
1863 Clouds 22 1014 49 10000 8.23 170 16:24 04.03.2021
1864 Clouds 22 1014 53 10000 8.75 180 15:48 04.03.2021
1865 Clouds 21 1014 53 10000 8.75 180 15:30 04.03.2021
1866 Clouds 22 1014 46 10000 8.23 180 14:45 04.03.2021
1867 Clouds 22 1014 46 10000 8.23 180 14:22 04.03.2021
1868 Clouds 22 1014 56 10000 8.23 170 13:45 04.03.2021
1869 Clouds 22 1014 56 10000 8.23 170 13:23 04.03.2021
1870 Rain 22 1014 56 10000 8.23 180 12:44 04.03.2021
1871 Rain 22 1014 56 10000 8.23 180 12:25 04.03.2021
1872 Clouds 22 1014 60 10000 6.69 170 11:43 04.03.2021
1873 Clouds 21 1014 60 10000 6.69 170 11:22 04.03.2021
1874 Clouds 21 1015 64 10000 6.17 170 10:46 04.03.2021
1875 Clouds 20 1015 64 10000 6.17 170 10:25 04.03.2021
1876 Clouds 20 1014 64 10000 5.66 170 09:36 04.03.2021
1877 Clouds 19 1014 77 10000 6.17 190 08:56 04.03.2021
1878 Clouds 21 1014 77 10000 6.17 190 08:34 04.03.2021
1879 Rain 19 1014 82 10000 7.2 200 07:51 04.03.2021
1880 Rain 19 1013 88 3000 6.17 200 07:19 04.03.2021
1881 Clouds 19 1013 88 10000 5.14 200 06:24 04.03.2021
1882 Clouds 19 1013 94 10000 5.66 200 02:39 04.03.2021
1883 Clouds 19 1013 94 10000 5.66 190 01:24 04.03.2021
1884 Clouds 19 1014 94 10000 6.17 180 22:43 03.03.2021
1885 Clouds 19 1014 94 10000 6.17 180 22:25 03.03.2021
1886 Clouds 20 1014 88 10000 6.69 180 21:43 03.03.2021
1887 Clouds 21 1014 88 10000 6.69 180 21:24 03.03.2021
1888 Clouds 21 1014 88 10000 5.14 180 20:57 03.03.2021
1889 Clouds 21 1014 88 10000 5.14 180 20:39 03.03.2021
1890 Clouds 21 1013 78 10000 6.17 200 19:59 03.03.2021
1891 Clouds 21 1013 78 10000 6.17 200 19:40 03.03.2021
1892 Clouds 21 1013 78 10000 6.17 200 19:19 03.03.2021
1893 Clouds 22 1013 68 10000 6.69 190 18:45 03.03.2021
1894 Clouds 22 1013 68 10000 6.69 190 18:20 03.03.2021
1895 Clouds 24 1012 53 10000 6.69 180 17:42 03.03.2021
1896 Clouds 25 1012 53 10000 6.69 180 17:18 03.03.2021
1897 Clouds 24 1012 47 10000 5.66 180 16:40 03.03.2021
1898 Clouds 27 1012 47 10000 5.66 180 16:21 03.03.2021
1899 Clouds 26 1012 44 10000 6.17 180 15:33 03.03.2021
1900 Clouds 25 1013 47 10000 5.14 200 14:54 03.03.2021
1901 Clouds 25 1013 47 10000 5.14 200 14:29 03.03.2021
1902 Clouds 25 1013 50 10000 3.09 0 13:52 03.03.2021
1903 Clouds 25 1013 50 10000 3.09 0 13:52 03.03.2021
1904 Clouds 25 1013 50 10000 3.09 0 13:31 03.03.2021
1905 Clouds 24 1014 53 10000 3.09 0 12:44 03.03.2021
1906 Clouds 25 1014 53 10000 3.09 0 12:26 03.03.2021
1907 Clouds 25 1014 53 10000 3.09 0 11:48 03.03.2021
1908 Clouds 24 1014 53 10000 3.09 0 11:28 03.03.2021
1909 Clouds 25 1014 53 10000 3.09 340 10:50 03.03.2021
1910 Clouds 24 1014 53 10000 3.09 340 10:31 03.03.2021
1911 Clouds 23 1015 68 10000 2.57 300 09:49 03.03.2021
1912 Clouds 23 1015 68 10000 2.57 300 09:31 03.03.2021
1913 Clouds 22 1015 78 10000 3.09 360 08:44 03.03.2021
1914 Clouds 20 1015 94 10000 2.57 350 08:22 03.03.2021
1915 Clouds 18 1015 94 10000 2.06 360 07:41 03.03.2021
1916 Clouds 18 1014 94 9000 2.06 40 06:51 03.03.2021
1917 Clouds 17 1014 94 8000 2.57 30 05:46 03.03.2021
1918 Mist 17 1014 100 5000 1.54 360 04:58 03.03.2021
1919 Mist 18 1013 94 4000 3.09 340 04:26 03.03.2021
1920 Fog 19 1013 94 800 2.57 350 02:19 03.03.2021
1921 Mist 17 1014 94 4000 2.57 320 23:58 02.03.2021
1922 Clouds 17 1014 94 10000 2.57 310 23:28 02.03.2021
1923 Clear 18 1014 94 10000 3.09 310 22:42 02.03.2021
1924 Clear 19 1014 94 10000 3.09 310 22:19 02.03.2021
1925 Clear 18 1013 82 10000 2.06 320 21:40 02.03.2021
1926 Clear 19 1013 82 10000 2.06 320 21:22 02.03.2021
1927 Clear 19 1013 82 10000 2.57 350 20:47 02.03.2021
1928 Clear 19 1013 82 10000 2.57 350 20:47 02.03.2021
1929 Clear 19 1013 82 10000 2.57 350 20:22 02.03.2021
1930 Clear 19 1012 82 10000 3.6 340 19:56 02.03.2021
1931 Clear 19 1012 82 10000 3.6 340 19:38 02.03.2021
1932 Clear 21 1012 68 10000 4.63 340 19:18 02.03.2021
1933 Clear 22 1012 68 10000 4.63 340 18:40 02.03.2021
1934 Clear 23 1012 68 10000 4.63 340 18:21 02.03.2021
1935 Clear 24 1011 53 10000 6.17 310 17:49 02.03.2021
1936 Clear 24 1011 53 10000 6.17 310 17:30 02.03.2021
1937 Clear 24 1011 47 10000 7.2 300 16:56 02.03.2021
1938 Clear 24 1011 47 10000 7.2 300 16:33 02.03.2021
1939 Clear 24 1011 53 10000 7.72 320 15:51 02.03.2021
1940 Clear 24 1011 53 10000 7.72 320 15:25 02.03.2021
1941 Clear 24 1012 57 10000 7.72 310 14:24 02.03.2021
1942 Clear 24 1012 50 10000 6.69 300 13:57 02.03.2021
1943 Clear 24 1012 50 10000 6.69 300 13:38 02.03.2021
1944 Clear 24 1012 53 10000 6.17 310 13:18 02.03.2021
1945 Clear 23 1012 53 10000 6.17 310 12:30 02.03.2021
1946 Clouds 24 1013 53 10000 6.17 320 11:54 02.03.2021
1947 Clouds 24 1013 53 10000 6.17 320 11:36 02.03.2021
1948 Clouds 24 1013 53 10000 6.17 320 11:18 02.03.2021
1949 Clouds 23 1014 68 10000 5.66 320 10:33 02.03.2021
1950 Clouds 22 1014 73 10000 5.14 310 09:59 02.03.2021
1951 Clouds 21 1014 73 10000 5.14 310 09:40 02.03.2021
1952 Clouds 21 1013 77 10000 4.63 300 09:19 02.03.2021
1953 Clouds 21 1013 77 10000 4.63 300 08:38 02.03.2021
1954 Clouds 20 1013 82 10000 3.6 340 07:58 02.03.2021
1955 Clouds 19 1013 82 10000 3.6 340 07:27 02.03.2021
1956 Clouds 18 1012 88 10000 3.6 360 06:33 02.03.2021
1957 Clouds 19 1012 88 10000 5.14 20 05:45 02.03.2021
1958 Clouds 19 1012 88 10000 4.63 360 05:27 02.03.2021
1959 Clouds 19 1012 88 10000 7.2 350 01:44 02.03.2021
1960 Clouds 19 1012 88 10000 7.2 350 01:44 02.03.2021
1961 Clouds 19 1012 88 10000 7.2 350 01:44 02.03.2021
1962 Clouds 19 1012 88 10000 7.2 350 01:25 02.03.2021
1963 Clouds 20 1012 88 10000 7.72 350 00:21 02.03.2021
1964 Clouds 19 1012 88 10000 8.75 340 23:22 01.03.2021
1965 Clouds 19 1011 88 10000 6.69 330 22:40 01.03.2021
1966 Clouds 19 1011 88 10000 6.69 330 22:21 01.03.2021
1967 Clouds 19 1011 88 10000 7.2 340 21:45 01.03.2021
1968 Clouds 19 1011 88 10000 7.72 330 21:23 01.03.2021
1969 Clouds 20 1010 72 10000 8.23 330 20:47 01.03.2021
1970 Clouds 20 1010 72 10000 8.23 330 20:27 01.03.2021
1971 Clouds 21 1009 60 10000 5.66 320 19:53 01.03.2021
1972 Rain 22 1009 60 10000 5.66 320 19:33 01.03.2021
1973 Rain 23 1009 56 10000 6.17 160 18:46 01.03.2021
1974 Clouds 24 1009 56 10000 6.17 160 18:24 01.03.2021
1975 Clouds 25 1008 33 10000 5.66 20 17:52 01.03.2021
1976 Clouds 28 1008 33 10000 5.66 20 17:28 01.03.2021
1977 Clouds 28 1008 33 10000 5.66 50 16:59 01.03.2021
1978 Clouds 29 1008 33 10000 5.66 50 16:40 01.03.2021
1979 Clouds 28 1008 33 10000 5.66 50 16:22 01.03.2021
1980 Clouds 26 1008 50 10000 1.54 0 15:39 01.03.2021
1981 Clouds 28 1010 34 10000 3.6 30 15:18 01.03.2021
1982 Clouds 27 1010 34 10000 3.6 30 14:43 01.03.2021
1983 Rain 26 1010 34 10000 3.6 30 14:25 01.03.2021
1984 Rain 26 1011 36 10000 1.54 0 13:39 01.03.2021
1985 Rain 26 1011 36 10000 1.54 0 13:20 01.03.2021
1986 Rain 26 1011 36 10000 1.54 0 13:20 01.03.2021
1987 Rain 28 1011 32 10000 5.14 320 12:44 01.03.2021
1988 Rain 28 1011 32 10000 5.14 320 12:26 01.03.2021
1989 Rain 30 1011 30 10000 6.17 300 11:58 01.03.2021
1990 Rain 29 1010 32 10000 3.09 340 11:32 01.03.2021
1991 Rain 26 1011 44 10000 3.6 350 10:44 01.03.2021
1992 Clear 28 1011 53 10000 6.17 330 10:22 01.03.2021
1993 Clear 25 1011 68 10000 7.2 330 09:56 01.03.2021
1994 Clear 24 1011 68 10000 7.2 330 09:37 01.03.2021
1995 Clear 24 1011 68 10000 7.2 330 09:19 01.03.2021
1996 Clouds 22 1010 68 10000 4.63 320 08:41 01.03.2021
1997 Clouds 20 1010 72 10000 3.6 360 07:34 01.03.2021
1998 Clouds 19 1010 77 10000 2.57 30 06:31 01.03.2021
1999 Clear 20 1009 77 10000 4.12 340 02:47 01.03.2021
2000 Clear 22 1008 73 10000 2.57 320 23:58 28.02.2021
2001 Clear 23 1008 73 10000 2.57 320 23:22 28.02.2021
2002 Clear 23 1007 64 10000 3.6 220 22:45 28.02.2021
2003 Clear 23 1007 64 10000 3.6 220 22:21 28.02.2021
2004 Clear 24 1007 64 10000 4.12 230 21:47 28.02.2021
2005 Clear 24 1007 64 10000 4.12 230 21:24 28.02.2021
2006 Clear 23 1007 68 10000 6.17 220 20:49 28.02.2021
2007 Clear 23 1007 68 10000 6.17 220 20:30 28.02.2021
2008 Clear 23 1007 73 10000 6.69 230 19:47 28.02.2021
2009 Clear 25 1007 73 10000 6.69 230 19:28 28.02.2021
2010 Clear 25 1007 64 10000 6.69 230 18:47 28.02.2021
2011 Clear 26 1007 64 10000 6.69 230 18:28 28.02.2021
2012 Clear 27 1007 54 10000 6.69 220 17:58 28.02.2021
2013 Clear 27 1007 54 10000 6.69 220 17:38 28.02.2021
2014 Clear 29 1007 54 10000 6.69 220 17:20 28.02.2021
2015 Clear 29 1007 51 10000 7.2 220 16:48 28.02.2021
2016 Clear 29 1007 51 10000 7.2 220 16:29 28.02.2021
2017 Clear 29 1007 51 10000 7.2 220 16:29 28.02.2021
2018 Clear 31 1008 45 10000 6.69 220 15:52 28.02.2021
2019 Clear 32 1008 45 10000 6.69 220 15:28 28.02.2021
2020 Clear 33 1009 42 10000 5.66 230 14:58 28.02.2021
2021 Clear 31 1009 42 10000 5.66 230 14:35 28.02.2021
2022 Clear 32 1009 31 10000 5.14 190 13:59 28.02.2021
2023 Clear 33 1009 31 10000 5.14 190 13:38 28.02.2021
2024 Clear 33 1009 31 10000 5.14 190 13:19 28.02.2021
2025 Clear 32 1009 35 10000 7.72 160 12:54 28.02.2021
2026 Clear 32 1009 35 10000 7.72 160 12:35 28.02.2021
2027 Clear 32 1009 35 10000 7.72 160 11:58 28.02.2021
2028 Clear 32 1010 37 10000 8.23 180 11:40 28.02.2021
2029 Clear 32 1010 37 10000 8.23 180 11:21 28.02.2021
2030 Clear 30 1010 42 10000 9.26 170 10:43 28.02.2021
2031 Clear 30 1010 42 10000 9.26 170 10:25 28.02.2021
2032 Clear 29 1010 42 10000 3.09 140 09:40 28.02.2021
2033 Clear 26 1010 47 10000 3.6 150 09:21 28.02.2021
2034 Clear 24 1010 53 10000 1.03 0 08:45 28.02.2021
2035 Clear 23 1010 53 10000 1.03 0 08:26 28.02.2021
2036 Clear 22 1010 68 10000 0.51 0 07:46 28.02.2021
2037 Clear 22 1010 68 10000 0.51 0 07:28 28.02.2021
2038 Clear 20 1009 82 10000 1.03 0 06:24 28.02.2021
2039 Clear 20 1009 77 10000 1.54 0 05:21 28.02.2021
2040 Clear 20 1010 72 10000 0.51 0 02:40 28.02.2021
2041 Clear 20 1011 72 10000 2.06 180 01:36 28.02.2021
2042 Clear 21 1011 68 10000 3.6 170 00:43 28.02.2021
2043 Clear 21 1011 68 10000 3.6 170 00:21 28.02.2021
2044 Clear 21 1011 68 10000 4.63 150 23:44 27.02.2021
2045 Clear 21 1011 68 10000 4.63 150 23:18 27.02.2021
2046 Clear 22 1011 64 10000 5.66 140 22:43 27.02.2021
2047 Clear 22 1011 64 10000 5.66 140 22:19 27.02.2021
2048 Clear 22 1011 60 10000 7.2 170 21:40 27.02.2021
2049 Clear 22 1011 60 10000 7.2 170 21:22 27.02.2021
2050 Clear 23 1012 53 10000 6.69 150 20:47 27.02.2021
2051 Clear 23 1012 53 10000 6.69 150 20:27 27.02.2021
2052 Clear 23 1011 50 10000 7.2 150 19:45 27.02.2021
2053 Clear 24 1011 50 10000 7.2 150 19:26 27.02.2021
2054 Clear 24 1011 44 10000 4.12 150 18:44 27.02.2021
2055 Clear 25 1011 44 10000 4.12 150 18:21 27.02.2021
2056 Clear 25 1011 39 10000 5.66 220 17:55 27.02.2021
2057 Clear 26 1011 39 10000 5.66 220 17:36 27.02.2021
2058 Clear 26 1011 39 10000 5.66 220 17:18 27.02.2021
2059 Clear 27 1011 42 10000 7.72 210 16:48 27.02.2021
2060 Clear 28 1011 42 10000 7.72 210 16:25 27.02.2021
2061 Clear 27 1011 44 10000 7.2 220 15:41 27.02.2021
2062 Clear 29 1011 39 10000 7.72 210 14:57 27.02.2021
2063 Clear 29 1011 39 10000 7.72 210 14:39 27.02.2021
2064 Clear 29 1011 39 10000 7.72 210 14:19 27.02.2021
2065 Clear 29 1012 37 10000 9.26 200 13:37 27.02.2021
2066 Clear 29 1012 37 10000 9.26 200 13:18 27.02.2021
2067 Clear 30 1012 33 10000 7.72 170 12:40 27.02.2021
2068 Clear 30 1012 33 10000 7.72 170 12:22 27.02.2021
2069 Clear 28 1012 39 10000 9.26 180 11:43 27.02.2021
2070 Clear 28 1012 39 10000 9.26 180 11:24 27.02.2021
2071 Clear 26 1013 47 10000 9.26 180 10:48 27.02.2021
2072 Clear 26 1013 47 10000 9.26 180 10:29 27.02.2021
2073 Clear 25 1012 47 10000 7.2 170 09:52 27.02.2021
2074 Clear 25 1012 47 10000 7.2 170 09:31 27.02.2021
2075 Clear 24 1012 53 10000 5.14 160 08:43 27.02.2021
2076 Clear 23 1012 53 10000 5.14 160 08:22 27.02.2021
2077 Clear 21 1012 64 10000 9.26 170 07:42 27.02.2021
2078 Clear 18 1011 68 10000 7.2 190 06:21 27.02.2021
2079 Clear 19 1012 68 10000 4.12 150 01:21 27.02.2021
2080 Clear 20 1013 64 10000 5.14 160 23:58 26.02.2021
2081 Clear 20 1013 64 10000 5.14 160 23:40 26.02.2021
2082 Clear 20 1013 64 10000 5.14 160 23:18 26.02.2021
2083 Clear 20 1012 64 10000 5.66 170 22:31 26.02.2021
2084 Clear 20 1013 64 10000 8.75 170 21:49 26.02.2021
2085 Clear 21 1013 64 10000 8.75 170 21:31 26.02.2021
2086 Clear 21 1013 60 10000 7.72 150 20:45 26.02.2021
2087 Clear 21 1013 60 10000 7.72 150 20:24 26.02.2021
2088 Clouds 22 1012 56 10000 8.75 170 19:53 26.02.2021
2089 Clouds 22 1012 56 10000 8.75 170 19:26 26.02.2021
2090 Clouds 22 1012 60 10000 9.26 190 18:49 26.02.2021
2091 Clouds 22 1012 60 10000 9.26 190 18:24 26.02.2021
2092 Clouds 23 1012 57 10000 9.77 190 17:56 26.02.2021
2093 Clouds 23 1012 57 10000 9.77 190 17:36 26.02.2021
2094 Clouds 24 1012 53 10000 10.29 200 16:58 26.02.2021
2095 Clouds 25 1012 53 10000 10.29 200 16:40 26.02.2021
2096 Clouds 25 1012 53 10000 10.29 200 16:40 26.02.2021
2097 Clouds 25 1012 53 10000 10.29 200 16:22 26.02.2021
2098 Clouds 25 1012 50 10000 10.8 200 15:43 26.02.2021
2099 Clouds 26 1012 50 10000 10.8 200 15:23 26.02.2021
2100 Clear 26 1013 47 10000 11.32 190 14:52 26.02.2021
2101 Clear 26 1013 47 10000 11.32 190 14:34 26.02.2021
2102 Clear 26 1013 47 10000 9.77 190 13:52 26.02.2021
2103 Clear 27 1013 47 10000 9.77 190 13:33 26.02.2021
2104 Clear 27 1013 44 10000 9.77 190 12:50 26.02.2021
2105 Clear 26 1013 44 10000 9.77 190 12:27 26.02.2021
2106 Clear 26 1014 36 10000 6.69 170 11:42 26.02.2021
2107 Clear 26 1014 41 10000 6.69 160 10:58 26.02.2021
2108 Clear 25 1014 41 10000 6.69 160 10:37 26.02.2021
2109 Clear 25 1014 44 10000 5.14 160 09:47 26.02.2021
2110 Clear 25 1014 44 10000 5.14 160 09:28 26.02.2021
2111 Clear 22 1014 56 10000 7.2 150 08:36 26.02.2021
2112 Clouds 22 1014 60 10000 8.75 150 07:57 26.02.2021
2113 Clouds 21 1014 60 10000 8.75 150 07:22 26.02.2021
2114 Clouds 19 1014 63 10000 9.77 150 06:32 26.02.2021
2115 Clear 19 1013 63 10000 10.8 170 05:18 26.02.2021
2116 Clouds 19 1014 64 10000 11.83 160 02:38 26.02.2021
2117 Clear 20 1015 60 10000 13.38 160 00:33 26.02.2021
2118 Clear 19 1016 72 10000 8.75 170 23:40 25.02.2021
2119 Clear 19 1016 72 10000 8.75 170 23:19 25.02.2021
2120 Clear 19 1016 72 10000 9.77 170 22:38 25.02.2021
2121 Clear 20 1016 68 10000 9.77 170 21:53 25.02.2021
2122 Clear 20 1016 68 10000 9.77 170 21:33 25.02.2021
2123 Clear 20 1016 64 10000 10.29 160 20:56 25.02.2021
2124 Clear 20 1016 64 10000 10.29 160 20:37 25.02.2021
2125 Clear 20 1016 64 10000 10.29 160 20:18 25.02.2021
2126 Clear 20 1015 64 10000 10.8 160 19:47 25.02.2021
2127 Clear 20 1015 64 10000 10.8 160 19:19 25.02.2021
2128 Clouds 21 1015 60 10000 12.86 170 18:44 25.02.2021
2129 Clouds 21 1015 60 10000 12.86 170 18:18 25.02.2021
2130 Clouds 21 1015 60 10000 13.89 170 17:42 25.02.2021
2131 Clouds 22 1015 60 10000 13.89 170 17:22 25.02.2021
2132 Clouds 23 1014 60 10000 13.89 180 16:34 25.02.2021
2133 Clear 24 1009 44 10000 2.24 204 15:55 25.02.2021
2134 Clear 24 1014 50 10000 13.89 180 15:28 25.02.2021
2135 Clear 24 1014 50 10000 13.89 180 14:40 25.02.2021
2136 Clear 24 1014 50 10000 13.89 180 14:21 25.02.2021
2137 Clear 25 1014 41 10000 13.38 180 13:48 25.02.2021
2138 Clear 25 1014 41 10000 13.38 180 13:24 25.02.2021
2139 Clear 26 1015 38 10000 13.38 170 12:40 25.02.2021
2140 Clear 26 1015 38 10000 13.38 170 12:20 25.02.2021
2141 Clear 25 1015 43 10000 11.32 180 11:43 25.02.2021
2142 Clouds 24 1015 49 10000 10.29 170 10:58 25.02.2021
2143 Clouds 23 1015 49 10000 10.29 170 10:37 25.02.2021
2144 Clouds 23 1015 56 10000 11.32 170 09:53 25.02.2021
2145 Clouds 22 1015 56 10000 11.32 170 09:34 25.02.2021
2146 Clouds 22 1015 60 10000 9.77 170 08:46 25.02.2021
2147 Clouds 21 1015 60 10000 9.77 170 08:21 25.02.2021
2148 Clear 21 1015 64 10000 8.75 170 07:43 25.02.2021
2149 Clear 20 1015 64 10000 8.75 170 07:19 25.02.2021
2150 Clear 19 1014 72 10000 6.17 170 05:57 25.02.2021
2151 Clear 19 1015 68 10000 5.66 160 01:52 25.02.2021
2152 Clear 19 1015 68 10000 5.66 160 01:33 25.02.2021
2153 Clear 19 1015 68 10000 7.2 180 00:37 25.02.2021
2154 Clear 19 1015 68 10000 7.72 160 23:40 24.02.2021
2155 Clear 20 1015 64 10000 8.75 170 22:58 24.02.2021
2156 Clear 20 1015 64 10000 8.75 170 22:30 24.02.2021
2157 Clear 20 1015 68 10000 8.23 180 21:56 24.02.2021
2158 Clear 20 1015 68 10000 8.23 180 21:34 24.02.2021
2159 Clear 20 1015 68 10000 8.23 180 20:51 24.02.2021
2160 Clear 20 1015 68 10000 8.23 180 20:29 24.02.2021
2161 Clouds 20 1015 68 10000 9.26 170 19:51 24.02.2021
2162 Clouds 20 1015 68 10000 9.26 170 19:24 24.02.2021
2163 Clouds 21 1015 64 10000 11.83 180 18:54 24.02.2021
2164 Clouds 21 1015 64 10000 11.83 180 18:33 24.02.2021
2165 Clouds 22 1014 60 10000 10.8 180 17:45 24.02.2021
2166 Clouds 22 1014 60 10000 10.8 180 17:25 24.02.2021
2167 Clouds 23 1014 53 10000 13.38 180 16:49 24.02.2021
2168 Clouds 22 1014 53 10000 13.38 180 16:22 24.02.2021
2169 Clouds 22 1015 53 10000 12.35 190 15:56 24.02.2021
2170 Clouds 22 1015 53 10000 12.35 190 15:35 24.02.2021
2171 Clouds 23 1015 50 10000 12.35 190 14:52 24.02.2021
2172 Clouds 23 1015 50 10000 12.35 190 14:31 24.02.2021
2173 Clouds 24 1015 53 10000 11.32 180 13:55 24.02.2021
2174 Clouds 25 1015 53 10000 11.32 180 13:37 24.02.2021
2175 Clouds 25 1015 53 10000 11.32 180 13:19 24.02.2021
2176 Clouds 24 1015 57 10000 11.32 190 12:42 24.02.2021
2177 Clouds 25 1015 57 10000 11.32 190 12:23 24.02.2021
2178 Clouds 23 1016 60 10000 10.29 190 11:39 24.02.2021
2179 Clouds 22 1016 64 10000 8.23 180 10:47 24.02.2021
2180 Clouds 22 1016 64 10000 8.23 180 10:26 24.02.2021
2181 Clouds 23 1016 56 10000 8.23 170 09:33 24.02.2021
2182 Clouds 22 1016 60 10000 9.26 170 08:58 24.02.2021
2183 Clouds 22 1016 60 10000 9.26 170 08:33 24.02.2021
2184 Clouds 21 1017 73 10000 7.72 170 07:55 24.02.2021
2185 Clouds 20 1017 73 10000 7.72 170 07:19 24.02.2021
2186 Clouds 19 1016 77 10000 7.2 180 06:20 24.02.2021
2187 Clouds 19 1015 82 10000 5.66 180 02:44 24.02.2021
2188 Clouds 20 1017 88 10000 4.12 160 23:59 23.02.2021
2189 Clouds 20 1017 88 10000 4.12 160 23:20 23.02.2021
2190 Clouds 20 1017 83 10000 4.63 190 22:37 23.02.2021
2191 Clouds 20 1017 83 10000 4.63 190 22:18 23.02.2021
2192 Clouds 20 1018 77 10000 4.63 190 21:40 23.02.2021
2193 Clouds 20 1018 77 10000 4.63 190 21:22 23.02.2021
2194 Clouds 20 1017 77 10000 4.63 200 20:46 23.02.2021
2195 Clouds 20 1017 77 10000 4.63 200 20:28 23.02.2021
2196 Clouds 20 1017 73 10000 4.63 180 19:47 23.02.2021
2197 Clouds 20 1017 73 10000 4.63 180 19:27 23.02.2021
2198 Clouds 22 1016 64 10000 5.14 190 18:50 23.02.2021
2199 Clouds 22 1016 64 10000 5.14 190 18:29 23.02.2021
2200 Clouds 23 1016 56 10000 5.66 180 17:54 23.02.2021
2201 Clouds 23 1016 56 10000 5.66 180 17:30 23.02.2021
2202 Clouds 24 1016 53 10000 6.69 200 16:48 23.02.2021
2203 Clouds 24 1016 53 10000 6.69 200 16:25 23.02.2021
2204 Clouds 24 1016 53 10000 6.69 190 15:52 23.02.2021
2205 Clouds 24 1016 53 10000 6.69 190 15:34 23.02.2021
2206 Clouds 24 1017 50 10000 5.66 200 14:59 23.02.2021
2207 Clouds 24 1017 50 10000 5.66 200 14:40 23.02.2021
2208 Clouds 24 1017 50 10000 5.66 200 14:20 23.02.2021
2209 Clouds 24 1017 46 10000 5.14 180 13:43 23.02.2021
2210 Clouds 24 1017 46 10000 5.14 180 13:23 23.02.2021
2211 Clouds 24 1017 46 10000 4.63 170 12:51 23.02.2021
2212 Clouds 24 1017 46 10000 4.63 170 12:20 23.02.2021
2213 Clouds 23 1017 49 10000 4.12 150 11:46 23.02.2021
2214 Clouds 23 1017 49 10000 4.12 150 11:21 23.02.2021
2215 Clouds 22 1018 49 10000 4.63 190 10:40 23.02.2021
2216 Clouds 22 1018 49 10000 4.63 190 10:21 23.02.2021
2217 Clouds 22 1017 56 10000 4.12 200 09:43 23.02.2021
2218 Clouds 21 1017 56 10000 4.12 200 09:22 23.02.2021
2219 Clear 21 1017 60 10000 5.14 190 08:48 23.02.2021
2220 Clear 20 1017 60 10000 5.14 190 08:21 23.02.2021
2221 Clear 20 1017 72 10000 2.57 220 07:49 23.02.2021
2222 Clear 16 1015 77 10000 3.09 210 05:31 23.02.2021
2223 Clear 16 1015 77 10000 3.6 200 04:32 23.02.2021
2224 Clear 17 1015 72 10000 5.14 190 02:34 23.02.2021
2225 Clear 18 1016 68 10000 6.69 200 00:20 23.02.2021
2226 Clear 18 1016 68 10000 7.2 200 23:47 22.02.2021
2227 Clear 18 1016 68 10000 7.2 200 23:20 22.02.2021
2228 Clear 18 1016 68 10000 6.17 200 22:40 22.02.2021
2229 Clear 18 1016 68 10000 6.17 200 22:20 22.02.2021
2230 Clear 18 1016 68 10000 6.17 200 21:40 22.02.2021
2231 Clear 18 1016 68 10000 6.17 200 21:22 22.02.2021
2232 Clear 18 1015 68 10000 7.72 180 20:51 22.02.2021
2233 Clear 18 1015 68 10000 7.72 180 20:27 22.02.2021
2234 Clear 19 1015 63 10000 8.23 190 19:51 22.02.2021
2235 Clear 19 1015 63 10000 8.23 190 19:31 22.02.2021
2236 Clear 20 1015 56 10000 7.72 190 18:56 22.02.2021
2237 Clear 20 1015 56 10000 7.72 190 18:37 22.02.2021
2238 Clear 20 1015 56 10000 7.72 190 18:18 22.02.2021
2239 Clear 22 1015 56 10000 9.26 180 17:24 22.02.2021
2240 Clear 22 1015 49 10000 8.75 180 16:54 22.02.2021
2241 Clear 22 1015 49 10000 8.75 180 16:54 22.02.2021
2242 Clear 22 1015 49 10000 8.75 180 16:32 22.02.2021
2243 Clear 23 1015 43 10000 8.23 190 15:44 22.02.2021
2244 Clear 23 1015 43 10000 8.23 190 15:25 22.02.2021
2245 Clear 23 1015 43 10000 7.2 180 14:47 22.02.2021
2246 Clear 23 1015 43 10000 7.2 180 14:23 22.02.2021
2247 Clear 24 1015 41 10000 7.2 200 13:46 22.02.2021
2248 Clear 23 1015 38 10000 4.12 220 12:56 22.02.2021
2249 Clear 23 1015 38 10000 4.12 220 12:24 22.02.2021
2250 Clear 23 1016 40 10000 3.09 240 11:57 22.02.2021
2251 Clear 23 1016 40 10000 3.09 240 11:38 22.02.2021
2252 Clear 23 1016 40 10000 3.09 240 11:20 22.02.2021
2253 Clear 22 1016 43 10000 3.09 180 10:45 22.02.2021
2254 Clear 22 1016 43 10000 3.09 180 10:22 22.02.2021
2255 Clear 22 1016 46 10000 3.09 180 09:41 22.02.2021
2256 Clear 20 1016 46 10000 3.09 180 09:22 22.02.2021
2257 Clear 20 1016 52 10000 2.57 190 08:49 22.02.2021
2258 Clear 19 1016 52 10000 2.57 190 08:23 22.02.2021
2259 Clear 19 1016 59 10000 2.06 170 07:50 22.02.2021
2260 Clear 16 1016 67 10000 1.54 140 07:23 22.02.2021
2261 Clear 14 1016 71 10000 1.54 140 06:28 22.02.2021
2262 Clear 14 1015 71 10000 1.54 0 05:26 22.02.2021
2263 Clear 16 1016 63 10000 5.14 180 03:24 22.02.2021
2264 Clear 16 1016 59 10000 6.69 180 02:31 22.02.2021
2265 Clear 17 1017 59 10000 7.72 170 00:44 22.02.2021
2266 Clear 17 1017 59 10000 7.72 170 00:19 22.02.2021
2267 Clear 17 1018 59 10000 6.17 180 23:27 21.02.2021
2268 Clear 17 1018 59 10000 8.23 180 22:40 21.02.2021
2269 Clear 17 1018 59 10000 8.23 180 22:21 21.02.2021
2270 Clear 17 1018 59 10000 7.72 170 21:37 21.02.2021
2271 Clear 18 1018 55 10000 8.23 170 20:58 21.02.2021
2272 Clear 18 1018 55 10000 8.23 170 20:39 21.02.2021
2273 Clear 18 1018 55 10000 8.23 170 20:19 21.02.2021
2274 Clear 18 1018 55 10000 8.75 170 19:50 21.02.2021
2275 Clear 18 1018 55 10000 8.75 170 19:32 21.02.2021
2276 Clear 19 1017 52 10000 9.26 170 18:43 21.02.2021
2277 Clear 19 1017 52 10000 9.26 170 18:24 21.02.2021
2278 Clear 20 1017 49 10000 10.29 170 17:29 21.02.2021
2279 Clouds 21 1017 46 10000 9.26 170 16:58 21.02.2021
2280 Clouds 21 1017 46 10000 9.26 170 16:34 21.02.2021
2281 Clouds 21 1017 43 10000 8.75 170 15:54 21.02.2021
2282 Clouds 22 1017 43 10000 8.75 170 15:22 21.02.2021
2283 Clouds 21 1018 49 10000 8.75 190 14:51 21.02.2021
2284 Clouds 21 1018 49 10000 8.75 190 14:30 21.02.2021
2285 Clouds 22 1018 46 10000 8.23 180 13:48 21.02.2021
2286 Clouds 22 1018 46 10000 8.23 180 13:25 21.02.2021
2287 Clouds 22 1018 46 10000 8.23 180 12:32 21.02.2021
2288 Clouds 21 1018 49 10000 6.17 170 11:58 21.02.2021
2289 Clouds 21 1018 49 10000 6.17 170 11:40 21.02.2021
2290 Rain 20 1018 64 10000 4.63 140 10:40 21.02.2021
2291 Rain 20 1018 64 10000 4.63 140 10:21 21.02.2021
2292 Rain 20 1017 56 10000 5.14 170 09:43 21.02.2021
2293 Rain 20 1017 56 10000 5.14 170 09:24 21.02.2021
2294 Rain 19 1017 72 10000 4.63 180 08:34 21.02.2021
2295 Rain 19 1017 68 10000 2.06 200 07:45 21.02.2021
2296 Rain 18 1016 72 10000 0.51 0 07:22 21.02.2021
2297 Rain 16 1015 82 10000 2.57 360 05:59 21.02.2021
2298 Rain 17 1015 72 10000 2.57 320 02:40 21.02.2021
2299 Clouds 17 1015 67 10000 1.03 0 01:20 21.02.2021
2300 Clouds 18 1015 63 10000 2.06 270 00:21 21.02.2021
2301 Clouds 18 1015 68 10000 1.54 320 23:47 20.02.2021
2302 Clouds 19 1015 63 10000 3.09 240 22:58 20.02.2021
2303 Rain 19 1015 63 10000 3.09 240 22:32 20.02.2021
2304 Rain 19 1015 63 10000 2.06 270 21:57 20.02.2021
2305 Clouds 19 1015 63 10000 2.06 270 21:39 20.02.2021
2306 Clouds 19 1015 63 10000 2.06 270 21:18 20.02.2021
2307 Clouds 19 1015 63 10000 3.09 220 20:40 20.02.2021
2308 Clouds 20 1015 63 10000 3.09 220 20:19 20.02.2021
2309 Clouds 20 1014 56 10000 4.63 230 19:42 20.02.2021
2310 Clouds 20 1014 52 10000 5.14 220 18:58 20.02.2021
2311 Clouds 21 1014 52 10000 5.14 220 18:34 20.02.2021
2312 Clouds 21 1014 49 10000 6.17 230 17:59 20.02.2021
2313 Clouds 21 1014 49 10000 6.17 230 17:33 20.02.2021
2314 Clouds 21 1013 46 10000 7.2 240 16:50 20.02.2021
2315 Clouds 23 1013 46 10000 7.2 240 16:27 20.02.2021
2316 Clouds 23 1013 43 10000 6.17 220 15:44 20.02.2021
2317 Clouds 23 1014 40 10000 6.17 240 14:53 20.02.2021
2318 Clouds 23 1014 40 10000 6.17 240 14:29 20.02.2021
2319 Clouds 22 1014 43 10000 4.63 320 13:59 20.02.2021
2320 Clouds 22 1014 43 10000 4.63 320 13:40 20.02.2021
2321 Clouds 22 1014 43 10000 4.63 320 13:22 20.02.2021
2322 Clouds 23 1015 43 10000 5.14 290 12:47 20.02.2021
2323 Clouds 23 1015 38 10000 4.63 270 11:56 20.02.2021
2324 Clouds 22 1015 38 10000 4.63 270 11:38 20.02.2021
2325 Clouds 21 1015 46 10000 4.63 300 10:55 20.02.2021
2326 Clouds 21 1015 46 10000 4.63 300 10:32 20.02.2021
2327 Clouds 22 1015 40 10000 3.09 250 09:48 20.02.2021
2328 Clouds 21 1015 40 10000 3.09 250 09:20 20.02.2021
2329 Clouds 20 1015 49 10000 2.57 230 08:34 20.02.2021
2330 Clear 20 1015 59 10000 2.06 260 07:54 20.02.2021
2331 Clouds 18 1014 59 10000 4.63 200 02:46 20.02.2021
2332 Clouds 18 1014 59 10000 4.63 200 02:22 20.02.2021
2333 Clouds 18 1014 59 10000 6.69 190 01:47 20.02.2021
2334 Clouds 19 1014 68 10000 7.2 190 00:45 20.02.2021
2335 Clouds 19 1014 68 10000 6.69 180 23:45 19.02.2021
2336 Clouds 19 1014 68 10000 6.69 180 22:56 19.02.2021
2337 Clouds 19 1014 68 10000 6.69 180 22:26 19.02.2021
2338 Clouds 19 1014 72 10000 7.72 170 21:50 19.02.2021
2339 Clouds 19 1014 72 10000 7.72 170 21:30 19.02.2021
2340 Clouds 19 1014 68 10000 9.26 180 20:48 19.02.2021
2341 Clouds 19 1014 68 10000 9.26 180 20:28 19.02.2021
2342 Clouds 19 1013 68 10000 9.77 180 19:55 19.02.2021
2343 Clouds 19 1013 68 10000 9.77 180 19:24 19.02.2021
2344 Clear 20 1013 68 10000 10.29 180 18:56 19.02.2021
2345 Clear 20 1013 68 10000 10.29 180 18:33 19.02.2021
2346 Clouds 20 1012 64 10000 11.83 190 17:51 19.02.2021
2347 Clouds 21 1012 56 10000 11.83 180 16:53 19.02.2021
2348 Clouds 22 1012 56 10000 11.83 180 16:28 19.02.2021
2349 Clouds 22 1012 53 10000 10.8 180 15:58 19.02.2021
2350 Clouds 22 1012 53 10000 10.8 180 15:31 19.02.2021
2351 Clouds 23 1012 53 10000 10.8 180 14:59 19.02.2021
2352 Clouds 23 1012 53 10000 10.8 180 14:38 19.02.2021
2353 Clouds 23 1012 53 10000 10.8 180 14:18 19.02.2021
2354 Clouds 24 1013 50 10000 10.29 190 13:42 19.02.2021
2355 Clouds 24 1013 50 10000 10.29 190 13:24 19.02.2021
2356 Clouds 23 1013 53 10000 7.72 200 12:41 19.02.2021
2357 Clouds 24 1013 53 10000 7.72 200 12:22 19.02.2021
2358 Clouds 23 1013 53 10000 6.69 210 11:50 19.02.2021
2359 Clouds 24 1013 53 10000 6.69 210 11:22 19.02.2021
2360 Clouds 23 1014 49 10000 6.17 190 10:47 19.02.2021
2361 Clouds 22 1014 53 10000 6.17 190 10:21 19.02.2021
2362 Clouds 22 1014 53 10000 6.17 190 09:40 19.02.2021
2363 Clouds 22 1014 53 10000 6.17 190 09:22 19.02.2021
2364 Clouds 21 1013 52 10000 7.2 180 08:50 19.02.2021
2365 Clouds 21 1013 52 10000 7.2 180 08:23 19.02.2021
2366 Clouds 21 1014 52 10000 7.72 180 07:48 19.02.2021
2367 Clear 19 1014 59 10000 6.69 160 07:27 19.02.2021
2368 Clouds 18 1013 63 10000 5.66 170 06:49 19.02.2021
2369 Clear 17 1013 72 10000 7.2 160 05:21 19.02.2021
2370 Clear 17 1013 72 10000 6.69 170 04:41 19.02.2021
2371 Clear 18 1014 68 10000 6.69 180 01:47 19.02.2021
2372 Clear 18 1015 72 10000 4.12 170 00:37 19.02.2021
2373 Clear 17 1016 77 10000 3.09 150 23:54 18.02.2021
2374 Clear 17 1016 77 10000 3.09 150 23:34 18.02.2021
2375 Clear 17 1016 72 10000 3.09 140 22:47 18.02.2021
2376 Clear 17 1016 72 10000 3.09 140 22:28 18.02.2021
2377 Clear 18 1016 63 10000 5.14 160 21:47 18.02.2021
2378 Clear 18 1016 63 10000 5.14 160 21:25 18.02.2021
2379 Clear 18 1016 63 10000 5.14 160 21:25 18.02.2021
2380 Clear 18 1016 59 10000 5.66 170 20:43 18.02.2021
2381 Clear 19 1016 59 10000 5.66 170 20:23 18.02.2021
2382 Clouds 19 1016 55 10000 6.17 180 19:47 18.02.2021
2383 Clouds 19 1016 55 10000 6.17 180 19:26 18.02.2021
2384 Clouds 20 1016 59 10000 6.17 180 18:53 18.02.2021
2385 Clouds 21 1016 59 10000 6.17 180 18:30 18.02.2021
2386 Clouds 21 1015 52 10000 7.72 170 17:53 18.02.2021
2387 Clouds 22 1015 52 10000 7.72 170 17:26 18.02.2021
2388 Clouds 22 1015 46 10000 8.23 180 16:56 18.02.2021
2389 Clouds 22 1015 46 10000 8.23 180 16:38 18.02.2021
2390 Clouds 22 1015 46 10000 8.23 180 16:19 18.02.2021
2391 Clouds 22 1015 49 10000 7.2 170 15:38 18.02.2021
2392 Clouds 22 1015 49 10000 7.2 170 15:20 18.02.2021
2393 Clouds 22 1015 49 10000 7.2 170 14:48 18.02.2021
2394 Clouds 23 1015 49 10000 7.2 170 14:29 18.02.2021
2395 Clouds 24 1015 38 10000 5.14 190 13:46 18.02.2021
2396 Clouds 24 1015 38 10000 5.14 190 13:20 18.02.2021
2397 Clouds 24 1015 38 10000 6.17 200 12:47 18.02.2021
2398 Clouds 22 1015 43 10000 6.17 200 12:23 18.02.2021
2399 Clouds 22 1015 52 10000 4.63 220 11:46 18.02.2021
2400 Clouds 22 1015 52 10000 4.63 220 11:27 18.02.2021
2401 Clouds 22 1015 68 10000 1.54 260 10:48 18.02.2021
2402 Clouds 21 1015 68 10000 1.54 260 10:29 18.02.2021
2403 Clouds 19 1015 82 10000 4.63 310 09:50 18.02.2021
2404 Clouds 20 1015 82 10000 4.63 310 09:24 18.02.2021
2405 Clouds 20 1015 77 10000 3.6 330 08:48 18.02.2021
2406 Rain 20 1015 77 10000 3.6 330 08:29 18.02.2021
2407 Rain 19 1014 88 10000 2.57 10 07:35 18.02.2021
2408 Rain 18 1014 77 10000 3.09 320 06:58 18.02.2021
2409 Clouds 16 1012 77 10000 1.54 40 03:52 18.02.2021
2410 Clouds 16 1012 77 10000 1.54 40 03:52 18.02.2021
2411 Clouds 19 1012 68 10000 3.6 210 23:56 17.02.2021
2412 Clouds 19 1012 68 10000 3.6 210 23:30 17.02.2021
2413 Clouds 20 1013 68 10000 5.14 210 22:56 17.02.2021
2414 Clouds 20 1013 68 10000 5.14 210 22:27 17.02.2021
2415 Clouds 20 1012 68 10000 5.66 200 21:57 17.02.2021
2416 Clouds 21 1012 68 10000 5.66 200 21:23 17.02.2021
2417 Clouds 21 1012 68 10000 7.72 190 20:53 17.02.2021
2418 Clouds 21 1012 68 10000 7.72 190 20:33 17.02.2021
2419 Clouds 21 1011 68 10000 7.2 180 19:55 17.02.2021
2420 Clouds 21 1011 68 10000 7.2 180 19:35 17.02.2021
2421 Clouds 21 1011 68 10000 9.26 190 18:52 17.02.2021
2422 Clouds 22 1011 68 10000 9.26 190 18:33 17.02.2021
2423 Clouds 22 1010 68 10000 9.77 180 17:46 17.02.2021
2424 Clouds 22 1010 68 10000 9.77 180 17:21 17.02.2021
2425 Clouds 23 1009 57 10000 8.75 170 16:51 17.02.2021
2426 Clouds 24 1009 57 10000 8.75 170 16:29 17.02.2021
2427 Clouds 25 1009 53 10000 7.72 170 15:46 17.02.2021
2428 Clouds 25 1009 53 10000 7.72 170 15:27 17.02.2021
2429 Clear 26 1009 47 10000 5.66 180 14:59 17.02.2021
2430 Clear 26 1009 47 10000 5.66 180 14:39 17.02.2021
2431 Clear 27 1009 47 10000 5.66 180 14:21 17.02.2021
2432 Clear 28 1009 28 10000 4.12 300 13:40 17.02.2021
2433 Clear 25 1009 32 10000 5.14 300 12:58 17.02.2021
2434 Clear 26 1009 32 10000 5.14 300 12:26 17.02.2021
2435 Clear 26 1009 36 10000 6.17 300 11:48 17.02.2021
2436 Clear 25 1009 41 10000 6.69 320 11:29 17.02.2021
2437 Clear 24 1009 46 10000 6.69 310 10:58 17.02.2021
2438 Clear 23 1009 46 10000 6.69 310 10:40 17.02.2021
2439 Clear 24 1009 46 10000 6.69 310 10:20 17.02.2021
2440 Clear 23 1009 53 10000 7.72 330 09:40 17.02.2021
2441 Clear 22 1008 53 10000 5.14 330 08:58 17.02.2021
2442 Clear 23 1008 53 10000 5.14 330 08:37 17.02.2021
2443 Clear 22 1008 53 10000 5.14 330 08:19 17.02.2021
2444 Clear 19 1008 72 10000 1.03 0 07:23 17.02.2021
2445 Clear 16 1008 77 10000 0.51 0 03:54 17.02.2021
2446 Clear 17 1008 77 10000 1.54 0 02:33 17.02.2021
2447 Clear 18 1009 68 10000 2.06 230 01:48 17.02.2021
2448 Clear 19 1010 68 10000 2.57 230 00:30 17.02.2021
2449 Clear 20 1010 64 10000 3.09 220 23:50 16.02.2021
2450 Clear 20 1010 64 10000 3.09 220 23:32 16.02.2021
2451 Clear 20 1011 63 10000 1.03 0 22:42 16.02.2021
2452 Clear 20 1011 63 10000 1.03 0 22:22 16.02.2021
2453 Clear 20 1011 60 10000 4.12 140 21:41 16.02.2021
2454 Clear 20 1011 60 10000 4.12 140 21:22 16.02.2021
2455 Clear 21 1011 60 10000 5.66 140 20:58 16.02.2021
2456 Clear 21 1011 60 10000 5.66 140 20:38 16.02.2021
2457 Clear 22 1011 60 10000 5.66 140 20:20 16.02.2021
2458 Clear 22 1011 53 10000 6.17 140 19:40 16.02.2021
2459 Clear 23 1011 53 10000 6.17 140 19:21 16.02.2021
2460 Clear 24 1011 44 10000 7.72 140 18:39 16.02.2021
2461 Clear 24 1011 44 10000 7.72 140 18:21 16.02.2021
2462 Clear 25 1011 44 10000 9.77 160 17:49 16.02.2021
2463 Clear 25 1011 44 10000 9.77 160 17:23 16.02.2021
2464 Clouds 25 1012 47 10000 9.77 180 16:51 16.02.2021
2465 Clouds 25 1012 47 10000 9.77 180 16:24 16.02.2021
2466 Clear 26 1012 44 10000 10.8 180 15:47 16.02.2021
2467 Clear 26 1012 44 10000 10.8 180 15:26 16.02.2021
2468 Clear 26 1013 41 10000 9.77 180 14:48 16.02.2021
2469 Clear 26 1013 41 10000 9.77 180 14:30 16.02.2021
2470 Clear 27 1014 36 10000 8.75 180 13:57 16.02.2021
2471 Clear 27 1014 36 10000 8.75 180 13:34 16.02.2021
2472 Clear 27 1015 29 10000 4.63 150 12:46 16.02.2021
2473 Clear 27 1015 29 10000 4.63 150 12:25 16.02.2021
2474 Clear 26 1016 31 10000 4.12 150 11:50 16.02.2021
2475 Clear 26 1016 31 10000 4.12 150 11:24 16.02.2021
2476 Clear 25 1016 33 10000 3.6 150 10:57 16.02.2021
2477 Clear 25 1016 33 10000 3.6 150 10:38 16.02.2021
2478 Clear 24 1017 33 10000 1.54 0 10:20 16.02.2021
2479 Clear 24 1017 33 10000 1.54 0 09:47 16.02.2021
2480 Clear 24 1017 33 10000 1.54 0 09:26 16.02.2021
2481 Clear 22 1017 43 10000 3.09 150 08:44 16.02.2021
2482 Clear 22 1017 43 10000 3.09 150 08:44 16.02.2021
2483 Clear 22 1017 43 10000 3.09 150 08:22 16.02.2021
2484 Clear 19 1017 52 10000 4.63 140 07:27 16.02.2021
2485 Clear 17 1017 59 10000 4.12 150 05:31 16.02.2021
2486 Clear 18 1019 55 10000 9.77 160 00:51 16.02.2021
2487 Clear 18 1020 55 10000 8.23 160 23:46 15.02.2021
2488 Clear 18 1020 55 10000 8.23 160 23:24 15.02.2021
2489 Clear 18 1020 55 10000 8.75 150 22:44 15.02.2021
2490 Clear 18 1020 55 10000 8.75 150 22:23 15.02.2021
2491 Clear 18 1020 55 10000 5.66 160 21:42 15.02.2021
2492 Clear 18 1020 55 10000 5.66 160 21:22 15.02.2021
2493 Clouds 18 1020 59 10000 8.75 160 20:47 15.02.2021
2494 Clouds 18 1020 59 10000 8.75 160 20:27 15.02.2021
2495 Clouds 19 1019 48 10000 8.75 160 19:48 15.02.2021
2496 Clouds 19 1019 48 10000 8.75 160 19:24 15.02.2021
2497 Clouds 20 1019 49 10000 10.8 160 18:47 15.02.2021
2498 Clouds 20 1019 49 10000 10.8 160 18:26 15.02.2021
2499 Clouds 20 1018 52 10000 12.35 160 17:44 15.02.2021
2500 Clouds 20 1018 52 10000 12.35 160 17:26 15.02.2021
2501 Clouds 21 1018 37 10000 10.8 180 16:57 15.02.2021
2502 Clouds 22 1018 37 10000 10.8 180 16:28 15.02.2021
2503 Clouds 22 1018 37 10000 9.77 170 15:57 15.02.2021
2504 Clouds 22 1018 37 10000 9.77 170 15:38 15.02.2021
2505 Smoke 23 1018 35 4000 9.77 180 15:18 15.02.2021
2506 Smoke 23 1019 35 4000 9.26 170 14:40 15.02.2021
2507 Smoke 23 1019 35 4000 9.26 170 14:20 15.02.2021
2508 Smoke 23 1019 35 4000 8.75 180 13:48 15.02.2021
2509 Smoke 23 1019 35 4000 8.75 180 13:20 15.02.2021
2510 Smoke 23 1019 35 4000 8.75 180 13:20 15.02.2021
2511 Smoke 22 1019 37 4000 8.75 170 12:45 15.02.2021
2512 Clouds 22 1019 37 10000 8.75 170 12:21 15.02.2021
2513 Clouds 22 1019 43 10000 8.23 170 11:49 15.02.2021
2514 Clouds 22 1019 43 10000 8.23 170 11:23 15.02.2021
2515 Clouds 21 1020 43 10000 6.17 200 10:50 15.02.2021
2516 Clouds 21 1020 43 10000 6.17 200 10:25 15.02.2021
2517 Clouds 21 1019 35 10000 4.12 180 09:56 15.02.2021
2518 Clouds 21 1019 35 10000 4.12 180 09:33 15.02.2021
2519 Clouds 21 1018 43 10000 7.2 190 08:57 15.02.2021
2520 Clouds 19 1018 48 10000 1.54 0 07:55 15.02.2021
2521 Clouds 17 1017 55 10000 1.54 0 06:59 15.02.2021
2522 Clouds 18 1017 55 10000 1.54 0 06:40 15.02.2021
2523 Clear 17 1016 55 10000 3.09 260 02:47 15.02.2021
2524 Clouds 18 1016 52 10000 2.57 250 01:27 15.02.2021
2525 Clouds 20 1015 63 10000 4.12 240 23:59 14.02.2021
2526 Clouds 20 1015 63 10000 4.12 240 23:23 14.02.2021
2527 Clouds 20 1015 64 10000 4.12 250 22:41 14.02.2021
2528 Clouds 20 1015 64 10000 4.12 250 22:22 14.02.2021
2529 Clouds 19 1014 82 10000 2.06 260 21:50 14.02.2021
2530 Clouds 19 1014 82 10000 2.06 260 21:29 14.02.2021
2531 Rain 20 1014 77 10000 2.06 210 20:52 14.02.2021
2532 Rain 20 1014 77 10000 2.06 210 20:29 14.02.2021
2533 Rain 20 1013 60 10000 3.6 260 19:49 14.02.2021
2534 Rain 22 1012 64 10000 5.66 290 18:59 14.02.2021
2535 Rain 22 1012 64 10000 5.66 290 18:39 14.02.2021
2536 Rain 22 1012 64 10000 5.66 290 18:20 14.02.2021
2537 Rain 22 1012 60 10000 6.69 300 17:39 14.02.2021
2538 Clouds 23 1011 53 10000 7.72 310 16:57 14.02.2021
2539 Clouds 23 1011 53 10000 7.72 310 16:38 14.02.2021
2540 Clouds 23 1011 53 10000 7.72 300 16:18 14.02.2021
2541 Clouds 24 1011 56 10000 8.23 310 15:41 14.02.2021
2542 Clouds 24 1011 53 10000 8.23 310 14:58 14.02.2021
2543 Clouds 24 1011 53 10000 8.23 310 14:29 14.02.2021
2544 Clouds 24 1011 56 10000 7.72 300 13:55 14.02.2021
2545 Clouds 24 1011 56 10000 7.72 300 13:31 14.02.2021
2546 Clouds 24 1011 60 10000 7.2 300 12:45 14.02.2021
2547 Clouds 23 1011 60 10000 7.2 300 12:21 14.02.2021
2548 Clouds 23 1012 60 10000 7.2 300 11:51 14.02.2021
2549 Clouds 22 1012 60 10000 7.2 300 11:24 14.02.2021
2550 Clouds 22 1011 83 10000 6.69 300 10:49 14.02.2021
2551 Clouds 20 1011 94 10000 4.12 310 09:57 14.02.2021
2552 Clouds 20 1011 94 10000 4.12 310 09:39 14.02.2021
2553 Rain 21 1011 94 10000 4.12 310 09:21 14.02.2021
2554 Rain 20 1011 94 7000 4.12 340 08:41 14.02.2021
2555 Rain 20 1011 94 10000 3.6 360 07:57 14.02.2021
2556 Rain 20 1010 94 2000 3.6 350 06:51 14.02.2021
2557 Rain 19 1010 94 6000 3.6 330 05:43 14.02.2021
2558 Rain 20 1010 94 10000 2.06 350 03:32 14.02.2021
2559 Clouds 20 1010 94 10000 3.09 350 02:22 14.02.2021
2560 Clouds 20 1011 94 10000 3.6 340 00:48 14.02.2021
2561 Clouds 20 1011 94 10000 3.6 340 00:29 14.02.2021
2562 Clouds 20 1011 94 10000 2.57 330 23:41 13.02.2021
2563 Clouds 20 1011 94 10000 2.57 330 23:21 13.02.2021
2564 Clouds 20 1011 94 10000 2.06 360 22:43 13.02.2021
2565 Clouds 20 1011 94 10000 2.06 360 22:20 13.02.2021
2566 Clouds 20 1010 88 10000 2.06 350 21:42 13.02.2021
2567 Clouds 20 1010 88 10000 2.06 350 21:22 13.02.2021
2568 Clouds 21 1010 88 10000 2.57 350 20:30 13.02.2021
2569 Clouds 22 1009 83 10000 4.12 340 19:57 13.02.2021
2570 Clouds 22 1009 83 10000 4.12 340 19:38 13.02.2021
2571 Clouds 22 1009 83 10000 4.12 340 19:18 13.02.2021
2572 Clouds 23 1008 73 10000 6.17 330 18:44 13.02.2021
2573 Clouds 24 1008 73 10000 6.17 330 18:22 13.02.2021
2574 Clouds 24 1008 64 10000 7.2 330 17:42 13.02.2021
2575 Clouds 24 1008 64 10000 7.2 330 17:22 13.02.2021
2576 Clouds 25 1007 57 10000 6.69 330 16:42 13.02.2021
2577 Clouds 25 1007 57 10000 6.69 330 16:21 13.02.2021
2578 Clear 25 1007 57 10000 8.23 320 15:39 13.02.2021
2579 Clear 25 1008 65 10000 8.75 320 14:57 13.02.2021
2580 Clear 26 1008 65 10000 8.75 320 14:32 13.02.2021
2581 Clear 26 1008 61 10000 8.23 330 13:48 13.02.2021
2582 Clear 26 1008 61 10000 8.23 330 13:24 13.02.2021
2583 Clear 27 1009 61 10000 5.66 340 12:46 13.02.2021
2584 Clear 26 1009 61 10000 5.66 340 12:18 13.02.2021
2585 Clear 26 1009 65 10000 7.2 320 11:45 13.02.2021
2586 Clear 25 1009 65 10000 7.2 320 11:19 13.02.2021
2587 Clear 25 1009 57 10000 7.2 330 10:46 13.02.2021
2588 Clear 25 1009 57 10000 7.2 330 10:25 13.02.2021
2589 Clear 25 1009 64 10000 5.66 340 09:55 13.02.2021
2590 Clear 25 1009 64 10000 5.66 340 09:30 13.02.2021
2591 Clear 24 1008 68 10000 5.14 330 08:55 13.02.2021
2592 Clear 24 1008 68 10000 5.14 330 08:35 13.02.2021
2593 Clear 21 1008 88 10000 3.6 340 07:52 13.02.2021
2594 Clear 18 1007 88 10000 2.57 320 06:39 13.02.2021
2595 Clear 18 1007 88 10000 1.54 290 05:27 13.02.2021
2596 Clear 18 1007 88 10000 0.51 0 03:58 13.02.2021
2597 Clear 21 1007 88 10000 4.12 240 01:48 13.02.2021
2598 Clear 20 1008 88 10000 3.09 230 00:42 13.02.2021
2599 Clear 21 1008 83 10000 5.14 210 23:54 12.02.2021
2600 Clear 21 1008 83 10000 5.14 210 23:26 12.02.2021
2601 Clear 21 1008 83 10000 5.14 210 22:44 12.02.2021
2602 Clear 21 1008 83 10000 5.14 210 22:25 12.02.2021
2603 Clear 21 1009 83 10000 7.72 200 21:46 12.02.2021
2604 Clear 21 1009 83 10000 7.72 200 21:27 12.02.2021
2605 Clouds 21 1009 83 10000 8.75 190 20:49 12.02.2021
2606 Clouds 21 1009 83 10000 8.75 190 20:30 12.02.2021
2607 Clouds 22 1008 73 10000 9.26 180 19:58 12.02.2021
2608 Clouds 22 1008 73 10000 9.26 180 19:38 12.02.2021
2609 Clouds 23 1008 68 10000 10.29 180 18:58 12.02.2021
2610 Clouds 23 1008 68 10000 10.29 180 18:30 12.02.2021
2611 Clear 24 1008 64 10000 10.29 190 17:46 12.02.2021
2612 Clear 24 1008 64 10000 10.29 190 17:21 12.02.2021
2613 Clear 26 1008 61 10000 10.8 190 16:35 12.02.2021
2614 Clear 26 1008 61 10000 9.77 180 15:47 12.02.2021
2615 Clear 25 1008 61 10000 9.77 180 15:21 12.02.2021
2616 Clear 25 1008 61 10000 9.77 180 15:21 12.02.2021
2617 Clear 26 1008 61 10000 10.29 190 14:42 12.02.2021
2618 Clear 26 1008 61 10000 10.29 190 14:23 12.02.2021
2619 Clear 25 1008 65 10000 8.23 190 13:41 12.02.2021
2620 Clear 26 1008 65 10000 8.23 190 13:22 12.02.2021
2621 Clouds 25 1009 65 10000 8.23 190 12:47 12.02.2021
2622 Clouds 26 1009 65 10000 8.23 190 12:28 12.02.2021
2623 Clouds 25 1009 73 10000 8.23 190 11:42 12.02.2021
2624 Clouds 25 1009 73 10000 8.23 190 11:19 12.02.2021
2625 Clouds 24 1009 73 10000 8.23 200 10:41 12.02.2021
2626 Clouds 23 1009 83 10000 7.2 190 09:49 12.02.2021
2627 Clouds 23 1009 83 10000 7.2 190 09:29 12.02.2021
2628 Clouds 23 1009 73 10000 8.23 190 08:49 12.02.2021
2629 Clouds 22 1009 88 10000 8.23 180 08:28 12.02.2021
2630 Clouds 22 1009 94 6000 6.17 190 07:57 12.02.2021
2631 Clouds 22 1009 94 6000 6.17 190 07:35 12.02.2021
2632 Mist 22 1008 94 4000 7.72 200 06:55 12.02.2021
2633 Mist 21 1007 94 4000 5.14 200 05:47 12.02.2021
2634 Clouds 21 1007 94 7000 5.66 220 04:32 12.02.2021
2635 Clouds 21 1008 94 10000 5.14 210 01:35 12.02.2021
2636 Clear 21 1009 94 10000 5.66 230 23:41 11.02.2021
2637 Clear 21 1009 94 10000 5.66 230 23:22 11.02.2021
2638 Clouds 21 1010 94 10000 7.2 210 22:47 11.02.2021
2639 Clouds 21 1010 94 10000 7.2 210 22:25 11.02.2021
2640 Clouds 22 1009 88 10000 8.23 210 21:59 11.02.2021
2641 Clouds 22 1009 88 10000 8.23 210 21:38 11.02.2021
2642 Clouds 22 1009 88 10000 8.23 210 21:18 11.02.2021
2643 Clouds 22 1009 88 10000 8.75 200 20:42 11.02.2021
2644 Clouds 22 1009 88 10000 8.75 200 20:22 11.02.2021
2645 Clouds 22 1009 88 10000 10.29 200 19:48 11.02.2021
2646 Clouds 22 1009 88 10000 10.29 200 19:28 11.02.2021
2647 Clouds 22 1009 83 10000 10.8 200 18:53 11.02.2021
2648 Clouds 23 1009 83 10000 10.8 200 18:29 11.02.2021
2649 Clouds 23 1009 78 10000 10.29 200 17:53 11.02.2021
2650 Clouds 24 1009 78 10000 10.29 200 17:22 11.02.2021
2651 Clouds 25 1009 69 10000 10.29 190 16:58 11.02.2021
2652 Clouds 25 1009 69 10000 10.29 190 16:40 11.02.2021
2653 Clouds 25 1009 69 10000 10.29 190 16:21 11.02.2021
2654 Clouds 25 1009 69 10000 11.32 190 15:42 11.02.2021
2655 Clouds 25 1009 69 10000 11.32 190 15:24 11.02.2021
2656 Clear 26 1010 61 10000 10.29 190 14:44 11.02.2021
2657 Clear 27 1010 61 10000 10.29 190 14:25 11.02.2021
2658 Clear 26 1010 61 10000 9.26 200 13:41 11.02.2021
2659 Clear 26 1010 61 10000 9.26 200 13:19 11.02.2021
2660 Clear 28 1010 57 10000 8.23 190 12:47 11.02.2021
2661 Clear 26 1010 57 10000 8.23 190 12:23 11.02.2021
2662 Clear 27 1011 57 10000 6.17 210 11:45 11.02.2021
2663 Clear 26 1011 57 10000 6.17 210 11:21 11.02.2021
2664 Clear 26 1011 57 10000 5.14 240 10:44 11.02.2021
2665 Clear 25 1011 57 10000 5.14 240 10:25 11.02.2021
2666 Clear 25 1011 57 10000 4.12 230 09:53 11.02.2021
2667 Clear 25 1011 57 10000 4.12 230 09:22 11.02.2021
2668 Clear 24 1010 73 10000 4.63 240 08:51 11.02.2021
2669 Clear 23 1010 73 10000 4.63 240 08:23 11.02.2021
2670 Clear 20 1009 88 10000 5.14 230 06:58 11.02.2021
2671 Clear 20 1009 88 10000 5.14 230 06:35 11.02.2021
2672 Clear 19 1009 88 10000 5.14 240 04:58 11.02.2021
2673 Clear 20 1009 88 10000 5.14 230 02:29 11.02.2021
2674 Clear 21 1011 77 10000 4.12 230 00:50 11.02.2021
2675 Clear 20 1011 77 10000 4.12 230 00:20 11.02.2021
2676 Clear 20 1011 83 10000 7.2 210 23:40 10.02.2021
2677 Clear 21 1011 73 10000 7.72 200 22:52 10.02.2021
2678 Clear 21 1011 73 10000 7.72 200 22:29 10.02.2021
2679 Clear 21 1011 73 10000 7.72 200 22:29 10.02.2021
2680 Clear 21 1011 73 10000 7.2 200 21:58 10.02.2021
2681 Clear 21 1011 73 10000 7.2 200 21:38 10.02.2021
2682 Clear 21 1010 78 10000 7.72 210 21:19 10.02.2021
2683 Clear 21 1010 78 10000 7.72 210 20:40 10.02.2021
2684 Clear 21 1010 78 10000 7.72 210 20:22 10.02.2021
2685 Clear 21 1010 78 10000 7.72 220 19:45 10.02.2021
2686 Clear 21 1010 78 10000 7.72 220 19:24 10.02.2021
2687 Clear 22 1010 73 10000 8.23 210 18:40 10.02.2021
2688 Clear 22 1010 73 10000 8.23 210 18:22 10.02.2021
2689 Clear 23 1010 73 10000 9.26 210 17:51 10.02.2021
2690 Clear 23 1010 73 10000 9.26 210 17:24 10.02.2021
2691 Clear 24 1010 69 10000 10.29 200 16:53 10.02.2021
2692 Clear 25 1010 69 10000 10.29 200 16:30 10.02.2021
2693 Clear 25 1011 65 10000 10.8 200 15:54 10.02.2021
2694 Clear 25 1011 65 10000 10.8 200 15:23 10.02.2021
2695 Clear 25 1011 65 10000 10.29 190 14:47 10.02.2021
2696 Clear 27 1011 65 10000 10.29 190 14:27 10.02.2021
2697 Clear 25 1012 61 10000 11.83 200 13:51 10.02.2021
2698 Clear 26 1012 61 10000 11.83 200 13:28 10.02.2021
2699 Clear 26 1012 61 10000 11.32 190 12:48 10.02.2021
2700 Clear 26 1012 61 10000 11.32 190 12:29 10.02.2021
2701 Clear 26 1013 64 10000 11.32 200 11:48 10.02.2021
2702 Clear 27 1013 64 10000 11.32 200 11:29 10.02.2021
2703 Clear 26 1013 60 10000 10.29 200 10:52 10.02.2021
2704 Clear 25 1013 60 10000 10.29 200 10:21 10.02.2021
2705 Clear 25 1013 68 10000 8.23 200 09:44 10.02.2021
2706 Clear 24 1013 68 10000 8.23 200 09:22 10.02.2021
2707 Clear 25 1013 73 10000 7.2 200 08:50 10.02.2021
2708 Clear 23 1013 73 10000 7.2 200 08:30 10.02.2021
2709 Clear 21 1012 83 10000 6.17 220 07:22 10.02.2021
2710 Clear 19 1011 82 10000 5.66 230 04:54 10.02.2021
2711 Clear 20 1013 77 10000 6.69 200 01:20 10.02.2021
2712 Clear 20 1013 83 10000 7.72 190 23:42 09.02.2021
2713 Clear 21 1013 83 10000 7.72 190 23:23 09.02.2021
2714 Clear 21 1014 78 10000 8.75 190 22:41 09.02.2021
2715 Clear 21 1014 78 10000 8.75 190 22:23 09.02.2021
2716 Clear 21 1014 78 10000 10.8 180 21:42 09.02.2021
2717 Clear 21 1014 78 10000 10.8 180 21:19 09.02.2021
2718 Clear 21 1014 83 10000 10.8 190 20:42 09.02.2021
2719 Clear 21 1014 83 10000 10.8 190 20:24 09.02.2021
2720 Clouds 21 1014 83 10000 9.77 190 19:42 09.02.2021
2721 Clouds 21 1014 83 10000 9.77 190 19:22 09.02.2021
2722 Clouds 22 1013 73 10000 12.35 180 18:43 09.02.2021
2723 Clouds 22 1013 73 10000 12.35 180 18:25 09.02.2021
2724 Clouds 23 1013 68 10000 10.8 180 17:47 09.02.2021
2725 Clouds 24 1013 68 10000 10.8 180 17:26 09.02.2021
2726 Clouds 25 1013 64 10000 12.86 190 16:52 09.02.2021
2727 Clouds 25 1013 64 10000 12.86 190 16:19 09.02.2021
2728 Clouds 25 1013 64 10000 14.4 190 15:51 09.02.2021
2729 Clouds 25 1013 64 10000 14.4 190 15:29 09.02.2021
2730 Clear 25 1013 61 10000 12.35 180 14:59 09.02.2021
2731 Clear 26 1013 61 10000 12.35 180 14:30 09.02.2021
2732 Clear 26 1014 61 10000 12.35 190 13:59 09.02.2021
2733 Clear 26 1014 61 10000 12.35 190 13:40 09.02.2021
2734 Clear 26 1014 61 10000 12.35 190 13:19 09.02.2021
2735 Clear 26 1014 61 10000 11.32 190 12:41 09.02.2021
2736 Clear 26 1014 61 10000 11.32 190 12:22 09.02.2021
2737 Clear 25 1014 61 10000 11.83 190 11:44 09.02.2021
2738 Clear 25 1014 61 10000 11.83 190 11:21 09.02.2021
2739 Clear 25 1014 57 10000 9.26 190 10:56 09.02.2021
2740 Clear 25 1014 57 10000 9.26 190 10:20 09.02.2021
2741 Clouds 24 1014 60 10000 9.77 180 09:51 09.02.2021
2742 Clouds 24 1014 60 10000 9.77 180 09:26 09.02.2021
2743 Clouds 23 1014 64 10000 9.26 190 08:54 09.02.2021
2744 Clouds 23 1014 64 10000 9.26 190 08:28 09.02.2021
2745 Clouds 22 1014 78 10000 8.23 190 07:41 09.02.2021
2746 Clouds 20 1013 88 10000 7.2 200 05:33 09.02.2021
2747 Clear 20 1013 83 10000 7.2 190 03:47 09.02.2021
2748 Clear 20 1013 83 10000 8.75 190 01:50 09.02.2021
2749 Clear 21 1014 88 10000 9.77 190 00:21 09.02.2021
2750 Clouds 21 1014 83 10000 9.26 190 23:23 08.02.2021
2751 Clouds 21 1014 88 10000 10.29 190 22:59 08.02.2021
2752 Clouds 21 1014 88 10000 10.29 190 22:41 08.02.2021
2753 Clouds 21 1014 88 10000 10.29 190 22:21 08.02.2021
2754 Clouds 21 1014 78 10000 8.23 190 21:44 08.02.2021
2755 Clouds 21 1014 78 10000 8.23 190 21:21 08.02.2021
2756 Clouds 21 1014 78 10000 8.75 180 20:44 08.02.2021
2757 Clouds 22 1014 78 10000 8.75 180 20:24 08.02.2021
2758 Clouds 21 1014 83 10000 9.77 180 19:49 08.02.2021
2759 Clouds 21 1014 83 10000 9.77 180 19:30 08.02.2021
2760 Clouds 22 1013 73 10000 11.83 180 18:59 08.02.2021
2761 Clouds 23 1013 73 10000 11.83 180 18:40 08.02.2021
2762 Clouds 23 1013 73 10000 11.83 180 18:18 08.02.2021
2763 Clear 23 1013 68 10000 11.32 190 17:41 08.02.2021
2764 Clear 23 1013 68 10000 11.32 190 17:22 08.02.2021
2765 Clear 24 1013 64 10000 9.77 190 16:40 08.02.2021
2766 Clear 24 1013 64 10000 9.77 190 16:20 08.02.2021
2767 Clear 25 1014 61 10000 10.8 190 15:38 08.02.2021
2768 Clear 25 1014 61 10000 10.8 190 15:19 08.02.2021
2769 Clear 25 1014 57 10000 10.29 190 14:51 08.02.2021
2770 Clear 25 1014 57 10000 10.29 190 14:29 08.02.2021
2771 Clouds 25 1014 57 10000 10.29 200 13:54 08.02.2021
2772 Clouds 25 1014 57 10000 10.29 200 13:28 08.02.2021
2773 Clouds 25 1014 57 10000 10.29 200 13:28 08.02.2021
2774 Clouds 25 1015 53 10000 8.75 190 12:49 08.02.2021
2775 Clouds 25 1015 53 10000 8.75 190 12:31 08.02.2021
2776 Clouds 25 1015 53 10000 8.75 190 11:42 08.02.2021
2777 Clouds 25 1015 53 10000 8.75 190 11:18 08.02.2021
2778 Clouds 25 1015 53 10000 6.69 180 10:39 08.02.2021
2779 Clouds 26 1015 53 10000 6.69 180 10:20 08.02.2021
2780 Clouds 22 1016 60 10000 7.2 180 09:48 08.02.2021
2781 Clouds 22 1016 60 10000 7.2 180 09:21 08.02.2021
2782 Clouds 22 1016 64 10000 7.72 180 08:31 08.02.2021
2783 Clouds 21 1016 64 10000 6.17 160 07:49 08.02.2021
2784 Clouds 20 1016 72 10000 5.66 160 06:51 08.02.2021
2785 Clouds 19 1015 72 10000 5.14 180 05:18 08.02.2021
2786 Clear 18 1015 72 10000 5.66 180 02:27 08.02.2021
2787 Clear 19 1015 68 10000 6.69 170 00:26 08.02.2021
2788 Clear 19 1015 63 10000 7.72 180 23:56 07.02.2021
2789 Clear 19 1015 63 10000 7.72 180 23:37 07.02.2021
2790 Clear 19 1015 63 10000 7.72 180 23:18 07.02.2021
2791 Clear 19 1016 68 10000 8.23 180 22:42 07.02.2021
2792 Clear 19 1016 68 10000 8.23 180 22:24 07.02.2021
2793 Clear 19 1016 63 10000 8.23 190 21:50 07.02.2021
2794 Clear 19 1016 63 10000 8.23 190 21:26 07.02.2021
2795 Clear 19 1015 68 10000 8.23 190 20:51 07.02.2021
2796 Clear 19 1015 68 10000 8.23 190 20:33 07.02.2021
2797 Clear 20 1015 60 10000 11.32 180 19:55 07.02.2021
2798 Clear 20 1015 60 10000 11.32 180 19:30 07.02.2021
2799 Clear 21 1014 60 10000 10.8 180 18:55 07.02.2021
2800 Clear 21 1014 60 10000 10.8 180 18:35 07.02.2021
2801 Clear 22 1014 53 10000 11.32 190 17:59 07.02.2021
2802 Clear 22 1014 53 10000 11.32 190 17:40 07.02.2021
2803 Clear 22 1014 53 10000 11.32 190 17:19 07.02.2021
2804 Clear 23 1014 46 10000 12.35 190 16:45 07.02.2021
2805 Clear 23 1014 46 10000 12.35 190 16:23 07.02.2021
2806 Clear 23 1014 46 10000 11.83 190 15:49 07.02.2021
2807 Clear 23 1014 46 10000 11.83 190 15:28 07.02.2021
2808 Clear 24 1014 46 10000 11.32 180 14:49 07.02.2021
2809 Clear 24 1014 46 10000 11.32 180 14:30 07.02.2021
2810 Clear 24 1014 46 10000 10.29 180 13:56 07.02.2021
2811 Clear 24 1014 46 10000 10.29 180 13:34 07.02.2021
2812 Clouds 24 1015 49 10000 11.83 190 12:46 07.02.2021
2813 Clouds 24 1015 49 10000 11.83 190 12:23 07.02.2021
2814 Clouds 24 1015 50 10000 9.77 180 11:53 07.02.2021
2815 Clouds 24 1015 50 10000 9.77 180 11:27 07.02.2021
2816 Clouds 23 1015 53 10000 9.77 180 10:51 07.02.2021
2817 Clouds 23 1015 53 10000 9.77 180 10:27 07.02.2021
2818 Clouds 22 1015 56 10000 9.77 180 09:50 07.02.2021
2819 Clouds 22 1015 56 10000 9.77 180 09:25 07.02.2021
2820 Clouds 21 1015 60 10000 9.77 180 08:38 07.02.2021
2821 Clouds 21 1014 73 10000 8.23 170 07:47 07.02.2021
2822 Clouds 20 1014 73 10000 7.2 170 05:58 07.02.2021
2823 Clouds 20 1014 73 10000 7.2 170 05:58 07.02.2021
2824 Rain 20 1014 88 10000 5.14 190 03:59 07.02.2021
2825 Clouds 21 1014 83 10000 5.14 190 02:25 07.02.2021
2826 Clouds 21 1015 78 10000 4.63 180 00:37 07.02.2021
2827 Clouds 21 1015 83 10000 4.12 170 23:50 06.02.2021
2828 Clouds 21 1016 78 10000 5.14 170 22:52 06.02.2021
2829 Clouds 22 1016 78 10000 6.69 180 21:57 06.02.2021
2830 Clouds 21 1016 78 10000 6.69 180 21:36 06.02.2021
2831 Clouds 21 1016 78 10000 6.69 180 21:18 06.02.2021
2832 Clouds 21 1015 78 10000 5.14 170 20:43 06.02.2021
2833 Clouds 21 1015 78 10000 5.14 170 20:20 06.02.2021
2834 Clouds 22 1015 68 10000 6.69 180 19:45 06.02.2021
2835 Clouds 22 1015 68 10000 6.69 180 19:22 06.02.2021
2836 Clouds 22 1014 73 10000 7.2 170 18:43 06.02.2021
2837 Clouds 23 1014 73 10000 7.2 170 18:24 06.02.2021
2838 Clouds 23 1013 68 10000 8.75 190 17:41 06.02.2021
2839 Clouds 24 1013 68 10000 8.75 190 17:21 06.02.2021
2840 Clear 25 1013 65 10000 8.23 180 16:50 06.02.2021
2841 Clear 25 1013 65 10000 8.23 180 16:30 06.02.2021
2842 Clear 25 1013 61 10000 8.75 180 15:52 06.02.2021
2843 Clear 25 1013 61 10000 8.75 180 15:33 06.02.2021
2844 Clear 25 1013 57 10000 8.23 180 14:57 06.02.2021
2845 Clear 25 1013 57 10000 8.23 180 14:37 06.02.2021
2846 Clear 25 1013 57 10000 8.23 180 14:18 06.02.2021
2847 Clear 26 1014 57 10000 7.72 170 13:43 06.02.2021
2848 Clear 25 1015 57 10000 8.23 190 12:41 06.02.2021
2849 Clear 25 1015 57 10000 8.23 190 12:20 06.02.2021
2850 Clear 26 1015 57 10000 8.75 180 11:40 06.02.2021
2851 Clear 25 1015 57 10000 8.75 180 11:20 06.02.2021
2852 Clouds 24 1015 64 10000 8.23 180 10:52 06.02.2021
2853 Clouds 24 1015 64 10000 8.23 180 10:26 06.02.2021
2854 Clouds 24 1015 73 10000 8.23 190 09:38 06.02.2021
2855 Clouds 22 1015 73 10000 8.23 190 09:19 06.02.2021
2856 Clouds 22 1015 78 10000 9.26 190 08:59 06.02.2021
2857 Clouds 22 1015 78 10000 9.26 190 08:29 06.02.2021
2858 Clouds 20 1014 94 10000 6.17 200 06:58 06.02.2021
2859 Clear 19 1013 88 10000 4.12 190 05:41 06.02.2021
2860 Clear 19 1014 88 10000 7.72 210 02:52 06.02.2021
2861 Clear 20 1015 88 10000 8.23 210 00:59 06.02.2021
2862 Clear 20 1015 88 10000 8.23 210 00:41 06.02.2021
2863 Clear 20 1015 88 10000 8.23 210 00:18 06.02.2021
2864 Clear 20 1015 88 10000 6.69 220 23:35 05.02.2021
2865 Clear 20 1015 88 10000 6.69 220 23:35 05.02.2021
2866 Clear 20 1015 88 10000 6.69 200 22:56 05.02.2021
2867 Clear 20 1015 88 10000 6.69 200 22:25 05.02.2021
2868 Clear 20 1015 83 10000 6.17 200 21:59 05.02.2021
2869 Clear 20 1015 83 10000 6.17 200 21:59 05.02.2021
2870 Clear 20 1015 83 10000 6.17 200 21:39 05.02.2021
2871 Clear 20 1015 83 10000 8.23 200 20:58 05.02.2021
2872 Clear 21 1015 83 10000 8.23 200 20:37 05.02.2021
2873 Clear 21 1015 78 10000 8.75 190 19:47 05.02.2021
2874 Clear 21 1015 78 10000 8.75 190 19:19 05.02.2021
2875 Clouds 22 1015 73 10000 10.29 190 18:43 05.02.2021
2876 Clouds 22 1015 73 10000 10.29 190 18:43 05.02.2021
2877 Clouds 22 1015 73 10000 10.29 190 18:19 05.02.2021
2878 Clouds 22 1015 73 10000 10.29 190 18:19 05.02.2021
2879 Clouds 22 1015 73 10000 12.86 190 17:42 05.02.2021
2880 Clouds 22 1015 73 10000 12.86 190 17:21 05.02.2021
2881 Clouds 23 1015 64 10000 12.35 190 16:44 05.02.2021
2882 Clouds 24 1015 64 10000 12.35 190 16:23 05.02.2021
2883 Clouds 25 1015 64 10000 12.35 180 15:51 05.02.2021
2884 Clouds 25 1015 64 10000 12.35 180 15:25 05.02.2021
2885 Clear 26 1015 61 10000 11.32 180 14:40 05.02.2021
2886 Clear 26 1015 61 10000 11.32 180 14:22 05.02.2021
2887 Clear 26 1015 61 10000 9.26 190 13:57 05.02.2021
2888 Clear 26 1015 61 10000 9.26 190 13:33 05.02.2021
2889 Clear 27 1015 57 10000 7.72 190 12:46 05.02.2021
2890 Clear 27 1015 57 10000 7.72 190 12:25 05.02.2021
2891 Clouds 25 1016 57 10000 6.17 200 11:40 05.02.2021
2892 Clouds 25 1016 57 10000 6.17 200 11:21 05.02.2021
2893 Clear 25 1016 57 10000 5.66 220 10:54 05.02.2021
2894 Clear 25 1016 57 10000 5.66 220 10:26 05.02.2021
2895 Clear 24 1016 60 10000 4.12 200 09:45 05.02.2021
2896 Clear 24 1016 60 10000 4.12 200 09:26 05.02.2021
2897 Clouds 23 1016 68 10000 3.6 220 08:51 05.02.2021
2898 Clouds 22 1016 88 10000 3.6 240 07:53 05.02.2021
2899 Clouds 21 1016 88 10000 3.6 240 07:34 05.02.2021
2900 Clouds 19 1015 88 10000 3.6 220 06:48 05.02.2021
2901 Clear 19 1015 88 10000 4.63 230 05:36 05.02.2021
2902 Clear 19 1015 82 10000 4.63 230 02:52 05.02.2021
2903 Clear 19 1015 82 10000 4.63 230 02:24 05.02.2021
2904 Clear 19 1016 77 10000 4.12 210 00:39 05.02.2021
2905 Clear 19 1016 77 10000 4.12 210 00:19 05.02.2021
2906 Clear 19 1016 82 10000 4.63 220 23:55 04.02.2021
2907 Clear 20 1016 82 10000 4.63 220 23:36 04.02.2021
2908 Clear 20 1016 82 10000 4.63 220 23:18 04.02.2021
2909 Clear 20 1015 68 10000 5.14 190 22:46 04.02.2021
2910 Clear 21 1015 68 10000 5.14 190 22:25 04.02.2021
2911 Clear 20 1016 77 10000 6.69 190 21:42 04.02.2021
2912 Clear 20 1016 77 10000 6.69 190 21:19 04.02.2021
2913 Clear 20 1015 73 10000 7.2 190 20:46 04.02.2021
2914 Clear 20 1015 73 10000 7.2 190 20:28 04.02.2021
2915 Clear 21 1014 73 10000 7.72 200 19:43 04.02.2021
2916 Clear 21 1014 68 10000 8.23 190 18:56 04.02.2021
2917 Clear 22 1014 68 10000 8.23 190 18:25 04.02.2021
2918 Clear 22 1014 68 10000 11.83 190 17:53 04.02.2021
2919 Clear 22 1014 68 10000 11.83 190 17:26 04.02.2021
2920 Clear 22 1014 64 10000 12.35 190 16:56 04.02.2021
2921 Clear 22 1014 60 10000 13.38 190 16:38 04.02.2021
2922 Clear 23 1014 60 10000 11.32 190 16:18 04.02.2021
2923 Clear 23 1014 60 10000 11.32 190 15:39 04.02.2021
2924 Clear 23 1014 60 10000 11.32 190 15:20 04.02.2021
2925 Clear 23 1014 57 10000 11.83 190 14:47 04.02.2021
2926 Clear 23 1014 57 10000 11.83 190 14:20 04.02.2021
2927 Clear 25 1014 57 10000 10.29 180 13:45 04.02.2021
2928 Clear 25 1014 57 10000 10.29 180 13:25 04.02.2021
2929 Clouds 25 1014 57 10000 9.77 190 12:52 04.02.2021
2930 Clouds 24 1014 53 10000 7.72 190 11:57 04.02.2021
2931 Clouds 24 1014 53 10000 7.72 190 11:37 04.02.2021
2932 Clouds 23 1015 60 10000 8.23 190 10:58 04.02.2021
2933 Clouds 23 1015 60 10000 8.23 190 10:34 04.02.2021
2934 Clouds 22 1014 64 10000 7.72 190 09:45 04.02.2021
2935 Clouds 22 1014 64 10000 7.72 190 09:22 04.02.2021
2936 Clouds 22 1015 68 10000 8.75 190 08:51 04.02.2021
2937 Clouds 21 1015 68 10000 8.75 190 08:26 04.02.2021
2938 Clouds 20 1014 83 10000 8.75 190 07:56 04.02.2021
2939 Clouds 20 1014 83 10000 8.75 190 07:33 04.02.2021
2940 Clouds 19 1014 88 10000 10.29 190 06:45 04.02.2021
2941 Clouds 19 1014 82 10000 5.66 200 05:52 04.02.2021
2942 Clouds 20 1013 77 10000 5.66 210 02:40 04.02.2021
2943 Clouds 19 1013 77 10000 5.66 210 02:18 04.02.2021
2944 Clouds 20 1014 83 10000 7.72 190 00:24 04.02.2021
2945 Clouds 20 1014 77 10000 6.69 190 23:34 03.02.2021
2946 Clouds 20 1014 77 10000 7.2 190 22:40 03.02.2021
2947 Clouds 20 1014 77 10000 7.2 190 22:21 03.02.2021
2948 Clouds 20 1014 77 10000 7.72 190 21:51 03.02.2021
2949 Clouds 20 1014 77 10000 7.72 190 21:24 03.02.2021
2950 Clouds 21 1014 77 10000 7.72 180 20:54 03.02.2021
2951 Clouds 21 1014 77 10000 7.72 180 20:35 03.02.2021
2952 Clear 21 1014 73 10000 7.2 180 19:56 03.02.2021
2953 Clear 21 1014 73 10000 7.2 180 19:27 03.02.2021
2954 Clear 22 1013 68 10000 10.29 190 18:59 03.02.2021
2955 Clear 22 1013 68 10000 10.29 190 18:39 03.02.2021
2956 Clear 22 1013 68 10000 10.29 190 18:39 03.02.2021
2957 Clear 22 1013 68 10000 10.29 190 18:19 03.02.2021
2958 Clear 23 1013 64 10000 10.29 190 17:48 03.02.2021
2959 Clear 23 1013 64 10000 10.29 190 17:27 03.02.2021
2960 Clear 24 1013 57 10000 8.23 190 16:48 03.02.2021
2961 Clear 24 1013 57 10000 8.23 190 16:26 03.02.2021
2962 Clear 24 1013 46 10000 8.75 180 15:41 03.02.2021
2963 Clear 25 1013 46 10000 8.75 180 15:22 03.02.2021
2964 Clear 25 1013 57 10000 11.32 200 14:47 03.02.2021
2965 Clear 25 1013 57 10000 11.32 200 14:24 03.02.2021
2966 Clear 25 1013 53 10000 10.29 190 13:50 03.02.2021
2967 Clear 25 1013 53 10000 10.29 190 13:21 03.02.2021
2968 Clear 25 1013 57 10000 8.75 190 12:47 03.02.2021
2969 Clear 24 1013 57 10000 8.75 190 12:22 03.02.2021
2970 Clear 24 1013 60 10000 9.77 190 11:47 03.02.2021
2971 Clear 24 1013 60 10000 9.77 190 11:28 03.02.2021
2972 Clouds 24 1013 60 10000 10.29 180 10:52 03.02.2021
2973 Clouds 23 1013 60 10000 10.29 180 10:21 03.02.2021
2974 Clouds 23 1013 64 10000 10.8 190 09:47 03.02.2021
2975 Clouds 22 1013 64 10000 10.8 190 09:27 03.02.2021
2976 Clouds 22 1013 73 10000 10.8 190 08:52 03.02.2021
2977 Clouds 21 1013 73 10000 10.8 190 08:24 03.02.2021
2978 Clear 21 1013 77 10000 8.23 200 07:39 03.02.2021
2979 Clear 19 1012 82 10000 7.2 210 06:40 03.02.2021
2980 Clear 18 1011 88 10000 7.72 210 04:52 03.02.2021
2981 Clear 18 1011 88 10000 7.72 210 04:29 03.02.2021
2982 Clear 19 1011 88 10000 7.72 200 03:18 03.02.2021
2983 Clear 19 1012 82 10000 7.2 200 02:26 03.02.2021
2984 Clear 20 1013 82 10000 7.2 200 00:30 03.02.2021
2985 Clear 20 1013 82 10000 7.2 200 23:53 02.02.2021
2986 Clear 20 1013 82 10000 7.2 200 23:29 02.02.2021
2987 Clear 20 1014 83 10000 8.23 190 22:59 02.02.2021
2988 Clear 20 1014 83 10000 8.23 190 22:22 02.02.2021
2989 Clear 20 1014 83 10000 7.72 190 21:57 02.02.2021
2990 Clear 20 1014 83 10000 7.72 190 21:30 02.02.2021
2991 Clear 21 1013 83 10000 7.72 190 20:59 02.02.2021
2992 Clear 21 1013 83 10000 7.72 190 20:41 02.02.2021
2993 Clear 21 1013 83 10000 7.72 190 20:19 02.02.2021
2994 Clear 22 1013 68 10000 6.69 180 19:47 02.02.2021
2995 Clear 22 1013 68 10000 6.69 180 19:29 02.02.2021
2996 Clear 24 1012 44 10000 6.17 170 18:44 02.02.2021
2997 Clear 25 1012 44 10000 6.17 170 18:25 02.02.2021
2998 Clear 26 1012 32 10000 6.17 170 17:50 02.02.2021
2999 Clear 27 1012 32 10000 6.17 170 17:23 02.02.2021
3000 Clear 28 1012 30 10000 5.66 170 16:57 02.02.2021
3001 Clear 28 1012 30 10000 5.66 170 16:37 02.02.2021
3002 Clear 29 1012 26 10000 6.17 180 15:59 02.02.2021
3003 Clear 29 1012 26 10000 6.17 180 15:40 02.02.2021
3004 Clear 29 1012 26 10000 6.17 180 15:21 02.02.2021
3005 Clear 29 1012 27 10000 5.66 180 14:40 02.02.2021
3006 Clear 30 1012 27 10000 5.66 180 14:18 02.02.2021
3007 Clear 30 1013 27 10000 6.17 180 13:44 02.02.2021
3008 Clear 31 1013 27 10000 6.17 180 13:26 02.02.2021
3009 Clear 30 1013 29 10000 2.57 180 12:55 02.02.2021
3010 Clear 30 1013 29 10000 2.57 180 12:26 02.02.2021
3011 Clear 29 1014 30 10000 1.54 0 11:41 02.02.2021
3012 Clear 28 1014 30 10000 1.54 0 11:20 02.02.2021
3013 Clear 28 1014 34 10000 1.54 0 10:49 02.02.2021
3014 Clear 27 1014 34 10000 1.54 0 10:26 02.02.2021
3015 Clear 26 1014 38 10000 1.54 0 09:46 02.02.2021
3016 Clear 26 1014 38 10000 1.54 0 09:25 02.02.2021
3017 Clear 24 1014 46 10000 1.03 0 08:45 02.02.2021
3018 Clear 22 1014 49 10000 0.51 0 07:58 02.02.2021
3019 Clear 21 1014 60 10000 1.03 0 07:28 02.02.2021
3020 Clear 18 1014 68 10000 1.03 0 06:41 02.02.2021
3021 Clear 16 1013 77 10000 2.06 310 05:51 02.02.2021
3022 Clear 17 1013 67 10000 1.03 280 04:36 02.02.2021
3023 Clear 18 1014 63 10000 3.09 250 02:25 02.02.2021
3024 Clear 18 1015 59 10000 2.57 220 01:23 02.02.2021
3025 Clear 18 1015 59 10000 3.09 230 00:31 02.02.2021
3026 Clear 18 1015 63 10000 3.09 140 23:18 01.02.2021
3027 Clear 19 1016 59 10000 2.57 220 22:40 01.02.2021
3028 Clear 19 1016 59 10000 2.57 220 22:21 01.02.2021
3029 Clear 19 1015 59 10000 4.12 140 21:48 01.02.2021
3030 Clear 20 1015 59 10000 4.12 140 21:26 01.02.2021
3031 Clear 20 1015 56 10000 5.14 140 20:47 01.02.2021
3032 Clear 20 1015 56 10000 5.14 140 20:25 01.02.2021
3033 Clear 21 1015 49 10000 5.66 160 19:59 01.02.2021
3034 Clear 21 1015 49 10000 5.66 160 19:59 01.02.2021
3035 Clear 20 1015 49 10000 5.66 160 19:37 01.02.2021
3036 Clear 21 1014 43 10000 8.23 160 19:18 01.02.2021
3037 Clear 22 1014 43 10000 8.23 160 18:43 01.02.2021
3038 Clear 23 1014 43 10000 8.23 160 18:25 01.02.2021
3039 Clear 23 1014 41 10000 10.29 160 17:46 01.02.2021
3040 Clear 24 1014 41 10000 10.29 160 17:22 01.02.2021
3041 Clear 24 1014 36 10000 8.75 140 16:42 01.02.2021
3042 Clear 24 1014 36 10000 8.75 140 16:23 01.02.2021
3043 Clear 24 1015 38 10000 11.83 170 15:42 01.02.2021
3044 Clear 24 1015 38 10000 11.83 170 15:19 01.02.2021
3045 Clear 24 1015 36 10000 11.32 160 14:51 01.02.2021
3046 Clear 25 1015 36 10000 11.32 160 14:24 01.02.2021
3047 Clear 25 1016 36 10000 9.26 150 13:46 01.02.2021
3048 Clear 25 1016 36 10000 9.26 150 13:26 01.02.2021
3049 Clear 24 1016 41 10000 11.32 150 12:45 01.02.2021
3050 Clear 24 1016 41 10000 11.32 150 12:25 01.02.2021
3051 Clear 24 1016 41 10000 11.32 150 12:25 01.02.2021
3052 Clear 23 1016 46 10000 9.77 150 11:47 01.02.2021
3053 Clear 23 1016 46 10000 9.77 150 11:21 01.02.2021
3054 Clear 23 1016 46 10000 9.77 150 11:21 01.02.2021
3055 Clear 22 1016 46 10000 8.75 140 10:52 01.02.2021
3056 Clear 22 1016 46 10000 8.75 140 10:22 01.02.2021
3057 Clear 21 1016 52 10000 10.29 150 09:55 01.02.2021
3058 Clear 20 1016 52 10000 10.29 150 09:36 01.02.2021
3059 Clear 20 1015 52 10000 8.75 150 08:56 01.02.2021
3060 Clear 19 1015 52 10000 8.75 150 08:27 01.02.2021
3061 Clear 18 1015 55 10000 8.23 150 07:32 01.02.2021
3062 Clear 17 1014 63 10000 9.77 150 05:20 01.02.2021
3063 Clouds 17 1014 77 10000 8.23 160 02:40 01.02.2021
3064 Clouds 18 1014 77 10000 8.23 160 00:26 01.02.2021
3065 Clouds 18 1014 82 10000 8.23 170 23:26 31.01.2021
3066 Clouds 18 1013 88 10000 7.72 160 22:41 31.01.2021
3067 Clouds 19 1013 88 10000 7.72 160 22:22 31.01.2021
3068 Clouds 20 1012 83 10000 4.63 180 21:47 31.01.2021
3069 Clouds 20 1012 83 10000 4.63 180 21:21 31.01.2021
3070 Clouds 19 1011 88 10000 4.12 200 20:44 31.01.2021
3071 Rain 20 1011 88 10000 4.12 200 20:21 31.01.2021
3072 Rain 20 1010 94 2500 4.12 250 19:41 31.01.2021
3073 Rain 20 1010 94 2500 4.12 250 19:23 31.01.2021
3074 Rain 20 1010 88 2500 5.14 290 18:56 31.01.2021
3075 Rain 21 1010 88 4000 4.12 320 18:38 31.01.2021
3076 Rain 21 1009 88 10000 4.63 340 18:19 31.01.2021
3077 Rain 22 1009 83 10000 6.17 330 17:43 31.01.2021
3078 Rain 22 1009 83 10000 6.17 330 17:22 31.01.2021
3079 Drizzle 23 1009 78 10000 7.2 320 16:42 31.01.2021
3080 Drizzle 21 1009 78 10000 7.2 320 16:22 31.01.2021
3081 Drizzle 22 1009 73 10000 6.69 320 15:50 31.01.2021
3082 Drizzle 23 1009 73 10000 6.69 320 15:31 31.01.2021
3083 Clouds 23 1009 68 10000 7.72 320 14:42 31.01.2021
3084 Clouds 23 1009 68 10000 7.72 320 14:21 31.01.2021
3085 Drizzle 24 1009 73 8000 9.26 320 13:49 31.01.2021
3086 Drizzle 24 1009 73 8000 9.26 320 13:26 31.01.2021
3087 Clouds 23 1009 68 10000 9.77 320 12:47 31.01.2021
3088 Clouds 23 1010 75 10000 4.92 270 12:22 31.01.2021
3089 Clouds 23 1004 78 10000 8.05 340 11:44 31.01.2021
3090 Clouds 23 1005 78 10000 8.05 340 11:22 31.01.2021
3091 Clouds 22 1005 78 10000 8.05 340 10:49 31.01.2021
3092 Clouds 22 1009 78 10000 8.23 340 10:31 31.01.2021
3093 Clouds 22 1009 78 10000 8.23 340 09:50 31.01.2021
3094 Drizzle 21 1010 83 9000 6.69 340 08:59 31.01.2021
3095 Drizzle 21 1010 83 9000 6.69 340 08:32 31.01.2021
3096 Drizzle 20 1010 88 8000 5.66 350 06:56 31.01.2021
3097 Clouds 19 1010 82 10000 4.12 350 05:31 31.01.2021
3098 Clouds 21 1012 77 10000 1.54 20 00:46 31.01.2021
3099 Clouds 20 1012 77 10000 0.51 0 00:21 31.01.2021
3100 Clouds 20 1012 77 10000 0.51 0 23:30 30.01.2021
3101 Clear 21 1012 73 10000 2.06 230 22:56 30.01.2021
3102 Clear 21 1012 73 10000 2.06 230 22:29 30.01.2021
3103 Clear 21 1012 68 10000 3.09 210 21:40 30.01.2021
3104 Clear 21 1012 68 10000 3.09 210 21:21 30.01.2021
3105 Clouds 21 1012 68 10000 4.12 210 20:46 30.01.2021
3106 Clouds 21 1012 68 10000 4.12 210 20:27 30.01.2021
3107 Clouds 22 1012 64 10000 5.14 220 19:44 30.01.2021
3108 Clouds 22 1012 64 10000 5.14 220 19:25 30.01.2021
3109 Clouds 23 1012 60 10000 5.66 220 18:42 30.01.2021
3110 Clouds 24 1012 47 10000 5.14 220 18:22 30.01.2021
3111 Clouds 24 1012 47 10000 5.14 220 17:59 30.01.2021
3112 Clouds 25 1012 47 10000 4.12 340 17:20 30.01.2021
3113 Clouds 26 1012 47 10000 4.12 340 16:47 30.01.2021
3114 Clouds 26 1012 47 10000 4.12 340 16:25 30.01.2021
3115 Clouds 26 1013 47 10000 3.6 300 15:57 30.01.2021
3116 Clouds 26 1013 47 10000 3.6 300 15:39 30.01.2021
3117 Clouds 26 1013 47 10000 3.6 300 15:20 30.01.2021
3118 Clouds 26 1013 47 10000 4.63 340 14:50 30.01.2021
3119 Clouds 26 1013 47 10000 4.63 340 14:22 30.01.2021
3120 Clouds 26 1014 47 10000 5.14 320 13:33 30.01.2021
3121 Clouds 25 1014 50 10000 4.63 300 12:49 30.01.2021
3122 Clouds 25 1014 50 10000 4.63 300 12:29 30.01.2021
3123 Clouds 25 1014 50 10000 4.63 300 12:29 30.01.2021
3124 Clouds 25 1015 53 10000 3.09 290 11:59 30.01.2021
3125 Clouds 25 1015 53 10000 3.09 290 11:31 30.01.2021
3126 Clouds 24 1015 53 10000 3.6 300 10:49 30.01.2021
3127 Clouds 24 1015 50 10000 2.57 220 09:52 30.01.2021
3128 Clouds 24 1015 50 10000 2.57 220 09:31 30.01.2021
3129 Clouds 23 1015 56 10000 2.57 280 08:47 30.01.2021
3130 Clouds 22 1015 56 10000 2.57 280 08:25 30.01.2021
3131 Clouds 21 1015 88 10000 1.03 110 06:53 30.01.2021
3132 Clouds 20 1015 88 10000 1.03 110 06:19 30.01.2021
3133 Clouds 19 1015 88 10000 2.06 130 03:35 30.01.2021
3134 Clouds 20 1015 82 10000 2.57 190 02:25 30.01.2021
3135 Clouds 20 1015 77 10000 4.12 190 01:31 30.01.2021
3136 Clouds 20 1016 83 10000 4.12 190 00:44 30.01.2021
3137 Clouds 20 1016 83 10000 4.12 190 00:21 30.01.2021
3138 Clouds 20 1016 82 10000 3.6 180 23:46 29.01.2021
3139 Clouds 20 1016 82 10000 3.6 180 23:22 29.01.2021
3140 Clouds 20 1016 82 10000 4.12 170 22:44 29.01.2021
3141 Clouds 20 1016 82 10000 4.12 170 22:20 29.01.2021
3142 Clouds 20 1016 82 10000 5.14 160 21:37 29.01.2021
3143 Clouds 20 1016 82 10000 5.14 160 21:19 29.01.2021
3144 Clear 20 1015 77 10000 5.66 170 20:41 29.01.2021
3145 Clear 20 1015 77 10000 5.66 170 20:21 29.01.2021
3146 Clear 21 1015 68 10000 7.72 180 19:38 29.01.2021
3147 Clear 22 1015 68 10000 7.72 180 19:19 29.01.2021
3148 Clear 21 1015 68 10000 7.72 180 19:19 29.01.2021
3149 Clear 23 1014 56 10000 6.17 190 18:42 29.01.2021
3150 Clouds 24 1014 53 10000 8.23 190 17:45 29.01.2021
3151 Clouds 24 1014 53 10000 8.23 190 17:22 29.01.2021
3152 Clouds 24 1015 53 10000 8.75 180 16:47 29.01.2021
3153 Clouds 24 1015 53 10000 8.75 180 16:24 29.01.2021
3154 Clouds 24 1015 53 10000 8.75 180 16:24 29.01.2021
3155 Clear 24 1015 47 10000 7.72 180 15:52 29.01.2021
3156 Clear 25 1015 47 10000 7.72 180 15:34 29.01.2021
3157 Clear 25 1015 44 10000 7.2 190 14:56 29.01.2021
3158 Clear 25 1016 44 10000 6.17 170 14:18 29.01.2021
3159 Clear 25 1016 44 10000 6.17 170 13:45 29.01.2021
3160 Clear 25 1016 44 10000 6.17 170 13:26 29.01.2021
3161 Clear 24 1016 43 10000 6.17 180 12:30 29.01.2021
3162 Clear 23 1017 46 10000 5.66 180 11:51 29.01.2021
3163 Clear 24 1017 46 10000 5.66 180 11:20 29.01.2021
3164 Clear 23 1017 46 10000 5.14 170 10:58 29.01.2021
3165 Clear 23 1017 46 10000 5.14 170 10:39 29.01.2021
3166 Clouds 22 1017 49 10000 5.14 180 09:50 29.01.2021
3167 Clouds 22 1017 49 10000 5.14 180 09:50 29.01.2021
3168 Clouds 22 1017 49 10000 5.14 180 09:29 29.01.2021
3169 Clouds 20 1017 52 10000 3.09 170 08:48 29.01.2021
3170 Clouds 21 1017 52 10000 3.09 170 08:25 29.01.2021
3171 Clouds 20 1017 56 10000 2.57 140 07:43 29.01.2021
3172 Clouds 19 1017 68 10000 0.51 0 07:23 29.01.2021
3173 Clouds 18 1017 82 10000 0.51 0 06:34 29.01.2021
3174 Clear 15 1016 88 10000 1.03 180 03:53 29.01.2021
3175 Clear 16 1018 82 10000 2.06 160 00:47 29.01.2021
3176 Clear 16 1018 82 10000 2.06 160 00:22 29.01.2021
3177 Clear 16 1018 82 10000 2.06 160 00:22 29.01.2021
3178 Clear 16 1017 82 10000 2.57 150 23:47 28.01.2021
3179 Clear 17 1017 82 10000 2.57 150 23:27 28.01.2021
3180 Clear 17 1017 77 10000 2.06 170 22:59 28.01.2021
3181 Clear 17 1017 77 10000 2.06 170 22:38 28.01.2021
3182 Clear 17 1017 77 10000 2.06 170 22:20 28.01.2021
3183 Clear 18 1017 68 10000 4.12 190 21:42 28.01.2021
3184 Clear 18 1017 68 10000 4.12 190 21:21 28.01.2021
3185 Clear 19 1017 63 10000 4.12 180 20:44 28.01.2021
3186 Clear 20 1017 60 10000 4.63 180 20:19 28.01.2021
3187 Clear 20 1017 60 10000 4.63 180 19:49 28.01.2021
3188 Clear 20 1017 60 10000 4.63 180 19:27 28.01.2021
3189 Clear 21 1017 52 10000 7.2 180 18:49 28.01.2021
3190 Clear 21 1017 52 10000 7.2 180 18:30 28.01.2021
3191 Clear 22 1016 49 10000 8.23 180 17:53 28.01.2021
3192 Clear 22 1016 49 10000 8.23 180 17:32 28.01.2021
3193 Clear 23 1016 43 10000 8.23 170 16:58 28.01.2021
3194 Clear 23 1016 43 10000 8.23 170 16:39 28.01.2021
3195 Clear 23 1016 43 10000 8.23 170 16:20 28.01.2021
3196 Clear 24 1016 43 10000 8.75 170 15:25 28.01.2021
3197 Clear 24 1016 43 10000 7.72 170 14:48 28.01.2021
3198 Clear 24 1016 43 10000 7.72 170 14:26 28.01.2021
3199 Clear 24 1017 43 10000 6.69 180 13:58 28.01.2021
3200 Clear 24 1017 43 10000 6.69 180 13:25 28.01.2021
3201 Clear 23 1017 46 10000 7.72 180 12:50 28.01.2021
3202 Clear 23 1017 46 10000 7.72 180 12:32 28.01.2021
3203 Clear 24 1018 49 10000 9.26 180 11:57 28.01.2021
3204 Clear 23 1018 49 10000 9.26 180 11:39 28.01.2021
3205 Clear 23 1018 49 10000 8.75 170 11:18 28.01.2021
3206 Clear 23 1018 53 10000 9.77 190 10:48 28.01.2021
3207 Clear 23 1018 53 10000 9.77 190 10:24 28.01.2021
3208 Clear 22 1018 49 10000 8.23 190 09:42 28.01.2021
3209 Clear 22 1018 49 10000 8.23 190 09:20 28.01.2021
3210 Clear 22 1017 52 10000 8.23 190 08:46 28.01.2021
3211 Clear 20 1017 63 10000 6.17 210 07:51 28.01.2021
3212 Clear 20 1017 63 10000 6.17 210 07:22 28.01.2021
3213 Clear 18 1016 72 10000 5.66 210 06:48 28.01.2021
3214 Clear 17 1016 82 10000 4.63 200 04:31 28.01.2021
3215 Clear 17 1016 77 10000 5.14 200 02:46 28.01.2021
3216 Clear 18 1018 68 10000 7.72 180 00:50 28.01.2021
3217 Clear 18 1018 68 10000 7.72 180 23:41 27.01.2021
3218 Clear 18 1018 68 10000 7.72 180 23:22 27.01.2021
3219 Clear 18 1018 72 10000 8.23 180 22:40 27.01.2021
3220 Clear 19 1018 72 10000 8.23 180 22:19 27.01.2021
3221 Clear 19 1018 72 10000 8.23 180 22:19 27.01.2021
3222 Clear 18 1018 72 10000 7.72 170 21:42 27.01.2021
3223 Clear 18 1018 72 10000 7.72 170 21:22 27.01.2021
3224 Clear 19 1017 68 10000 7.72 180 20:42 27.01.2021
3225 Clouds 19 1017 68 10000 10.29 180 20:20 27.01.2021
3226 Clouds 19 1017 68 10000 10.29 180 19:41 27.01.2021
3227 Clouds 19 1017 68 10000 10.29 180 19:21 27.01.2021
3228 Clouds 20 1016 56 10000 9.77 180 18:44 27.01.2021
3229 Clouds 21 1016 56 10000 9.77 180 18:23 27.01.2021
3230 Clear 21 1015 46 10000 12.35 180 17:51 27.01.2021
3231 Clear 21 1015 46 10000 12.35 180 17:31 27.01.2021
3232 Clouds 22 1015 49 10000 11.83 170 16:54 27.01.2021
3233 Clouds 22 1015 49 10000 11.83 170 16:36 27.01.2021
3234 Clouds 23 1015 46 10000 12.86 180 16:18 27.01.2021
3235 Clouds 23 1015 46 10000 12.86 180 15:41 27.01.2021
3236 Clouds 23 1015 46 10000 12.86 180 15:23 27.01.2021
3237 Clouds 23 1015 46 10000 13.38 180 14:24 27.01.2021
3238 Clouds 24 1015 41 10000 12.35 170 13:50 27.01.2021
3239 Clouds 24 1015 41 10000 12.35 170 13:32 27.01.2021
3240 Clouds 24 1015 41 10000 12.35 170 12:42 27.01.2021
3241 Clouds 24 1015 41 10000 12.35 170 12:23 27.01.2021
3242 Clouds 23 1015 49 10000 11.83 170 11:47 27.01.2021
3243 Clouds 23 1015 49 10000 11.83 170 11:23 27.01.2021
3244 Clouds 23 1015 49 10000 11.83 170 11:23 27.01.2021
3245 Clouds 23 1015 53 10000 9.77 160 10:42 27.01.2021
3246 Clouds 22 1015 53 10000 9.77 160 10:21 27.01.2021
3247 Clouds 22 1015 64 10000 11.32 160 09:51 27.01.2021
3248 Clouds 21 1015 64 10000 11.32 160 09:27 27.01.2021
3249 Clouds 21 1015 68 10000 9.26 160 08:40 27.01.2021
3250 Clouds 21 1015 77 10000 6.69 170 07:46 27.01.2021
3251 Clouds 20 1015 77 10000 6.69 170 07:26 27.01.2021
3252 Clouds 20 1014 82 10000 5.66 180 06:25 27.01.2021
3253 Clouds 19 1014 82 10000 6.17 170 05:49 27.01.2021
3254 Clear 19 1013 82 10000 6.17 190 04:57 27.01.2021
3255 Clear 18 1013 88 10000 6.69 190 02:46 27.01.2021
3256 Clear 19 1013 88 10000 6.69 190 02:20 27.01.2021
3257 Clear 19 1014 82 10000 7.72 180 00:56 27.01.2021
3258 Clouds 19 1014 82 10000 7.2 180 00:18 27.01.2021
3259 Clouds 20 1014 82 10000 7.2 180 23:32 26.01.2021
3260 Clouds 20 1014 77 10000 9.26 180 22:58 26.01.2021
3261 Clouds 20 1014 77 10000 9.26 180 22:37 26.01.2021
3262 Clouds 20 1014 77 10000 9.26 180 22:18 26.01.2021
3263 Clouds 20 1014 77 10000 8.75 180 21:46 26.01.2021
3264 Clouds 20 1014 77 10000 8.75 180 21:21 26.01.2021
3265 Clear 20 1013 77 10000 8.75 170 20:41 26.01.2021
3266 Clear 20 1013 77 10000 8.75 170 20:23 26.01.2021
3267 Clear 20 1013 73 10000 9.77 180 19:50 26.01.2021
3268 Clear 20 1013 73 10000 9.77 180 19:29 26.01.2021
3269 Clear 21 1013 68 10000 10.29 180 18:57 26.01.2021
3270 Clear 21 1013 68 10000 10.29 180 18:39 26.01.2021
3271 Clear 21 1013 68 10000 10.29 180 18:19 26.01.2021
3272 Clouds 22 1012 64 10000 12.35 180 17:46 26.01.2021
3273 Clouds 22 1012 64 10000 12.35 180 17:22 26.01.2021
3274 Clear 23 1012 56 10000 11.83 180 16:42 26.01.2021
3275 Clear 23 1012 56 10000 11.83 180 16:42 26.01.2021
3276 Clear 23 1012 56 10000 11.83 180 16:20 26.01.2021
3277 Clear 24 1013 53 10000 12.35 180 15:49 26.01.2021
3278 Clear 24 1013 53 10000 12.35 180 15:30 26.01.2021
3279 Clear 24 1013 56 10000 13.38 190 14:49 26.01.2021
3280 Clear 24 1013 56 10000 13.38 190 14:30 26.01.2021
3281 Clouds 24 1013 53 10000 13.38 190 13:42 26.01.2021
3282 Clouds 24 1013 53 10000 13.38 190 13:24 26.01.2021
3283 Clouds 24 1013 57 10000 12.86 180 12:45 26.01.2021
3284 Clouds 24 1013 57 10000 12.86 180 12:25 26.01.2021
3285 Clouds 24 1013 60 10000 12.35 180 11:59 26.01.2021
3286 Clouds 24 1013 60 10000 12.35 180 11:39 26.01.2021
3287 Clouds 24 1013 64 10000 10.8 190 10:50 26.01.2021
3288 Clouds 23 1013 64 10000 10.8 190 10:31 26.01.2021
3289 Clouds 23 1013 64 10000 10.29 180 09:48 26.01.2021
3290 Clouds 23 1013 64 10000 10.29 180 09:28 26.01.2021
3291 Clouds 23 1013 68 10000 8.75 190 08:53 26.01.2021
3292 Clouds 22 1013 68 10000 8.75 190 08:33 26.01.2021
3293 Clouds 22 1013 73 10000 7.2 190 07:47 26.01.2021
3294 Clouds 19 1013 88 10000 6.17 200 06:24 26.01.2021
3295 Clouds 18 1012 94 10000 5.66 200 05:43 26.01.2021
3296 Clouds 19 1012 94 10000 5.66 200 05:23 26.01.2021
3297 Clouds 19 1012 88 10000 7.72 210 02:46 26.01.2021
3298 Clear 19 1012 82 10000 8.23 190 00:58 26.01.2021
3299 Clear 19 1012 82 10000 8.75 190 23:40 25.01.2021
3300 Clear 20 1012 82 10000 8.75 190 23:18 25.01.2021
3301 Clear 19 1011 88 10000 7.72 200 22:39 25.01.2021
3302 Clear 19 1011 82 10000 7.72 210 21:58 25.01.2021
3303 Clear 19 1011 82 10000 7.72 210 21:39 25.01.2021
3304 Clear 20 1011 82 10000 6.17 210 20:53 25.01.2021
3305 Clear 20 1011 82 10000 6.17 210 20:33 25.01.2021
3306 Clear 21 1010 68 10000 5.66 220 19:58 25.01.2021
3307 Clear 21 1010 68 10000 5.66 220 19:40 25.01.2021
3308 Clear 21 1010 68 10000 5.66 220 19:20 25.01.2021
3309 Clear 22 1010 60 10000 5.66 210 18:42 25.01.2021
3310 Clear 23 1010 60 10000 5.66 210 18:22 25.01.2021
3311 Clear 25 1009 53 10000 6.17 210 17:43 25.01.2021
3312 Clear 25 1009 53 10000 6.17 210 17:24 25.01.2021
3313 Clear 26 1010 47 10000 5.66 210 16:43 25.01.2021
3314 Clear 26 1010 47 10000 5.66 210 16:24 25.01.2021
3315 Clear 27 1010 41 10000 6.17 200 15:54 25.01.2021
3316 Clear 27 1010 41 10000 6.17 200 15:34 25.01.2021
3317 Clear 28 1011 36 10000 6.69 210 14:53 25.01.2021
3318 Clear 28 1011 36 10000 6.69 210 14:20 25.01.2021
3319 Clear 30 1011 30 10000 6.17 190 13:57 25.01.2021
3320 Clear 30 1011 30 10000 6.17 190 13:57 25.01.2021
3321 Clear 30 1011 30 10000 6.17 190 13:36 25.01.2021
3322 Clear 30 1011 30 10000 6.17 190 13:36 25.01.2021
3323 Clear 27 1012 34 10000 5.66 190 12:49 25.01.2021
3324 Clear 27 1012 34 10000 5.66 190 12:49 25.01.2021
3325 Clear 28 1012 34 10000 5.66 190 12:27 25.01.2021
3326 Clear 28 1012 34 10000 4.63 170 11:58 25.01.2021
3327 Clear 27 1012 34 10000 4.63 170 11:27 25.01.2021
3328 Clear 27 1012 34 10000 3.6 180 10:46 25.01.2021
3329 Clear 27 1012 34 10000 3.6 180 10:22 25.01.2021
3330 Clear 26 1012 38 10000 3.6 190 09:49 25.01.2021
3331 Clear 26 1012 38 10000 3.6 190 09:28 25.01.2021
3332 Clear 25 1013 46 10000 5.14 170 08:34 25.01.2021
3333 Clear 23 1013 49 10000 5.14 180 07:56 25.01.2021
3334 Clear 21 1013 56 10000 4.12 160 07:28 25.01.2021
3335 Clear 17 1013 68 10000 3.09 200 06:27 25.01.2021
3336 Clear 18 1013 72 10000 4.63 240 02:32 25.01.2021
3337 Clear 18 1014 63 10000 2.06 180 00:40 25.01.2021
3338 Clear 18 1014 59 10000 3.09 140 23:38 24.01.2021
3339 Clear 18 1014 59 10000 3.09 140 23:18 24.01.2021
3340 Clear 19 1014 55 10000 4.63 140 22:40 24.01.2021
3341 Clear 19 1014 55 10000 4.63 140 22:18 24.01.2021
3342 Clear 20 1014 56 10000 6.17 140 21:37 24.01.2021
3343 Clear 20 1014 56 10000 6.17 140 21:18 24.01.2021
3344 Clear 19 1014 56 10000 8.75 160 20:41 24.01.2021
3345 Clear 19 1014 56 10000 8.75 160 20:19 24.01.2021
3346 Clear 19 1014 52 10000 10.8 160 19:48 24.01.2021
3347 Clear 20 1014 52 10000 10.8 160 19:25 24.01.2021
3348 Clear 20 1014 49 10000 11.32 170 18:56 24.01.2021
3349 Clear 21 1014 49 10000 11.32 170 18:37 24.01.2021
3350 Clear 21 1014 49 10000 11.32 170 18:18 24.01.2021
3351 Clear 21 1013 49 10000 12.35 170 17:45 24.01.2021
3352 Clear 22 1013 49 10000 12.35 170 17:20 24.01.2021
3353 Clear 23 1014 46 10000 12.86 170 16:42 24.01.2021
3354 Clear 23 1014 46 10000 12.86 170 16:21 24.01.2021
3355 Clear 23 1014 46 10000 13.89 170 15:48 24.01.2021
3356 Clear 23 1014 46 10000 13.89 170 15:21 24.01.2021
3357 Clear 23 1015 46 10000 14.4 170 14:58 24.01.2021
3358 Clear 23 1015 46 10000 14.4 170 14:36 24.01.2021
3359 Clear 23 1016 46 10000 14.92 170 13:40 24.01.2021
3360 Clear 23 1016 46 10000 14.92 170 13:20 24.01.2021
3361 Clear 23 1016 46 10000 13.89 170 12:42 24.01.2021
3362 Clouds 23 1016 43 10000 14.4 180 12:19 24.01.2021
3363 Clouds 22 1017 46 10000 13.38 180 11:49 24.01.2021
3364 Clouds 22 1017 46 10000 13.38 180 11:23 24.01.2021
3365 Clouds 22 1018 46 10000 11.32 170 10:43 24.01.2021
3366 Clouds 21 1018 49 10000 11.32 170 10:18 24.01.2021
3367 Clouds 21 1018 49 10000 11.32 170 09:22 24.01.2021
3368 Clouds 20 1018 56 10000 10.29 170 08:55 24.01.2021
3369 Clouds 20 1018 59 10000 9.77 170 07:50 24.01.2021
3370 Clouds 17 1016 67 10000 7.2 190 02:39 24.01.2021
3371 Clouds 18 1016 72 10000 5.66 180 01:46 24.01.2021
3372 Clouds 18 1016 63 10000 6.69 190 00:24 24.01.2021
3373 Clouds 18 1016 68 10000 7.2 190 23:49 23.01.2021
3374 Clouds 18 1016 68 10000 7.2 190 23:26 23.01.2021
3375 Clouds 18 1015 72 10000 4.63 190 22:51 23.01.2021
3376 Clouds 18 1015 72 10000 4.63 190 22:33 23.01.2021
3377 Clouds 18 1015 82 10000 5.14 190 21:52 23.01.2021
3378 Clouds 18 1015 82 10000 5.14 190 21:22 23.01.2021
3379 Rain 18 1014 94 10000 6.69 190 20:47 23.01.2021
3380 Rain 18 1014 94 10000 6.69 190 20:25 23.01.2021
3381 Rain 19 1013 94 2600 7.2 180 19:47 23.01.2021
3382 Rain 19 1013 94 2600 7.2 180 19:23 23.01.2021
3383 Rain 19 1012 82 4000 6.69 180 18:51 23.01.2021
3384 Rain 20 1012 77 10000 6.17 190 18:26 23.01.2021
3385 Rain 21 1011 77 10000 6.69 200 17:55 23.01.2021
3386 Rain 21 1011 77 10000 6.69 200 17:27 23.01.2021
3387 Clouds 23 1011 57 10000 6.69 230 16:51 23.01.2021
3388 Clouds 23 1011 57 10000 6.69 230 16:31 23.01.2021
3389 Clouds 25 1010 47 10000 5.66 220 15:48 23.01.2021
3390 Clouds 25 1010 47 10000 5.66 220 15:26 23.01.2021
3391 Clear 26 1010 41 10000 4.12 250 14:37 23.01.2021
3392 Clear 26 1010 41 10000 4.12 250 14:19 23.01.2021
3393 Clouds 26 1010 47 10000 4.63 330 13:40 23.01.2021
3394 Clouds 26 1010 47 10000 4.63 330 13:21 23.01.2021
3395 Clear 26 1010 50 10000 3.09 310 12:41 23.01.2021
3396 Clear 26 1010 50 10000 3.09 310 12:21 23.01.2021
3397 Clouds 25 1010 53 10000 3.09 140 11:34 23.01.2021
3398 Clouds 24 1010 60 10000 2.06 190 10:53 23.01.2021
3399 Clouds 24 1010 60 10000 2.06 190 10:22 23.01.2021
3400 Clouds 24 1010 68 10000 3.09 210 09:49 23.01.2021
3401 Clouds 22 1010 68 10000 3.09 210 09:24 23.01.2021
3402 Clouds 23 1010 83 10000 0.51 0 08:38 23.01.2021
3403 Clouds 22 1009 94 10000 2.06 200 07:38 23.01.2021
3404 Clouds 20 1008 94 10000 3.09 180 06:48 23.01.2021
3405 Fog 20 1008 100 300 4.12 200 01:44 23.01.2021
3406 Fog 21 1009 94 600 5.66 210 00:23 23.01.2021
3407 Clouds 21 1009 94 10000 5.14 210 23:35 22.01.2021
3408 Clouds 21 1010 94 10000 5.66 200 22:41 22.01.2021
3409 Clouds 21 1010 94 10000 5.66 200 21:56 22.01.2021
3410 Clouds 21 1010 94 10000 5.66 200 21:37 22.01.2021
3411 Clouds 21 1010 94 10000 5.66 200 21:19 22.01.2021
3412 Clouds 22 1010 88 10000 5.66 190 20:44 22.01.2021
3413 Clouds 22 1010 88 10000 5.66 190 20:25 22.01.2021
3414 Clouds 22 1010 83 10000 6.69 190 19:37 22.01.2021
3415 Clouds 22 1010 83 10000 6.69 190 19:18 22.01.2021
3416 Clouds 23 1010 78 10000 8.23 190 18:43 22.01.2021
3417 Clouds 23 1010 78 10000 8.23 190 18:24 22.01.2021
3418 Clouds 25 1010 69 10000 7.72 190 17:44 22.01.2021
3419 Clouds 25 1010 69 10000 7.72 190 17:25 22.01.2021
3420 Clouds 26 1010 69 10000 7.72 180 16:45 22.01.2021
3421 Clouds 26 1010 69 10000 7.72 180 16:24 22.01.2021
3422 Clouds 27 1010 65 10000 7.72 170 15:44 22.01.2021
3423 Clouds 26 1010 65 10000 7.72 170 15:19 22.01.2021
3424 Clouds 27 1010 65 10000 8.23 180 14:31 22.01.2021
3425 Clear 27 1011 57 10000 6.69 180 13:52 22.01.2021
3426 Clear 27 1011 57 10000 6.69 180 13:32 22.01.2021
3427 Clear 26 1011 50 10000 6.17 200 12:53 22.01.2021
3428 Clear 26 1011 50 10000 6.17 200 12:26 22.01.2021
3429 Clear 26 1011 53 10000 5.66 200 11:47 22.01.2021
3430 Clear 26 1011 53 10000 5.66 200 11:25 22.01.2021
3431 Clear 25 1011 61 10000 4.63 210 10:45 22.01.2021
3432 Clear 26 1011 61 10000 4.63 210 10:20 22.01.2021
3433 Clear 25 1011 64 10000 4.12 210 09:35 22.01.2021
3434 Clear 25 1011 78 10000 3.09 230 08:51 22.01.2021
3435 Clear 21 1011 78 10000 3.09 230 08:30 22.01.2021
3436 Clear 22 1011 82 10000 4.12 210 07:40 22.01.2021
3437 Clear 17 1010 82 10000 1.54 160 04:39 22.01.2021
3438 Clear 20 1012 73 10000 4.63 140 00:54 22.01.2021
3439 Clear 20 1012 73 10000 4.63 140 00:25 22.01.2021
3440 Clouds 20 1012 77 10000 4.63 240 23:42 21.01.2021
3441 Clouds 20 1012 77 10000 4.63 240 23:20 21.01.2021
3442 Clouds 20 1013 82 10000 4.63 240 22:42 21.01.2021
3443 Rain 20 1014 77 10000 5.14 170 21:44 21.01.2021
3444 Rain 20 1014 77 10000 5.14 170 21:23 21.01.2021
3445 Rain 20 1015 77 10000 9.77 190 20:59 21.01.2021
3446 Rain 20 1015 77 10000 9.77 190 20:41 21.01.2021
3447 Clouds 20 1015 77 10000 9.77 190 20:20 21.01.2021
3448 Clouds 21 1015 77 10000 10.29 190 19:46 21.01.2021
3449 Clouds 21 1015 77 10000 10.29 190 19:25 21.01.2021
3450 Clouds 21 1015 77 10000 10.29 200 18:43 21.01.2021
3451 Clouds 21 1014 77 10000 10.8 190 18:21 21.01.2021
3452 Clouds 21 1014 78 10000 10.8 190 17:57 21.01.2021
3453 Clouds 22 1014 83 10000 11.32 200 17:21 21.01.2021
3454 Clouds 21 1013 83 10000 8.75 210 16:56 21.01.2021
3455 Clouds 21 1013 83 10000 8.75 210 16:38 21.01.2021
3456 Clouds 22 1013 83 10000 8.75 210 16:19 21.01.2021
3457 Clouds 22 1013 73 10000 8.75 200 15:46 21.01.2021
3458 Clouds 22 1013 73 10000 8.75 200 15:24 21.01.2021
3459 Clear 23 1013 68 10000 9.26 200 14:45 21.01.2021
3460 Clear 24 1013 68 10000 9.26 200 14:23 21.01.2021
3461 Clear 24 1012 60 10000 7.72 210 13:43 21.01.2021
3462 Clear 24 1012 60 10000 7.72 210 13:23 21.01.2021
3463 Clear 24 1012 60 10000 7.72 210 13:23 21.01.2021
3464 Clear 25 1012 53 10000 7.2 210 12:43 21.01.2021
3465 Clear 25 1012 53 10000 7.2 210 12:24 21.01.2021
3466 Clear 26 1012 47 10000 6.17 210 11:51 21.01.2021
3467 Clear 26 1012 47 10000 6.17 210 11:30 21.01.2021
3468 Clear 26 1012 47 10000 6.17 210 11:30 21.01.2021
3469 Clear 26 1011 47 10000 5.66 220 10:52 21.01.2021
3470 Clear 26 1011 47 10000 5.66 220 10:33 21.01.2021
3471 Clear 26 1011 53 10000 4.12 240 09:48 21.01.2021
3472 Clear 24 1011 53 10000 4.12 240 09:30 21.01.2021
3473 Clear 22 1011 60 10000 4.12 240 08:55 21.01.2021
3474 Clear 22 1011 60 10000 4.12 240 08:27 21.01.2021
3475 Clear 22 1011 64 10000 4.12 200 07:45 21.01.2021
3476 Clear 21 1011 64 10000 4.12 200 07:23 21.01.2021
3477 Clear 18 1011 72 10000 3.6 200 05:50 21.01.2021
3478 Clear 17 1011 82 10000 5.66 210 04:28 21.01.2021
3479 Clear 18 1012 82 10000 5.66 220 01:25 21.01.2021
3480 Clear 17 1013 82 10000 4.63 220 00:40 21.01.2021
3481 Clear 19 1013 72 10000 5.66 220 23:43 20.01.2021
3482 Clear 19 1013 72 10000 5.66 220 23:22 20.01.2021
3483 Clear 19 1013 77 10000 6.69 230 22:49 20.01.2021
3484 Clear 19 1013 77 10000 6.69 230 22:28 20.01.2021
3485 Clear 19 1013 77 10000 7.72 220 21:48 20.01.2021
3486 Clear 19 1013 77 10000 7.72 220 21:22 20.01.2021
3487 Clear 19 1012 77 10000 7.2 230 20:50 20.01.2021
3488 Clear 19 1012 77 10000 7.2 230 20:21 20.01.2021
3489 Clear 20 1013 72 10000 6.69 230 19:47 20.01.2021
3490 Clear 20 1013 72 10000 6.69 230 19:27 20.01.2021
3491 Clear 21 1013 64 10000 7.72 220 18:43 20.01.2021
3492 Clear 21 1013 64 10000 7.72 220 18:20 20.01.2021
3493 Clear 22 1013 60 10000 9.26 210 17:44 20.01.2021
3494 Clear 22 1013 60 10000 9.26 210 17:26 20.01.2021
3495 Clear 23 1013 56 10000 8.75 200 16:47 20.01.2021
3496 Clear 24 1013 56 10000 8.75 200 16:20 20.01.2021
3497 Clear 24 1013 53 10000 8.23 210 15:38 20.01.2021
3498 Clear 25 1014 47 10000 8.23 200 14:57 20.01.2021
3499 Clear 25 1014 47 10000 8.23 200 14:38 20.01.2021
3500 Clear 25 1014 47 10000 8.23 200 14:18 20.01.2021
3501 Clear 25 1014 44 10000 7.72 200 13:37 20.01.2021
3502 Clear 25 1014 41 10000 7.2 190 12:56 20.01.2021
3503 Clear 26 1014 41 10000 7.2 190 12:22 20.01.2021
3504 Clear 26 1015 38 10000 7.2 220 11:41 20.01.2021
3505 Clear 25 1015 38 10000 7.2 220 11:20 20.01.2021
3506 Clear 26 1015 38 10000 3.09 0 10:49 20.01.2021
3507 Clear 26 1015 38 10000 3.09 0 10:25 20.01.2021
3508 Clear 25 1015 38 10000 2.06 250 09:38 20.01.2021
3509 Clear 25 1015 38 10000 2.06 250 09:19 20.01.2021
3510 Clear 23 1015 43 10000 1.54 0 08:43 20.01.2021
3511 Clear 23 1015 43 10000 1.54 0 08:22 20.01.2021
3512 Clear 21 1015 56 10000 2.57 190 07:48 20.01.2021
3513 Clear 21 1015 56 10000 2.57 190 07:20 20.01.2021
3514 Clouds 18 1014 72 10000 7.2 170 04:33 20.01.2021
3515 Clouds 18 1015 72 10000 8.75 170 02:57 20.01.2021
3516 Clouds 19 1017 68 10000 8.23 180 00:58 20.01.2021
3517 Clouds 19 1017 68 10000 7.72 170 23:57 19.01.2021
3518 Clouds 19 1017 68 10000 7.72 170 23:38 19.01.2021
3519 Clouds 19 1017 72 10000 7.72 170 22:59 19.01.2021
3520 Clouds 19 1017 72 10000 7.72 170 22:40 19.01.2021
3521 Clouds 19 1017 72 10000 7.72 170 22:21 19.01.2021
3522 Clear 19 1017 72 10000 7.2 160 21:55 19.01.2021
3523 Clear 19 1017 72 10000 7.2 160 21:35 19.01.2021
3524 Clouds 19 1017 72 10000 9.77 160 20:50 19.01.2021
3525 Clouds 19 1017 72 10000 9.77 160 20:30 19.01.2021
3526 Clouds 20 1016 68 10000 9.77 170 19:56 19.01.2021
3527 Clouds 20 1016 68 10000 9.77 170 19:56 19.01.2021
3528 Clouds 20 1016 68 10000 9.77 170 19:37 19.01.2021
3529 Clouds 20 1016 68 10000 9.77 170 19:19 19.01.2021
3530 Clouds 21 1016 68 10000 10.8 170 18:39 19.01.2021
3531 Clouds 21 1016 68 10000 10.8 170 18:21 19.01.2021
3532 Clouds 22 1015 53 10000 9.77 180 17:44 19.01.2021
3533 Clouds 23 1015 53 10000 9.77 180 17:22 19.01.2021
3534 Clouds 24 1015 50 10000 10.29 180 16:41 19.01.2021
3535 Clouds 24 1015 50 10000 10.29 180 16:23 19.01.2021
3536 Clouds 24 1015 50 10000 10.29 180 15:54 19.01.2021
3537 Clouds 24 1015 50 10000 10.29 180 15:34 19.01.2021
3538 Clouds 25 1015 47 10000 9.77 180 14:50 19.01.2021
3539 Clouds 25 1015 47 10000 9.77 180 14:29 19.01.2021
3540 Clouds 25 1015 47 10000 8.75 180 13:52 19.01.2021
3541 Clouds 25 1015 47 10000 8.75 180 13:28 19.01.2021
3542 Clouds 26 1015 50 10000 8.75 190 12:58 19.01.2021
3543 Clouds 25 1015 50 10000 8.75 190 12:35 19.01.2021
3544 Clouds 25 1014 53 10000 10.29 190 11:59 19.01.2021
3545 Clouds 25 1014 53 10000 10.29 190 11:40 19.01.2021
3546 Clouds 25 1014 53 10000 10.29 190 11:21 19.01.2021
3547 Clouds 25 1014 50 10000 6.69 180 10:47 19.01.2021
3548 Clouds 25 1014 50 10000 6.69 180 10:27 19.01.2021
3549 Clouds 24 1013 60 10000 5.14 180 09:51 19.01.2021
3550 Clouds 24 1013 60 10000 5.14 180 09:20 19.01.2021
3551 Clouds 23 1012 73 10000 5.14 180 08:35 19.01.2021
3552 Clouds 22 1012 78 10000 5.66 200 07:53 19.01.2021
3553 Clouds 22 1012 78 10000 5.66 200 07:18 19.01.2021
3554 Clear 19 1012 84 10000 0.89 248 04:48 19.01.2021
3555 Clear 19 1010 88 10000 5.14 200 02:23 19.01.2021
3556 Clear 20 1011 83 10000 0.89 270 00:45 19.01.2021
3557 Clear 19 1009 88 10000 6.17 200 23:57 18.01.2021
3558 Clear 19 1009 88 10000 6.17 200 23:28 18.01.2021
3559 Clear 19 1009 82 10000 6.69 220 22:44 18.01.2021
3560 Clear 19 1009 82 10000 6.69 220 22:23 18.01.2021
3561 Clear 20 1009 77 10000 6.17 220 21:48 18.01.2021
3562 Clear 20 1009 77 10000 6.17 220 21:23 18.01.2021
3563 Clear 20 1008 77 10000 5.14 210 20:57 18.01.2021
3564 Clear 20 1008 77 10000 5.14 210 20:34 18.01.2021
3565 Clear 21 1008 73 10000 6.69 210 19:54 18.01.2021
3566 Clear 21 1008 73 10000 6.69 210 19:54 18.01.2021
3567 Clear 21 1008 73 10000 6.69 210 19:35 18.01.2021
3568 Clear 22 1008 68 10000 7.2 210 18:57 18.01.2021
3569 Clear 22 1008 68 10000 7.2 210 18:38 18.01.2021
3570 Clear 22 1008 68 10000 7.2 210 18:19 18.01.2021
3571 Clear 23 1007 60 10000 7.2 200 17:39 18.01.2021
3572 Clear 26 1008 50 10000 6.69 200 16:55 18.01.2021
3573 Clear 26 1008 50 10000 6.69 200 16:35 18.01.2021
3574 Clear 28 1008 44 10000 7.2 190 15:58 18.01.2021
3575 Clear 28 1008 44 10000 7.2 190 15:40 18.01.2021
3576 Clear 28 1008 44 10000 7.2 190 15:19 18.01.2021
3577 Clear 28 1008 44 10000 6.69 190 14:42 18.01.2021
3578 Clear 28 1008 44 10000 6.69 190 14:24 18.01.2021
3579 Clear 28 1009 44 10000 7.2 200 13:45 18.01.2021
3580 Clear 28 1009 44 10000 7.2 200 13:24 18.01.2021
3581 Clear 29 1009 39 10000 5.66 200 12:49 18.01.2021
3582 Clear 28 1009 39 10000 5.66 200 12:19 18.01.2021
3583 Clear 27 1009 42 10000 2.57 0 11:48 18.01.2021
3584 Clear 27 1009 42 10000 2.57 0 11:27 18.01.2021
3585 Clear 26 1010 44 10000 2.06 250 10:53 18.01.2021
3586 Clear 26 1010 44 10000 2.06 250 10:34 18.01.2021
3587 Clear 25 1009 53 10000 2.57 220 09:43 18.01.2021
3588 Clear 26 1009 53 10000 2.57 220 09:19 18.01.2021
3589 Clear 25 1009 57 10000 2.57 230 08:43 18.01.2021
3590 Clear 22 1010 64 10000 3.09 230 07:55 18.01.2021
3591 Clear 20 1010 72 10000 3.6 230 06:56 18.01.2021
3592 Clear 18 1009 72 10000 5.14 190 04:57 18.01.2021
3593 Clear 18 1009 72 10000 5.14 190 04:30 18.01.2021
3594 Clear 18 1009 82 10000 3.6 230 03:53 18.01.2021
3595 Clear 18 1009 82 10000 3.6 230 03:31 18.01.2021
3596 Clear 19 1009 73 10000 4.12 190 02:59 18.01.2021
3597 Clear 19 1009 73 10000 4.12 190 02:27 18.01.2021
3598 Clear 20 1010 64 10000 6.17 210 00:43 18.01.2021
3599 Clear 20 1010 64 10000 6.17 210 00:20 18.01.2021
3600 Clear 20 1010 64 10000 7.2 180 23:44 17.01.2021
3601 Clear 20 1010 64 10000 7.2 180 23:20 17.01.2021
3602 Clear 21 1010 60 10000 7.72 180 22:26 17.01.2021
3603 Clear 21 1010 60 10000 7.72 180 22:26 17.01.2021
3604 Clear 21 1011 60 10000 7.2 180 21:58 17.01.2021
3605 Clear 21 1011 60 10000 7.2 180 21:39 17.01.2021
3606 Clear 21 1011 60 10000 7.2 180 21:39 17.01.2021
3607 Clear 21 1011 60 10000 7.2 180 21:21 17.01.2021
3608 Clear 20 1011 68 10000 7.72 210 20:44 17.01.2021
3609 Clear 20 1011 68 10000 7.72 210 20:25 17.01.2021
3610 Clear 21 1010 56 10000 8.23 200 19:42 17.01.2021
3611 Clear 22 1010 56 10000 8.23 200 19:19 17.01.2021
3612 Clear 23 1010 53 10000 8.23 190 18:38 17.01.2021
3613 Clear 23 1010 53 10000 8.23 190 18:19 17.01.2021
3614 Clear 24 1010 50 10000 9.26 180 17:45 17.01.2021
3615 Clear 25 1010 50 10000 9.26 180 17:24 17.01.2021
3616 Clear 25 1010 50 10000 9.77 180 16:43 17.01.2021
3617 Clear 25 1010 50 10000 9.77 180 16:20 17.01.2021
3618 Clear 25 1010 50 10000 9.26 190 15:42 17.01.2021
3619 Clear 26 1010 50 10000 9.26 190 15:21 17.01.2021
3620 Clear 26 1011 50 10000 9.26 180 14:48 17.01.2021
3621 Clear 26 1011 50 10000 9.26 180 14:26 17.01.2021
3622 Clear 26 1011 53 10000 8.23 180 13:45 17.01.2021
3623 Clear 26 1011 53 10000 8.23 180 13:27 17.01.2021
3624 Clouds 25 1012 57 10000 8.23 180 12:52 17.01.2021
3625 Clouds 25 1012 57 10000 8.23 180 12:31 17.01.2021
3626 Clear 26 1012 53 10000 7.2 190 11:54 17.01.2021
3627 Clear 25 1012 53 10000 7.2 190 11:22 17.01.2021
3628 Clear 25 1012 47 10000 4.12 180 10:46 17.01.2021
3629 Clear 25 1012 47 10000 4.12 180 10:21 17.01.2021
3630 Clear 24 1012 53 10000 3.6 200 09:21 17.01.2021
3631 Clear 23 1012 60 10000 2.57 190 08:44 17.01.2021
3632 Clear 19 1012 82 10000 3.09 220 06:52 17.01.2021
3633 Clear 17 1012 88 10000 4.12 220 04:28 17.01.2021
3634 Clear 17 1012 88 10000 3.09 210 02:46 17.01.2021
3635 Clear 17 1013 88 10000 2.06 190 00:48 17.01.2021
3636 Clear 17 1013 88 10000 2.06 190 00:18 17.01.2021
3637 Clear 17 1013 88 10000 2.06 160 23:49 16.01.2021
3638 Clear 18 1013 88 10000 2.06 160 23:19 16.01.2021
3639 Clear 17 1013 82 10000 1.54 140 22:36 16.01.2021
3640 Clear 18 1013 88 10000 3.09 160 21:58 16.01.2021
3641 Clear 18 1013 88 10000 3.09 160 21:37 16.01.2021
3642 Clear 18 1013 88 10000 3.09 160 21:18 16.01.2021
3643 Clear 19 1012 72 10000 3.09 140 20:42 16.01.2021
3644 Clear 20 1012 72 10000 3.09 140 20:21 16.01.2021
3645 Clouds 21 1012 64 10000 4.63 200 19:44 16.01.2021
3646 Clouds 21 1012 64 10000 4.63 200 19:24 16.01.2021
3647 Clouds 22 1011 56 10000 4.12 230 18:43 16.01.2021
3648 Clouds 23 1011 56 10000 4.12 230 18:24 16.01.2021
3649 Clouds 23 1011 60 10000 4.63 320 17:47 16.01.2021
3650 Clouds 23 1011 60 10000 4.63 320 17:28 16.01.2021
3651 Clouds 24 1011 50 10000 6.17 320 16:47 16.01.2021
3652 Clouds 25 1011 50 10000 6.17 320 16:26 16.01.2021
3653 Clouds 25 1011 53 10000 6.17 310 15:51 16.01.2021
3654 Clouds 25 1011 53 10000 6.17 310 15:20 16.01.2021
3655 Clouds 24 1011 53 10000 6.69 310 14:22 16.01.2021
3656 Clouds 24 1012 53 10000 5.14 310 13:48 16.01.2021
3657 Clouds 24 1012 53 10000 5.14 310 13:24 16.01.2021
3658 Clouds 24 1012 56 10000 7.2 310 12:39 16.01.2021
3659 Clouds 24 1012 56 10000 7.2 310 12:20 16.01.2021
3660 Clouds 22 1012 60 10000 7.2 300 11:48 16.01.2021
3661 Clouds 22 1012 73 10000 5.66 310 11:25 16.01.2021
3662 Clouds 21 1012 82 7000 7.72 310 10:46 16.01.2021
3663 Clouds 22 1012 82 7000 7.72 310 10:22 16.01.2021
3664 Clouds 22 1012 88 10000 6.69 320 09:36 16.01.2021
3665 Clouds 21 1011 88 10000 5.66 310 08:47 16.01.2021
3666 Clouds 19 1011 94 10000 4.63 310 07:48 16.01.2021
3667 Clouds 19 1011 94 10000 4.12 310 06:43 16.01.2021
3668 Rain 18 1010 94 10000 5.14 320 04:40 16.01.2021
3669 Rain 18 1009 94 10000 3.6 320 02:56 16.01.2021
3670 Rain 18 1010 88 10000 3.6 320 00:51 16.01.2021
3671 Rain 18 1010 88 10000 3.6 320 00:29 16.01.2021
3672 Rain 19 1010 88 10000 4.12 320 23:58 15.01.2021
3673 Rain 18 1010 88 10000 4.12 320 23:24 15.01.2021
3674 Rain 19 1010 88 10000 4.12 310 22:26 15.01.2021
3675 Rain 19 1010 88 10000 5.66 320 21:47 15.01.2021
3676 Clouds 19 1010 88 10000 5.66 320 21:22 15.01.2021
3677 Rain 19 1009 82 10000 7.72 300 20:42 15.01.2021
3678 Rain 19 1009 82 10000 7.72 300 20:42 15.01.2021
3679 Rain 20 1009 82 10000 7.72 300 20:22 15.01.2021
3680 Rain 20 1008 77 10000 6.17 310 19:42 15.01.2021
3681 Rain 20 1008 77 10000 6.17 310 19:24 15.01.2021
3682 Clouds 21 1008 68 10000 6.69 310 18:45 15.01.2021
3683 Clouds 22 1008 68 10000 6.69 310 18:20 15.01.2021
3684 Clouds 22 1008 64 10000 6.69 310 17:53 15.01.2021
3685 Clouds 23 1008 64 10000 6.69 310 17:28 15.01.2021
3686 Clouds 22 1007 60 10000 7.2 310 16:59 15.01.2021
3687 Clouds 22 1007 60 10000 7.2 310 16:40 15.01.2021
3688 Clouds 22 1007 60 10000 7.2 310 16:20 15.01.2021
3689 Clouds 24 1008 60 10000 8.23 300 15:37 15.01.2021
3690 Clouds 24 1008 60 10000 8.23 300 15:18 15.01.2021
3691 Clouds 24 1008 60 10000 8.75 310 14:38 15.01.2021
3692 Clouds 24 1008 60 10000 8.75 310 14:18 15.01.2021
3693 Clouds 24 1008 60 10000 6.69 300 13:40 15.01.2021
3694 Clouds 24 1008 60 10000 6.69 300 13:19 15.01.2021
3695 Clouds 24 1008 68 10000 6.69 300 12:45 15.01.2021
3696 Clouds 24 1008 68 10000 6.69 300 12:22 15.01.2021
3697 Rain 23 1008 88 10000 5.66 290 11:42 15.01.2021
3698 Rain 22 1008 88 10000 5.66 290 11:20 15.01.2021
3699 Rain 23 1008 94 10000 6.17 310 10:51 15.01.2021
3700 Rain 23 1008 94 10000 6.17 310 10:21 15.01.2021
3701 Rain 22 1007 94 10000 7.2 310 09:48 15.01.2021
3702 Rain 22 1007 94 10000 7.2 310 09:29 15.01.2021
3703 Rain 21 1007 94 4000 6.69 330 08:28 15.01.2021
3704 Rain 21 1007 94 10000 5.66 340 07:45 15.01.2021
3705 Rain 21 1007 88 4500 5.14 350 07:23 15.01.2021
3706 Rain 20 1007 88 10000 4.63 30 06:37 15.01.2021
3707 Clouds 20 1006 77 10000 8.23 360 02:45 15.01.2021
3708 Clouds 19 1007 82 10000 5.66 350 00:52 15.01.2021
3709 Clouds 19 1007 88 10000 5.14 340 23:35 14.01.2021
3710 Clouds 18 1007 94 10000 5.66 340 22:58 14.01.2021
3711 Clouds 18 1007 94 10000 5.66 340 22:38 14.01.2021
3712 Clouds 18 1007 94 10000 5.66 340 22:20 14.01.2021
3713 Clouds 18 1006 94 6000 6.69 320 21:41 14.01.2021
3714 Clouds 18 1006 94 6000 6.69 320 21:20 14.01.2021
3715 Mist 18 1006 88 3000 7.2 320 20:48 14.01.2021
3716 Clouds 18 1005 82 7000 7.2 310 20:22 14.01.2021
3717 Clear 21 1005 68 10000 3.09 300 19:42 14.01.2021
3718 Clear 22 1005 68 10000 3.09 300 19:23 14.01.2021
3719 Clear 23 1004 60 10000 3.09 330 18:50 14.01.2021
3720 Clear 25 1004 60 10000 3.09 330 18:19 14.01.2021
3721 Clear 24 1004 60 10000 6.17 320 17:45 14.01.2021
3722 Clear 28 1004 60 10000 6.17 320 17:26 14.01.2021
3723 Clear 28 1004 57 10000 5.66 330 16:40 14.01.2021
3724 Clear 27 1004 50 10000 4.12 310 15:57 14.01.2021
3725 Clear 27 1004 50 10000 4.12 310 15:39 14.01.2021
3726 Clear 27 1005 53 10000 7.2 310 14:58 14.01.2021
3727 Clear 27 1005 53 10000 7.2 310 14:37 14.01.2021
3728 Clear 30 1005 45 10000 6.17 320 14:18 14.01.2021
3729 Clear 30 1005 45 10000 6.17 320 13:48 14.01.2021
3730 Clear 31 1005 45 10000 6.17 320 13:20 14.01.2021
3731 Clear 32 1005 43 10000 2.57 0 12:38 14.01.2021
3732 Clear 32 1005 43 10000 2.57 0 12:18 14.01.2021
3733 Clear 32 1005 40 10000 2.06 0 11:42 14.01.2021
3734 Clear 32 1005 40 10000 2.06 0 11:20 14.01.2021
3735 Clear 31 1006 48 10000 2.06 0 10:50 14.01.2021
3736 Clear 28 1006 48 10000 2.06 0 10:25 14.01.2021
3737 Clear 29 1006 48 10000 1.54 0 09:48 14.01.2021
3738 Clear 28 1006 54 10000 1.54 0 09:23 14.01.2021
3739 Clear 26 1006 61 10000 2.57 190 08:49 14.01.2021
3740 Clear 25 1006 61 10000 2.57 190 08:25 14.01.2021
3741 Clear 25 1007 64 10000 2.06 200 07:48 14.01.2021
3742 Clear 21 1006 77 10000 2.57 220 06:53 14.01.2021
3743 Clear 19 1007 82 10000 3.6 210 05:50 14.01.2021
3744 Clear 22 1007 73 10000 5.66 220 00:46 14.01.2021
3745 Clear 22 1007 73 10000 3.6 240 23:55 13.01.2021
3746 Clear 22 1007 73 10000 3.6 240 23:23 13.01.2021
3747 Clear 22 1008 73 10000 1.03 0 22:30 13.01.2021
3748 Clear 23 1008 64 10000 3.09 110 21:57 13.01.2021
3749 Clear 23 1008 64 10000 3.09 110 21:39 13.01.2021
3750 Clear 23 1008 64 10000 4.63 150 20:59 13.01.2021
3751 Clear 23 1008 64 10000 4.63 150 20:38 13.01.2021
3752 Clear 23 1008 64 10000 4.63 150 20:19 13.01.2021
3753 Clear 24 1008 61 10000 7.72 160 19:42 13.01.2021
3754 Clear 24 1008 61 10000 7.72 160 19:21 13.01.2021
3755 Clear 25 1007 54 10000 7.72 150 18:41 13.01.2021
3756 Clear 27 1007 51 10000 7.72 140 17:51 13.01.2021
3757 Clear 27 1007 51 10000 7.72 140 17:26 13.01.2021
3758 Clear 29 1008 45 10000 10.8 160 16:59 13.01.2021
3759 Clear 29 1008 45 10000 10.8 160 16:22 13.01.2021
3760 Clear 29 1008 45 10000 10.8 160 16:22 13.01.2021
3761 Clear 29 1009 48 10000 9.26 190 15:59 13.01.2021
3762 Clear 29 1009 48 10000 9.26 190 15:39 13.01.2021
3763 Clear 29 1010 48 10000 9.77 190 14:49 13.01.2021
3764 Clear 29 1010 48 10000 9.77 190 14:18 13.01.2021
3765 Clear 31 1010 43 10000 5.66 170 13:37 13.01.2021
3766 Clear 32 1010 43 10000 5.66 170 13:18 13.01.2021
3767 Clear 30 1011 45 10000 6.69 170 12:43 13.01.2021
3768 Clear 30 1011 45 10000 6.69 170 12:22 13.01.2021
3769 Clear 30 1011 48 10000 9.26 180 11:47 13.01.2021
3770 Clear 29 1011 54 10000 11.32 170 11:26 13.01.2021
3771 Clear 30 1011 48 10000 4.63 180 10:43 13.01.2021
3772 Clear 29 1011 48 10000 4.63 180 10:24 13.01.2021
3773 Clouds 28 1011 51 10000 4.12 150 09:38 13.01.2021
3774 Clouds 27 1011 57 10000 2.57 150 08:57 13.01.2021
3775 Clouds 27 1011 57 10000 2.57 150 08:33 13.01.2021
3776 Clouds 26 1011 61 10000 5.14 170 07:56 13.01.2021
3777 Clouds 25 1011 61 10000 5.14 170 07:27 13.01.2021
3778 Clear 22 1010 73 10000 5.66 210 04:22 13.01.2021
3779 Clear 21 1010 78 10000 3.09 220 03:54 13.01.2021
3780 Clear 21 1010 78 10000 3.09 220 03:33 13.01.2021
3781 Clear 21 1010 78 10000 3.6 260 02:53 13.01.2021
3782 Clear 21 1012 73 10000 0.51 140 00:38 13.01.2021
3783 Clear 22 1012 73 10000 4.63 140 23:37 12.01.2021
3784 Clear 22 1012 64 10000 4.12 140 22:47 12.01.2021
3785 Clear 22 1012 64 10000 4.12 140 22:26 12.01.2021
3786 Clear 22 1011 68 10000 5.14 150 21:58 12.01.2021
3787 Clear 22 1011 68 10000 5.14 150 21:40 12.01.2021
3788 Clear 22 1011 68 10000 5.14 150 21:20 12.01.2021
3789 Clear 22 1011 68 10000 5.14 150 20:44 12.01.2021
3790 Clear 22 1011 68 10000 5.14 150 20:25 12.01.2021
3791 Clear 22 1011 69 10000 7.2 150 19:39 12.01.2021
3792 Clear 23 1011 65 10000 6.17 160 18:54 12.01.2021
3793 Clear 24 1011 65 10000 6.17 160 18:25 12.01.2021
3794 Clear 25 1010 57 10000 5.66 210 17:58 12.01.2021
3795 Clear 25 1010 57 10000 5.66 210 17:33 12.01.2021
3796 Clear 26 1011 61 10000 7.72 230 16:46 12.01.2021
3797 Clear 25 1011 61 10000 7.72 230 16:27 12.01.2021
3798 Clear 26 1011 57 10000 8.75 220 15:54 12.01.2021
3799 Clear 26 1011 57 10000 8.75 220 15:27 12.01.2021
3800 Clear 27 1011 51 10000 8.23 220 14:55 12.01.2021
3801 Clear 27 1011 51 10000 8.23 220 14:55 12.01.2021
3802 Clear 27 1011 51 10000 8.23 220 14:37 12.01.2021
3803 Clear 27 1011 51 10000 8.23 220 14:18 12.01.2021
3804 Clear 28 1011 48 10000 8.23 220 13:43 12.01.2021
3805 Clear 29 1011 48 10000 8.23 220 12:39 12.01.2021
3806 Clear 30 1011 40 10000 6.69 200 11:55 12.01.2021
3807 Clear 30 1011 40 10000 6.69 200 11:36 12.01.2021
3808 Clear 28 1011 45 10000 5.66 200 10:44 12.01.2021
3809 Clear 28 1011 45 10000 5.66 200 10:20 12.01.2021
3810 Clear 28 1012 47 10000 6.17 210 09:54 12.01.2021
3811 Clear 26 1011 53 10000 5.66 220 09:24 12.01.2021
3812 Clear 25 1011 53 10000 3.6 180 08:42 12.01.2021
3813 Clear 25 1011 53 10000 3.6 180 08:21 12.01.2021
3814 Clear 22 1011 73 10000 4.12 250 07:34 12.01.2021
3815 Clear 20 1011 82 10000 5.14 240 06:20 12.01.2021
3816 Clear 19 1010 82 10000 3.6 250 05:26 12.01.2021
3817 Clouds 20 1010 73 10000 3.6 240 03:24 12.01.2021
3818 Clear 20 1010 77 10000 5.14 190 02:18 12.01.2021
3819 Clouds 20 1010 73 10000 5.14 160 01:26 12.01.2021
3820 Clear 21 1010 68 10000 6.69 150 23:46 11.01.2021
3821 Clear 21 1010 68 10000 6.69 150 23:23 11.01.2021
3822 Clear 21 1010 64 10000 7.72 160 22:52 11.01.2021
3823 Clear 21 1010 64 10000 7.72 160 22:33 11.01.2021
3824 Clear 21 1010 64 10000 7.72 160 21:56 11.01.2021
3825 Clear 21 1010 64 10000 7.72 160 21:37 11.01.2021
3826 Clear 21 1010 64 10000 7.72 160 21:18 11.01.2021
3827 Clear 21 1009 60 10000 7.72 150 20:40 11.01.2021
3828 Clear 21 1009 60 10000 7.72 150 20:22 11.01.2021
3829 Clear 21 1009 53 10000 8.75 150 19:53 11.01.2021
3830 Clear 23 1009 53 10000 8.75 150 19:24 11.01.2021
3831 Clear 23 1009 53 10000 8.75 150 19:24 11.01.2021
3832 Clear 23 1008 47 10000 8.75 160 18:45 11.01.2021
3833 Clear 24 1008 47 10000 8.75 160 18:25 11.01.2021
3834 Clear 25 1008 44 10000 8.75 190 17:44 11.01.2021
3835 Clear 26 1008 44 10000 8.75 190 17:26 11.01.2021
3836 Clear 26 1008 44 10000 8.75 200 16:57 11.01.2021
3837 Clear 26 1008 44 10000 8.75 200 16:36 11.01.2021
3838 Clear 27 1008 44 10000 8.75 200 16:18 11.01.2021
3839 Clouds 27 1008 42 10000 8.75 190 15:44 11.01.2021
3840 Clouds 28 1008 42 10000 8.75 190 15:25 11.01.2021
3841 Clear 28 1009 42 10000 9.26 200 14:39 11.01.2021
3842 Clear 27 1009 42 10000 7.72 210 13:50 11.01.2021
3843 Clear 27 1009 42 10000 7.72 210 13:25 11.01.2021
3844 Clear 27 1010 42 10000 6.69 200 12:49 11.01.2021
3845 Clear 27 1010 42 10000 6.69 200 12:30 11.01.2021
3846 Clear 27 1010 44 10000 7.2 180 11:56 11.01.2021
3847 Clear 27 1010 44 10000 7.2 180 11:27 11.01.2021
3848 Clear 26 1010 47 10000 8.23 180 10:47 11.01.2021
3849 Clear 26 1010 47 10000 8.23 180 10:25 11.01.2021
3850 Clear 25 1010 50 10000 9.26 170 09:43 11.01.2021
3851 Clear 26 1010 50 10000 9.26 170 09:21 11.01.2021
3852 Clear 23 1010 56 10000 8.75 170 08:45 11.01.2021
3853 Clear 22 1010 56 10000 8.75 170 08:18 11.01.2021
3854 Clear 21 1010 60 10000 4.63 190 07:27 11.01.2021
3855 Clear 19 1010 68 10000 5.14 210 06:58 11.01.2021
3856 Clear 18 1010 68 10000 3.09 210 03:57 11.01.2021
3857 Clear 18 1011 68 10000 3.6 170 01:46 11.01.2021
3858 Clear 19 1011 63 10000 6.17 170 00:38 11.01.2021
3859 Clear 19 1012 63 10000 8.23 170 23:36 10.01.2021
3860 Clear 18 1012 63 10000 10.8 160 22:49 10.01.2021
3861 Clear 19 1012 63 10000 10.8 160 22:27 10.01.2021
3862 Clouds 18 1012 63 10000 10.29 160 21:46 10.01.2021
3863 Clouds 19 1012 63 10000 10.29 160 21:21 10.01.2021
3864 Clouds 19 1012 60 10000 10.8 170 20:57 10.01.2021
3865 Clouds 19 1012 60 10000 10.8 170 20:33 10.01.2021
3866 Clouds 19 1012 56 10000 10.29 180 20:00 10.01.2021
3867 Clouds 19 1012 56 10000 10.29 180 19:38 10.01.2021
3868 Clouds 20 1012 56 10000 10.29 180 19:20 10.01.2021
3869 Clouds 20 1013 52 10000 10.8 180 18:42 10.01.2021
3870 Clouds 21 1013 52 10000 10.8 180 18:19 10.01.2021
3871 Clouds 22 1013 49 10000 12.86 180 17:22 10.01.2021
3872 Clouds 22 1013 49 10000 12.86 180 16:46 10.01.2021
3873 Clouds 22 1013 49 10000 12.86 180 16:27 10.01.2021
3874 Clouds 22 1013 53 10000 13.89 180 15:26 10.01.2021
3875 Clouds 23 1014 49 10000 12.35 180 14:56 10.01.2021
3876 Clouds 23 1014 49 10000 12.35 180 14:38 10.01.2021
3877 Clouds 23 1014 46 10000 12.35 180 13:56 10.01.2021
3878 Clouds 23 1014 46 10000 12.35 180 13:38 10.01.2021
3879 Clouds 23 1014 46 10000 12.35 180 13:20 10.01.2021
3880 Clouds 23 1014 46 10000 11.32 180 12:50 10.01.2021
3881 Clouds 23 1014 46 10000 11.32 180 12:32 10.01.2021
3882 Clouds 23 1015 46 10000 9.77 180 11:48 10.01.2021
3883 Clouds 23 1015 46 10000 9.77 180 11:20 10.01.2021
3884 Clouds 22 1015 49 10000 10.8 170 10:47 10.01.2021
3885 Clouds 22 1015 49 10000 10.8 170 10:22 10.01.2021
3886 Clouds 21 1015 52 10000 9.77 180 09:36 10.01.2021
3887 Clouds 20 1016 52 10000 8.75 170 08:26 10.01.2021
3888 Clouds 19 1015 63 10000 10.29 170 07:38 10.01.2021
3889 Rain 19 1015 68 10000 9.26 170 06:21 10.01.2021
3890 Clouds 18 1015 77 10000 8.75 170 05:42 10.01.2021
3891 Clouds 18 1014 77 10000 8.23 160 03:57 10.01.2021
3892 Clouds 19 1014 88 10000 5.66 160 01:30 10.01.2021
3893 Clouds 19 1014 88 10000 5.66 160 01:30 10.01.2021
3894 Clouds 19 1014 94 10000 6.17 160 00:19 10.01.2021
3895 Rain 19 1014 77 10000 2.57 170 23:41 09.01.2021
3896 Rain 20 1014 73 10000 2.57 150 22:59 09.01.2021
3897 Clouds 21 1014 73 10000 2.57 150 22:20 09.01.2021
3898 Clouds 21 1013 73 10000 3.09 130 21:58 09.01.2021
3899 Clouds 21 1013 73 10000 3.09 130 21:39 09.01.2021
3900 Clouds 21 1013 73 10000 3.09 130 21:21 09.01.2021
3901 Clear 21 1013 68 10000 4.12 190 20:54 09.01.2021
3902 Clear 20 1013 68 10000 4.12 190 20:29 09.01.2021
3903 Clouds 21 1012 68 10000 6.69 200 19:40 09.01.2021
3904 Clouds 21 1012 68 10000 6.69 200 19:20 09.01.2021
3905 Clouds 22 1012 56 10000 7.2 200 18:37 09.01.2021
3906 Clear 23 1012 43 10000 6.17 190 17:54 09.01.2021
3907 Clear 24 1012 43 10000 6.17 190 17:34 09.01.2021
3908 Clouds 24 1012 43 10000 7.2 220 16:57 09.01.2021
3909 Clouds 24 1012 43 10000 7.2 220 16:23 09.01.2021
3910 Clouds 25 1011 47 10000 7.72 210 15:41 09.01.2021
3911 Clouds 25 1011 47 10000 7.72 210 15:21 09.01.2021
3912 Clouds 25 1012 50 10000 6.69 200 14:37 09.01.2021
3913 Clouds 25 1012 50 10000 6.69 200 14:19 09.01.2021
3914 Clouds 25 1011 57 10000 7.2 210 13:44 09.01.2021
3915 Clouds 24 1011 57 10000 7.2 210 13:25 09.01.2021
3916 Clouds 25 1011 57 10000 6.17 190 12:28 09.01.2021
3917 Clouds 24 1011 60 10000 6.17 180 11:59 09.01.2021
3918 Clouds 24 1011 60 10000 6.17 180 11:40 09.01.2021
3919 Clouds 24 1011 60 10000 6.17 180 11:22 09.01.2021
3920 Clouds 23 1011 57 10000 3.6 250 10:48 09.01.2021
3921 Clouds 24 1011 57 10000 3.6 250 10:25 09.01.2021
3922 Clouds 23 1011 64 10000 2.06 300 09:44 09.01.2021
3923 Clouds 24 1011 64 10000 2.06 300 09:21 09.01.2021
3924 Clear 23 1010 68 10000 3.09 210 08:19 09.01.2021
3925 Clouds 19 1009 88 10000 1.03 0 06:54 09.01.2021
3926 Clouds 19 1009 88 10000 1.03 0 06:36 09.01.2021
3927 Clear 18 1008 88 10000 3.09 250 04:25 09.01.2021
3928 Clear 18 1007 88 10000 4.12 240 02:46 09.01.2021
3929 Clear 18 1007 88 10000 4.12 240 02:27 09.01.2021
3930 Clear 19 1008 88 10000 5.14 240 01:25 09.01.2021
3931 Clear 19 1008 77 10000 6.17 220 00:34 09.01.2021
3932 Clear 20 1009 73 10000 5.14 230 23:50 08.01.2021
3933 Clear 20 1009 73 10000 5.14 220 22:49 08.01.2021
3934 Clear 20 1010 68 10000 5.66 210 21:57 08.01.2021
3935 Clear 21 1010 68 10000 5.66 210 21:31 08.01.2021
3936 Clouds 21 1010 68 10000 6.69 210 20:41 08.01.2021
3937 Clouds 21 1010 68 10000 6.69 210 20:21 08.01.2021
3938 Clear 21 1010 64 10000 6.69 200 19:38 08.01.2021
3939 Clear 21 1010 64 10000 6.69 200 19:19 08.01.2021
3940 Clear 22 1009 64 10000 9.26 180 18:34 08.01.2021
3941 Clear 23 1009 60 10000 11.32 180 17:55 08.01.2021
3942 Clear 23 1009 60 10000 11.32 180 17:30 08.01.2021
3943 Clear 24 1010 57 10000 11.83 180 16:51 08.01.2021
3944 Clear 25 1010 53 10000 12.86 180 15:57 08.01.2021
3945 Clear 25 1010 53 10000 12.86 180 15:38 08.01.2021
3946 Clear 25 1011 53 10000 12.86 190 14:41 08.01.2021
3947 Clear 25 1011 53 10000 12.86 190 14:22 08.01.2021
3948 Clear 26 1011 47 10000 10.8 180 13:23 08.01.2021
3949 Clear 26 1011 44 10000 11.32 190 12:53 08.01.2021
3950 Clear 26 1011 44 10000 11.32 190 12:25 08.01.2021
3951 Clear 25 1012 47 10000 11.32 190 11:59 08.01.2021
3952 Clear 25 1012 47 10000 11.32 190 11:40 08.01.2021
3953 Clear 25 1012 47 10000 11.32 190 11:20 08.01.2021
3954 Clear 25 1012 50 10000 10.29 190 10:46 08.01.2021
3955 Clear 25 1012 50 10000 10.29 190 10:23 08.01.2021
3956 Clear 24 1012 50 10000 9.26 180 09:41 08.01.2021
3957 Clear 24 1012 50 10000 9.26 180 09:20 08.01.2021
3958 Clear 22 1012 60 10000 8.75 180 07:56 08.01.2021
3959 Clear 22 1012 60 10000 8.75 180 07:25 08.01.2021
3960 Clear 19 1012 77 10000 6.69 180 04:20 08.01.2021
3961 Clear 20 1013 73 10000 7.72 180 23:45 07.01.2021
3962 Clear 20 1013 73 10000 7.72 180 23:27 07.01.2021
3963 Clouds 20 1013 73 10000 7.72 180 22:38 07.01.2021
3964 Clouds 20 1013 73 10000 7.72 180 22:18 07.01.2021
3965 Clouds 20 1013 73 10000 8.75 180 21:40 07.01.2021
3966 Clouds 20 1013 73 10000 8.75 180 21:21 07.01.2021
3967 Clouds 20 1013 73 10000 9.26 180 20:43 07.01.2021
3968 Clouds 20 1013 73 10000 9.26 180 20:23 07.01.2021
3969 Clouds 21 1012 68 10000 9.26 190 19:42 07.01.2021
3970 Clouds 22 1012 64 10000 10.29 180 18:54 07.01.2021
3971 Clouds 22 1012 64 10000 10.29 180 18:23 07.01.2021
3972 Clear 22 1011 53 10000 10.8 180 17:42 07.01.2021
3973 Clear 22 1011 53 10000 10.8 180 17:22 07.01.2021
3974 Clear 23 1011 56 10000 10.29 180 16:52 07.01.2021
3975 Clear 24 1011 56 10000 10.29 180 16:24 07.01.2021
3976 Clear 24 1011 57 10000 11.32 190 15:37 07.01.2021
3977 Clear 24 1011 57 10000 9.26 180 14:45 07.01.2021
3978 Clear 25 1011 57 10000 9.26 180 14:26 07.01.2021
3979 Clear 26 1011 53 10000 9.26 190 13:41 07.01.2021
3980 Clear 26 1011 53 10000 9.26 190 13:18 07.01.2021
3981 Clear 26 1011 50 10000 7.15 200 13:18 07.01.2021
3982 Clear 25 1011 47 10000 4.1 200 12:35 07.01.2021
3983 Clear 26 1011 47 10000 4.1 200 11:54 07.01.2021
3984 Clear 26 1011 47 10000 4.1 200 11:35 07.01.2021
3985 Clear 25 1012 50 10000 2.6 160 10:50 07.01.2021
3986 Clear 25 1012 50 10000 2.6 160 10:20 07.01.2021
3987 Clear 25 1012 53 10000 3.6 220 09:47 07.01.2021
3988 Clear 24 1012 53 10000 3.6 220 09:19 07.01.2021
3989 Clear 23 1012 60 10000 4.1 230 08:29 07.01.2021
3990 Clear 21 1012 68 10000 3.1 220 07:48 07.01.2021
3991 Clear 21 1012 77 10000 3.6 230 07:26 07.01.2021
3992 Clear 17 1011 82 10000 4.1 210 04:31 07.01.2021
3993 Clear 20 1013 68 10000 5.7 190 00:30 07.01.2021
3994 Clear 19 1014 72 10000 6.2 190 23:48 06.01.2021
3995 Clear 19 1014 72 10000 6.7 190 22:39 06.01.2021
3996 Clear 20 1014 68 10000 8.7 180 21:44 06.01.2021
3997 Clear 20 1014 68 10000 8.7 180 21:23 06.01.2021
3998 Clouds 20 1014 68 10000 8.7 190 20:58 06.01.2021
3999 Clouds 20 1014 68 10000 8.7 190 20:36 06.01.2021
4000 Clouds 20 1014 68 10000 8.7 190 20:18 06.01.2021
4001 Clear 20 1014 68 10000 10.3 190 19:38 06.01.2021
4002 Clear 20 1014 68 10000 10.3 190 19:19 06.01.2021
4003 Clear 22 1014 56 10000 10.3 180 18:41 06.01.2021
4004 Clear 22 1014 56 10000 10.3 180 18:23 06.01.2021
4005 Clear 23 1014 53 10000 9.3 190 17:42 06.01.2021
4006 Clear 23 1014 53 10000 9.3 190 17:24 06.01.2021
4007 Clear 23 1014 53 10000 11.3 180 16:42 06.01.2021
4008 Clear 23 1014 53 10000 11.3 180 16:20 06.01.2021
4009 Clear 24 1014 50 10000 11.3 190 15:53 06.01.2021
4010 Clear 24 1014 50 10000 11.3 190 15:32 06.01.2021
4011 Clear 24 1014 53 10000 9.8 180 14:51 06.01.2021
4012 Clear 25 1014 53 10000 9.8 180 14:21 06.01.2021
4013 Clear 24 1015 53 10000 9.3 190 13:47 06.01.2021
4014 Clear 24 1015 53 10000 9.3 190 13:24 06.01.2021
4015 Clear 24 1015 53 10000 9.3 190 12:48 06.01.2021
4016 Clear 24 1015 53 10000 9.3 190 12:20 06.01.2021
4017 Clouds 24 1015 53 10000 9.3 190 11:36 06.01.2021
4018 Clouds 24 1015 53 10000 9.3 190 11:18 06.01.2021
4019 Clear 23 1015 56 10000 7.7 180 10:22 06.01.2021
4020 Clouds 23 1015 60 10000 8.7 190 09:50 06.01.2021
4021 Clouds 22 1015 60 10000 8.2 180 08:58 06.01.2021
4022 Clouds 22 1015 60 10000 8.2 180 08:30 06.01.2021
4023 Clouds 21 1015 68 10000 7.7 190 07:54 06.01.2021
4024 Clouds 20 1014 88 10000 4.6 200 06:55 06.01.2021
4025 Clouds 19 1014 88 10000 5.1 200 05:34 06.01.2021
4026 Clouds 19 1014 88 10000 5.1 190 04:34 06.01.2021
4027 Clouds 19 1013 88 10000 6.7 200 02:47 06.01.2021
4028 Clouds 19 1013 88 10000 6.7 200 02:25 06.01.2021
4029 Clouds 19 1014 88 10000 7.2 180 00:51 06.01.2021
4030 Clouds 19 1014 88 10000 7.2 190 23:32 05.01.2021
4031 Clouds 19 1014 88 10000 7.2 190 22:45 05.01.2021
4032 Clouds 19 1014 88 10000 7.2 190 22:21 05.01.2021
4033 Clouds 20 1013 88 10000 6.7 190 21:56 05.01.2021
4034 Clouds 20 1013 82 10000 6.2 190 20:58 05.01.2021
4035 Clouds 20 1013 82 10000 6.2 190 20:27 05.01.2021
4036 Clouds 20 1012 77 10000 8.2 190 19:44 05.01.2021
4037 Clouds 20 1012 77 10000 8.2 190 19:23 05.01.2021
4038 Clouds 22 1012 64 10000 9.8 190 18:45 05.01.2021
4039 Clouds 22 1012 64 10000 9.8 190 18:26 05.01.2021
4040 Clouds 22 1011 60 10000 10.8 190 17:52 05.01.2021
4041 Clouds 22 1011 60 10000 10.8 190 17:31 05.01.2021
4042 Clouds 22 1011 60 10000 11.3 190 16:53 05.01.2021
4043 Clouds 23 1011 60 10000 11.3 190 16:23 05.01.2021
4044 Clouds 23 1011 57 10000 11.8 190 15:51 05.01.2021
4045 Clouds 24 1011 57 10000 11.8 190 15:29 05.01.2021
4046 Clouds 24 1011 57 10000 10.8 180 14:47 05.01.2021
4047 Clouds 24 1011 53 10000 11.8 180 13:55 05.01.2021
4048 Clouds 23 1011 53 10000 11.8 180 13:35 05.01.2021
4049 Clouds 23 1011 57 10000 11.8 190 12:51 05.01.2021
4050 Clouds 23 1011 57 10000 11.8 190 12:29 05.01.2021
4051 Clouds 23 1011 57 10000 10.8 190 11:49 05.01.2021
4052 Clouds 23 1011 57 10000 10.8 190 11:24 05.01.2021
4053 Clouds 23 1011 57 10000 10.8 190 11:24 05.01.2021
4054 Clouds 22 1011 60 10000 10.3 190 10:44 05.01.2021
4055 Clouds 22 1011 64 10000 9.3 190 09:59 05.01.2021
4056 Clouds 22 1011 64 10000 9.3 190 09:40 05.01.2021
4057 Clouds 22 1011 68 10000 9.3 190 08:45 05.01.2021
4058 Clouds 21 1011 68 10000 9.3 190 08:18 05.01.2021
4059 Clouds 20 1009 93 10000 10.3 180 05:29 05.01.2021
4060 Clear 20 1008 93 10000 7.7 190 02:58 05.01.2021
4061 Clear 20 1009 82 10000 7.7 190 00:23 05.01.2021
4062 Clouds 20 1009 88 10000 7.2 190 23:41 04.01.2021
4063 Clouds 21 1009 88 10000 7.2 190 23:21 04.01.2021
4064 Clouds 21 1009 88 10000 8.2 190 22:45 04.01.2021
4065 Clouds 21 1008 88 10000 9.3 180 22:19 04.01.2021
4066 Clouds 21 1008 88 10000 9.3 180 21:40 04.01.2021
4067 Clouds 21 1008 88 10000 9.3 180 21:40 04.01.2021
4068 Clouds 21 1008 88 10000 10.3 190 20:59 04.01.2021
4069 Clouds 21 1008 88 10000 10.3 190 20:38 04.01.2021
4070 Clouds 21 1007 83 10000 8.2 200 20:19 04.01.2021
4071 Clouds 22 1007 83 10000 8.2 200 19:42 04.01.2021
4072 Clouds 22 1007 83 10000 8.2 200 19:19 04.01.2021
4073 Clouds 22 1007 78 10000 10.8 200 18:44 04.01.2021
4074 Clouds 23 1007 73 10000 10.8 190 17:56 04.01.2021
4075 Clouds 23 1007 73 10000 10.8 190 17:37 04.01.2021
4076 Clouds 25 1007 73 10000 10.8 190 17:18 04.01.2021
4077 Clouds 25 1007 65 10000 7.7 210 16:40 04.01.2021
4078 Clouds 26 1007 65 10000 7.7 210 16:22 04.01.2021
4079 Clouds 27 1008 57 10000 6.7 200 15:47 04.01.2021
4080 Clouds 27 1008 57 10000 6.7 200 15:21 04.01.2021
4081 Rain 27 1008 51 10000 5.7 200 13:57 04.01.2021
4082 Rain 27 1008 51 10000 5.7 200 13:36 04.01.2021
4083 Rain 27 1009 51 10000 6.2 200 12:55 04.01.2021
4084 Clear 29 1009 51 10000 6.2 200 12:30 04.01.2021
4085 Clear 30 1009 48 10000 5.1 210 11:45 04.01.2021
4086 Clear 29 1009 48 10000 5.1 210 11:19 04.01.2021
4087 Clear 30 1009 51 10000 3.1 230 10:45 04.01.2021
4088 Rain 28 1009 51 10000 3.1 230 10:23 04.01.2021
4089 Rain 29 1009 54 10000 2.1 260 09:44 04.01.2021
4090 Clear 25 1010 61 10000 1.5 0 09:18 04.01.2021
4091 Rain 23 1010 61 10000 1.5 0 08:23 04.01.2021
4092 Rain 24 1010 64 10000 2.6 230 07:47 04.01.2021
4093 Rain 21 1010 82 10000 3.1 220 06:40 04.01.2021
4094 Clear 19 1009 88 10000 5.1 230 05:20 04.01.2021
4095 Clear 20 1009 82 10000 4.6 230 02:27 04.01.2021
4096 Clear 21 1010 77 10000 5.1 220 00:27 04.01.2021
4097 Clear 22 1010 69 10000 6.7 210 23:38 03.01.2021
4098 Clear 22 1010 69 10000 5.7 170 22:59 03.01.2021
4099 Clear 21 1010 69 10000 5.7 170 22:41 03.01.2021
4100 Clear 22 1010 69 10000 5.7 170 22:22 03.01.2021
4101 Clear 22 1010 69 10000 4.1 210 21:45 03.01.2021
4102 Clear 22 1010 69 10000 4.1 210 21:24 03.01.2021
4103 Clear 21 1010 73 10000 5.7 230 20:42 03.01.2021
4104 Clear 21 1010 73 10000 5.7 230 20:20 03.01.2021
4105 Clear 22 1010 69 10000 6.7 240 19:47 03.01.2021
4106 Clear 22 1009 64 10000 8.2 240 19:28 03.01.2021
4107 Clear 23 1009 64 10000 8.2 240 18:52 03.01.2021
4108 Clear 23 1009 64 10000 8.2 240 18:33 03.01.2021
4109 Clear 25 1009 54 10000 6.7 220 17:53 03.01.2021
4110 Clear 26 1009 54 10000 6.7 220 17:29 03.01.2021
4111 Clear 27 1010 48 10000 7.2 210 16:57 03.01.2021
4112 Clear 27 1010 48 10000 7.2 210 16:38 03.01.2021
4113 Clear 28 1010 48 10000 7.2 210 16:19 03.01.2021
4114 Clear 28 1011 48 10000 8.2 200 15:41 03.01.2021
4115 Clear 28 1011 48 10000 8.2 200 15:19 03.01.2021
4116 Clear 28 1011 51 10000 7.7 220 14:43 03.01.2021
4117 Clear 28 1012 48 10000 7.2 200 13:57 03.01.2021
4118 Clear 28 1012 48 10000 7.2 200 13:37 03.01.2021
4119 Clear 28 1012 48 10000 7.2 200 13:19 03.01.2021
4120 Clear 27 1013 44 10000 6.2 230 11:46 03.01.2021
4121 Clear 27 1013 44 10000 6.2 230 11:27 03.01.2021
4122 Clear 27 1013 44 10000 6.2 230 10:57 03.01.2021
4123 Clear 26 1013 44 10000 6.2 230 10:33 03.01.2021
4124 Clear 25 1013 50 10000 5.1 230 09:52 03.01.2021
4125 Clear 25 1013 50 10000 5.1 230 09:26 03.01.2021
4126 Clear 25 1013 50 10000 5.1 170 08:31 03.01.2021
4127 Clear 22 1012 60 10000 4.1 160 06:57 03.01.2021
4128 Clear 18 1011 68 10000 5.7 220 03:29 03.01.2021
4129 Clear 19 1012 64 10000 4.1 200 02:26 03.01.2021
4130 Clear 20 1013 60 10000 9.8 160 00:33 03.01.2021
4131 Clear 20 1013 60 10000 9.8 160 23:52 02.01.2021
4132 Clear 20 1013 60 10000 9.8 160 23:19 02.01.2021
4133 Clear 20 1014 56 10000 9.3 160 22:47 02.01.2021
4134 Clear 20 1014 56 10000 9.3 160 22:28 02.01.2021
4135 Clear 20 1014 53 10000 7.2 190 21:48 02.01.2021
4136 Clear 21 1014 53 10000 7.2 190 21:28 02.01.2021
4137 Clear 21 1014 56 10000 6.7 240 20:45 02.01.2021
4138 Clear 21 1014 56 10000 6.7 240 20:25 02.01.2021
4139 Clear 21 1014 60 10000 7.7 240 19:47 02.01.2021
4140 Clear 22 1014 60 10000 7.7 240 19:20 02.01.2021
4141 Clear 22 1014 60 10000 7.7 240 19:20 02.01.2021
4142 Clear 22 1013 53 10000 6.7 230 18:47 02.01.2021
4143 Clear 23 1013 53 10000 6.7 230 18:29 02.01.2021
4144 Clear 25 1013 42 10000 7.7 210 17:46 02.01.2021
4145 Clear 25 1013 42 10000 7.7 210 17:28 02.01.2021
4146 Clear 26 1013 39 10000 8.2 210 16:46 02.01.2021
4147 Clear 26 1013 39 10000 8.2 210 16:21 02.01.2021
4148 Clear 27 1014 37 10000 7.7 200 15:47 02.01.2021
4149 Clear 27 1014 37 10000 7.7 200 15:27 02.01.2021
4150 Clear 27 1014 32 10000 8.2 200 14:47 02.01.2021
4151 Clear 28 1014 32 10000 8.2 200 14:24 02.01.2021
4152 Clear 28 1015 30 10000 7.2 220 13:44 02.01.2021
4153 Clear 28 1015 27 10000 6.2 190 12:59 02.01.2021
4154 Clear 29 1015 27 10000 6.2 190 12:40 02.01.2021
4155 Clear 29 1015 27 10000 6.2 190 12:19 02.01.2021
4156 Clear 28 1016 28 10000 8.2 170 11:38 02.01.2021
4157 Clear 28 1016 28 10000 8.2 170 11:20 02.01.2021
4158 Clear 26 1016 32 10000 8.2 190 10:40 02.01.2021
4159 Clear 26 1016 32 10000 8.2 190 10:21 02.01.2021
4160 Clear 25 1016 36 10000 6.2 200 09:39 02.01.2021
4161 Clear 25 1016 36 10000 6.2 200 09:19 02.01.2021
4162 Clear 23 1016 38 10000 6.2 180 08:46 02.01.2021
4163 Clear 23 1016 38 10000 6.2 180 08:19 02.01.2021
4164 Clear 21 1016 46 10000 7.7 170 07:24 02.01.2021
4165 Clear 19 1017 52 10000 3.6 200 06:57 02.01.2021
4166 Clear 17 1016 59 10000 4.1 200 05:57 02.01.2021
4167 Clear 17 1017 62 10000 2.1 190 01:59 02.01.2021
4168 Clear 17 1018 59 10000 4.1 150 00:43 02.01.2021
4169 Clear 17 1018 59 10000 4.1 150 00:23 02.01.2021
4170 Clear 17 1019 55 10000 5.1 140 23:37 01.01.2021
4171 Clear 17 1019 55 10000 5.1 140 23:19 01.01.2021
4172 Clear 18 1019 52 10000 7.2 140 22:44 01.01.2021
4173 Clear 18 1019 52 10000 7.2 140 22:21 01.01.2021
4174 Clear 18 1019 55 10000 11.3 150 21:42 01.01.2021
4175 Clear 18 1019 55 10000 11.3 150 21:20 01.01.2021
4176 Clear 18 1019 48 10000 12.9 150 20:50 01.01.2021
4177 Clear 19 1019 45 10000 14.4 160 20:19 01.01.2021
4178 Clear 19 1019 45 10000 14.4 160 19:42 01.01.2021
4179 Clear 19 1019 45 10000 14.4 160 19:22 01.01.2021
4180 Clear 20 1018 52 10000 12.9 170 18:47 01.01.2021
4181 Clear 20 1018 52 10000 12.9 170 18:28 01.01.2021
4182 Clear 21 1018 49 10000 11.8 170 17:50 01.01.2021
4183 Clear 21 1019 43 10000 13.4 170 17:24 01.01.2021
4184 Clear 22 1019 43 10000 13.4 170 16:52 01.01.2021
4185 Clear 22 1019 43 10000 13.4 170 16:29 01.01.2021
4186 Clear 22 1020 46 10000 14.4 170 15:43 01.01.2021
4187 Clear 22 1020 46 10000 14.9 170 14:51 01.01.2021
4188 Clear 22 1020 46 10000 14.9 170 14:32 01.01.2021
4189 Clear 22 1020 46 10000 14.4 180 13:42 01.01.2021
4190 Clear 22 1020 46 10000 14.4 180 13:23 01.01.2021
4191 Clear 22 1021 40 10000 13.9 180 12:39 01.01.2021
4192 Clear 22 1021 40 10000 13.9 180 12:18 01.01.2021
4193 Clear 22 1021 40 10000 13.4 180 11:39 01.01.2021
4194 Clear 22 1021 40 10000 13.4 180 11:18 01.01.2021
4195 Clear 22 1021 40 10000 11.3 180 10:35 01.01.2021
4196 Clear 21 1021 45 10000 10.8 170 09:47 01.01.2021
4197 Clear 20 1021 45 10000 10.8 170 09:20 01.01.2021
4198 Clouds 20 1022 42 10000 8.7 170 08:29 01.01.2021
4199 Clouds 17 1021 59 10000 8.7 170 04:53 01.01.2021
4200 Clouds 17 1020 55 10000 7.2 170 02:44 01.01.2021
4201 Clouds 17 1020 63 10000 5.7 160 01:35 01.01.2021
4202 Clouds 17 1020 59 10000 6.2 160 00:28 01.01.2021
4203 Clouds 18 1020 59 10000 6.2 160 23:37 31.12.2020
4204 Clouds 18 1020 59 10000 6.2 160 23:19 31.12.2020
4205 Clouds 18 1020 59 10000 6.2 180 22:40 31.12.2020
4206 Clouds 18 1020 59 10000 6.2 180 22:20 31.12.2020
4207 Clouds 19 1019 63 10000 6.7 190 21:47 31.12.2020
4208 Clouds 19 1019 63 10000 6.7 190 21:25 31.12.2020
4209 Clouds 19 1019 63 10000 5.1 200 20:54 31.12.2020
4210 Clouds 19 1019 63 10000 5.1 200 20:18 31.12.2020
4211 Clouds 20 1018 60 10000 5.7 210 19:47 31.12.2020
4212 Clouds 20 1018 60 10000 5.7 210 19:28 31.12.2020
4213 Clouds 21 1017 60 10000 6.2 200 18:50 31.12.2020
4214 Clouds 21 1017 60 10000 6.2 200 18:24 31.12.2020
4215 Clouds 21 1016 64 10000 6.2 190 17:45 31.12.2020
4216 Clouds 22 1016 64 10000 6.2 190 17:24 31.12.2020
4217 Clouds 21 1016 64 10000 6.2 200 16:44 31.12.2020
4218 Clouds 21 1016 64 10000 6.2 200 16:25 31.12.2020
4219 Clouds 22 1016 64 10000 6.2 230 15:54 31.12.2020
4220 Clouds 22 1016 64 10000 6.2 230 15:36 31.12.2020
4221 Clouds 22 1016 64 10000 6.2 230 15:18 31.12.2020
4222 Clouds 23 1015 47 10000 6.7 250 14:39 31.12.2020
4223 Clouds 23 1015 47 10000 6.7 250 14:21 31.12.2020
4224 Clouds 24 1015 47 10000 5.1 280 13:42 31.12.2020
4225 Clouds 24 1015 47 10000 5.1 280 13:24 31.12.2020
4226 Clouds 23 1015 49 10000 4.6 270 12:55 31.12.2020
4227 Clouds 23 1015 49 10000 4.6 270 12:37 31.12.2020
4228 Clouds 23 1015 49 10000 4.1 280 11:53 31.12.2020
4229 Clouds 23 1015 49 10000 4.1 280 11:32 31.12.2020
4230 Clouds 22 1015 53 10000 3.6 290 10:52 31.12.2020
4231 Clouds 22 1015 53 10000 3.6 290 10:31 31.12.2020
4232 Clouds 22 1015 56 10000 1.5 0 09:59 31.12.2020
4233 Clouds 22 1015 56 10000 1.5 0 09:39 31.12.2020
4234 Clouds 21 1015 56 10000 1.5 0 09:21 31.12.2020
4235 Clouds 22 1015 52 10000 2.1 240 08:46 31.12.2020
4236 Clouds 21 1015 52 10000 2.1 240 08:27 31.12.2020
4237 Clouds 21 1015 60 10000 0.5 0 07:52 31.12.2020
4238 Clouds 19 1015 72 10000 0.5 360 06:49 31.12.2020
4239 Clouds 16 1014 77 10000 0.5 360 05:30 31.12.2020
4240 Clouds 16 1014 77 10000 1 150 03:24 31.12.2020
4241 Clouds 17 1015 77 10000 1.5 190 02:26 31.12.2020
4242 Clouds 17 1015 77 10000 1.5 150 01:53 31.12.2020
4243 Clouds 17 1015 77 10000 1.5 150 01:33 31.12.2020
4244 Clear 17 1015 77 10000 2.1 120 00:52 31.12.2020
4245 Clear 17 1015 77 10000 2.1 120 00:24 31.12.2020
4246 Clear 19 1015 68 10000 3.1 210 23:21 30.12.2020
4247 Clear 19 1015 68 10000 2.1 230 22:56 30.12.2020
4248 Clear 19 1015 68 10000 2.1 230 22:34 30.12.2020
4249 Clear 19 1015 63 10000 3.6 240 21:50 30.12.2020
4250 Clear 20 1015 63 10000 3.6 240 21:25 30.12.2020
4251 Clear 20 1014 60 10000 4.6 220 20:53 30.12.2020
4252 Clear 20 1014 60 10000 4.6 220 20:27 30.12.2020
4253 Clear 20 1014 56 10000 5.1 230 19:58 30.12.2020
4254 Clear 20 1014 56 10000 5.1 230 19:58 30.12.2020
4255 Clear 20 1014 56 10000 5.1 230 19:36 30.12.2020
4256 Clear 21 1014 56 10000 5.1 230 19:18 30.12.2020
4257 Clear 22 1013 49 10000 4.6 230 18:38 30.12.2020
4258 Clear 22 1013 49 10000 4.6 230 18:19 30.12.2020
4259 Clear 23 1012 41 10000 4.1 270 17:42 30.12.2020
4260 Clear 23 1012 41 10000 4.1 270 17:21 30.12.2020
4261 Clear 24 1012 27 10000 4.6 310 16:43 30.12.2020
4262 Clouds 25 1013 31 10000 6.2 310 15:51 30.12.2020
4263 Clouds 25 1013 31 10000 6.2 310 15:30 30.12.2020
4264 Clouds 24 1013 31 10000 5.7 300 14:52 30.12.2020
4265 Clouds 25 1013 31 10000 5.7 300 14:29 30.12.2020
4266 Clouds 24 1013 41 10000 6.7 320 13:59 30.12.2020
4267 Clouds 24 1014 41 10000 6.2 300 12:56 30.12.2020
4268 Clouds 24 1014 41 10000 6.2 300 12:26 30.12.2020
4269 Clouds 23 1014 53 10000 6.2 300 11:39 30.12.2020
4270 Clouds 23 1014 53 10000 6.2 300 11:21 30.12.2020
4271 Clouds 23 1014 60 10000 5.1 310 10:57 30.12.2020
4272 Clouds 22 1014 60 10000 5.1 310 10:37 30.12.2020
4273 Clouds 22 1014 60 10000 5.1 310 10:18 30.12.2020
4274 Clouds 22 1014 68 10000 4.6 300 09:41 30.12.2020
4275 Clouds 21 1014 68 10000 4.1 330 08:36 30.12.2020
4276 Clouds 20 1014 68 10000 4.1 360 07:50 30.12.2020
4277 Clouds 20 1014 68 10000 4.1 360 07:24 30.12.2020
4278 Clouds 19 1014 77 10000 4.1 30 06:40 30.12.2020
4279 Clouds 18 1013 77 10000 4.6 30 05:47 30.12.2020
4280 Clouds 18 1013 77 10000 4.6 30 05:28 30.12.2020
4281 Clouds 17 1013 82 10000 5.1 70 03:41 30.12.2020
4282 Clouds 17 1013 82 10000 5.1 70 03:23 30.12.2020
4283 Clear 16 1013 87 10000 3.1 20 02:32 30.12.2020
4284 Clear 17 1013 82 10000 1.5 0 01:44 30.12.2020
4285 Clear 17 1013 82 10000 1.5 0 01:26 30.12.2020
4286 Clear 17 1013 82 10000 4.1 330 00:40 30.12.2020
4287 Clear 17 1013 82 10000 4.1 330 00:21 30.12.2020
4288 Clear 17 1014 82 10000 3.6 330 23:42 29.12.2020
4289 Clear 17 1014 82 10000 3.6 330 23:24 29.12.2020
4290 Clear 18 1014 77 10000 4.1 320 22:49 29.12.2020
4291 Clear 18 1014 77 10000 4.1 320 22:31 29.12.2020
4292 Clear 19 1013 77 10000 4.1 330 21:56 29.12.2020
4293 Clear 19 1013 77 10000 4.1 330 21:36 29.12.2020
4294 Clear 19 1012 72 10000 4.6 330 20:57 29.12.2020
4295 Clear 19 1012 72 10000 4.6 330 20:39 29.12.2020
4296 Clear 19 1012 72 10000 4.6 330 20:20 29.12.2020
4297 Clouds 20 1012 68 10000 5.7 320 19:42 29.12.2020
4298 Clouds 20 1012 68 10000 5.7 320 19:21 29.12.2020
4299 Clouds 20 1012 64 10000 7.2 310 18:49 29.12.2020
4300 Clouds 21 1012 64 10000 7.2 310 18:28 29.12.2020
4301 Clouds 22 1011 53 10000 7.2 310 17:45 29.12.2020
4302 Clouds 22 1011 49 10000 8.2 300 17:21 29.12.2020
4303 Clouds 22 1011 49 10000 8.2 300 16:54 29.12.2020
4304 Clouds 22 1011 49 10000 8.2 300 16:26 29.12.2020
4305 Clouds 22 1011 49 10000 8.7 310 15:39 29.12.2020
4306 Clouds 22 1011 49 10000 8.7 310 15:20 29.12.2020
4307 Clouds 22 1012 49 10000 8.7 310 14:40 29.12.2020
4308 Clouds 22 1012 49 10000 8.7 310 14:20 29.12.2020
4309 Clouds 22 1012 43 10000 8.7 300 13:54 29.12.2020
4310 Clouds 22 1012 43 10000 8.7 300 13:23 29.12.2020
4311 Clouds 22 1012 43 10000 7.2 340 12:44 29.12.2020
4312 Clouds 22 1012 43 10000 7.2 340 12:25 29.12.2020
4313 Clouds 23 1011 43 10000 7.2 300 11:57 29.12.2020
4314 Clouds 23 1011 43 10000 7.2 300 11:31 29.12.2020
4315 Clouds 22 1011 46 10000 6.2 290 10:40 29.12.2020
4316 Clouds 21 1011 46 10000 4.1 330 09:59 29.12.2020
4317 Clouds 22 1011 46 10000 4.1 330 09:37 29.12.2020
4318 Clouds 22 1011 46 10000 4.1 330 09:18 29.12.2020
4319 Clouds 20 1011 56 10000 2.6 0 08:43 29.12.2020
4320 Clouds 19 1011 68 10000 2.6 310 07:33 29.12.2020
4321 Clouds 18 1010 77 10000 2.6 310 06:55 29.12.2020
4322 Clouds 16 1010 82 10000 2.6 310 05:33 29.12.2020
4323 Clouds 18 1010 77 10000 3.1 220 01:36 29.12.2020
4324 Clouds 18 1010 77 10000 4.6 210 00:24 29.12.2020
4325 Clouds 18 1010 77 10000 4.6 210 23:37 28.12.2020
4326 Clouds 19 1010 68 10000 5.1 200 22:41 28.12.2020
4327 Clouds 19 1010 72 10000 6.2 190 21:47 28.12.2020
4328 Clouds 19 1010 72 10000 6.2 190 21:29 28.12.2020
4329 Clouds 19 1010 72 10000 6.2 190 20:47 28.12.2020
4330 Clouds 19 1010 72 10000 6.2 190 20:29 28.12.2020
4331 Clouds 19 1009 68 10000 8.2 180 19:59 28.12.2020
4332 Clouds 20 1009 68 10000 8.2 180 19:40 28.12.2020
4333 Clouds 20 1009 68 10000 8.2 180 19:20 28.12.2020
4334 Clouds 20 1009 64 10000 8.7 180 18:44 28.12.2020
4335 Clouds 21 1009 64 10000 8.7 180 18:23 28.12.2020
4336 Clouds 22 1009 64 10000 7.7 180 17:41 28.12.2020
4337 Clouds 22 1009 64 10000 7.7 180 17:18 28.12.2020
4338 Clouds 22 1009 60 10000 9.3 180 16:32 28.12.2020
4339 Clouds 24 1009 53 10000 6.7 180 15:58 28.12.2020
4340 Clouds 24 1009 53 10000 6.7 180 15:38 28.12.2020
4341 Clear 25 1009 47 10000 6.2 190 14:47 28.12.2020
4342 Clear 25 1010 47 10000 4.6 170 13:51 28.12.2020
4343 Clear 25 1010 47 10000 4.6 170 13:23 28.12.2020
4344 Clear 25 1010 41 10000 3.6 210 12:38 28.12.2020
4345 Clear 25 1010 41 10000 3.6 210 12:19 28.12.2020
4346 Clear 24 1010 36 10000 3.1 290 11:44 28.12.2020
4347 Clear 24 1010 36 10000 3.1 290 11:18 28.12.2020
4348 Clear 24 1010 41 10000 3.1 300 10:42 28.12.2020
4349 Clear 24 1010 41 10000 3.1 300 10:23 28.12.2020
4350 Clear 24 1010 43 10000 2.6 260 09:45 28.12.2020
4351 Clear 22 1010 43 10000 2.6 260 09:18 28.12.2020
4352 Clear 20 1010 60 10000 1.5 0 07:21 28.12.2020
4353 Clear 18 1011 68 10000 3.1 230 06:43 28.12.2020
4354 Clear 16 1010 72 10000 3.1 180 04:22 28.12.2020
4355 Clear 17 1013 72 10000 7.2 170 01:57 28.12.2020
4356 Clear 18 1013 68 10000 6.7 180 00:30 28.12.2020
4357 Clear 18 1013 68 10000 6.7 180 00:30 28.12.2020
4358 Clear 18 1014 68 10000 6.2 180 23:45 27.12.2020
4359 Clear 18 1014 68 10000 7.2 170 23:18 27.12.2020
4360 Clear 18 1015 63 10000 8.7 170 21:56 27.12.2020
4361 Clear 18 1015 63 10000 8.7 170 21:25 27.12.2020
4362 Clouds 18 1015 63 10000 8.2 180 20:45 27.12.2020
4363 Clouds 19 1014 63 10000 9.8 180 19:25 27.12.2020
4364 Clouds 20 1014 56 10000 8.7 180 18:57 27.12.2020
4365 Clouds 20 1014 56 10000 8.7 180 18:38 27.12.2020
4366 Clouds 20 1014 56 10000 8.7 180 18:18 27.12.2020
4367 Clouds 20 1014 56 10000 9.3 180 17:43 27.12.2020
4368 Clouds 21 1014 56 10000 9.3 180 17:22 27.12.2020
4369 Clouds 20 1013 52 10000 8.7 170 16:35 27.12.2020
4370 Clouds 21 1014 53 10000 8.2 160 15:54 27.12.2020
4371 Clouds 22 1014 49 10000 7.2 170 14:59 27.12.2020
4372 Clouds 22 1014 49 10000 7.2 170 14:40 27.12.2020
4373 Clouds 23 1014 49 10000 7.2 170 14:19 27.12.2020
4374 Clouds 23 1014 49 10000 5.1 170 13:22 27.12.2020
4375 Clouds 22 1014 46 10000 4.1 170 12:43 27.12.2020
4376 Clouds 22 1014 49 10000 4.1 190 11:56 27.12.2020
4377 Clouds 21 1014 49 10000 4.1 190 11:36 27.12.2020
4378 Clouds 20 1014 52 10000 4.6 170 10:52 27.12.2020
4379 Clouds 20 1014 52 10000 4.6 170 10:24 27.12.2020
4380 Clouds 20 1014 52 10000 5.1 210 09:53 27.12.2020
4381 Rain 19 1014 59 10000 4.6 230 08:50 27.12.2020
4382 Rain 19 1014 59 10000 4.6 230 08:25 27.12.2020
4383 Clouds 19 1013 72 10000 3.6 220 07:26 27.12.2020
4384 Clouds 18 1012 93 10000 4.1 200 05:45 27.12.2020
4385 Rain 18 1011 93 10000 2.6 310 04:25 27.12.2020
4386 Clouds 19 1011 93 10000 2.6 320 03:20 27.12.2020
4387 Clouds 20 1012 72 10000 3.1 320 01:34 27.12.2020
4388 Clouds 21 1012 72 10000 1 0 00:24 27.12.2020
4389 Clouds 21 1012 72 10000 3.1 210 23:40 26.12.2020
4390 Clouds 21 1012 72 10000 3.1 210 23:19 26.12.2020
4391 Clouds 21 1012 73 10000 4.6 220 22:36 26.12.2020
4392 Clouds 21 1012 73 10000 4.6 220 22:18 26.12.2020
4393 Clouds 21 1012 73 10000 4.6 220 21:48 26.12.2020
4394 Clouds 21 1012 73 10000 4.6 220 21:24 26.12.2020
4395 Clouds 21 1011 73 10000 4.6 200 20:43 26.12.2020
4396 Clouds 21 1011 73 10000 4.6 200 20:19 26.12.2020
4397 Clouds 22 1011 73 10000 5.7 200 19:29 26.12.2020
4398 Clouds 22 1010 68 10000 6.7 210 18:53 26.12.2020
4399 Clouds 22 1010 68 10000 6.7 210 18:32 26.12.2020
4400 Clear 23 1009 47 10000 7.7 200 17:44 26.12.2020
4401 Clear 25 1009 47 10000 7.7 200 17:26 26.12.2020
4402 Clear 26 1009 28 10000 6.7 220 16:37 26.12.2020
4403 Clear 27 1009 37 10000 3.1 150 15:52 26.12.2020
4404 Clear 25 1009 47 10000 5.7 120 15:19 26.12.2020
4405 Clear 25 1009 54 10000 5.1 140 14:29 26.12.2020
4406 Clear 25 1009 57 10000 5.1 170 13:56 26.12.2020
4407 Clear 25 1009 57 10000 5.1 170 13:36 26.12.2020
4408 Clear 25 1010 53 10000 5.1 180 12:53 26.12.2020
4409 Clear 25 1010 53 10000 4.6 170 12:30 26.12.2020
4410 Clear 25 1010 53 10000 4.6 170 11:59 26.12.2020
4411 Clear 25 1010 53 10000 4.6 170 11:41 26.12.2020
4412 Clear 25 1010 53 10000 4.6 170 11:19 26.12.2020
4413 Clear 25 1010 57 10000 5.1 170 10:43 26.12.2020
4414 Clear 24 1010 57 10000 5.1 170 10:23 26.12.2020
4415 Clear 24 1010 57 10000 4.1 170 09:41 26.12.2020
4416 Clear 23 1011 64 10000 4.1 180 08:54 26.12.2020
4417 Clear 22 1011 64 10000 4.1 180 08:19 26.12.2020
4418 Clear 21 1011 73 10000 4.6 190 07:21 26.12.2020
4419 Clear 17 1011 88 10000 2.6 190 04:39 26.12.2020
4420 Clear 18 1011 93 10000 3.1 200 02:34 26.12.2020
4421 Clear 19 1013 88 10000 3.6 200 00:34 26.12.2020
4422 Clouds 19 1013 88 10000 3.6 210 23:49 25.12.2020
4423 Clouds 19 1013 88 10000 3.6 210 23:28 25.12.2020
4424 Clouds 19 1013 82 10000 4.6 190 22:52 25.12.2020
4425 Clouds 20 1013 82 10000 4.6 190 22:26 25.12.2020
4426 Clouds 19 1013 88 10000 3.6 170 21:43 25.12.2020
4427 Clouds 20 1013 88 10000 3.6 170 21:25 25.12.2020
4428 Clouds 21 1013 77 10000 3.6 150 20:45 25.12.2020
4429 Clouds 21 1013 77 10000 3.6 150 20:26 25.12.2020
4430 Clouds 21 1013 73 10000 3.6 190 19:43 25.12.2020
4431 Clouds 22 1012 68 10000 4.1 160 18:49 25.12.2020
4432 Clouds 23 1012 68 10000 4.1 160 18:30 25.12.2020
4433 Clouds 23 1012 64 10000 6.7 190 17:35 25.12.2020
4434 Clouds 24 1012 57 10000 6.7 190 16:55 25.12.2020
4435 Clouds 25 1012 57 10000 6.7 190 16:25 25.12.2020
4436 Clouds 25 1012 61 10000 7.2 200 15:50 25.12.2020
4437 Clouds 25 1012 61 10000 7.2 200 15:31 25.12.2020
4438 Clouds 25 1012 57 10000 7.2 210 14:38 25.12.2020
4439 Clouds 25 1012 57 10000 7.2 210 14:19 25.12.2020
4440 Clouds 25 1012 57 10000 3.6 230 13:43 25.12.2020
4441 Clouds 25 1012 57 10000 3.6 230 13:24 25.12.2020
4442 Clouds 25 1013 54 10000 4.1 330 12:28 25.12.2020
4443 Clouds 24 1013 57 10000 4.6 320 11:50 25.12.2020
4444 Clouds 25 1013 57 10000 4.6 320 11:25 25.12.2020
4445 Clouds 25 1013 57 10000 4.6 320 11:25 25.12.2020
4446 Clouds 24 1014 60 10000 3.6 330 10:49 25.12.2020
4447 Clouds 24 1014 60 10000 3.6 330 10:22 25.12.2020
4448 Clouds 23 1014 60 10000 3.6 360 09:27 25.12.2020
4449 Clouds 22 1014 64 10000 1 0 08:47 25.12.2020
4450 Clear 21 1013 64 10000 1 0 07:52 25.12.2020
4451 Clouds 18 1014 82 10000 0.5 0 06:44 25.12.2020
4452 Clear 17 1014 82 10000 2.1 130 02:50 25.12.2020
4453 Clear 17 1015 87 10000 1.5 150 01:18 25.12.2020
4454 Clear 16 1015 93 10000 2.6 160 00:18 25.12.2020
4455 Clear 17 1015 87 10000 2.1 140 23:23 24.12.2020
4456 Clear 17 1016 87 10000 1.5 150 22:40 24.12.2020
4457 Clear 17 1016 87 10000 1.5 150 22:19 24.12.2020
4458 Clear 18 1016 82 10000 3.1 170 21:32 24.12.2020
4459 Clear 19 1015 77 10000 3.1 150 20:20 24.12.2020
4460 Clear 21 1015 68 10000 5.7 170 18:39 24.12.2020
4461 Clear 21 1015 68 10000 5.7 170 18:18 24.12.2020
4462 Clear 22 1015 60 10000 5.7 170 17:36 24.12.2020
4463 Clouds 23 1014 53 10000 6.7 180 16:28 24.12.2020
4464 Clouds 24 1014 50 10000 4.6 180 15:59 24.12.2020
4465 Clouds 24 1014 50 10000 4.6 180 15:59 24.12.2020
4466 Clouds 24 1014 50 10000 4.6 180 15:41 24.12.2020
4467 Clouds 24 1014 50 10000 4.6 180 15:19 24.12.2020
4468 Clouds 24 1015 53 10000 4.1 180 14:42 24.12.2020
4469 Clouds 24 1015 53 10000 4.1 180 14:23 24.12.2020
4470 Clouds 24 1015 53 10000 4.1 180 14:23 24.12.2020
4471 Clouds 24 1015 44 10000 3.6 330 13:41 24.12.2020
4472 Clouds 24 1015 44 10000 3.6 330 13:21 24.12.2020
4473 Clouds 24 1016 47 10000 4.1 320 12:41 24.12.2020
4474 Clouds 24 1016 47 10000 4.1 320 12:21 24.12.2020
4475 Clouds 24 1016 53 10000 1.5 0 11:41 24.12.2020
4476 Clouds 24 1016 53 10000 1.5 0 11:20 24.12.2020
4477 Clouds 23 1016 53 10000 1.5 0 11:20 24.12.2020
4478 Clouds 24 1017 68 10000 3.6 250 10:52 24.12.2020
4479 Clouds 22 1017 68 10000 3.6 250 10:34 24.12.2020
4480 Clouds 22 1017 68 10000 2.6 0 09:52 24.12.2020
4481 Clouds 21 1017 68 10000 2.6 0 09:24 24.12.2020
4482 Clouds 19 1017 82 10000 3.1 320 08:20 24.12.2020
4483 Clouds 19 1017 93 10000 2.1 340 07:39 24.12.2020
4484 Clouds 19 1017 93 10000 2.1 340 07:18 24.12.2020
4485 Rain 17 1015 100 6000 3.6 320 05:36 24.12.2020
4486 Rain 18 1016 93 10000 4.1 310 01:57 24.12.2020
4487 Rain 18 1016 93 10000 4.1 310 01:56 24.12.2020
4488 Rain 18 1016 93 10000 4.1 310 01:36 24.12.2020
4489 Clouds 18 1016 93 10000 4.1 310 01:18 24.12.2020
4490 Rain 18 1017 88 10000 4.6 310 00:21 24.12.2020
4491 Rain 18 1017 88 10000 4.1 330 23:46 23.12.2020
4492 Clouds 18 1017 88 10000 4.1 330 23:26 23.12.2020
4493 Clouds 18 1017 88 10000 4.1 330 22:55 23.12.2020
4494 Clouds 18 1017 88 10000 4.1 330 22:30 23.12.2020
4495 Rain 19 1017 88 8000 4.1 340 21:56 23.12.2020
4496 Rain 19 1017 88 8000 4.1 340 21:28 23.12.2020
4497 Rain 19 1017 88 8000 4.1 310 20:54 23.12.2020
4498 Rain 19 1017 88 8000 4.1 310 20:36 23.12.2020
4499 Rain 19 1017 88 8000 4.1 310 20:18 23.12.2020
4500 Clouds 19 1016 82 10000 3.6 310 19:39 23.12.2020
4501 Clouds 19 1016 82 10000 3.6 310 19:20 23.12.2020
4502 Clouds 20 1016 77 10000 4.6 310 18:48 23.12.2020
4503 Clouds 20 1016 77 10000 4.6 310 18:24 23.12.2020
4504 Clouds 21 1015 82 10000 6.7 310 17:39 23.12.2020
4505 Clouds 21 1015 82 10000 6.7 310 17:39 23.12.2020
4506 Clouds 21 1015 82 10000 6.7 310 17:39 23.12.2020
4507 Clouds 21 1015 72 10000 7.2 300 17:20 23.12.2020
4508 Clouds 21 1015 72 10000 7.2 300 16:47 23.12.2020
4509 Clouds 20 1015 72 10000 7.2 300 16:29 23.12.2020
4510 Clouds 21 1015 82 10000 6.7 320 15:58 23.12.2020
4511 Drizzle 21 1015 88 10000 5.7 310 15:37 23.12.2020
4512 Drizzle 20 1015 88 10000 5.7 310 15:19 23.12.2020
4513 Clouds 22 1015 60 10000 8.7 320 14:39 23.12.2020
4514 Clouds 23 1015 60 10000 8.7 320 14:20 23.12.2020
4515 Clouds 22 1015 56 10000 8.7 310 13:44 23.12.2020
4516 Clouds 22 1015 56 10000 8.7 310 13:20 23.12.2020
4517 Clouds 22 1015 56 10000 10.3 310 12:54 23.12.2020
4518 Clouds 22 1015 56 10000 10.3 310 12:30 23.12.2020
4519 Clouds 22 1015 56 10000 9.8 310 11:54 23.12.2020
4520 Clouds 23 1015 56 10000 9.8 310 11:31 23.12.2020
4521 Clouds 23 1015 56 10000 7.7 310 10:56 23.12.2020
4522 Clouds 23 1015 56 10000 7.7 310 10:37 23.12.2020
4523 Clouds 21 1015 60 10000 7.2 320 09:38 23.12.2020
4524 Clouds 21 1015 60 10000 5.7 320 08:57 23.12.2020
4525 Clouds 20 1015 60 10000 5.7 320 08:31 23.12.2020
4526 Clouds 20 1014 68 10000 4.6 320 07:48 23.12.2020
4527 Clouds 19 1014 88 10000 2.1 360 06:42 23.12.2020
4528 Clouds 19 1013 93 10000 2.6 350 05:58 23.12.2020
4529 Clouds 18 1013 93 10000 2.6 350 05:23 23.12.2020
4530 Clouds 19 1012 88 10000 4.6 210 01:59 23.12.2020
4531 Clouds 19 1013 88 10000 3.6 210 00:33 23.12.2020
4532 Clouds 20 1012 82 10000 5.1 190 23:43 22.12.2020
4533 Clouds 20 1012 82 10000 5.1 190 23:22 22.12.2020
4534 Clouds 20 1012 82 10000 6.2 180 22:42 22.12.2020
4535 Clouds 20 1012 82 10000 6.2 180 22:24 22.12.2020
4536 Clouds 21 1012 82 10000 7.7 190 21:52 22.12.2020
4537 Clouds 21 1012 82 10000 7.7 190 21:21 22.12.2020
4538 Clouds 21 1011 82 10000 8.7 190 20:54 22.12.2020
4539 Clouds 21 1011 82 10000 8.7 190 20:35 22.12.2020
4540 Clouds 21 1011 82 10000 9.3 190 19:59 22.12.2020
4541 Clouds 21 1011 82 10000 9.3 190 19:41 22.12.2020
4542 Clouds 21 1011 82 10000 9.3 190 19:20 22.12.2020
4543 Clouds 22 1010 83 10000 9.8 190 18:44 22.12.2020
4544 Clouds 21 1010 83 10000 9.8 190 18:24 22.12.2020
4545 Clouds 22 1010 83 10000 9.3 190 17:41 22.12.2020
4546 Clouds 22 1009 78 10000 9.3 180 17:18 22.12.2020
4547 Clouds 22 1009 78 10000 9.3 180 17:18 22.12.2020
4548 Clouds 23 1009 64 10000 9.3 180 16:47 22.12.2020
4549 Clouds 23 1009 64 10000 9.3 180 16:21 22.12.2020
4550 Clouds 24 1009 61 10000 7.7 200 15:49 22.12.2020
4551 Clouds 25 1009 61 10000 7.7 200 15:31 22.12.2020
4552 Clear 26 1008 54 10000 6.7 210 14:58 22.12.2020
4553 Clear 25 1008 54 10000 6.7 210 14:40 22.12.2020
4554 Clear 28 1008 51 10000 4.6 230 14:21 22.12.2020
4555 Clear 26 1008 51 10000 4.6 230 13:45 22.12.2020
4556 Clear 26 1008 51 10000 4.6 230 13:19 22.12.2020
4557 Clear 27 1008 48 10000 4.1 0 12:55 22.12.2020
4558 Clear 26 1008 48 10000 4.1 0 12:36 22.12.2020
4559 Clear 26 1008 48 10000 4.1 0 12:18 22.12.2020
4560 Clouds 26 1008 48 10000 4.6 220 11:40 22.12.2020
4561 Clouds 26 1008 48 10000 4.6 220 11:21 22.12.2020
4562 Clouds 26 1009 51 10000 3.6 240 10:53 22.12.2020
4563 Clouds 27 1009 51 10000 3.6 240 10:25 22.12.2020
4564 Clear 27 1008 51 10000 3.1 190 09:57 22.12.2020
4565 Clear 25 1008 51 10000 3.1 190 09:27 22.12.2020
4566 Clear 25 1008 57 10000 3.1 200 08:53 22.12.2020
4567 Clear 24 1008 57 10000 3.1 200 08:34 22.12.2020
4568 Clear 24 1008 57 10000 2.1 190 07:57 22.12.2020
4569 Clear 22 1008 64 10000 3.1 240 07:23 22.12.2020
4570 Clear 19 1007 82 10000 1 0 05:54 22.12.2020
4571 Clear 19 1007 82 10000 1 0 05:25 22.12.2020
4572 Clear 21 1008 73 10000 2.6 250 01:48 22.12.2020
4573 Clear 21 1008 77 10000 4.1 240 00:21 22.12.2020
4574 Clear 21 1009 73 10000 4.1 200 23:41 21.12.2020
4575 Clear 21 1009 73 10000 4.1 200 23:19 21.12.2020
4576 Clear 21 1009 73 10000 4.1 170 22:36 21.12.2020
4577 Clear 21 1009 73 10000 4.1 170 22:18 21.12.2020
4578 Clear 21 1009 73 10000 4.1 170 21:46 21.12.2020
4579 Clear 21 1009 73 10000 4.1 170 21:27 21.12.2020
4580 Clouds 21 1008 73 10000 7.7 160 20:45 21.12.2020
4581 Clouds 21 1008 73 10000 7.7 160 20:21 21.12.2020
4582 Clouds 21 1008 73 10000 10.8 170 19:47 21.12.2020
4583 Clouds 22 1008 73 10000 10.8 170 19:22 21.12.2020
4584 Clouds 22 1008 64 10000 10.8 160 18:58 21.12.2020
4585 Clouds 22 1008 64 10000 10.8 160 18:40 21.12.2020
4586 Clouds 22 1008 64 10000 10.8 160 18:40 21.12.2020
4587 Clouds 23 1008 64 10000 10.8 160 18:21 21.12.2020
4588 Clouds 24 1008 61 10000 11.3 170 17:42 21.12.2020
4589 Clouds 24 1008 61 10000 11.3 170 17:23 21.12.2020
4590 Clouds 25 1008 54 10000 12.3 170 16:42 21.12.2020
4591 Clouds 25 1008 54 10000 12.3 170 16:20 21.12.2020
4592 Clouds 26 1009 51 10000 10.8 190 15:43 21.12.2020
4593 Clouds 26 1009 51 10000 10.8 190 14:58 21.12.2020
4594 Clouds 27 1009 51 10000 10.8 190 14:36 21.12.2020
4595 Clouds 27 1009 51 10000 10.8 190 14:18 21.12.2020
4596 Clouds 26 1010 54 10000 11.3 190 13:40 21.12.2020
4597 Clouds 26 1010 54 10000 11.3 190 13:21 21.12.2020
4598 Clouds 27 1010 51 10000 11.8 180 12:42 21.12.2020
4599 Clouds 27 1010 51 10000 11.8 180 12:22 21.12.2020
4600 Clouds 27 1010 51 10000 9.8 190 11:43 21.12.2020
4601 Clouds 26 1010 51 10000 9.8 190 11:22 21.12.2020
4602 Clouds 27 1010 51 10000 9.8 190 11:22 21.12.2020
4603 Clouds 26 1010 54 10000 9.8 180 10:58 21.12.2020
4604 Clouds 26 1010 54 10000 9.8 180 10:39 21.12.2020
4605 Clouds 25 1011 54 10000 9.8 170 09:58 21.12.2020
4606 Clouds 25 1011 54 10000 9.8 170 09:40 21.12.2020
4607 Clouds 25 1011 54 10000 9.8 170 09:22 21.12.2020
4608 Clear 24 1010 57 10000 8.7 150 08:29 21.12.2020
4609 Clear 22 1010 64 10000 11.3 160 07:27 21.12.2020
4610 Clear 19 1009 72 10000 8.7 160 05:40 21.12.2020
4611 Clear 19 1009 72 10000 8.7 160 04:31 21.12.2020
4612 Clear 20 1009 68 10000 7.7 170 00:37 21.12.2020
4613 Clear 20 1010 56 10000 10.8 170 23:52 20.12.2020
4614 Clear 20 1010 56 10000 10.8 170 23:21 20.12.2020
4615 Clear 21 1010 56 10000 9.8 190 22:55 20.12.2020
4616 Clear 21 1010 56 10000 9.8 190 22:37 20.12.2020
4617 Clear 21 1010 56 10000 9.8 190 22:19 20.12.2020
4618 Clear 21 1010 60 10000 9.3 180 21:38 20.12.2020
4619 Clear 21 1010 60 10000 9.3 180 21:19 20.12.2020
4620 Clouds 21 1010 68 10000 8.2 190 20:45 20.12.2020
4621 Clouds 21 1010 68 10000 8.2 190 20:22 20.12.2020
4622 Clouds 21 1010 73 10000 7.7 210 19:44 20.12.2020
4623 Clouds 21 1010 73 10000 7.7 210 19:24 20.12.2020
4624 Clouds 22 1009 64 10000 8.2 210 18:55 20.12.2020
4625 Clouds 22 1009 64 10000 8.2 210 18:36 20.12.2020
4626 Clouds 23 1009 57 10000 7.2 210 17:57 20.12.2020
4627 Clouds 24 1009 57 10000 7.2 210 17:39 20.12.2020
4628 Clouds 24 1009 57 10000 7.2 210 17:18 20.12.2020
4629 Clouds 25 1009 57 10000 7.2 220 16:44 20.12.2020
4630 Clouds 25 1009 57 10000 7.2 220 16:24 20.12.2020
4631 Clear 27 1010 51 10000 7.2 210 15:41 20.12.2020
4632 Clear 27 1010 51 10000 7.2 210 15:22 20.12.2020
4633 Clear 26 1013 70 10000 3.13 225 14:48 20.12.2020
4634 Clear 27 1010 48 10000 8.2 220 14:29 20.12.2020
4635 Clear 27 1010 48 10000 8.2 220 13:44 20.12.2020
4636 Clear 27 1010 48 10000 8.2 220 13:23 20.12.2020
4637 Clear 28 1011 45 10000 7.2 220 12:51 20.12.2020
4638 Clear 28 1011 45 10000 7.2 220 12:26 20.12.2020
4639 Clear 29 1011 37 10000 6.7 200 11:57 20.12.2020
4640 Clear 29 1011 37 10000 6.7 200 11:38 20.12.2020
4641 Clear 27 1011 44 10000 8.7 190 10:50 20.12.2020
4642 Clear 26 1011 44 10000 8.7 190 10:23 20.12.2020
4643 Clear 25 1011 47 10000 9.3 190 09:57 20.12.2020
4644 Clear 25 1011 47 10000 9.3 190 09:39 20.12.2020
4645 Clear 25 1011 47 10000 9.3 190 09:20 20.12.2020
4646 Clear 24 1011 57 10000 9.3 190 08:48 20.12.2020
4647 Clear 23 1011 57 10000 9.3 190 08:30 20.12.2020
4648 Clear 22 1012 56 10000 7.2 200 07:22 20.12.2020
4649 Clear 19 1011 64 10000 8.7 190 05:33 20.12.2020
4650 Clear 20 1012 64 10000 10.3 170 01:32 20.12.2020
4651 Clear 19 1012 60 10000 10.3 190 00:22 20.12.2020
4652 Clear 19 1013 72 10000 10.3 200 23:19 19.12.2020
4653 Clear 19 1013 77 10000 10.8 190 22:46 19.12.2020
4654 Clear 19 1013 77 10000 10.8 190 22:25 19.12.2020
4655 Clear 19 1013 77 10000 10.8 190 22:25 19.12.2020
4656 Clear 20 1013 72 10000 9.8 190 21:59 19.12.2020
4657 Clear 20 1013 72 10000 9.8 190 21:41 19.12.2020
4658 Clear 20 1013 72 10000 9.8 190 21:22 19.12.2020
4659 Clear 20 1013 72 10000 11.8 180 20:41 19.12.2020
4660 Clear 20 1013 68 10000 10.8 180 20:18 19.12.2020
4661 Clear 20 1013 68 10000 10.8 180 19:50 19.12.2020
4662 Clear 20 1013 68 10000 10.8 180 19:29 19.12.2020
4663 Clear 21 1012 68 10000 11.8 190 18:38 19.12.2020
4664 Clear 22 1012 68 10000 11.8 190 18:20 19.12.2020
4665 Clear 22 1012 64 10000 11.8 180 17:45 19.12.2020
4666 Clear 23 1012 64 10000 12.9 180 17:23 19.12.2020
4667 Clear 23 1012 64 10000 12.9 180 16:44 19.12.2020
4668 Clear 23 1012 64 10000 12.9 180 16:26 19.12.2020
4669 Clear 24 1013 60 10000 12.9 180 15:58 19.12.2020
4670 Clear 24 1013 60 10000 12.9 180 15:39 19.12.2020
4671 Clear 24 1013 60 10000 11.8 190 14:43 19.12.2020
4672 Clear 24 1013 60 10000 11.8 190 14:22 19.12.2020
4673 Clouds 24 1013 60 10000 12.3 180 13:41 19.12.2020
4674 Clouds 24 1013 64 10000 11.8 190 13:20 19.12.2020
4675 Clouds 24 1013 64 10000 11.8 190 12:44 19.12.2020
4676 Clouds 24 1013 64 10000 11.8 190 12:26 19.12.2020
4677 Clear 24 1013 64 10000 10.8 190 11:58 19.12.2020
4678 Clear 24 1013 64 10000 10.8 190 11:40 19.12.2020
4679 Clear 24 1012 57 10000 8.2 200 10:45 19.12.2020
4680 Clear 24 1012 57 10000 8.2 200 10:27 19.12.2020
4681 Clear 23 1012 60 10000 5.7 220 09:58 19.12.2020
4682 Clear 23 1012 60 10000 5.7 220 09:38 19.12.2020
4683 Clear 22 1011 68 10000 6.2 230 08:37 19.12.2020
4684 Clear 22 1011 64 10000 5.1 220 07:55 19.12.2020
4685 Clear 20 1011 72 10000 6.2 240 07:18 19.12.2020
4686 Clear 19 1010 82 10000 5.1 230 06:39 19.12.2020
4687 Clear 18 1010 88 10000 5.1 230 05:19 19.12.2020
4688 Clear 17 1010 88 10000 6.2 230 03:29 19.12.2020
4689 Clear 19 1011 82 10000 5.1 220 00:41 19.12.2020
4690 Clear 19 1012 82 10000 5.1 220 00:19 19.12.2020
4691 Clear 19 1014 79 10000 2.24 225 23:48 18.12.2020
4692 Clear 19 1012 82 10000 5.7 220 23:24 18.12.2020
4693 Clear 19 1012 82 10000 5.7 220 22:48 18.12.2020
4694 Clear 19 1012 82 10000 5.7 220 22:24 18.12.2020
4695 Clear 19 1012 77 10000 6.2 230 21:51 18.12.2020
4696 Clear 20 1012 77 10000 6.2 230 21:31 18.12.2020
4697 Clouds 19 1012 82 10000 7.2 210 20:44 18.12.2020
4698 Clouds 19 1012 82 10000 7.2 210 20:23 18.12.2020
4699 Clouds 20 1012 77 10000 8.2 220 19:47 18.12.2020
4700 Clouds 20 1012 77 10000 8.2 220 19:23 18.12.2020
4701 Clear 20 1012 72 10000 8.7 210 18:45 18.12.2020
4702 Clear 20 1012 72 10000 8.7 210 18:26 18.12.2020
4703 Clear 21 1011 68 10000 9.8 210 17:36 18.12.2020
4704 Clear 22 1012 64 10000 12.3 200 16:59 18.12.2020
4705 Clear 22 1012 64 10000 12.3 200 16:40 18.12.2020
4706 Clear 22 1012 64 10000 11.3 200 16:20 18.12.2020
4707 Clear 22 1012 64 10000 11.3 200 15:51 18.12.2020
4708 Clear 22 1012 64 10000 11.3 200 15:33 18.12.2020
4709 Clear 23 1012 60 10000 10.3 200 14:57 18.12.2020
4710 Clear 23 1012 60 10000 10.3 200 14:26 18.12.2020
4711 Clear 24 1012 57 10000 10.8 190 13:53 18.12.2020
4712 Clear 24 1012 57 10000 10.8 190 13:33 18.12.2020
4713 Clear 25 1013 53 10000 8.7 200 12:58 18.12.2020
4714 Clear 25 1013 53 10000 8.7 200 12:38 18.12.2020
4715 Clear 25 1013 44 10000 7.7 200 11:29 18.12.2020
4716 Clear 25 1013 41 10000 6.2 210 10:58 18.12.2020
4717 Clear 25 1013 41 10000 6.2 210 10:37 18.12.2020
4718 Clear 25 1013 41 10000 6.2 210 10:19 18.12.2020
4719 Clear 24 1013 53 10000 5.7 250 09:38 18.12.2020
4720 Clear 23 1013 53 10000 5.7 250 09:19 18.12.2020
4721 Clear 23 1013 49 10000 7.2 210 08:50 18.12.2020
4722 Clear 23 1013 49 10000 7.2 210 08:21 18.12.2020
4723 Clear 21 1013 56 10000 2.1 180 07:20 18.12.2020
4724 Clear 20 1013 60 10000 5.7 170 06:59 18.12.2020
4725 Clear 18 1013 68 10000 7.2 190 05:45 18.12.2020
4726 Clear 18 1013 68 10000 7.2 190 05:27 18.12.2020
4727 Clear 17 1013 63 10000 8.7 180 04:43 18.12.2020
4728 Clear 18 1013 59 10000 10.3 180 01:47 18.12.2020
4729 Clear 18 1013 59 10000 10.3 180 01:47 18.12.2020
4730 Clear 18 1013 59 10000 10.3 180 01:47 18.12.2020
4731 Clear 18 1013 59 10000 10.3 180 01:47 18.12.2020
4732 Clear 18 1013 59 10000 10.3 180 01:47 18.12.2020
4733 Clear 18 1013 55 10000 8.2 190 00:55 18.12.2020
4734 Clear 18 1014 63 10000 13.4 170 23:55 17.12.2020
4735 Clear 18 1014 63 10000 13.4 170 23:25 17.12.2020
4736 Clear 19 1014 56 10000 11.3 180 22:49 17.12.2020
4737 Clear 19 1014 56 10000 11.3 180 22:28 17.12.2020
4738 Clear 19 1014 63 10000 8.2 180 21:47 17.12.2020
4739 Clear 19 1014 63 10000 8.2 180 21:25 17.12.2020
4740 Clear 19 1014 63 10000 10.8 180 20:59 17.12.2020
4741 Clear 19 1014 63 10000 10.8 180 20:41 17.12.2020
4742 Clear 19 1014 63 10000 10.8 180 20:18 17.12.2020
4743 Clear 19 1013 60 10000 10.3 180 19:45 17.12.2020
4744 Clear 19 1013 60 10000 10.3 180 19:23 17.12.2020
4745 Clear 20 1012 60 10000 10.3 180 18:41 17.12.2020
4746 Clear 20 1012 60 10000 10.3 180 18:23 17.12.2020
4747 Clear 20 1012 60 10000 10.3 180 18:23 17.12.2020
4748 Clouds 21 1012 60 10000 11.8 180 17:53 17.12.2020
4749 Clouds 21 1012 60 10000 11.8 180 17:32 17.12.2020
4750 Clouds 22 1012 60 10000 10.8 180 16:46 17.12.2020
4751 Clouds 22 1012 60 10000 10.8 180 16:27 17.12.2020
4752 Clear 23 1013 57 10000 11.8 180 15:52 17.12.2020
4753 Clear 23 1013 57 10000 11.8 180 15:52 17.12.2020
4754 Clear 23 1013 57 10000 11.8 180 15:34 17.12.2020
4755 Clear 23 1014 57 10000 11.3 180 14:55 17.12.2020
4756 Clear 24 1014 57 10000 11.3 180 14:34 17.12.2020
4757 Clouds 24 1014 50 10000 9.8 190 13:58 17.12.2020
4758 Clouds 24 1014 50 10000 9.8 190 13:39 17.12.2020
4759 Clouds 23 1015 60 10000 10.3 180 12:49 17.12.2020
4760 Clouds 23 1015 60 10000 10.3 180 12:27 17.12.2020
4761 Clear 23 1015 50 10000 8.7 200 11:46 17.12.2020
4762 Clear 24 1015 50 10000 8.7 200 11:26 17.12.2020
4763 Clear 22 1016 60 10000 7.7 190 10:57 17.12.2020
4764 Clear 22 1016 60 10000 7.7 190 10:33 17.12.2020
4765 Clear 22 1015 56 10000 9.3 180 09:36 17.12.2020
4766 Clear 21 1015 60 10000 8.7 180 08:39 17.12.2020
4767 Clear 20 1016 64 10000 7.7 180 07:40 17.12.2020
4768 Clear 20 1016 64 10000 7.7 180 07:18 17.12.2020
4769 Clear 20 1016 68 10000 7.2 190 06:44 17.12.2020
4770 Clear 19 1016 68 10000 7.2 190 06:26 17.12.2020
4771 Clear 18 1016 82 10000 6.7 190 01:41 17.12.2020
4772 Clear 18 1017 77 10000 8.2 190 00:19 17.12.2020
4773 Clouds 18 1017 77 10000 7.2 190 23:38 16.12.2020
4774 Clear 18 1017 72 10000 7.2 180 23:18 16.12.2020
4775 Clear 19 1017 72 10000 7.2 180 22:47 16.12.2020
4776 Clear 18 1017 72 10000 7.2 180 22:27 16.12.2020
4777 Clear 18 1017 77 10000 9.3 190 21:41 16.12.2020
4778 Clear 18 1017 77 10000 9.3 190 21:21 16.12.2020
4779 Clouds 18 1017 77 10000 9.8 190 20:46 16.12.2020
4780 Clouds 18 1017 77 10000 9.8 190 20:20 16.12.2020
4781 Clouds 19 1016 72 10000 11.3 190 19:37 16.12.2020
4782 Clear 20 1015 68 10000 9.8 190 19:18 16.12.2020
4783 Clear 20 1015 68 10000 9.8 190 18:42 16.12.2020
4784 Clear 20 1015 68 10000 9.8 190 18:22 16.12.2020
4785 Clear 21 1015 64 10000 10.3 190 17:35 16.12.2020
4786 Clear 21 1015 60 10000 9.8 180 16:43 16.12.2020
4787 Clear 22 1015 60 10000 9.8 180 16:24 16.12.2020
4788 Clear 23 1015 53 10000 10.3 180 15:57 16.12.2020
4789 Clear 23 1015 53 10000 10.3 180 15:37 16.12.2020
4790 Clear 23 1015 53 10000 10.3 180 15:18 16.12.2020
4791 Clear 23 1016 56 10000 8.2 180 14:41 16.12.2020
4792 Clear 23 1016 56 10000 8.2 180 14:22 16.12.2020
4793 Clear 24 1016 53 10000 10.8 180 13:40 16.12.2020
4794 Clear 23 1016 53 10000 10.8 180 13:20 16.12.2020
4795 Clear 23 1016 56 10000 8.7 190 12:43 16.12.2020
4796 Clear 23 1017 56 10000 8.2 180 11:49 16.12.2020
4797 Clear 23 1017 56 10000 8.2 180 11:27 16.12.2020
4798 Clear 22 1017 56 10000 8.7 200 10:54 16.12.2020
4799 Clear 22 1017 56 10000 8.7 200 10:28 16.12.2020
4800 Clear 22 1016 56 10000 7.2 200 09:55 16.12.2020
4801 Clear 21 1016 56 10000 7.2 200 09:24 16.12.2020
4802 Clear 20 1016 60 10000 6.2 200 08:22 16.12.2020
4803 Clear 20 1015 68 10000 6.2 230 07:44 16.12.2020
4804 Clear 19 1015 68 10000 6.2 230 07:20 16.12.2020
4805 Clear 16 1015 72 10000 4.1 210 03:35 16.12.2020
4806 Clear 17 1016 67 10000 7.2 190 01:59 16.12.2020
4807 Clear 17 1018 72 10000 9.8 180 23:46 15.12.2020
4808 Clear 17 1018 72 10000 9.8 180 23:19 15.12.2020
4809 Clear 18 1018 72 10000 9.8 180 22:41 15.12.2020
4810 Clear 18 1018 68 10000 11.8 180 22:20 15.12.2020
4811 Clear 18 1018 68 10000 11.8 180 21:46 15.12.2020
4812 Clear 18 1018 68 10000 11.8 180 21:23 15.12.2020
4813 Clear 18 1018 63 10000 10.8 180 20:45 15.12.2020
4814 Clear 18 1018 63 10000 10.8 180 20:27 15.12.2020
4815 Clear 18 1018 63 10000 8.2 180 19:55 15.12.2020
4816 Clear 18 1018 63 10000 8.2 180 19:33 15.12.2020
4817 Clear 19 1018 59 10000 11.3 170 18:41 15.12.2020
4818 Clear 19 1018 59 10000 11.3 170 18:22 15.12.2020
4819 Clear 19 1018 59 10000 11.3 170 18:22 15.12.2020
4820 Clear 20 1018 56 10000 11.3 180 17:58 15.12.2020
4821 Clear 20 1018 56 10000 11.3 180 17:40 15.12.2020
4822 Clear 20 1018 56 10000 11.3 180 17:20 15.12.2020
4823 Clear 21 1018 52 10000 14.4 180 16:32 15.12.2020
4824 Clear 20 1018 52 10000 14.4 190 15:52 15.12.2020
4825 Clear 21 1018 52 10000 14.4 190 15:31 15.12.2020
4826 Clear 22 1017 49 10000 11.8 180 14:48 15.12.2020
4827 Clear 22 1017 49 10000 11.8 180 14:23 15.12.2020
4828 Clear 22 1017 46 10000 11.8 190 13:52 15.12.2020
4829 Clear 22 1017 46 10000 11.8 190 13:32 15.12.2020
4830 Clear 23 1017 46 10000 10.8 190 12:47 15.12.2020
4831 Clear 23 1017 46 10000 10.8 190 12:22 15.12.2020
4832 Clouds 22 1017 53 10000 10.3 180 11:56 15.12.2020
4833 Clouds 22 1017 53 10000 10.3 180 11:27 15.12.2020
4834 Clouds 22 1018 56 10000 10.8 180 10:57 15.12.2020
4835 Clouds 22 1018 56 10000 10.8 180 10:35 15.12.2020
4836 Clouds 22 1017 53 10000 7.7 190 09:53 15.12.2020
4837 Clouds 22 1017 53 10000 7.7 190 09:32 15.12.2020
4838 Clouds 22 1017 53 10000 7.7 190 09:32 15.12.2020
4839 Clouds 22 1017 56 10000 6.2 180 08:57 15.12.2020
4840 Clouds 22 1017 56 10000 6.2 180 08:29 15.12.2020
4841 Clouds 21 1016 60 10000 8.2 160 07:52 15.12.2020
4842 Clouds 20 1016 60 10000 8.2 160 07:28 15.12.2020
4843 Clear 19 1016 72 10000 5.7 160 06:37 15.12.2020
4844 Clear 17 1016 82 10000 6.7 180 04:20 15.12.2020
4845 Clouds 18 1016 77 10000 6.2 190 00:37 15.12.2020
4846 Clouds 17 1016 82 10000 5.1 180 23:28 14.12.2020
4847 Clouds 17 1016 88 10000 5.1 180 22:59 14.12.2020
4848 Clouds 17 1016 88 10000 5.1 180 22:38 14.12.2020
4849 Clouds 18 1016 82 10000 5.1 190 21:54 14.12.2020
4850 Clouds 18 1016 82 10000 5.1 190 21:35 14.12.2020
4851 Clouds 18 1015 77 10000 4.6 190 20:52 14.12.2020
4852 Clouds 18 1015 77 10000 4.6 190 20:33 14.12.2020
4853 Clouds 18 1015 77 10000 4.6 160 19:59 14.12.2020
4854 Clouds 18 1015 77 10000 4.6 160 19:30 14.12.2020
4855 Clouds 19 1015 68 10000 5.1 160 18:55 14.12.2020
4856 Clouds 19 1015 68 10000 5.1 160 18:55 14.12.2020
4857 Clouds 19 1015 68 10000 5.1 160 18:37 14.12.2020
4858 Clouds 19 1014 72 10000 5.7 180 17:53 14.12.2020
4859 Clouds 19 1014 72 10000 5.7 180 17:32 14.12.2020
4860 Clouds 20 1014 63 10000 6.7 180 16:53 14.12.2020
4861 Clouds 19 1014 63 10000 6.7 180 16:30 14.12.2020
4862 Rain 20 1014 64 10000 6.7 170 15:53 14.12.2020
4863 Rain 20 1014 64 10000 6.7 170 15:30 14.12.2020
4864 Clouds 21 1014 64 10000 5.1 320 14:45 14.12.2020
4865 Clouds 22 1014 64 10000 5.1 320 14:27 14.12.2020
4866 Clouds 22 1014 64 10000 7.7 310 13:47 14.12.2020
4867 Clouds 22 1014 64 10000 7.7 310 13:27 14.12.2020
4868 Clouds 23 1014 60 10000 7.2 310 12:54 14.12.2020
4869 Clouds 23 1014 60 10000 7.2 310 12:30 14.12.2020
4870 Clouds 22 1014 60 10000 6.2 310 11:37 14.12.2020
4871 Clouds 23 1014 65 10000 2.68 270 10:48 14.12.2020
4872 Clouds 21 1013 68 10000 7.2 310 10:27 14.12.2020
4873 Clouds 21 1013 68 10000 7.2 310 09:51 14.12.2020
4874 Clouds 20 1013 68 10000 4.6 340 08:52 14.12.2020
4875 Clouds 20 1013 68 10000 4.6 340 08:33 14.12.2020
4876 Clouds 20 1013 68 10000 4.6 330 07:52 14.12.2020
4877 Clouds 19 1013 68 10000 4.6 330 07:19 14.12.2020
4878 Clear 16 1013 87 10000 2.6 50 06:33 14.12.2020
4879 Clouds 14 1012 87 10000 2.6 50 03:55 14.12.2020
4880 Clear 14 1012 82 10000 0.5 0 00:57 14.12.2020
4881 Clear 14 1012 82 10000 0.5 0 00:39 14.12.2020
4882 Clear 14 1012 82 10000 0.5 0 00:20 14.12.2020
4883 Clear 14 1012 82 10000 1.5 150 23:44 13.12.2020
4884 Clear 16 1012 67 10000 1.5 0 22:57 13.12.2020
4885 Clear 17 1012 67 10000 1.5 0 22:39 13.12.2020
4886 Clear 17 1012 67 10000 1.5 0 22:18 13.12.2020
4887 Clear 16 1013 67 10000 1.5 150 21:41 13.12.2020
4888 Clear 18 1012 63 10000 1.5 0 20:55 13.12.2020
4889 Clear 18 1012 63 10000 1.5 0 20:25 13.12.2020
4890 Clear 19 1012 63 10000 2.6 20 19:47 13.12.2020
4891 Clear 20 1012 63 10000 2.6 20 19:24 13.12.2020
4892 Clear 20 1011 52 10000 4.1 330 18:54 13.12.2020
4893 Clear 21 1011 52 10000 4.1 330 18:36 13.12.2020
4894 Clear 22 1011 52 10000 4.1 330 18:18 13.12.2020
4895 Clear 21 1010 46 10000 4.1 10 17:44 13.12.2020
4896 Clear 22 1010 46 10000 4.1 10 17:18 13.12.2020
4897 Clear 23 1010 41 10000 5.1 340 16:46 13.12.2020
4898 Clear 23 1010 41 10000 5.1 340 16:28 13.12.2020
4899 Clear 24 1010 36 10000 6.7 320 15:45 13.12.2020
4900 Clear 24 1010 36 10000 6.7 320 15:26 13.12.2020
4901 Clear 25 1011 31 10000 6.7 320 14:47 13.12.2020
4902 Clear 25 1011 31 10000 6.7 320 14:28 13.12.2020
4903 Clear 25 1011 34 10000 6.7 320 13:48 13.12.2020
4904 Clear 24 1011 34 10000 6.7 320 13:30 13.12.2020
4905 Clear 24 1012 38 10000 5.7 320 12:56 13.12.2020
4906 Clear 24 1012 38 10000 5.7 320 12:24 13.12.2020
4907 Clear 24 1012 38 10000 6.2 310 11:58 13.12.2020
4908 Clear 23 1012 38 10000 6.2 310 11:32 13.12.2020
4909 Clear 23 1013 43 10000 6.2 320 10:45 13.12.2020
4910 Clear 22 1013 43 10000 6.2 320 10:21 13.12.2020
4911 Clear 22 1014 49 10000 5.1 320 09:39 13.12.2020
4912 Clear 22 1014 52 10000 4.1 330 08:48 13.12.2020
4913 Clear 22 1014 52 10000 4.1 330 08:30 13.12.2020
4914 Clear 19 1014 63 10000 3.6 350 07:20 13.12.2020
4915 Clear 15 1015 87 10000 2.1 330 03:24 13.12.2020
4916 Clear 15 1015 87 10000 2.6 340 02:32 13.12.2020
4917 Clear 16 1016 82 10000 2.1 300 01:36 13.12.2020
4918 Clear 17 1017 77 10000 3.1 0 00:44 13.12.2020
4919 Clear 18 1018 68 10000 5.1 210 23:40 12.12.2020
4920 Clear 18 1018 68 10000 5.1 210 23:40 12.12.2020
4921 Clear 18 1018 68 10000 5.1 210 23:20 12.12.2020
4922 Clear 18 1018 68 10000 5.1 210 22:36 12.12.2020
4923 Clear 18 1018 59 10000 4.6 200 21:47 12.12.2020
4924 Clear 18 1018 59 10000 4.6 200 21:20 12.12.2020
4925 Clear 18 1018 68 10000 6.2 190 20:46 12.12.2020
4926 Clear 18 1018 68 10000 6.2 190 20:21 12.12.2020
4927 Clear 18 1019 63 10000 7.7 190 19:54 12.12.2020
4928 Clear 18 1019 63 10000 7.7 190 19:34 12.12.2020
4929 Clear 20 1018 49 10000 8.2 190 18:58 12.12.2020
4930 Clear 20 1018 49 10000 8.2 190 18:38 12.12.2020
4931 Clear 20 1018 49 10000 8.2 190 18:20 12.12.2020
4932 Clear 20 1018 45 10000 8.2 180 17:41 12.12.2020
4933 Clear 21 1018 43 10000 9.3 180 16:52 12.12.2020
4934 Clouds 22 1018 43 10000 8.7 190 15:58 12.12.2020
4935 Clouds 22 1018 43 10000 8.7 190 15:40 12.12.2020
4936 Clouds 22 1018 46 10000 8.2 190 14:54 12.12.2020
4937 Clouds 22 1018 46 10000 8.2 190 14:54 12.12.2020
4938 Clouds 22 1018 46 10000 8.2 190 14:35 12.12.2020
4939 Clouds 23 1018 46 10000 7.7 180 13:47 12.12.2020
4940 Clouds 23 1018 46 10000 7.7 180 13:26 12.12.2020
4941 Clouds 22 1019 46 10000 7.2 180 12:43 12.12.2020
4942 Clouds 21 1019 49 10000 7.2 180 11:39 12.12.2020
4943 Clouds 21 1019 56 10000 6.2 170 10:51 12.12.2020
4944 Clouds 20 1019 63 10000 6.2 170 09:25 12.12.2020
4945 Rain 18 1020 82 10000 6.2 160 08:42 12.12.2020
4946 Clouds 15 1017 93 10000 1.5 270 02:28 12.12.2020
4947 Clouds 16 1018 87 10000 3.1 330 23:40 11.12.2020
4948 Clouds 16 1017 87 10000 2.6 30 22:21 11.12.2020
4949 Clouds 17 1016 87 10000 2.1 120 19:57 11.12.2020
4950 Clouds 19 1014 88 10000 2.1 50 17:39 11.12.2020
4951 Rain 19 1014 68 10000 5.1 300 14:40 11.12.2020
4952 Rain 20 1014 72 10000 7.2 290 13:57 11.12.2020
4953 Rain 21 1014 64 10000 8.2 300 12:49 11.12.2020
4954 Clouds 21 1014 64 10000 7.2 300 11:57 11.12.2020
4955 Clouds 21 1014 64 10000 7.2 300 11:38 11.12.2020
4956 Clouds 20 1014 68 10000 7.2 310 10:44 11.12.2020
4957 Clouds 20 1013 72 10000 5.7 330 08:43 11.12.2020
4958 Clouds 17 1013 88 10000 3.1 10 05:40 11.12.2020
4959 Clouds 16 1012 87 10000 2.1 30 04:49 11.12.2020
4960 Rain 16 1012 87 10000 2.6 320 01:32 11.12.2020
4961 Clouds 17 1013 87 10000 3.1 320 00:20 11.12.2020
4962 Clouds 17 1014 82 10000 2.1 20 22:27 10.12.2020
4963 Clouds 18 1013 68 10000 3.6 40 21:35 10.12.2020
4964 Clouds 18 1013 68 10000 3.6 40 20:39 10.12.2020
4965 Clouds 19 1012 68 10000 4.1 80 19:37 10.12.2020
4966 Clouds 20 1012 64 10000 4.1 80 18:53 10.12.2020
4967 Clouds 21 1011 56 10000 1.5 0 17:52 10.12.2020
4968 Clouds 23 1011 53 10000 3.1 210 16:25 10.12.2020
4969 Clouds 23 1011 60 10000 5.1 160 15:26 10.12.2020
4970 Clouds 24 1011 53 10000 4.6 180 14:50 10.12.2020
4971 Clouds 24 1011 53 10000 4.6 180 14:26 10.12.2020
4972 Clear 23 1013 63 10000 1.34 158 12:40 10.12.2020
4973 Clouds 23 1013 56 10000 3.6 180 11:33 10.12.2020
4974 Clouds 20 1013 68 10000 4.1 230 08:51 10.12.2020
4975 Clouds 20 1013 77 10000 4.1 220 07:45 10.12.2020
4976 Clouds 18 1012 88 10000 2.6 240 06:41 10.12.2020
4977 Clear 15 1012 88 10000 4.1 220 02:53 10.12.2020
4978 Clear 16 1012 88 10000 4.1 220 01:58 10.12.2020
4979 Clear 17 1014 82 10000 4.1 190 23:52 09.12.2020
4980 Clouds 18 1014 77 10000 6.7 180 20:59 09.12.2020
4981 Clouds 18 1014 77 10000 6.7 180 20:28 09.12.2020
4982 Clouds 19 1014 77 10000 6.2 190 19:21 09.12.2020
4983 Clouds 21 1013 60 10000 7.2 170 17:43 09.12.2020
4984 Clouds 22 1013 53 10000 7.2 160 16:41 09.12.2020
4985 Clouds 22 1013 53 10000 7.2 160 16:20 09.12.2020
4986 Clouds 22 1013 53 10000 7.2 160 16:20 09.12.2020
4987 Clouds 22 1013 53 10000 7.7 160 15:18 09.12.2020
4988 Clouds 24 1013 47 10000 7.2 180 14:27 09.12.2020
4989 Clouds 24 1013 47 10000 6.7 190 13:58 09.12.2020
4990 Clouds 23 1013 47 10000 6.7 190 13:19 09.12.2020
4991 Clouds 23 1013 50 10000 5.1 170 12:44 09.12.2020
4992 Clouds 23 1014 56 10000 5.1 160 11:49 09.12.2020
4993 Clouds 23 1014 56 10000 5.1 180 10:48 09.12.2020
4994 Clouds 22 1014 60 10000 3.6 160 08:49 09.12.2020
4995 Clouds 20 1014 72 10000 2.6 210 07:43 09.12.2020
4996 Clouds 18 1014 88 10000 2.6 220 05:48 09.12.2020
4997 Clouds 19 1013 82 10000 4.6 210 03:26 09.12.2020
4998 Clouds 19 1014 93 10000 1 0 01:49 09.12.2020
4999 Rain 19 1014 88 10000 1.5 0 23:43 08.12.2020
5000 Rain 19 1015 93 10000 2.1 250 22:52 08.12.2020
5001 Rain 19 1015 93 10000 2.6 210 21:22 08.12.2020
5002 Rain 20 1014 82 10000 3.6 180 19:33 08.12.2020
5003 Clouds 21 1013 77 10000 5.1 170 18:58 08.12.2020
5004 Clouds 22 1013 68 10000 5.7 200 17:33 08.12.2020
5005 Clouds 22 1012 53 10000 6.7 330 15:44 08.12.2020
5006 Clouds 23 1012 53 10000 6.2 310 14:26 08.12.2020
5007 Clouds 22 1014 60 10000 5.7 320 13:24 08.12.2020
5008 Clouds 21 1015 77 10000 6.7 320 12:26 08.12.2020
5009 Clouds 21 1015 77 10000 6.7 320 11:42 08.12.2020
5010 Clouds 19 1015 82 10000 6.7 330 10:45 08.12.2020
5011 Clouds 19 1015 93 10000 5.7 320 09:50 08.12.2020
5012 Clouds 19 1015 93 10000 4.1 320 08:28 08.12.2020
5013 Rain 17 1015 93 3500 3.1 330 06:36 08.12.2020
5014 Rain 18 1012 93 600 4.6 190 03:34 08.12.2020
5015 Clouds 17 1013 88 10000 5.1 200 00:47 08.12.2020
5016 Clear 19 1013 82 10000 4.6 220 23:52 07.12.2020
5017 Clear 19 1013 77 10000 4.6 220 22:38 07.12.2020
5018 Clear 18 1013 77 10000 3.6 190 21:51 07.12.2020
5019 Clear 19 1013 72 10000 4.6 150 19:55 07.12.2020
5020 Clouds 21 1013 64 10000 6.7 150 18:42 07.12.2020
5021 Clouds 23 1013 60 10000 7.7 150 17:26 07.12.2020
5022 Clouds 23 1013 60 10000 6.7 140 16:54 07.12.2020
5023 Clouds 23 1014 64 10000 5.1 100 15:26 07.12.2020
5024 Clouds 22 1014 64 10000 5.1 100 14:48 07.12.2020
5025 Clouds 21 1014 64 10000 5.1 100 14:18 07.12.2020
5026 Clouds 20 1014 64 10000 5.7 300 13:21 07.12.2020
5027 Clouds 21 1015 60 10000 6.2 310 11:44 07.12.2020
5028 Clouds 21 1015 60 10000 6.2 310 11:19 07.12.2020
5029 Clouds 20 1015 68 10000 6.2 310 09:42 07.12.2020
5030 Clouds 20 1015 72 10000 5.7 310 08:26 07.12.2020
5031 Clouds 17 1014 93 10000 5.1 330 06:36 07.12.2020
5032 Clouds 16 1013 93 10000 5.7 320 04:48 07.12.2020
5033 Clear 19 1011 72 10000 4.1 170 01:55 07.12.2020
5034 Clear 19 1012 72 10000 4.1 170 00:27 07.12.2020
5035 Clouds 20 1012 68 10000 4.6 140 22:25 06.12.2020
5036 Clouds 21 1011 60 10000 7.7 120 20:58 06.12.2020
5037 Clouds 21 1011 60 10000 7.7 120 20:34 06.12.2020
5038 Clouds 21 1010 56 10000 7.2 130 19:55 06.12.2020
5039 Clear 24 1009 50 10000 8.7 130 18:40 06.12.2020
5040 Clear 25 1009 51 10000 6.2 280 16:56 06.12.2020
5041 Clear 24 1010 44 10000 4.6 240 15:21 06.12.2020
5042 Clear 24 1011 47 10000 4.6 220 13:49 06.12.2020
5043 Clear 24 1011 50 10000 5.1 320 12:52 06.12.2020
5044 Clear 23 1011 50 10000 5.1 320 12:18 06.12.2020
5045 Clear 22 1011 49 10000 6.7 320 11:34 06.12.2020
5046 Clear 27 1011 39 10000 1.5 0 10:55 06.12.2020
5047 Clear 26 1011 39 10000 1.5 0 10:24 06.12.2020
5048 Clear 22 1011 49 10000 2.1 0 08:37 06.12.2020
5049 Clear 20 1011 63 10000 2.1 0 06:50 06.12.2020
5050 Clear 18 1010 72 10000 7.2 160 01:50 06.12.2020
5051 Clear 19 1010 68 10000 6.7 150 00:42 06.12.2020
5052 Clear 19 1010 68 10000 6.7 150 00:42 06.12.2020
5053 Clear 19 1010 68 10000 6.7 150 00:23 06.12.2020
5054 Clear 19 1011 68 10000 6.2 160 22:47 05.12.2020
5055 Clear 19 1011 68 10000 6.2 160 22:20 05.12.2020
5056 Clear 20 1011 64 10000 6.2 160 21:50 05.12.2020
5057 Clear 20 1011 64 10000 6.2 160 21:26 05.12.2020
5058 Clear 21 1010 53 10000 6.2 150 19:48 05.12.2020
5059 Clear 21 1010 53 10000 5.7 210 18:41 05.12.2020
5060 Clear 23 1010 47 10000 7.7 210 17:34 05.12.2020
5061 Clear 24 1010 44 10000 7.7 200 16:33 05.12.2020
5062 Clear 25 1011 42 10000 7.2 190 15:57 05.12.2020
5063 Clear 26 1011 37 10000 6.7 210 14:28 05.12.2020
5064 Clear 27 1012 36 10000 6.7 190 12:24 05.12.2020
5065 Clear 26 1013 39 10000 6.7 190 11:47 05.12.2020
5066 Clear 25 1013 41 10000 9.3 160 10:31 05.12.2020
5067 Clear 21 1013 49 10000 2.6 200 07:49 05.12.2020
5068 Clear 20 1013 49 10000 2.6 200 07:25 05.12.2020
5069 Clear 16 1013 67 10000 2.6 210 04:44 05.12.2020
5070 Clear 18 1015 59 10000 4.6 150 23:56 04.12.2020
5071 Clear 18 1016 59 10000 5.1 160 22:32 04.12.2020
5072 Clear 19 1016 59 10000 8.7 150 20:26 04.12.2020
5073 Clear 20 1016 49 10000 7.7 150 18:53 04.12.2020
5074 Clear 22 1016 41 10000 8.7 150 18:20 04.12.2020
5075 Clear 23 1016 41 10000 8.7 150 17:40 04.12.2020
5076 Clear 25 1016 36 10000 8.2 160 15:50 04.12.2020
5077 Clear 25 1017 39 10000 7.7 160 13:58 04.12.2020
5078 Clear 25 1017 39 10000 7.7 160 13:31 04.12.2020
5079 Clouds 26 1018 39 10000 6.7 170 12:54 04.12.2020
5080 Clouds 25 1018 41 10000 6.7 150 11:33 04.12.2020
5081 Clouds 24 1019 44 10000 6.2 150 10:28 04.12.2020
5082 Clouds 20 1018 55 10000 7.7 150 07:43 04.12.2020
5083 Clouds 18 1018 63 10000 11.3 150 06:39 04.12.2020
5084 Clouds 16 1017 67 10000 14.9 160 04:38 04.12.2020
5085 Clear 17 1019 72 10000 11.8 160 23:49 03.12.2020
5086 Clear 17 1019 77 10000 9.8 170 22:45 03.12.2020
5087 Clear 17 1018 77 10000 10.8 170 20:59 03.12.2020
5088 Clear 17 1018 82 10000 11.8 180 19:49 03.12.2020
5089 Clear 18 1018 82 10000 11.8 180 19:20 03.12.2020
5090 Clear 19 1018 68 10000 11.8 180 18:39 03.12.2020
5091 Clear 20 1018 64 10000 12.3 180 17:20 03.12.2020
5092 Clear 21 1017 56 10000 12.9 180 15:59 03.12.2020
5093 Clear 22 1017 56 10000 12.9 180 15:31 03.12.2020
5094 Clear 21 1017 56 10000 12.9 180 14:48 03.12.2020
5095 Clear 22 1017 49 10000 14.4 180 13:50 03.12.2020
5096 Clear 22 1017 49 10000 12.3 180 12:33 03.12.2020
5097 Clear 22 1018 52 10000 10.8 190 11:55 03.12.2020
5098 Clear 22 1018 49 10000 13.4 190 10:38 03.12.2020
5099 Clear 20 1018 49 10000 9.3 180 08:38 03.12.2020
5100 Clear 15 1016 71 10000 6.2 170 03:42 03.12.2020
5101 Clear 15 1017 62 10000 7.7 170 01:41 03.12.2020
5102 Clear 16 1018 59 10000 9.8 160 23:51 02.12.2020
5103 Clear 16 1018 63 10000 8.2 160 22:45 02.12.2020
5104 Clear 16 1018 59 10000 9.8 170 21:43 02.12.2020
5105 Clear 16 1018 67 10000 9.3 160 20:49 02.12.2020
5106 Clear 16 1018 67 10000 9.3 160 20:31 02.12.2020
5107 Clouds 17 1018 63 10000 10.8 180 19:40 02.12.2020
5108 Clouds 18 1017 59 10000 13.9 170 17:49 02.12.2020
5109 Clouds 19 1017 59 10000 13.9 170 17:31 02.12.2020
5110 Clear 20 1017 49 10000 14.9 170 15:46 02.12.2020
5111 Clear 21 1018 46 10000 12.3 170 13:41 02.12.2020
5112 Clear 22 1019 37 10000 7.7 160 11:33 02.12.2020
5113 Clear 21 1019 37 10000 8.7 160 10:25 02.12.2020
5114 Clear 18 1020 51 10000 10.3 160 07:48 02.12.2020
5115 Clouds 16 1022 63 10000 8.7 160 23:40 01.12.2020
5116 Clouds 16 1022 67 10000 6.7 170 22:20 01.12.2020
5117 Clouds 16 1022 67 10000 6.7 170 22:20 01.12.2020
5118 Clouds 17 1020 51 10000 8.2 170 19:43 01.12.2020
5119 Clouds 17 1020 51 10000 8.2 170 18:56 01.12.2020
5120 Clouds 19 1020 55 10000 8.7 180 17:26 01.12.2020
5121 Clouds 19 1019 63 10000 8.2 200 14:53 01.12.2020
5122 Clouds 20 1019 52 10000 7.2 230 12:48 01.12.2020
5123 Clouds 20 1019 52 10000 5.1 220 11:41 01.12.2020
5124 Rain 20 1019 55 10000 3.6 220 10:54 01.12.2020
5125 Clouds 19 1019 55 10000 3.6 220 10:31 01.12.2020
5126 Clouds 17 1019 67 10000 2.6 350 07:47 01.12.2020
5127 Rain 16 1018 67 10000 1 0 06:26 01.12.2020
5128 Clouds 16 1016 55 10000 3.1 250 01:36 01.12.2020
5129 Clouds 16 1017 55 10000 3.6 250 00:50 01.12.2020
5130 Clouds 16 1017 72 10000 2.6 270 23:20 30.11.2020
5131 Clouds 16 1017 82 10000 3.1 330 22:42 30.11.2020
5132 Clouds 16 1017 82 10000 3.1 330 22:22 30.11.2020
5133 Clouds 17 1016 77 10000 4.1 300 20:47 30.11.2020
5134 Clouds 17 1016 77 10000 3.1 300 19:41 30.11.2020
5135 Drizzle 18 1015 72 10000 5.1 310 18:22 30.11.2020
5136 Clouds 18 1015 63 10000 5.7 300 17:46 30.11.2020
5137 Clouds 19 1015 59 10000 7.7 300 16:53 30.11.2020
5138 Clouds 19 1015 52 10000 7.2 310 15:45 30.11.2020
5139 Clouds 22 1015 40 10000 6.7 220 13:55 30.11.2020
5140 Clouds 22 1015 40 10000 6.7 220 13:22 30.11.2020
5141 Clouds 21 1016 43 10000 4.1 180 12:26 30.11.2020
5142 Clouds 20 1016 45 10000 4.1 210 11:56 30.11.2020
5143 Clouds 20 1016 52 10000 4.6 180 10:25 30.11.2020
5144 Clouds 19 1016 52 10000 3.6 190 09:33 30.11.2020
5145 Clouds 15 1014 67 10000 4.6 210 04:27 30.11.2020
5146 Clouds 16 1014 82 10000 6.7 200 23:28 29.11.2020
5147 Clear 17 1015 77 10000 7.7 200 21:46 29.11.2020
5148 Clear 17 1015 77 10000 7.7 200 21:26 29.11.2020
5149 Clear 18 1015 77 10000 8.7 190 19:20 29.11.2020
5150 Clear 20 1014 63 10000 10.3 190 17:43 29.11.2020
5151 Clear 22 1016 52 10000 9.3 180 14:49 29.11.2020
5152 Clear 23 1017 52 10000 8.7 190 12:46 29.11.2020
5153 Clear 22 1017 52 10000 8.7 190 11:37 29.11.2020
5154 Clear 21 1018 59 10000 9.3 180 08:55 29.11.2020
5155 Clear 21 1018 59 10000 9.3 180 08:36 29.11.2020
5156 Clear 16 1018 72 10000 6.7 180 03:30 29.11.2020
5157 Clear 17 1019 72 10000 9.8 180 23:18 28.11.2020
5158 Clouds 17 1019 72 10000 9.8 180 22:50 28.11.2020
5159 Clouds 18 1019 77 10000 9.8 170 20:27 28.11.2020
5160 Clouds 18 1019 82 10000 9.8 180 19:29 28.11.2020
5161 Clouds 19 1018 68 10000 11.3 180 18:58 28.11.2020
5162 Clouds 19 1018 68 10000 11.3 180 18:22 28.11.2020
5163 Clouds 20 1017 63 10000 11.3 170 17:33 28.11.2020
5164 Clouds 21 1017 52 10000 12.9 180 15:56 28.11.2020
5165 Clouds 22 1017 53 10000 13.4 180 13:58 28.11.2020
5166 Clouds 22 1017 60 10000 13.4 170 11:29 28.11.2020
5167 Clouds 22 1016 53 10000 9.8 180 09:37 28.11.2020
5168 Clear 17 1013 63 10000 10.8 160 03:49 28.11.2020
5169 Clear 17 1013 67 10000 9.3 150 02:22 28.11.2020
5170 Clear 18 1012 63 10000 6.2 150 23:23 27.11.2020
5171 Clear 18 1012 59 10000 5.7 160 22:54 27.11.2020
5172 Clear 20 1012 56 10000 6.2 160 20:55 27.11.2020
5173 Clear 20 1012 56 10000 6.2 160 20:28 27.11.2020
5174 Clear 21 1012 43 10000 6.2 140 19:22 27.11.2020
5175 Clear 24 1013 39 10000 7.7 170 16:59 27.11.2020
5176 Clear 25 1014 34 10000 7.2 200 14:45 27.11.2020
5177 Clear 26 1015 34 10000 6.2 200 13:24 27.11.2020
5178 Clear 26 1015 31 10000 6.7 180 12:47 27.11.2020
5179 Clear 26 1015 29 10000 4.1 170 11:35 27.11.2020
5180 Clear 24 1016 29 10000 3.1 0 10:50 27.11.2020
5181 Clear 23 1016 33 10000 2.6 190 09:53 27.11.2020
5182 Clouds 16 1019 71 10000 1.79 248 05:47 27.11.2020
5183 Clouds 17 1022 75 10000 1.79 270 22:27 26.11.2020
5184 Clouds 16 1022 75 10000 1.34 180 21:56 26.11.2020
5185 Clouds 17 1019 59 10000 10.8 160 20:52 26.11.2020
5186 Clouds 18 1019 59 10000 10.3 170 18:41 26.11.2020
5187 Clouds 19 1019 55 10000 11.3 180 17:50 26.11.2020
5188 Clouds 20 1020 56 10000 10.8 180 14:49 26.11.2020
5189 Clouds 21 1020 56 10000 10.3 180 13:20 26.11.2020
5190 Clouds 21 1020 52 10000 8.7 200 12:42 26.11.2020
5191 Clouds 21 1021 45 10000 7.2 180 11:35 26.11.2020
5192 Clouds 20 1021 49 10000 5.7 160 10:27 26.11.2020
5193 Clouds 19 1021 55 10000 6.7 170 09:41 26.11.2020
5194 Clouds 18 1021 55 10000 6.7 170 09:21 26.11.2020
5195 Rain 18 1021 63 10000 6.2 190 08:38 26.11.2020
5196 Clouds 15 1019 71 10000 1.5 0 02:19 26.11.2020
5197 Clouds 15 1021 58 10000 3.6 190 22:42 25.11.2020
5198 Clouds 15 1020 58 10000 3.6 210 20:42 25.11.2020
5199 Clouds 15 1020 54 10000 5.1 200 19:44 25.11.2020
5200 Clouds 17 1020 51 10000 6.2 220 18:27 25.11.2020
5201 Clouds 18 1019 48 10000 5.1 210 16:34 25.11.2020
5202 Clouds 18 1020 45 10000 3.6 250 15:36 25.11.2020
5203 Clouds 19 1020 45 10000 2.1 290 13:56 25.11.2020
5204 Clouds 19 1020 45 10000 2.1 290 13:37 25.11.2020
5205 Clouds 18 1021 48 10000 4.1 310 11:44 25.11.2020
5206 Clouds 18 1022 67 10000 2.6 250 11:18 25.11.2020
5207 Clouds 16 1022 51 10000 2.6 250 09:18 25.11.2020
5208 Clouds 16 1022 58 10000 4.6 220 08:41 25.11.2020
5209 Clouds 13 1020 58 10000 1.5 0 03:59 25.11.2020
5210 Clouds 14 1020 58 10000 2.1 270 01:53 25.11.2020
5211 Clouds 14 1020 58 10000 2.6 270 00:23 25.11.2020
5212 Clouds 14 1020 58 10000 2.1 270 23:37 24.11.2020
5213 Clouds 14 1020 58 10000 2.1 270 23:37 24.11.2020
5214 Clouds 14 1020 62 10000 2.6 240 22:58 24.11.2020
5215 Clouds 14 1020 62 10000 3.1 250 21:51 24.11.2020
5216 Clouds 14 1020 62 10000 3.1 250 21:29 24.11.2020
5217 Clouds 15 1019 58 10000 3.1 230 20:40 24.11.2020
5218 Clouds 16 1018 58 10000 5.7 220 18:40 24.11.2020
5219 Clouds 16 1017 51 10000 6.2 250 17:30 24.11.2020
5220 Clouds 16 1016 63 10000 5.7 230 16:50 24.11.2020
5221 Clouds 17 1016 63 10000 5.7 230 16:31 24.11.2020
5222 Clouds 18 1016 63 10000 5.1 240 15:54 24.11.2020
5223 Clouds 18 1016 63 10000 5.1 240 15:18 24.11.2020
5224 Clouds 17 1016 63 10000 5.7 240 14:34 24.11.2020
5225 Clouds 17 1015 87 10000 4.1 280 12:50 24.11.2020
5226 Clouds 17 1015 87 10000 4.1 280 12:22 24.11.2020
5227 Rain 16 1015 93 4000 8.7 310 11:39 24.11.2020
5228 Rain 17 1014 72 4000 10.3 320 10:41 24.11.2020
5229 Rain 17 1014 72 10000 11.3 330 10:22 24.11.2020
5230 Rain 17 1014 72 10000 9.3 310 09:35 24.11.2020
5231 Clouds 17 1014 72 10000 7.2 320 07:58 24.11.2020
5232 Clouds 15 1013 87 10000 5.1 360 04:21 24.11.2020
5233 Rain 15 1013 87 10000 6.2 320 22:35 23.11.2020
5234 Rain 16 1013 72 10000 5.1 330 21:37 23.11.2020
5235 Clouds 16 1013 72 10000 5.7 340 20:56 23.11.2020
5236 Clouds 17 1013 72 10000 5.7 340 20:28 23.11.2020
5237 Clouds 17 1013 67 10000 6.2 320 19:32 23.11.2020
5238 Clouds 18 1012 59 10000 6.7 300 17:27 23.11.2020
5239 Clouds 18 1011 55 10000 7.7 310 16:37 23.11.2020
5240 Clouds 18 1012 52 10000 7.7 300 14:49 23.11.2020
5241 Clouds 19 1012 48 10000 9.3 290 13:43 23.11.2020
5242 Clouds 19 1012 55 10000 7.2 310 12:38 23.11.2020
5243 Clouds 19 1013 52 10000 6.7 300 11:50 23.11.2020
5244 Clouds 19 1013 52 10000 6.7 300 11:30 23.11.2020
5245 Clouds 20 1013 55 10000 5.7 310 09:46 23.11.2020
5246 Clouds 19 1013 55 10000 4.6 330 08:51 23.11.2020
5247 Clouds 17 1013 67 10000 3.1 310 07:40 23.11.2020
5248 Clouds 15 1011 82 10000 2.1 240 02:39 23.11.2020
5249 Clouds 17 1013 82 10000 4.6 210 23:43 22.11.2020
5250 Clouds 17 1014 77 10000 5.7 200 22:22 22.11.2020
5251 Clouds 17 1013 77 10000 6.7 200 21:24 22.11.2020
5252 Clouds 17 1013 77 10000 6.7 200 20:19 22.11.2020
5253 Clouds 18 1012 72 10000 9.3 190 18:59 22.11.2020
5254 Clouds 18 1012 72 10000 9.3 190 18:19 22.11.2020
5255 Clouds 20 1012 60 10000 9.3 190 16:25 22.11.2020
5256 Clouds 20 1013 52 10000 8.2 180 14:58 22.11.2020
5257 Clouds 21 1014 52 10000 8.2 180 13:23 22.11.2020
5258 Clouds 21 1014 52 10000 7.7 190 12:42 22.11.2020
5259 Clouds 21 1015 56 10000 6.7 180 11:39 22.11.2020
5260 Clouds 21 1015 60 10000 6.2 170 10:50 22.11.2020
5261 Clouds 19 1015 60 10000 6.2 170 10:32 22.11.2020
5262 Clouds 15 1013 72 10000 3.1 210 04:39 22.11.2020
5263 Clouds 17 1013 82 10000 1.5 0 23:56 21.11.2020
5264 Rain 17 1014 72 10000 2.6 200 22:41 21.11.2020
5265 Clouds 17 1013 72 10000 4.6 210 21:31 21.11.2020
5266 Clouds 17 1013 72 10000 4.1 200 20:49 21.11.2020
5267 Clouds 17 1013 72 10000 4.1 200 20:20 21.11.2020
5268 Clouds 18 1012 68 10000 5.1 220 19:49 21.11.2020
5269 Clouds 19 1012 68 10000 5.1 220 19:18 21.11.2020
5270 Clouds 20 1010 64 10000 4.6 200 17:32 21.11.2020
5271 Clouds 20 1010 60 10000 6.7 200 16:45 21.11.2020
5272 Clouds 21 1010 53 10000 7.2 200 15:42 21.11.2020
5273 Clouds 21 1010 53 10000 7.2 200 15:20 21.11.2020
5274 Clouds 22 1009 53 10000 7.2 180 14:42 21.11.2020
5275 Clouds 23 1009 56 10000 4.1 170 12:59 21.11.2020
5276 Clouds 23 1009 56 10000 4.1 170 12:23 21.11.2020
5277 Clouds 23 1010 60 10000 4.6 170 11:49 21.11.2020
5278 Clouds 22 1010 60 10000 3.6 180 10:28 21.11.2020
5279 Clear 21 1010 64 10000 1.5 0 09:19 21.11.2020
5280 Clouds 20 1010 82 10000 5.7 330 08:44 21.11.2020
5281 Clear 16 1007 77 10000 7.2 340 05:42 21.11.2020
5282 Clear 14 1006 87 10000 2.1 360 03:28 21.11.2020
5283 Clear 18 1008 87 10000 0.5 0 00:22 21.11.2020
5284 Clear 18 1009 77 10000 1 0 23:19 20.11.2020
5285 Clear 20 1010 72 10000 2.1 210 21:46 20.11.2020
5286 Clear 20 1010 72 10000 2.1 210 21:22 20.11.2020
5287 Clear 20 1010 72 10000 3.1 190 20:41 20.11.2020
5288 Clear 21 1010 68 10000 4.1 200 19:28 20.11.2020
5289 Clear 23 1009 60 10000 5.7 210 18:27 20.11.2020
5290 Clear 26 1009 44 10000 4.6 210 17:32 20.11.2020
5291 Clear 28 1009 34 10000 5.1 200 16:48 20.11.2020
5292 Clear 29 1009 34 10000 5.1 200 16:27 20.11.2020
5293 Clear 30 1010 28 10000 5.7 200 15:42 20.11.2020
5294 Clear 30 1011 32 10000 5.1 220 13:57 20.11.2020
5295 Clear 30 1011 32 10000 5.1 220 13:20 20.11.2020
5296 Clear 30 1012 23 10000 4.1 180 12:51 20.11.2020
5297 Clear 29 1012 30 10000 3.6 160 11:55 20.11.2020
5298 Clear 28 1012 30 10000 3.6 160 11:26 20.11.2020
5299 Clear 26 1013 41 10000 3.1 200 09:53 20.11.2020
5300 Clear 23 1014 46 10000 2.1 200 08:30 20.11.2020
5301 Clear 21 1014 52 10000 1.5 0 07:51 20.11.2020
5302 Clear 17 1013 67 10000 3.1 220 05:19 20.11.2020
5303 Clear 17 1015 63 10000 3.1 220 00:21 20.11.2020
5304 Clear 18 1016 67 10000 4.6 130 22:30 19.11.2020
5305 Clear 18 1017 59 10000 4.6 140 21:53 19.11.2020
5306 Clear 19 1017 59 10000 6.2 150 20:58 19.11.2020
5307 Clear 19 1017 59 10000 6.2 150 20:20 19.11.2020
5308 Clear 19 1016 56 10000 11.3 160 19:27 19.11.2020
5309 Clear 20 1016 56 10000 9.3 170 18:54 19.11.2020
5310 Clear 22 1016 46 10000 9.3 170 17:35 19.11.2020
5311 Clear 24 1016 47 10000 9.8 170 16:33 19.11.2020
5312 Clear 24 1016 41 10000 10.3 170 15:31 19.11.2020
5313 Clear 24 1017 47 10000 10.8 180 13:55 19.11.2020
5314 Clear 24 1017 47 10000 10.8 180 13:36 19.11.2020
5315 Clear 24 1017 47 10000 10.8 190 12:54 19.11.2020
5316 Clear 24 1017 47 10000 10.8 190 12:33 19.11.2020
5317 Clear 25 1018 38 10000 7.2 160 11:41 19.11.2020
5318 Clear 25 1018 38 10000 7.2 160 11:22 19.11.2020
5319 Clear 24 1018 41 10000 4.6 160 10:44 19.11.2020
5320 Clear 23 1018 40 10000 3.6 150 09:48 19.11.2020
5321 Clear 23 1018 40 10000 3.6 150 09:28 19.11.2020
5322 Clear 22 1018 43 10000 3.6 170 08:44 19.11.2020
5323 Clear 20 1018 59 10000 5.7 140 07:36 19.11.2020
5324 Clouds 17 1017 63 10000 10.3 160 01:48 19.11.2020
5325 Clouds 17 1017 63 10000 10.8 160 00:33 19.11.2020
5326 Clouds 17 1018 63 10000 10.3 160 23:32 18.11.2020
5327 Clouds 17 1017 67 10000 11.8 160 22:59 18.11.2020
5328 Clouds 17 1017 67 10000 11.8 160 22:29 18.11.2020
5329 Clouds 18 1017 63 10000 11.8 160 21:44 18.11.2020
5330 Clouds 18 1017 63 10000 11.8 160 21:25 18.11.2020
5331 Clouds 18 1017 63 10000 10.8 160 20:37 18.11.2020
5332 Clouds 18 1016 59 10000 11.3 160 19:43 18.11.2020
5333 Clouds 18 1016 59 10000 11.3 160 19:22 18.11.2020
5334 Clouds 19 1016 60 10000 8.7 150 18:45 18.11.2020
5335 Clouds 20 1016 56 10000 9.8 160 17:44 18.11.2020
5336 Clouds 20 1015 56 10000 11.3 150 16:52 18.11.2020
5337 Clouds 21 1015 56 10000 11.3 150 16:18 18.11.2020
5338 Clouds 21 1015 53 10000 10.8 160 14:42 18.11.2020
5339 Clouds 21 1015 53 10000 10.8 160 14:19 18.11.2020
5340 Clouds 21 1016 53 10000 11.8 160 13:22 18.11.2020
5341 Clouds 21 1016 56 10000 11.3 160 12:43 18.11.2020
5342 Clouds 21 1017 56 10000 10.8 170 11:56 18.11.2020
5343 Clouds 21 1017 60 10000 9.8 170 10:57 18.11.2020
5344 Clouds 20 1017 60 10000 9.8 170 10:30 18.11.2020
5345 Clouds 20 1016 64 10000 9.8 170 08:41 18.11.2020
5346 Clouds 19 1016 63 10000 9.3 180 07:28 18.11.2020
5347 Clouds 17 1015 67 10000 8.7 190 04:34 18.11.2020
5348 Clouds 17 1015 67 10000 6.7 150 00:20 18.11.2020
5349 Clouds 17 1015 67 10000 7.2 140 23:24 17.11.2020
5350 Clouds 17 1015 72 10000 7.2 160 22:44 17.11.2020
5351 Clouds 17 1015 72 10000 7.2 160 22:25 17.11.2020
5352 Clouds 17 1015 77 10000 6.2 170 21:46 17.11.2020
5353 Clouds 17 1015 77 10000 6.2 170 21:22 17.11.2020
5354 Clouds 18 1015 77 10000 7.2 170 20:43 17.11.2020
5355 Clouds 18 1015 77 10000 7.2 170 20:22 17.11.2020
5356 Clouds 18 1014 82 10000 8.2 170 19:24 17.11.2020
5357 Clouds 19 1013 77 10000 9.8 170 18:23 17.11.2020
5358 Clouds 20 1013 68 10000 9.8 180 17:27 17.11.2020
5359 Clouds 20 1012 64 10000 9.8 180 16:33 17.11.2020
5360 Clouds 21 1012 60 10000 9.8 180 15:54 17.11.2020
5361 Clouds 21 1012 60 10000 9.8 180 15:35 17.11.2020
5362 Clouds 21 1012 56 10000 8.2 180 14:58 17.11.2020
5363 Clouds 22 1012 56 10000 8.2 180 14:29 17.11.2020
5364 Clouds 22 1012 53 10000 8.2 180 13:45 17.11.2020
5365 Clouds 22 1012 53 10000 8.2 180 13:20 17.11.2020
5366 Clouds 23 1013 50 10000 6.7 180 12:41 17.11.2020
5367 Clouds 23 1013 53 10000 7.7 200 11:44 17.11.2020
5368 Clouds 23 1013 53 10000 6.7 190 10:56 17.11.2020
5369 Clouds 23 1013 53 10000 6.7 190 10:36 17.11.2020
5370 Clouds 22 1013 60 10000 8.2 220 09:51 17.11.2020
5371 Clouds 21 1013 60 10000 8.2 220 09:29 17.11.2020
5372 Clouds 21 1013 60 10000 3.6 210 08:25 17.11.2020
5373 Clouds 20 1012 64 10000 2.6 190 07:49 17.11.2020
5374 Clouds 19 1012 68 10000 3.1 220 06:59 17.11.2020
5375 Clouds 16 1011 77 10000 3.1 230 04:20 17.11.2020
5376 Clouds 17 1011 77 10000 5.7 180 02:55 17.11.2020
5377 Clear 17 1012 72 10000 5.1 170 01:31 17.11.2020
5378 Clouds 17 1012 72 10000 6.7 180 00:56 17.11.2020
5379 Clouds 17 1013 72 10000 6.2 170 23:51 16.11.2020
5380 Clouds 17 1013 72 10000 6.2 170 23:29 16.11.2020
5381 Clouds 17 1013 68 10000 8.7 170 22:48 16.11.2020
5382 Clouds 18 1013 68 10000 8.7 170 22:21 16.11.2020
5383 Clouds 18 1013 68 10000 8.7 180 21:48 16.11.2020
5384 Clouds 18 1013 68 10000 8.7 180 21:25 16.11.2020
5385 Clouds 18 1013 68 10000 7.7 190 20:58 16.11.2020
5386 Clouds 18 1013 68 10000 7.7 190 20:25 16.11.2020
5387 Clouds 18 1013 68 10000 7.7 190 19:42 16.11.2020
5388 Clouds 18 1013 68 10000 7.7 190 19:24 16.11.2020
5389 Clouds 18 1013 68 10000 8.7 190 18:42 16.11.2020
5390 Clouds 19 1013 63 10000 9.8 180 17:54 16.11.2020
5391 Clouds 19 1013 63 10000 9.8 180 17:25 16.11.2020
5392 Clear 20 1013 60 10000 11.3 190 16:57 16.11.2020
5393 Clear 20 1013 60 10000 11.3 190 16:38 16.11.2020
5394 Clear 20 1013 60 10000 11.3 190 16:18 16.11.2020
5395 Clear 20 1013 56 10000 10.8 200 15:41 16.11.2020
5396 Clear 21 1013 56 10000 10.8 200 15:21 16.11.2020
5397 Clear 21 1013 52 10000 10.8 190 14:39 16.11.2020
5398 Clear 22 1014 49 10000 9.3 190 13:35 16.11.2020
5399 Clear 21 1014 52 10000 7.7 200 12:34 16.11.2020
5400 Clear 21 1014 49 10000 6.2 200 11:55 16.11.2020
5401 Clear 21 1014 49 10000 6.2 200 11:37 16.11.2020
5402 Clear 21 1014 49 10000 4.6 200 11:18 16.11.2020
5403 Clear 21 1014 49 10000 4.6 200 10:40 16.11.2020
5404 Clear 21 1014 49 10000 4.6 200 10:22 16.11.2020
5405 Clear 20 1014 52 10000 4.1 150 09:41 16.11.2020
5406 Clear 20 1015 52 10000 6.2 180 08:59 16.11.2020
5407 Clear 20 1015 52 10000 6.2 180 08:38 16.11.2020
5408 Clear 18 1014 59 10000 5.1 180 07:44 16.11.2020
5409 Clear 17 1014 67 10000 4.6 180 06:47 16.11.2020
5410 Clear 15 1014 72 10000 5.1 190 05:53 16.11.2020
5411 Clear 15 1014 67 10000 6.2 180 04:37 16.11.2020
5412 Clear 16 1015 63 10000 6.7 190 01:49 16.11.2020
5413 Clear 16 1015 63 10000 6.7 190 01:27 16.11.2020
5414 Clouds 16 1016 72 10000 6.2 180 23:53 15.11.2020
5415 Clouds 16 1016 72 10000 6.2 180 23:22 15.11.2020
5416 Clouds 16 1017 67 10000 7.2 180 22:45 15.11.2020
5417 Clouds 16 1017 67 10000 7.2 180 22:20 15.11.2020
5418 Clouds 16 1017 67 10000 8.2 180 21:43 15.11.2020
5419 Clouds 16 1017 67 10000 8.2 180 21:24 15.11.2020
5420 Clouds 16 1017 67 10000 9.8 180 20:41 15.11.2020
5421 Clouds 16 1017 67 10000 9.8 180 20:18 15.11.2020
5422 Clouds 16 1016 67 10000 10.3 190 19:48 15.11.2020
5423 Clouds 16 1016 67 10000 10.3 190 19:22 15.11.2020
5424 Clouds 16 1016 63 10000 8.7 180 18:56 15.11.2020
5425 Clouds 16 1016 63 10000 8.7 180 18:38 15.11.2020
5426 Clouds 17 1016 63 10000 8.7 180 18:19 15.11.2020
5427 Clouds 18 1016 55 10000 9.8 180 17:44 15.11.2020
5428 Clouds 18 1016 55 10000 9.8 180 17:24 15.11.2020
5429 Clouds 18 1016 52 10000 10.3 170 16:46 15.11.2020
5430 Clouds 18 1016 52 10000 10.3 170 16:20 15.11.2020
5431 Clouds 19 1016 48 10000 11.8 180 15:50 15.11.2020
5432 Clouds 19 1016 48 10000 11.8 180 15:28 15.11.2020
5433 Clouds 20 1016 48 10000 10.3 180 14:58 15.11.2020
5434 Clouds 19 1016 48 10000 10.3 180 14:30 15.11.2020
5435 Clouds 20 1017 49 10000 10.3 190 13:56 15.11.2020
5436 Clouds 20 1017 49 10000 10.3 190 13:36 15.11.2020
5437 Clouds 20 1017 52 10000 9.3 190 12:51 15.11.2020
5438 Clouds 20 1017 52 10000 9.3 190 12:24 15.11.2020
5439 Clouds 20 1017 52 10000 8.7 180 11:46 15.11.2020
5440 Clouds 20 1017 52 10000 8.7 180 11:21 15.11.2020
5441 Clouds 20 1018 55 10000 7.7 190 10:54 15.11.2020
5442 Clouds 20 1018 55 10000 7.7 190 10:32 15.11.2020
5443 Clouds 19 1018 59 10000 7.7 190 09:59 15.11.2020
5444 Clouds 19 1018 59 10000 7.7 190 09:40 15.11.2020
5445 Clouds 19 1018 59 10000 7.7 190 09:19 15.11.2020
5446 Clouds 19 1018 55 10000 7.7 180 08:50 15.11.2020
5447 Clouds 18 1018 59 10000 7.2 180 07:48 15.11.2020
5448 Clouds 17 1018 67 10000 4.1 180 06:55 15.11.2020
5449 Clouds 13 1016 82 10000 2.6 200 04:58 15.11.2020
5450 Clouds 13 1016 76 10000 3.1 180 02:43 15.11.2020
5451 Clouds 14 1017 82 10000 4.6 180 00:45 15.11.2020
5452 Clouds 14 1017 82 10000 4.6 180 00:26 15.11.2020
5453 Clouds 15 1018 76 10000 4.6 190 23:34 14.11.2020
5454 Clouds 15 1018 81 10000 3.1 150 22:46 14.11.2020
5455 Clouds 15 1018 81 10000 3.1 150 22:28 14.11.2020
5456 Clouds 16 1018 72 10000 4.1 170 21:41 14.11.2020
5457 Clouds 16 1018 72 10000 4.1 170 21:22 14.11.2020
5458 Clouds 16 1017 71 10000 4.1 170 20:50 14.11.2020
5459 Clouds 16 1017 71 10000 4.1 170 20:26 14.11.2020
5460 Clouds 16 1017 67 10000 4.1 160 19:46 14.11.2020
5461 Clouds 16 1017 67 10000 4.1 160 19:28 14.11.2020
5462 Clouds 17 1016 63 10000 5.1 160 18:43 14.11.2020
5463 Clouds 17 1016 63 10000 5.1 160 18:23 14.11.2020
5464 Clouds 17 1016 59 10000 5.1 200 17:50 14.11.2020
5465 Clouds 17 1016 59 10000 5.1 200 17:31 14.11.2020
5466 Clouds 18 1016 59 10000 6.2 200 16:57 14.11.2020
5467 Clouds 18 1016 59 10000 6.2 200 16:36 14.11.2020
5468 Clouds 18 1016 59 10000 6.2 200 16:18 14.11.2020
5469 Clouds 18 1016 59 10000 6.7 200 15:50 14.11.2020
5470 Clouds 18 1016 59 10000 6.7 200 15:21 14.11.2020
5471 Clouds 17 1016 67 10000 6.2 180 14:38 14.11.2020
5472 Clouds 18 1016 67 10000 6.2 180 14:20 14.11.2020
5473 Clouds 17 1016 72 10000 5.7 180 13:40 14.11.2020
5474 Clouds 17 1016 72 10000 5.7 180 13:22 14.11.2020
5475 Clouds 17 1016 63 10000 7.2 220 12:45 14.11.2020
5476 Clouds 18 1016 63 10000 7.2 220 12:27 14.11.2020
5477 Clouds 20 1015 49 10000 5.1 310 11:43 14.11.2020
5478 Clouds 20 1015 49 10000 5.1 310 11:24 14.11.2020
5479 Clouds 20 1015 55 10000 6.7 300 10:43 14.11.2020
5480 Clouds 20 1015 55 10000 6.7 300 10:25 14.11.2020
5481 Clouds 20 1015 55 10000 6.7 300 09:47 14.11.2020
5482 Clouds 20 1015 55 10000 6.7 300 09:28 14.11.2020
5483 Clouds 20 1015 59 10000 5.1 330 08:49 14.11.2020
5484 Clouds 19 1015 59 10000 5.1 330 08:27 14.11.2020
5485 Clouds 19 1014 63 10000 4.6 340 07:44 14.11.2020
5486 Clouds 19 1014 63 10000 4.6 340 07:25 14.11.2020
5487 Clouds 18 1014 72 10000 3.6 20 06:31 14.11.2020
5488 Clouds 16 1013 72 10000 3.1 340 05:31 14.11.2020
5489 Clouds 16 1013 77 10000 1.5 360 03:53 14.11.2020
5490 Clouds 15 1013 82 10000 1.5 350 00:56 14.11.2020
5491 Clouds 15 1014 82 10000 3.6 360 23:47 13.11.2020
5492 Clouds 16 1014 82 10000 3.6 360 23:25 13.11.2020
5493 Clouds 16 1014 82 10000 4.1 350 22:46 13.11.2020
5494 Clouds 16 1014 82 10000 4.1 350 22:26 13.11.2020
5495 Clouds 16 1014 87 10000 5.1 340 21:55 13.11.2020
5496 Clouds 16 1014 87 10000 5.1 340 21:37 13.11.2020
5497 Clouds 16 1014 87 10000 5.1 340 21:19 13.11.2020
5498 Clear 17 1013 82 10000 6.2 320 20:41 13.11.2020
5499 Clear 17 1013 82 10000 6.2 320 20:21 13.11.2020
5500 Clear 17 1012 82 10000 6.2 330 19:46 13.11.2020
5501 Clear 18 1012 82 10000 6.2 330 19:23 13.11.2020
5502 Clear 19 1012 72 10000 5.1 340 18:54 13.11.2020
5503 Clear 20 1012 72 10000 5.1 340 18:21 13.11.2020
5504 Clear 21 1011 68 10000 7.7 320 17:41 13.11.2020
5505 Clear 23 1011 68 10000 7.7 320 17:18 13.11.2020
5506 Clear 22 1011 64 10000 7.7 320 16:48 13.11.2020
5507 Clear 22 1011 64 10000 7.7 320 16:23 13.11.2020
5508 Clear 20 1010 64 10000 8.2 330 15:49 13.11.2020
5509 Clear 23 1010 64 10000 8.2 330 15:27 13.11.2020
5510 Clear 22 1010 56 10000 8.2 330 14:45 13.11.2020
5511 Clear 21 1010 56 10000 8.2 330 14:22 13.11.2020
5512 Clear 24 1010 60 10000 8.7 330 13:47 13.11.2020
5513 Clear 24 1010 60 10000 8.7 330 13:23 13.11.2020
5514 Clear 24 1011 60 10000 8.7 310 12:47 13.11.2020
5515 Clear 26 1011 60 10000 8.7 310 12:24 13.11.2020
5516 Clouds 26 1012 68 10000 9.3 320 11:49 13.11.2020
5517 Clouds 25 1012 68 10000 9.3 320 11:29 13.11.2020
5518 Clouds 25 1012 72 10000 8.2 310 10:57 13.11.2020
5519 Clouds 24 1012 72 10000 8.2 310 10:39 13.11.2020
5520 Clouds 24 1012 72 10000 8.2 310 10:21 13.11.2020
5521 Clouds 23 1011 77 10000 7.7 320 09:42 13.11.2020
5522 Clouds 23 1011 77 10000 7.7 320 09:20 13.11.2020
5523 Clouds 21 1011 77 10000 4.6 340 08:52 13.11.2020
5524 Clouds 21 1011 77 10000 4.6 340 08:21 13.11.2020
5525 Clouds 21 1011 88 10000 5.7 330 07:45 13.11.2020
5526 Clouds 20 1010 93 10000 6.7 340 07:26 13.11.2020
5527 Clouds 16 1009 93 6000 8.2 340 06:49 13.11.2020
5528 Clear 17 1008 72 10000 4.1 340 05:58 13.11.2020
5529 Clear 17 1008 72 10000 4.1 340 05:30 13.11.2020
5530 Clear 16 1008 82 10000 2.6 50 01:46 13.11.2020
5531 Clear 19 1009 72 10000 3.1 70 00:53 13.11.2020
5532 Clear 19 1009 72 10000 3.1 70 00:32 13.11.2020
5533 Clear 20 1010 72 10000 1 80 23:39 12.11.2020
5534 Clear 20 1010 72 10000 1 80 23:19 12.11.2020
5535 Clear 20 1010 72 10000 1 0 22:52 12.11.2020
5536 Clear 20 1010 72 10000 1 0 22:33 12.11.2020
5537 Clear 21 1011 64 10000 2.1 190 21:56 12.11.2020
5538 Clear 21 1011 64 10000 2.1 190 21:37 12.11.2020
5539 Clear 21 1011 64 10000 2.1 190 21:37 12.11.2020
5540 Clear 21 1011 64 10000 2.1 190 21:18 12.11.2020
5541 Clear 21 1011 60 10000 2.1 220 20:39 12.11.2020
5542 Clear 21 1011 60 10000 2.1 220 20:21 12.11.2020
5543 Clear 22 1011 52 10000 2.6 160 19:49 12.11.2020
5544 Clear 22 1011 52 10000 2.6 160 19:31 12.11.2020
5545 Clear 23 1011 41 10000 4.1 170 18:52 12.11.2020
5546 Clear 24 1011 41 10000 4.1 170 18:24 12.11.2020
5547 Clear 26 1010 34 10000 4.6 180 17:59 12.11.2020
5548 Clear 27 1010 34 10000 4.6 180 17:38 12.11.2020
5549 Clear 28 1010 34 10000 4.6 180 17:20 12.11.2020
5550 Clear 30 1010 27 10000 4.1 170 16:44 12.11.2020
5551 Clear 30 1010 27 10000 4.1 170 16:22 12.11.2020
5552 Clear 30 1010 27 10000 4.1 170 15:42 12.11.2020
5553 Clear 31 1010 27 10000 4.1 170 15:23 12.11.2020
5554 Clear 31 1011 29 10000 4.6 160 14:47 12.11.2020
5555 Clear 31 1011 29 10000 4.6 160 14:27 12.11.2020
5556 Clear 31 1012 27 10000 2.6 190 13:57 12.11.2020
5557 Clear 30 1012 27 10000 2.6 190 13:37 12.11.2020
5558 Clear 30 1012 27 10000 2.6 190 13:18 12.11.2020
5559 Clear 29 1012 31 10000 3.1 150 12:44 12.11.2020
5560 Clear 30 1012 31 10000 3.1 150 12:23 12.11.2020
5561 Clear 29 1013 31 10000 4.1 230 11:52 12.11.2020
5562 Clear 29 1013 31 10000 4.1 230 11:30 12.11.2020
5563 Clear 29 1013 27 10000 1 0 10:45 12.11.2020
5564 Clear 29 1013 30 10000 2.1 0 10:27 12.11.2020
5565 Clear 29 1013 34 10000 2.1 230 09:49 12.11.2020
5566 Clear 27 1013 41 10000 1.5 0 09:24 12.11.2020
5567 Clear 26 1014 50 10000 2.6 190 08:58 12.11.2020
5568 Clear 25 1014 50 10000 2.6 190 08:39 12.11.2020
5569 Clear 24 1014 50 10000 2.6 190 08:20 12.11.2020
5570 Clear 22 1014 56 10000 1.5 0 07:53 12.11.2020
5571 Clear 21 1014 64 10000 1 0 07:25 12.11.2020
5572 Clear 20 1014 77 10000 0.5 0 06:51 12.11.2020
5573 Clear 16 1013 82 10000 1 0 05:45 12.11.2020
5574 Clear 16 1014 77 10000 1.5 0 03:43 12.11.2020
5575 Clear 16 1014 77 10000 1.5 0 03:18 12.11.2020
5576 Clear 17 1016 82 10000 1 0 00:25 12.11.2020
5577 Clear 17 1016 72 10000 4.1 150 23:40 11.11.2020
5578 Clear 17 1016 72 10000 4.1 150 23:22 11.11.2020
5579 Clear 18 1017 68 10000 5.7 160 22:43 11.11.2020
5580 Clear 18 1017 68 10000 5.7 160 22:21 11.11.2020
5581 Clear 17 1017 77 10000 5.1 230 21:56 11.11.2020
5582 Clear 17 1017 77 10000 5.1 230 21:38 11.11.2020
5583 Clear 18 1017 77 10000 5.1 230 21:19 11.11.2020
5584 Clear 18 1017 82 10000 5.7 240 20:42 11.11.2020
5585 Clear 18 1017 82 10000 5.7 240 20:21 11.11.2020
5586 Clear 19 1018 77 10000 5.7 230 19:55 11.11.2020
5587 Clear 19 1018 77 10000 5.7 230 19:36 11.11.2020
5588 Clear 19 1018 77 10000 5.7 230 19:18 11.11.2020
5589 Clear 19 1018 77 10000 5.7 230 19:18 11.11.2020
5590 Clear 20 1017 72 10000 7.7 230 18:41 11.11.2020
5591 Clear 20 1017 72 10000 7.7 230 18:21 11.11.2020
5592 Clear 22 1017 60 10000 5.7 230 17:37 11.11.2020
5593 Clear 23 1017 60 10000 5.7 230 17:19 11.11.2020
5594 Clear 23 1017 53 10000 6.7 210 16:39 11.11.2020
5595 Clear 23 1017 53 10000 6.7 210 16:21 11.11.2020
5596 Clear 23 1018 53 10000 7.7 210 15:41 11.11.2020
5597 Clear 23 1018 53 10000 7.7 210 15:23 11.11.2020
5598 Clear 24 1018 36 10000 7.2 210 14:47 11.11.2020
5599 Clear 25 1018 36 10000 7.2 210 14:28 11.11.2020
5600 Clear 26 1018 36 10000 7.2 220 13:49 11.11.2020
5601 Clear 26 1018 36 10000 7.2 220 13:24 11.11.2020
5602 Clear 26 1018 31 10000 4.6 220 12:22 11.11.2020
5603 Clear 25 1019 31 10000 3.6 210 11:58 11.11.2020
5604 Clear 25 1019 31 10000 3.6 210 11:40 11.11.2020
5605 Clear 25 1019 31 10000 3.6 210 11:20 11.11.2020
5606 Clear 24 1020 38 10000 6.2 190 10:38 11.11.2020
5607 Clear 24 1020 38 10000 6.2 190 10:19 11.11.2020
5608 Clear 22 1021 40 10000 2.6 210 09:43 11.11.2020
5609 Clear 22 1021 40 10000 2.6 210 09:24 11.11.2020
5610 Clear 20 1021 45 10000 3.1 170 08:45 11.11.2020
5611 Clear 20 1021 45 10000 3.1 170 08:25 11.11.2020
5612 Clear 17 1021 55 10000 2.1 200 07:49 11.11.2020
5613 Clear 16 1021 76 10000 1.5 0 06:33 11.11.2020
5614 Clear 14 1020 76 10000 2.1 240 05:59 11.11.2020
5615 Clear 14 1021 76 10000 4.6 180 02:48 11.11.2020
5616 Clear 15 1022 71 10000 5.1 170 00:58 11.11.2020
5617 Clear 14 1022 71 10000 5.1 170 00:26 11.11.2020
5618 Clear 15 1023 67 10000 7.2 160 23:42 10.11.2020
5619 Clear 15 1023 67 10000 7.2 160 23:23 10.11.2020
5620 Clear 15 1023 62 10000 8.2 160 22:52 10.11.2020
5621 Clear 15 1023 62 10000 8.2 160 22:27 10.11.2020
5622 Clear 16 1023 59 10000 10.3 160 21:44 10.11.2020
5623 Clear 16 1023 59 10000 10.3 160 21:25 10.11.2020
5624 Clear 16 1023 59 10000 9.3 160 20:59 10.11.2020
5625 Clear 16 1023 59 10000 9.3 160 20:41 10.11.2020
5626 Clear 16 1023 59 10000 9.3 160 20:22 10.11.2020
5627 Clear 16 1023 63 10000 7.2 170 19:47 10.11.2020
5628 Clear 16 1023 63 10000 7.2 170 19:28 10.11.2020
5629 Clear 17 1024 55 10000 11.3 180 18:59 10.11.2020
5630 Clear 17 1024 55 10000 11.3 180 18:40 10.11.2020
5631 Clear 17 1024 55 10000 11.3 180 18:19 10.11.2020
5632 Clear 18 1023 52 10000 10.8 170 17:43 10.11.2020
5633 Clear 18 1023 52 10000 10.8 170 17:25 10.11.2020
5634 Clear 18 1023 52 10000 11.3 180 16:46 10.11.2020
5635 Clear 19 1023 52 10000 11.3 180 16:24 10.11.2020
5636 Clear 19 1023 48 10000 11.3 180 15:57 10.11.2020
5637 Clear 19 1023 48 10000 11.3 180 15:38 10.11.2020
5638 Clear 20 1024 45 10000 10.8 180 15:20 10.11.2020
5639 Clear 20 1024 45 10000 10.8 180 14:41 10.11.2020
5640 Clear 20 1024 45 10000 10.8 180 14:22 10.11.2020
5641 Clear 20 1025 45 10000 12.9 180 13:54 10.11.2020
5642 Clear 20 1025 45 10000 12.9 180 13:36 10.11.2020
5643 Clear 20 1025 45 10000 9.8 180 13:18 10.11.2020
5644 Clear 21 1025 42 10000 8.2 180 12:44 10.11.2020
5645 Clear 21 1025 42 10000 8.2 180 12:23 10.11.2020
5646 Clear 21 1025 42 10000 8.2 180 11:39 10.11.2020
5647 Clear 21 1026 42 10000 7.2 190 11:20 10.11.2020
5648 Clear 21 1026 42 10000 7.2 190 10:44 10.11.2020
5649 Clear 20 1026 42 10000 7.2 190 10:26 10.11.2020
5650 Clear 19 1027 45 10000 6.7 170 09:51 10.11.2020
5651 Clear 19 1027 45 10000 6.7 170 09:27 10.11.2020
5652 Clear 18 1027 48 10000 8.7 180 08:59 10.11.2020
5653 Clear 18 1027 48 10000 8.7 180 08:38 10.11.2020
5654 Clear 17 1027 48 10000 8.7 180 08:19 10.11.2020
5655 Clear 16 1026 54 10000 7.2 140 07:38 10.11.2020
5656 Clear 16 1026 54 10000 7.2 140 07:18 10.11.2020
5657 Clear 15 1027 58 10000 7.2 160 06:38 10.11.2020
5658 Clear 13 1026 62 10000 6.7 170 05:29 10.11.2020
5659 Clear 13 1026 62 10000 7.7 160 03:36 10.11.2020
5660 Clear 13 1027 62 10000 8.7 160 01:41 10.11.2020
5661 Clear 13 1028 66 10000 5.1 160 00:52 10.11.2020
5662 Clear 14 1028 66 10000 5.7 170 23:47 09.11.2020
5663 Clear 14 1028 66 10000 5.7 170 23:23 09.11.2020
5664 Clear 14 1029 58 10000 5.7 170 22:42 09.11.2020
5665 Clear 14 1029 58 10000 5.7 170 22:22 09.11.2020
5666 Clear 14 1029 58 10000 6.2 170 21:44 09.11.2020
5667 Clear 14 1029 58 10000 6.2 170 21:26 09.11.2020
5668 Clouds 14 1028 54 10000 6.7 180 20:42 09.11.2020
5669 Clouds 14 1028 54 10000 6.7 180 20:22 09.11.2020
5670 Clouds 14 1028 54 10000 7.7 180 19:49 09.11.2020
5671 Clouds 14 1028 54 10000 7.7 180 19:24 09.11.2020
5672 Clouds 15 1028 47 10000 9.3 180 18:58 09.11.2020
5673 Clouds 15 1028 47 10000 9.3 180 18:39 09.11.2020
5674 Clouds 15 1028 47 10000 9.3 180 18:19 09.11.2020
5675 Clouds 16 1027 48 10000 8.7 180 17:44 09.11.2020
5676 Clouds 16 1027 48 10000 8.7 180 17:25 09.11.2020
5677 Clouds 17 1027 48 10000 8.7 180 16:44 09.11.2020
5678 Clouds 17 1027 48 10000 8.7 180 16:23 09.11.2020
5679 Clouds 18 1027 48 10000 7.7 180 15:47 09.11.2020
5680 Clouds 18 1027 48 10000 7.7 180 15:28 09.11.2020
5681 Clouds 19 1027 45 10000 7.2 180 14:51 09.11.2020
5682 Clouds 18 1027 45 10000 7.2 180 14:29 09.11.2020
5683 Clouds 18 1028 39 10000 6.2 170 13:59 09.11.2020
5684 Clouds 18 1028 39 10000 6.2 170 13:38 09.11.2020
5685 Clouds 18 1028 39 10000 6.2 170 13:18 09.11.2020
5686 Clouds 18 1028 45 10000 2.6 0 12:41 09.11.2020
5687 Clouds 18 1028 45 10000 2.6 0 12:21 09.11.2020
5688 Clouds 17 1029 48 10000 3.6 180 11:43 09.11.2020
5689 Clouds 16 1029 48 10000 3.6 180 11:24 09.11.2020
5690 Clouds 16 1029 51 10000 5.7 220 10:58 09.11.2020
5691 Clouds 17 1029 51 10000 5.7 220 10:39 09.11.2020
5692 Clouds 16 1029 51 10000 5.7 220 10:21 09.11.2020
5693 Clouds 16 1029 41 10000 3.1 150 09:30 09.11.2020
5694 Clouds 15 1029 44 10000 1.5 0 08:55 09.11.2020
5695 Clouds 15 1029 44 10000 1.5 0 08:28 09.11.2020
5696 Clouds 15 1029 47 10000 1.5 0 07:57 09.11.2020
5697 Clouds 15 1029 47 10000 1.5 0 07:23 09.11.2020
5698 Clouds 14 1028 50 10000 2.6 250 06:55 09.11.2020
5699 Clouds 9 1026 75 10000 1 50 04:55 09.11.2020
5700 Clouds 12 1024 66 10000 3.1 220 01:59 09.11.2020
5701 Clouds 12 1024 66 10000 3.1 220 01:41 09.11.2020
5702 Clouds 13 1024 62 10000 4.1 220 00:55 09.11.2020
5703 Clouds 14 1024 62 10000 3.1 230 23:47 08.11.2020
5704 Clouds 14 1024 62 10000 3.1 230 23:28 08.11.2020
5705 Clouds 14 1023 62 10000 2.1 240 22:43 08.11.2020
5706 Clouds 14 1023 62 10000 2.1 240 22:22 08.11.2020
5707 Clouds 14 1022 62 10000 4.1 230 21:47 08.11.2020
5708 Clouds 14 1022 62 10000 4.1 230 21:23 08.11.2020
5709 Clouds 14 1021 67 10000 3.6 210 20:57 08.11.2020
5710 Clouds 14 1021 67 10000 3.6 210 20:38 08.11.2020
5711 Clouds 14 1021 67 10000 3.6 210 20:20 08.11.2020
5712 Rain 15 1020 62 10000 3.6 260 19:45 08.11.2020
5713 Rain 15 1020 62 10000 3.6 260 19:45 08.11.2020
5714 Rain 15 1020 62 10000 3.6 260 19:23 08.11.2020
5715 Clouds 15 1020 67 10000 5.1 240 18:58 08.11.2020
5716 Clouds 15 1020 67 10000 5.1 240 18:39 08.11.2020
5717 Clouds 16 1020 67 10000 5.1 240 18:20 08.11.2020
5718 Clouds 16 1019 55 10000 5.7 240 17:56 08.11.2020
5719 Clouds 16 1019 55 10000 5.7 240 17:36 08.11.2020
5720 Clouds 17 1018 59 10000 7.2 250 17:18 08.11.2020
5721 Clouds 17 1018 59 10000 7.2 250 16:38 08.11.2020
5722 Clouds 17 1018 59 10000 7.2 250 16:20 08.11.2020
5723 Rain 18 1017 63 10000 5.7 290 15:46 08.11.2020
5724 Rain 18 1017 82 10000 6.2 310 15:27 08.11.2020
5725 Clouds 18 1016 59 10000 8.7 290 14:44 08.11.2020
5726 Clouds 18 1016 59 10000 8.7 290 14:24 08.11.2020
5727 Clouds 18 1016 59 10000 9.3 280 13:56 08.11.2020
5728 Clouds 18 1016 59 10000 9.3 280 13:26 08.11.2020
5729 Clouds 18 1016 59 10000 9.3 280 13:26 08.11.2020
5730 Rain 17 1016 87 10000 5.7 300 12:59 08.11.2020
5731 Rain 18 1016 87 10000 5.7 300 12:40 08.11.2020
5732 Clouds 17 1016 87 10000 5.7 300 12:20 08.11.2020
5733 Rain 18 1015 68 10000 10.3 310 11:56 08.11.2020
5734 Rain 18 1015 68 10000 10.3 310 11:37 08.11.2020
5735 Rain 18 1015 68 10000 10.3 310 11:19 08.11.2020
5736 Clouds 18 1015 68 10000 7.7 290 10:42 08.11.2020
5737 Clouds 18 1015 68 10000 7.7 290 10:18 08.11.2020
5738 Rain 16 1014 93 10000 5.7 320 09:42 08.11.2020
5739 Rain 17 1014 93 10000 5.7 320 09:23 08.11.2020
5740 Rain 16 1014 87 10000 7.7 300 08:47 08.11.2020
5741 Rain 15 1014 93 10000 7.2 340 08:27 08.11.2020
5742 Rain 15 1014 93 10000 5.7 330 07:53 08.11.2020
5743 Rain 15 1014 93 10000 5.7 330 07:32 08.11.2020
5744 Clouds 15 1013 93 10000 7.2 320 06:45 08.11.2020
5745 Rain 15 1012 93 10000 4.6 340 05:54 08.11.2020
5746 Rain 14 1012 93 8000 6.7 310 04:54 08.11.2020
5747 Drizzle 15 1011 93 10000 7.2 350 03:27 08.11.2020
5748 Rain 14 1012 93 10000 6.2 330 01:20 08.11.2020
5749 Rain 15 1012 93 10000 7.2 340 00:49 08.11.2020
5750 Rain 15 1012 93 10000 7.2 340 00:20 08.11.2020
5751 Rain 15 1012 87 10000 7.2 330 23:40 07.11.2020
5752 Rain 15 1012 87 10000 7.2 330 23:22 07.11.2020
5753 Rain 16 1012 82 10000 7.7 340 22:40 07.11.2020
5754 Rain 16 1012 82 10000 7.7 340 22:21 07.11.2020
5755 Rain 17 1012 82 10000 8.2 340 21:44 07.11.2020
5756 Clouds 17 1012 82 10000 8.2 340 21:21 07.11.2020
5757 Clouds 17 1012 82 10000 6.2 340 20:50 07.11.2020
5758 Clouds 17 1012 82 10000 6.2 340 20:31 07.11.2020
5759 Clouds 17 1012 82 10000 6.2 340 19:51 07.11.2020
5760 Clouds 17 1012 82 10000 6.2 340 19:29 07.11.2020
5761 Clouds 17 1011 77 10000 7.7 320 18:58 07.11.2020
5762 Clouds 17 1011 77 10000 7.7 320 18:38 07.11.2020
5763 Clouds 17 1011 77 10000 7.7 320 18:19 07.11.2020
5764 Clouds 18 1010 72 10000 13.4 330 17:43 07.11.2020
5765 Clouds 18 1010 72 10000 13.4 330 17:23 07.11.2020
5766 Clouds 19 1009 68 10000 13.4 330 16:42 07.11.2020
5767 Clouds 18 1009 68 10000 13.4 330 16:23 07.11.2020
5768 Clouds 18 1008 68 10000 14.4 320 15:45 07.11.2020
5769 Clouds 18 1008 68 10000 14.4 320 15:23 07.11.2020
5770 Clouds 18 1008 68 10000 14.4 320 14:55 07.11.2020
5771 Clouds 18 1008 68 10000 14.4 320 14:37 07.11.2020
5772 Clouds 18 1008 68 10000 14.4 320 14:18 07.11.2020
5773 Clouds 18 1008 63 10000 14.9 320 13:39 07.11.2020
5774 Clouds 19 1008 63 10000 14.9 320 13:20 07.11.2020
5775 Clouds 19 1008 63 10000 14.9 320 12:32 07.11.2020
5776 Clouds 19 1009 56 10000 13.9 330 11:45 07.11.2020
5777 Clouds 19 1009 56 10000 13.9 330 11:24 07.11.2020
5778 Clouds 18 1009 59 10000 11.3 330 10:55 07.11.2020
5779 Clouds 18 1009 59 10000 11.3 330 10:37 07.11.2020
5780 Clouds 18 1009 59 10000 11.3 330 10:18 07.11.2020
5781 Clouds 17 1009 63 10000 11.3 330 09:42 07.11.2020
5782 Clouds 18 1009 63 10000 11.3 330 09:19 07.11.2020
5783 Clouds 17 1009 72 10000 9.8 340 08:42 07.11.2020
5784 Clouds 17 1009 72 10000 9.8 340 08:22 07.11.2020
5785 Clouds 16 1010 82 10000 7.2 350 07:37 07.11.2020
5786 Clouds 15 1009 87 10000 7.2 350 06:48 07.11.2020
5787 Clouds 15 1009 93 10000 7.7 340 05:38 07.11.2020
5788 Clouds 15 1009 93 10000 7.2 340 03:25 07.11.2020
5789 Clouds 14 1010 87 10000 6.2 340 01:45 07.11.2020
5790 Clouds 15 1010 87 10000 6.2 340 01:25 07.11.2020
5791 Clouds 14 1010 87 10000 4.1 350 00:29 07.11.2020
5792 Clouds 14 1011 93 10000 3.1 350 23:32 06.11.2020
5793 Clear 14 1011 93 10000 4.6 330 22:46 06.11.2020
5794 Clear 14 1011 93 10000 4.6 330 22:20 06.11.2020
5795 Clouds 14 1011 93 10000 3.6 360 21:59 06.11.2020
5796 Clouds 14 1011 93 10000 3.6 360 21:41 06.11.2020
5797 Clouds 14 1011 93 10000 3.6 360 21:19 06.11.2020
5798 Clouds 15 1011 87 10000 3.1 10 20:43 06.11.2020
5799 Clouds 14 1011 87 10000 3.1 10 20:20 06.11.2020
5800 Clouds 14 1011 87 10000 3.6 330 19:45 06.11.2020
5801 Clouds 15 1011 87 10000 3.6 330 19:27 06.11.2020
5802 Clouds 16 1011 87 10000 5.1 330 18:55 06.11.2020
5803 Clouds 16 1011 87 10000 5.1 330 18:37 06.11.2020
5804 Clouds 16 1011 87 10000 5.1 330 18:18 06.11.2020
5805 Clouds 17 1010 87 10000 4.1 330 17:41 06.11.2020
5806 Clouds 17 1010 87 10000 4.1 330 17:23 06.11.2020
5807 Clouds 17 1010 87 10000 4.1 320 16:39 06.11.2020
5808 Clouds 17 1010 87 10000 4.1 320 16:20 06.11.2020
5809 Clouds 16 1010 87 10000 5.1 320 15:44 06.11.2020
5810 Clouds 16 1010 87 10000 5.1 320 15:25 06.11.2020
5811 Clouds 16 1010 93 10000 4.1 320 14:49 06.11.2020
5812 Clouds 16 1010 93 10000 4.1 320 14:22 06.11.2020
5813 Rain 15 1010 93 6000 6.2 340 13:42 06.11.2020
5814 Rain 15 1010 93 6000 6.2 340 13:20 06.11.2020
5815 Rain 15 1011 87 6000 3.6 320 12:43 06.11.2020
5816 Rain 15 1011 87 6000 3.6 320 12:23 06.11.2020
5817 Rain 15 1011 87 6000 3.6 320 12:23 06.11.2020
5818 Rain 15 1009 87 8000 8.7 330 11:40 06.11.2020
5819 Rain 16 1009 87 8000 8.7 330 11:21 06.11.2020
5820 Rain 16 1010 87 10000 8.2 340 10:37 06.11.2020
5821 Rain 16 1010 87 10000 8.2 340 10:18 06.11.2020
5822 Rain 16 1009 93 10000 7.2 350 09:44 06.11.2020
5823 Rain 16 1009 93 10000 7.2 350 09:21 06.11.2020
5824 Rain 16 1010 87 7000 7.7 340 08:48 06.11.2020
5825 Rain 16 1010 87 7000 7.7 340 08:28 06.11.2020
5826 Rain 16 1009 82 10000 8.2 350 07:46 06.11.2020
5827 Rain 16 1009 82 10000 8.2 350 07:27 06.11.2020
5828 Clouds 16 1010 87 10000 7.7 340 06:48 06.11.2020
5829 Clouds 16 1009 87 10000 7.2 340 05:42 06.11.2020
5830 Clouds 16 1009 82 10000 11.3 330 02:53 06.11.2020
5831 Clouds 17 1010 87 10000 8.7 330 00:46 06.11.2020
5832 Clouds 17 1010 87 10000 8.7 330 00:19 06.11.2020
5833 Clouds 17 1010 93 10000 8.2 320 23:29 05.11.2020
5834 Clouds 17 1010 93 10000 7.2 320 22:57 05.11.2020
5835 Clouds 17 1010 93 10000 7.2 320 22:36 05.11.2020
5836 Clouds 17 1010 93 10000 7.2 320 22:18 05.11.2020
5837 Clouds 18 1010 88 10000 4.1 330 21:42 05.11.2020
5838 Rain 18 1010 88 10000 4.1 330 21:21 05.11.2020
5839 Rain 18 1010 82 10000 5.7 300 20:45 05.11.2020
5840 Rain 18 1010 82 10000 5.7 300 20:26 05.11.2020
5841 Rain 18 1010 88 8000 5.7 290 19:58 05.11.2020
5842 Rain 18 1010 93 8000 3.6 270 19:40 05.11.2020
5843 Rain 18 1010 93 8000 3.6 270 19:22 05.11.2020
5844 Rain 18 1008 93 8000 6.2 320 18:42 05.11.2020
5845 Rain 19 1008 93 8000 6.2 320 18:24 05.11.2020
5846 Rain 20 1008 88 8000 5.7 290 17:52 05.11.2020
5847 Rain 20 1008 88 8000 5.7 290 17:27 05.11.2020
5848 Clouds 20 1007 82 10000 8.7 320 16:53 05.11.2020
5849 Clouds 20 1007 82 10000 7.2 330 16:29 05.11.2020
5850 Clouds 21 1006 77 10000 10.8 330 15:59 05.11.2020
5851 Clouds 22 1006 77 10000 10.8 330 15:40 05.11.2020
5852 Clouds 22 1006 77 10000 10.8 330 15:21 05.11.2020
5853 Clouds 23 1006 68 10000 10.8 310 14:44 05.11.2020
5854 Clouds 24 1006 64 10000 8.7 320 14:24 05.11.2020
5855 Clouds 22 1006 64 10000 8.7 320 13:42 05.11.2020
5856 Clouds 23 1006 64 10000 8.7 320 13:23 05.11.2020
5857 Clouds 23 1007 56 10000 5.7 30 12:48 05.11.2020
5858 Clouds 22 1007 56 10000 5.7 30 12:24 05.11.2020
5859 Clouds 24 1008 60 10000 6.2 20 11:49 05.11.2020
5860 Clouds 23 1008 60 10000 6.2 20 11:26 05.11.2020
5861 Clouds 22 1008 64 10000 5.7 20 10:53 05.11.2020
5862 Clouds 23 1008 64 10000 5.7 20 10:32 05.11.2020
5863 Clouds 23 1008 68 10000 4.1 10 09:59 05.11.2020
5864 Clouds 23 1008 68 10000 4.1 10 09:41 05.11.2020
5865 Clouds 22 1008 68 10000 4.1 10 09:21 05.11.2020
5866 Clouds 20 1009 82 10000 5.7 350 08:43 05.11.2020
5867 Clouds 20 1009 82 10000 5.7 350 08:25 05.11.2020
5868 Clouds 19 1009 82 10000 5.7 330 07:29 05.11.2020
5869 Clouds 18 1008 87 10000 4.6 300 06:52 05.11.2020
5870 Clouds 18 1008 87 10000 4.6 300 06:34 05.11.2020
5871 Clouds 17 1007 87 10000 5.7 320 05:22 05.11.2020
5872 Clouds 20 1007 72 10000 3.1 160 01:23 05.11.2020
5873 Clear 20 1007 68 10000 2.1 210 00:30 05.11.2020
5874 Clear 20 1008 68 10000 2.6 200 23:44 04.11.2020
5875 Clear 20 1008 68 10000 2.6 200 23:25 04.11.2020
5876 Clear 20 1008 68 10000 3.1 130 22:48 04.11.2020
5877 Clear 20 1008 68 10000 3.1 130 22:24 04.11.2020
5878 Clear 21 1009 64 10000 4.6 140 21:56 04.11.2020
5879 Clear 21 1009 64 10000 4.6 140 21:36 04.11.2020
5880 Clear 21 1009 64 10000 4.6 140 21:18 04.11.2020
5881 Clouds 20 1008 68 10000 7.7 160 20:41 04.11.2020
5882 Clouds 20 1008 68 10000 7.7 160 20:23 04.11.2020
5883 Clouds 20 1008 64 10000 8.7 140 19:44 04.11.2020
5884 Clouds 20 1008 64 10000 8.7 140 19:44 04.11.2020
5885 Clouds 20 1008 64 10000 8.7 140 19:26 04.11.2020
5886 Clouds 20 1009 64 10000 9.3 170 18:44 04.11.2020
5887 Clouds 20 1009 60 10000 8.2 180 18:25 04.11.2020
5888 Clouds 21 1009 64 10000 8.2 200 17:59 04.11.2020
5889 Clouds 21 1009 64 10000 8.2 200 17:40 04.11.2020
5890 Clouds 21 1009 64 10000 8.2 200 17:20 04.11.2020
5891 Clouds 22 1009 64 10000 8.7 220 16:38 04.11.2020
5892 Clouds 21 1009 64 10000 8.7 220 16:20 04.11.2020
5893 Clouds 24 1009 48 10000 7.2 180 15:47 04.11.2020
5894 Clouds 25 1009 48 10000 7.2 180 15:25 04.11.2020
5895 Clouds 24 1010 57 10000 8.7 220 14:57 04.11.2020
5896 Clouds 24 1010 57 10000 8.7 220 14:39 04.11.2020
5897 Clouds 25 1010 57 10000 8.7 220 14:19 04.11.2020
5898 Clouds 25 1011 51 10000 5.7 200 13:42 04.11.2020
5899 Clouds 26 1011 51 10000 5.7 200 13:20 04.11.2020
5900 Clouds 25 1011 54 10000 5.7 210 12:51 04.11.2020
5901 Clouds 25 1011 54 10000 5.7 210 12:27 04.11.2020
5902 Clouds 25 1012 57 10000 6.2 240 11:56 04.11.2020
5903 Clouds 25 1012 57 10000 6.2 240 11:56 04.11.2020
5904 Clouds 25 1012 57 10000 6.2 240 11:37 04.11.2020
5905 Clouds 24 1012 57 10000 6.2 240 11:37 04.11.2020
5906 Clouds 24 1012 57 10000 6.2 240 11:19 04.11.2020
5907 Clouds 25 1012 50 10000 4.1 220 10:46 04.11.2020
5908 Clouds 25 1012 50 10000 4.1 220 10:22 04.11.2020
5909 Clouds 24 1012 53 10000 3.6 160 09:51 04.11.2020
5910 Clouds 24 1012 53 10000 3.6 160 09:23 04.11.2020
5911 Clouds 23 1013 53 10000 5.1 180 08:46 04.11.2020
5912 Clouds 22 1013 53 10000 5.1 180 08:19 04.11.2020
5913 Clouds 21 1013 64 10000 8.2 180 07:50 04.11.2020
5914 Clouds 21 1013 64 10000 8.2 180 07:27 04.11.2020
5915 Clear 20 1013 72 10000 4.6 220 06:45 04.11.2020
5916 Clear 19 1013 72 10000 4.6 220 06:26 04.11.2020
5917 Clear 18 1012 82 10000 5.1 240 03:46 04.11.2020
5918 Clear 19 1013 68 10000 4.1 210 02:20 04.11.2020
5919 Clouds 19 1013 72 10000 9.8 170 00:43 04.11.2020
5920 Clouds 19 1014 72 10000 8.2 180 23:44 03.11.2020
5921 Clouds 19 1014 72 10000 8.2 180 23:21 03.11.2020
5922 Clouds 19 1013 77 10000 7.7 170 22:41 03.11.2020
5923 Clouds 19 1013 77 10000 7.7 170 22:21 03.11.2020
5924 Clouds 19 1014 82 10000 6.7 200 21:56 03.11.2020
5925 Clouds 19 1014 82 10000 6.7 200 21:38 03.11.2020
5926 Clouds 19 1014 82 10000 6.7 200 21:20 03.11.2020
5927 Clouds 19 1014 88 10000 5.1 210 20:44 03.11.2020
5928 Clouds 19 1014 88 10000 5.1 210 20:23 03.11.2020
5929 Clouds 19 1013 88 10000 7.2 200 19:44 03.11.2020
5930 Clouds 19 1013 88 10000 7.2 200 19:44 03.11.2020
5931 Clouds 19 1013 88 10000 7.2 200 19:23 03.11.2020
5932 Clouds 20 1013 82 10000 6.7 210 18:45 03.11.2020
5933 Clouds 20 1013 82 10000 6.7 210 18:21 03.11.2020
5934 Clouds 20 1013 77 10000 7.7 200 17:59 03.11.2020
5935 Clouds 20 1013 77 10000 7.7 200 17:41 03.11.2020
5936 Clouds 21 1013 77 10000 7.7 200 17:22 03.11.2020
5937 Clouds 21 1012 68 10000 6.7 190 16:45 03.11.2020
5938 Clouds 22 1012 68 10000 6.7 190 16:23 03.11.2020
5939 Clear 22 1012 64 10000 6.7 180 15:46 03.11.2020
5940 Clear 23 1013 64 10000 6.7 180 15:25 03.11.2020
5941 Clear 23 1013 64 10000 6.7 180 14:52 03.11.2020
5942 Clear 23 1013 64 10000 6.7 180 14:33 03.11.2020
5943 Clear 24 1012 57 10000 6.7 180 13:46 03.11.2020
5944 Clear 24 1012 57 10000 6.7 180 13:23 03.11.2020
5945 Clear 23 1012 60 10000 4.6 200 12:59 03.11.2020
5946 Clear 23 1012 60 10000 4.6 200 12:37 03.11.2020
5947 Clear 23 1012 60 10000 4.6 200 12:19 03.11.2020
5948 Clear 24 1012 56 10000 6.7 200 11:41 03.11.2020
5949 Clear 25 1012 56 10000 6.7 200 11:20 03.11.2020
5950 Clear 26 1011 44 10000 4.1 270 10:39 03.11.2020
5951 Clear 26 1011 44 10000 4.1 270 10:21 03.11.2020
5952 Clear 26 1011 50 10000 1.5 0 09:52 03.11.2020
5953 Clear 26 1011 50 10000 1.5 0 09:33 03.11.2020
5954 Clear 25 1011 60 10000 2.1 20 08:56 03.11.2020
5955 Clear 24 1011 60 10000 2.1 20 08:35 03.11.2020
5956 Clear 23 1011 68 10000 0.5 0 07:57 03.11.2020
5957 Clear 22 1010 77 10000 1 0 07:35 03.11.2020
5958 Clear 18 1010 88 10000 1.5 0 06:51 03.11.2020
5959 Clear 16 1008 87 10000 2.1 260 05:50 03.11.2020
5960 Clear 17 1007 82 10000 3.6 220 03:26 03.11.2020
5961 Clear 18 1008 88 10000 4.6 220 00:42 03.11.2020
5962 Clear 18 1008 77 10000 4.1 210 23:59 02.11.2020
5963 Clear 18 1009 82 10000 3.6 220 23:38 02.11.2020
5964 Clear 18 1009 82 10000 3.6 220 22:56 02.11.2020
5965 Clear 18 1009 82 10000 3.6 220 22:37 02.11.2020
5966 Clear 19 1009 82 10000 3.6 220 22:19 02.11.2020
5967 Clear 18 1009 82 10000 4.6 230 21:38 02.11.2020
5968 Clear 19 1009 82 10000 4.6 230 21:19 02.11.2020
5969 Clear 20 1009 77 10000 6.7 220 20:41 02.11.2020
5970 Clear 20 1009 77 10000 6.7 220 20:20 02.11.2020
5971 Clear 20 1009 82 10000 5.7 230 19:58 02.11.2020
5972 Clear 20 1009 82 10000 5.7 230 19:40 02.11.2020
5973 Clear 20 1009 82 10000 5.7 230 19:21 02.11.2020
5974 Clear 21 1009 72 10000 5.7 220 18:39 02.11.2020
5975 Clear 21 1009 72 10000 5.7 220 18:21 02.11.2020
5976 Clear 23 1009 64 10000 6.7 210 17:56 02.11.2020
5977 Clear 23 1009 64 10000 6.7 210 17:36 02.11.2020
5978 Clear 23 1009 64 10000 6.7 210 17:18 02.11.2020
5979 Clear 25 1009 60 10000 6.7 220 16:38 02.11.2020
5980 Clear 26 1009 57 10000 5.7 230 16:20 02.11.2020
5981 Clear 26 1009 57 10000 5.7 230 15:39 02.11.2020
5982 Clear 26 1009 57 10000 5.7 230 15:20 02.11.2020
5983 Clear 27 1009 47 10000 6.2 220 14:53 02.11.2020
5984 Clear 27 1010 42 10000 5.7 210 14:20 02.11.2020
5985 Clear 27 1010 42 10000 5.7 210 13:53 02.11.2020
5986 Clear 27 1010 42 10000 5.7 210 13:23 02.11.2020
5987 Clear 27 1010 42 10000 5.7 220 12:55 02.11.2020
5988 Clear 28 1010 42 10000 5.7 220 12:30 02.11.2020
5989 Clear 28 1010 42 10000 5.7 220 11:56 02.11.2020
5990 Clear 28 1010 42 10000 5.7 220 11:37 02.11.2020
5991 Clear 28 1010 42 10000 5.7 220 11:18 02.11.2020
5992 Clear 27 1011 44 10000 4.6 220 10:41 02.11.2020
5993 Clear 26 1011 44 10000 4.6 220 10:20 02.11.2020
5994 Clear 23 1011 44 10000 4.1 220 09:49 02.11.2020
5995 Clear 22 1011 47 10000 3.1 210 09:23 02.11.2020
5996 Clear 24 1011 49 10000 2.6 150 08:42 02.11.2020
5997 Clear 22 1011 49 10000 2.6 150 08:22 02.11.2020
5998 Clear 22 1011 53 10000 5.7 130 07:50 02.11.2020
5999 Clear 22 1011 53 10000 5.7 130 07:50 02.11.2020
6000 Clear 19 1011 68 10000 3.6 210 06:59 02.11.2020
6001 Clear 18 1011 68 10000 3.6 210 06:36 02.11.2020
6002 Clear 17 1010 72 10000 4.6 220 03:27 02.11.2020
6003 Clear 17 1011 72 10000 6.2 210 01:25 02.11.2020
6004 Clear 18 1012 72 10000 2.6 170 00:35 02.11.2020
6005 Clear 18 1012 72 10000 3.6 200 23:42 01.11.2020
6006 Clear 19 1012 72 10000 3.6 200 23:24 01.11.2020
6007 Clear 18 1013 68 10000 6.7 150 22:46 01.11.2020
6008 Clear 18 1013 68 10000 6.7 150 22:25 01.11.2020
6009 Clear 19 1014 64 10000 6.7 160 21:58 01.11.2020
6010 Clear 19 1014 64 10000 6.7 160 21:38 01.11.2020
6011 Clear 19 1014 64 10000 6.7 160 21:20 01.11.2020
6012 Clear 19 1014 72 10000 5.1 230 20:42 01.11.2020
6013 Clear 18 1014 72 10000 5.1 230 20:42 01.11.2020
6014 Clear 19 1014 72 10000 5.1 230 20:23 01.11.2020
6015 Clear 19 1014 82 10000 5.1 230 19:43 01.11.2020
6016 Clear 19 1014 82 10000 5.1 230 19:25 01.11.2020
6017 Clear 19 1013 77 10000 7.7 230 18:44 01.11.2020
6018 Clear 20 1013 77 10000 7.7 230 18:20 01.11.2020
6019 Clear 20 1013 77 10000 7.7 230 18:20 01.11.2020
6020 Clear 21 1013 64 10000 7.7 230 17:59 01.11.2020
6021 Clear 21 1013 64 10000 7.7 230 17:41 01.11.2020
6022 Clear 22 1013 64 10000 7.7 230 17:22 01.11.2020
6023 Clear 23 1014 60 10000 7.2 220 16:41 01.11.2020
6024 Clear 23 1014 60 10000 7.2 220 16:21 01.11.2020
6025 Clear 24 1014 50 10000 6.7 220 15:54 01.11.2020
6026 Clear 25 1014 50 10000 6.7 220 15:36 01.11.2020
6027 Clear 24 1014 50 10000 6.7 220 15:18 01.11.2020
6028 Clear 25 1014 41 10000 7.2 210 14:44 01.11.2020
6029 Clear 24 1014 41 10000 7.2 210 14:21 01.11.2020
6030 Clear 26 1015 32 10000 5.7 210 13:49 01.11.2020
6031 Clear 26 1015 32 10000 5.7 210 13:31 01.11.2020
6032 Clear 27 1015 30 10000 7.2 190 12:44 01.11.2020
6033 Clear 26 1015 30 10000 7.2 190 12:26 01.11.2020
6034 Clear 26 1016 31 10000 4.1 210 11:55 01.11.2020
6035 Clear 26 1016 31 10000 4.1 210 11:37 01.11.2020
6036 Clear 26 1016 31 10000 4.1 210 11:18 01.11.2020
6037 Clear 24 1017 36 10000 6.2 200 10:40 01.11.2020
6038 Clear 24 1017 36 10000 6.2 200 10:22 01.11.2020
6039 Clear 24 1017 33 10000 3.1 200 09:46 01.11.2020
6040 Clear 23 1017 40 10000 5.1 220 08:50 01.11.2020
6041 Clear 20 1017 42 10000 2.6 200 08:24 01.11.2020
6042 Clear 20 1017 52 10000 6.2 210 07:45 01.11.2020
6043 Clear 17 1017 55 10000 6.2 200 06:22 01.11.2020
6044 Clear 15 1019 58 10000 6.7 190 01:53 01.11.2020
6045 Clear 15 1020 58 10000 5.1 170 00:55 01.11.2020
6046 Clear 15 1020 62 10000 6.7 190 23:42 31.10.2020
6047 Clear 15 1020 62 10000 6.7 190 23:19 31.10.2020
6048 Clear 16 1021 55 10000 6.2 190 22:43 31.10.2020
6049 Clear 16 1021 55 10000 6.2 190 22:23 31.10.2020
6050 Clear 16 1021 59 10000 6.7 190 21:46 31.10.2020
6051 Clear 16 1021 59 10000 6.7 190 21:21 31.10.2020
6052 Clear 16 1021 59 10000 9.3 170 20:41 31.10.2020
6053 Clear 17 1021 59 10000 9.3 170 20:20 31.10.2020
6054 Clear 17 1021 59 10000 8.2 190 19:44 31.10.2020
6055 Clear 17 1021 59 10000 8.2 190 19:24 31.10.2020
6056 Clear 17 1021 59 10000 8.7 190 18:59 31.10.2020
6057 Clear 17 1021 59 10000 8.7 190 18:40 31.10.2020
6058 Clear 18 1020 52 10000 9.3 190 17:47 31.10.2020
6059 Clear 19 1020 52 10000 9.3 190 17:26 31.10.2020
6060 Clear 19 1020 52 10000 11.8 180 16:55 31.10.2020
6061 Clear 19 1020 52 10000 11.8 180 16:34 31.10.2020
6062 Clear 20 1020 49 10000 11.8 180 15:55 31.10.2020
6063 Clear 20 1020 49 10000 11.8 180 15:26 31.10.2020
6064 Clear 21 1021 46 10000 11.3 190 14:55 31.10.2020
6065 Clear 21 1021 46 10000 11.3 190 14:32 31.10.2020
6066 Clear 21 1021 43 10000 11.3 190 13:57 31.10.2020
6067 Clear 21 1021 43 10000 11.3 190 13:39 31.10.2020
6068 Clear 21 1021 43 10000 11.3 190 13:19 31.10.2020
6069 Clear 21 1022 35 10000 9.8 190 12:27 31.10.2020
6070 Clear 21 1023 33 10000 11.3 160 11:42 31.10.2020
6071 Clear 21 1023 33 10000 11.3 160 11:24 31.10.2020
6072 Clear 21 1024 37 10000 10.3 170 10:54 31.10.2020
6073 Clear 21 1024 37 10000 10.3 170 10:32 31.10.2020
6074 Clear 20 1024 42 10000 8.7 190 09:41 31.10.2020
6075 Clear 19 1024 42 10000 8.7 190 09:20 31.10.2020
6076 Clear 18 1024 42 10000 10.8 190 08:28 31.10.2020
6077 Clear 17 1025 51 10000 10.8 170 07:48 31.10.2020
6078 Clear 16 1025 51 10000 10.8 170 07:26 31.10.2020
6079 Clear 14 1025 58 10000 7.7 150 06:38 31.10.2020
6080 Clear 13 1024 62 10000 8.2 170 03:50 31.10.2020
6081 Clear 13 1024 62 10000 8.2 170 03:21 31.10.2020
6082 Clear 13 1025 62 10000 9.3 160 01:29 31.10.2020
6083 Clear 14 1026 62 10000 8.2 170 00:46 31.10.2020
6084 Clear 14 1026 58 10000 9.8 170 23:50 30.10.2020
6085 Clear 14 1026 58 10000 9.8 170 23:24 30.10.2020
6086 Clear 14 1027 62 10000 9.3 170 22:45 30.10.2020
6087 Clear 14 1027 62 10000 9.3 170 22:24 30.10.2020
6088 Clear 14 1027 67 10000 8.7 170 21:52 30.10.2020
6089 Clear 14 1027 67 10000 8.7 170 21:30 30.10.2020
6090 Clear 14 1027 67 10000 9.8 170 20:59 30.10.2020
6091 Clear 14 1027 67 10000 9.8 170 20:39 30.10.2020
6092 Clear 14 1027 67 10000 9.8 170 20:20 30.10.2020
6093 Clear 15 1027 62 10000 10.3 170 19:46 30.10.2020
6094 Clear 15 1027 62 10000 10.3 170 19:19 30.10.2020
6095 Clear 15 1027 62 10000 11.3 170 18:50 30.10.2020
6096 Clear 15 1027 62 10000 11.3 170 18:28 30.10.2020
6097 Clear 16 1026 59 10000 11.8 180 17:49 30.10.2020
6098 Clear 16 1026 59 10000 12.3 170 17:24 30.10.2020
6099 Clear 17 1026 55 10000 12.3 180 16:57 30.10.2020
6100 Clear 17 1026 52 10000 11.3 190 16:37 30.10.2020
6101 Clear 17 1026 52 10000 11.3 190 16:19 30.10.2020
6102 Clear 18 1026 42 10000 11.3 180 15:40 30.10.2020
6103 Clear 18 1026 42 10000 11.3 180 15:20 30.10.2020
6104 Clear 18 1026 42 10000 11.3 180 14:44 30.10.2020
6105 Clear 18 1026 42 10000 11.3 180 14:25 30.10.2020
6106 Clear 19 1027 39 10000 10.3 190 13:47 30.10.2020
6107 Clear 19 1027 39 10000 10.3 190 13:22 30.10.2020
6108 Clear 19 1028 39 10000 8.7 190 12:55 30.10.2020
6109 Clear 19 1028 39 10000 8.7 190 12:23 30.10.2020
6110 Clear 19 1028 39 10000 8.2 180 11:56 30.10.2020
6111 Clear 19 1028 39 10000 8.2 180 11:23 30.10.2020
6112 Clouds 18 1028 42 10000 6.7 170 10:58 30.10.2020
6113 Clouds 18 1028 42 10000 6.7 170 10:39 30.10.2020
6114 Clouds 18 1028 42 10000 6.7 170 10:21 30.10.2020
6115 Clouds 17 1028 45 10000 5.7 170 09:43 30.10.2020
6116 Clouds 17 1028 45 10000 5.7 170 09:20 30.10.2020
6117 Clear 17 1028 48 10000 4.1 150 08:39 30.10.2020
6118 Clear 16 1028 48 10000 4.1 150 08:21 30.10.2020
6119 Clear 15 1028 54 10000 2.6 130 07:47 30.10.2020
6120 Clear 14 1028 54 10000 2.6 130 07:27 30.10.2020
6121 Clouds 11 1028 81 10000 1 60 06:34 30.10.2020
6122 Clear 8 1027 81 10000 1 160 04:28 30.10.2020
6123 Clouds 10 1026 75 10000 1 300 02:24 30.10.2020
6124 Clouds 10 1027 66 10000 1 210 00:39 30.10.2020
6125 Clouds 11 1027 58 10000 4.1 220 23:48 29.10.2020
6126 Clouds 12 1027 58 10000 4.1 220 23:30 29.10.2020
6127 Clouds 11 1026 71 10000 2.1 250 22:50 29.10.2020
6128 Clouds 11 1026 71 10000 2.1 250 22:29 29.10.2020
6129 Clear 11 1026 66 10000 1 0 21:56 29.10.2020
6130 Clear 11 1026 66 10000 1 0 21:36 29.10.2020
6131 Clear 11 1026 66 10000 1 0 21:18 29.10.2020
6132 Clear 11 1026 66 10000 1 0 21:18 29.10.2020
6133 Clear 13 1025 54 10000 2.6 220 20:40 29.10.2020
6134 Clear 13 1025 54 10000 2.6 220 20:19 29.10.2020
6135 Clouds 13 1025 50 10000 3.1 210 19:42 29.10.2020
6136 Clouds 13 1025 50 10000 3.1 210 19:22 29.10.2020
6137 Clouds 14 1024 47 10000 4.1 230 18:49 29.10.2020
6138 Clouds 14 1024 47 10000 4.1 230 18:29 29.10.2020
6139 Clouds 15 1023 44 10000 5.7 230 17:57 29.10.2020
6140 Clouds 15 1023 44 10000 5.7 230 17:38 29.10.2020
6141 Clouds 15 1023 44 10000 5.7 230 17:18 29.10.2020
6142 Clouds 16 1022 51 10000 5.7 230 16:45 29.10.2020
6143 Clouds 15 1022 51 10000 5.7 230 16:19 29.10.2020
6144 Clouds 16 1021 48 10000 6.2 250 15:56 29.10.2020
6145 Clouds 16 1021 48 10000 6.2 250 15:37 29.10.2020
6146 Clouds 16 1021 48 10000 6.2 250 15:18 29.10.2020
6147 Clouds 16 1021 51 10000 6.7 260 14:44 29.10.2020
6148 Clouds 16 1021 51 10000 6.7 260 14:22 29.10.2020
6149 Clouds 17 1020 54 10000 4.6 250 13:47 29.10.2020
6150 Clouds 17 1020 54 10000 4.6 250 13:27 29.10.2020
6151 Clouds 15 1020 58 10000 6.7 250 12:44 29.10.2020
6152 Clouds 17 1019 55 10000 6.2 250 12:20 29.10.2020
6153 Clouds 17 1019 55 10000 6.2 250 11:56 29.10.2020
6154 Clouds 17 1019 55 10000 6.2 250 11:38 29.10.2020
6155 Clouds 17 1019 55 10000 6.2 250 11:19 29.10.2020
6156 Clouds 17 1019 55 10000 7.2 290 10:37 29.10.2020
6157 Clouds 17 1019 55 10000 7.2 290 10:37 29.10.2020
6158 Clouds 17 1019 55 10000 7.2 290 10:18 29.10.2020
6159 Clouds 17 1018 63 10000 6.7 280 09:48 29.10.2020
6160 Clouds 17 1018 63 10000 6.7 280 09:24 29.10.2020
6161 Clouds 16 1017 67 10000 6.2 290 08:44 29.10.2020
6162 Clouds 16 1017 67 10000 6.2 290 08:24 29.10.2020
6163 Rain 16 1017 82 10000 6.2 320 07:49 29.10.2020
6164 Rain 15 1017 82 10000 6.2 320 07:19 29.10.2020
6165 Clouds 15 1016 93 10000 3.6 330 06:30 29.10.2020
6166 Rain 14 1014 93 10000 5.1 310 04:48 29.10.2020
6167 Rain 15 1012 87 5000 7.7 350 02:28 29.10.2020
6168 Rain 15 1014 92 10000 1.79 90 00:45 29.10.2020
6169 Rain 15 1013 82 10000 8.7 350 00:22 29.10.2020
6170 Rain 15 1014 89 10000 0.89 338 23:42 28.10.2020
6171 Rain 15 1014 88 10000 0.89 68 23:20 28.10.2020
6172 Rain 16 1014 85 10000 2.24 90 22:43 28.10.2020
6173 Clouds 16 1013 87 10000 7.2 340 22:25 28.10.2020
6174 Clouds 15 1013 87 10000 7.2 340 21:45 28.10.2020
6175 Clouds 15 1013 87 10000 7.2 340 21:26 28.10.2020
6176 Rain 16 1014 82 10000 8.7 330 20:58 28.10.2020
6177 Rain 16 1014 82 10000 8.7 330 20:40 28.10.2020
6178 Rain 16 1014 82 10000 8.7 330 20:18 28.10.2020
6179 Clouds 16 1013 72 10000 9.8 320 19:42 28.10.2020
6180 Clouds 16 1013 72 10000 9.8 320 19:24 28.10.2020
6181 Clouds 17 1013 72 10000 9.3 320 18:43 28.10.2020
6182 Clouds 17 1013 67 10000 8.7 310 18:20 28.10.2020
6183 Clouds 17 1013 67 10000 8.7 310 17:43 28.10.2020
6184 Clouds 17 1013 67 10000 8.7 310 17:22 28.10.2020
6185 Clouds 17 1012 63 10000 7.7 300 16:47 28.10.2020
6186 Clouds 17 1012 63 10000 7.7 300 16:29 28.10.2020
6187 Clouds 18 1012 66 10000 4.47 315 15:45 28.10.2020
6188 Clouds 18 1011 59 10000 9.8 300 15:20 28.10.2020
6189 Clouds 19 1012 61 10000 3.58 338 14:57 28.10.2020
6190 Clouds 19 1011 52 10000 10.3 310 14:38 28.10.2020
6191 Clouds 19 1011 52 10000 10.3 310 14:18 28.10.2020
6192 Clouds 20 1013 57 10000 2.68 338 12:39 28.10.2020
6193 Clouds 20 1013 55 10000 4.02 338 12:20 28.10.2020
6194 Clouds 20 1012 55 10000 2.68 315 11:44 28.10.2020
6195 Clouds 19 1013 53 10000 3.58 338 11:23 28.10.2020
6196 Clouds 19 1012 52 10000 8.2 320 10:58 28.10.2020
6197 Clouds 19 1012 52 10000 8.2 320 10:40 28.10.2020
6198 Clouds 19 1012 52 10000 8.2 320 10:22 28.10.2020
6199 Clouds 19 1012 52 10000 8.2 320 10:22 28.10.2020
6200 Clouds 18 1012 59 10000 7.7 320 09:41 28.10.2020
6201 Clouds 17 1012 59 10000 7.7 320 09:21 28.10.2020
6202 Clouds 17 1012 63 10000 5.1 320 08:48 28.10.2020
6203 Clouds 17 1012 63 10000 5.1 320 08:27 28.10.2020
6204 Clouds 17 1013 77 10000 5.1 310 07:48 28.10.2020
6205 Clouds 16 1013 77 10000 5.1 310 07:30 28.10.2020
6206 Clouds 16 1012 82 10000 4.1 330 06:41 28.10.2020
6207 Clouds 15 1011 87 10000 3.6 340 05:51 28.10.2020
6208 Clouds 15 1011 87 10000 3.6 340 05:20 28.10.2020
6209 Clouds 15 1011 87 10000 4.6 330 04:25 28.10.2020
6210 Clouds 16 1011 87 10000 4.6 340 02:26 28.10.2020
6211 Clouds 16 1012 87 10000 4.6 330 01:50 28.10.2020
6212 Clouds 16 1012 82 10000 3.1 330 00:21 28.10.2020
6213 Clouds 16 1012 87 10000 2.6 310 23:43 27.10.2020
6214 Clouds 16 1012 87 10000 2.6 310 23:20 27.10.2020
6215 Clouds 16 1012 87 10000 1 0 22:42 27.10.2020
6216 Clouds 17 1012 87 10000 1 0 22:19 27.10.2020
6217 Clouds 17 1012 87 10000 1 0 22:19 27.10.2020
6218 Clouds 17 1012 77 10000 2.6 220 21:56 27.10.2020
6219 Clouds 17 1012 77 10000 2.6 220 21:37 27.10.2020
6220 Clouds 17 1012 77 10000 2.6 220 21:37 27.10.2020
6221 Clouds 17 1012 77 10000 2.6 220 21:37 27.10.2020
6222 Clouds 17 1012 77 10000 2.6 220 21:37 27.10.2020
6223 Clouds 17 1012 77 10000 2.6 220 21:37 27.10.2020
6224 Clouds 17 1012 77 10000 2.6 220 21:19 27.10.2020
6225 Clouds 17 1012 82 10000 2.1 190 20:44 27.10.2020
6226 Clouds 17 1012 82 10000 2.1 190 20:22 27.10.2020
6227 Clouds 17 1012 77 10000 3.6 210 19:39 27.10.2020
6228 Clouds 17 1012 77 10000 3.6 210 19:21 27.10.2020
6229 Clouds 17 1012 72 10000 1.5 0 18:59 27.10.2020
6230 Clouds 17 1012 72 10000 1.5 0 18:40 27.10.2020
6231 Clouds 17 1012 72 10000 1.5 0 18:40 27.10.2020
6232 Clouds 18 1012 72 10000 1.5 0 18:20 27.10.2020
6233 Clouds 18 1011 72 10000 4.6 310 17:44 27.10.2020
6234 Clouds 19 1011 72 10000 4.6 310 17:22 27.10.2020
6235 Clouds 19 1011 68 10000 6.7 310 16:57 27.10.2020
6236 Clouds 20 1011 68 10000 6.7 310 16:39 27.10.2020
6237 Clouds 21 1011 68 10000 6.7 310 16:20 27.10.2020
6238 Clouds 20 1010 72 10000 6.7 300 15:40 27.10.2020
6239 Clouds 20 1010 72 10000 6.7 300 15:21 27.10.2020
6240 Clouds 21 1011 64 10000 7.7 300 14:48 27.10.2020
6241 Clouds 20 1011 64 10000 7.7 300 14:29 27.10.2020
6242 Clear 21 1011 56 10000 8.2 300 13:56 27.10.2020
6243 Clear 21 1011 56 10000 8.2 300 13:56 27.10.2020
6244 Clear 21 1011 56 10000 8.2 300 13:25 27.10.2020
6245 Clouds 21 1011 60 10000 7.2 320 12:43 27.10.2020
6246 Clouds 21 1011 60 10000 7.2 320 12:24 27.10.2020
6247 Clouds 21 1012 56 10000 8.7 310 11:44 27.10.2020
6248 Clouds 21 1012 56 10000 8.7 310 11:26 27.10.2020
6249 Clouds 21 1012 60 10000 7.7 330 10:54 27.10.2020
6250 Clouds 21 1012 60 10000 7.7 330 10:36 27.10.2020
6251 Clouds 21 1012 60 10000 7.7 330 10:18 27.10.2020
6252 Clouds 19 1013 68 10000 6.2 10 09:28 27.10.2020
6253 Clouds 19 1012 77 10000 6.2 30 08:56 27.10.2020
6254 Clouds 17 1012 77 10000 6.2 30 08:27 27.10.2020
6255 Clouds 18 1012 87 10000 5.1 360 07:52 27.10.2020
6256 Clouds 17 1012 87 10000 5.1 360 07:33 27.10.2020
6257 Clouds 16 1012 87 10000 5.7 360 06:52 27.10.2020
6258 Clouds 16 1012 87 10000 5.7 360 06:19 27.10.2020
6259 Clouds 15 1011 93 10000 3.6 10 05:44 27.10.2020
6260 Clouds 15 1010 93 10000 3.6 330 04:58 27.10.2020
6261 Clear 15 1010 87 10000 3.1 340 02:49 27.10.2020
6262 Clear 16 1010 87 10000 3.1 300 01:18 27.10.2020
6263 Clear 17 1010 82 10000 1.5 0 23:59 26.10.2020
6264 Clear 18 1010 82 10000 1.5 0 23:36 26.10.2020
6265 Clear 18 1010 82 10000 1.5 0 22:57 26.10.2020
6266 Clear 18 1010 82 10000 1.5 0 22:31 26.10.2020
6267 Clear 18 1010 82 10000 3.1 240 21:57 26.10.2020
6268 Clear 18 1010 82 10000 3.1 240 21:36 26.10.2020
6269 Clear 18 1010 82 10000 3.1 240 21:18 26.10.2020
6270 Clear 18 1010 82 10000 3.6 240 20:49 26.10.2020
6271 Clear 19 1010 82 10000 3.6 240 20:27 26.10.2020
6272 Clear 19 1010 77 10000 5.1 230 19:49 26.10.2020
6273 Clear 20 1010 77 10000 5.1 230 19:28 26.10.2020
6274 Clear 20 1011 72 10000 5.7 230 18:58 26.10.2020
6275 Clear 20 1011 72 10000 5.7 230 18:39 26.10.2020
6276 Clear 21 1011 72 10000 5.7 230 18:19 26.10.2020
6277 Clear 22 1011 64 10000 4.6 220 17:41 26.10.2020
6278 Clear 22 1011 64 10000 4.6 220 17:23 26.10.2020
6279 Clear 23 1011 53 10000 6.2 200 16:45 26.10.2020
6280 Clear 24 1011 53 10000 6.2 200 16:22 26.10.2020
6281 Clear 25 1011 44 10000 6.2 210 15:55 26.10.2020
6282 Clear 24 1011 44 10000 6.2 210 15:36 26.10.2020
6283 Clear 25 1011 44 10000 6.2 210 15:18 26.10.2020
6284 Clear 24 1012 44 10000 5.7 200 14:44 26.10.2020
6285 Clear 25 1012 44 10000 5.7 200 14:18 26.10.2020
6286 Clear 26 1012 41 10000 4.6 200 13:38 26.10.2020
6287 Clear 25 1012 41 10000 4.6 200 13:20 26.10.2020
6288 Clear 24 1013 44 10000 5.1 210 12:42 26.10.2020
6289 Clear 24 1013 44 10000 5.1 210 12:23 26.10.2020
6290 Clear 24 1014 47 10000 5.1 230 11:47 26.10.2020
6291 Clear 23 1014 47 10000 5.1 230 11:25 26.10.2020
6292 Clear 23 1014 47 10000 1 0 10:58 26.10.2020
6293 Clear 23 1014 47 10000 1 0 10:58 26.10.2020
6294 Clear 24 1014 47 10000 1 0 10:40 26.10.2020
6295 Clear 23 1014 47 10000 1 0 10:19 26.10.2020
6296 Clear 22 1015 53 10000 1.5 0 09:43 26.10.2020
6297 Clear 22 1015 53 10000 1.5 0 09:21 26.10.2020
6298 Clear 20 1015 60 10000 2.1 220 08:29 26.10.2020
6299 Clear 19 1015 72 10000 2.1 210 07:53 26.10.2020
6300 Clear 18 1015 72 10000 2.1 210 07:34 26.10.2020
6301 Clear 17 1015 87 10000 1.5 0 06:37 26.10.2020
6302 Clear 15 1015 87 10000 3.1 210 04:22 26.10.2020
6303 Clear 16 1015 77 10000 5.1 190 03:42 26.10.2020
6304 Clear 16 1016 77 10000 5.1 190 01:40 26.10.2020
6305 Clear 16 1016 77 10000 6.2 180 00:57 26.10.2020
6306 Clear 16 1019 84 10000 1.79 270 00:32 26.10.2020
6307 Clear 16 1017 77 10000 9.3 170 23:41 25.10.2020
6308 Clear 16 1017 77 10000 9.3 170 23:21 25.10.2020
6309 Clear 16 1017 77 10000 9.3 170 22:40 25.10.2020
6310 Clear 16 1017 77 10000 9.3 170 22:20 25.10.2020
6311 Clear 16 1018 77 10000 8.7 180 21:41 25.10.2020
6312 Clear 16 1018 77 10000 8.7 180 21:22 25.10.2020
6313 Clouds 16 1018 82 10000 7.2 190 20:46 25.10.2020
6314 Clouds 16 1018 82 10000 7.2 190 20:28 25.10.2020
6315 Clouds 16 1018 77 10000 8.7 180 19:59 25.10.2020
6316 Clouds 16 1018 77 10000 8.7 180 19:41 25.10.2020
6317 Clouds 17 1018 77 10000 8.7 180 19:21 25.10.2020
6318 Clouds 17 1018 72 10000 9.8 180 18:55 25.10.2020
6319 Clouds 17 1018 72 10000 9.8 180 18:36 25.10.2020
6320 Clouds 17 1018 72 10000 9.8 180 18:18 25.10.2020
6321 Clouds 17 1017 67 10000 11.3 170 17:39 25.10.2020
6322 Clouds 17 1017 67 10000 11.3 170 17:20 25.10.2020
6323 Clouds 19 1017 60 10000 10.3 170 16:55 25.10.2020
6324 Clouds 19 1017 60 10000 10.3 170 16:37 25.10.2020
6325 Clouds 19 1017 60 10000 10.3 170 16:18 25.10.2020
6326 Clouds 18 1017 63 10000 10.8 180 15:41 25.10.2020
6327 Clouds 19 1017 63 10000 10.8 180 15:23 25.10.2020
6328 Clouds 19 1018 63 10000 11.8 190 14:43 25.10.2020
6329 Clouds 19 1018 63 10000 11.8 190 14:24 25.10.2020
6330 Clouds 19 1018 68 10000 10.3 170 13:43 25.10.2020
6331 Clouds 19 1018 68 10000 10.3 170 13:20 25.10.2020
6332 Clouds 19 1018 64 10000 9.3 180 12:47 25.10.2020
6333 Clouds 19 1018 64 10000 9.3 180 12:26 25.10.2020
6334 Clouds 20 1018 64 10000 7.2 200 11:55 25.10.2020
6335 Clouds 20 1018 64 10000 7.2 200 11:36 25.10.2020
6336 Clouds 20 1018 64 10000 7.2 200 11:18 25.10.2020
6337 Clouds 20 1018 64 10000 4.1 200 10:44 25.10.2020
6338 Clouds 20 1018 64 10000 4.1 200 10:24 25.10.2020
6339 Clouds 19 1018 68 10000 3.1 180 09:46 25.10.2020
6340 Clouds 19 1018 68 10000 3.1 180 09:19 25.10.2020
6341 Clouds 18 1018 72 10000 2.1 180 08:47 25.10.2020
6342 Clouds 18 1018 72 10000 2.1 180 08:29 25.10.2020
6343 Clouds 17 1018 72 10000 1 0 07:50 25.10.2020
6344 Clouds 17 1018 72 10000 1 0 07:32 25.10.2020
6345 Clouds 16 1018 77 10000 2.6 340 06:51 25.10.2020
6346 Clouds 16 1018 82 10000 2.1 350 05:59 25.10.2020
6347 Clouds 15 1017 82 10000 1 360 04:52 25.10.2020
6348 Clouds 15 1017 82 10000 1.5 0 03:53 25.10.2020
6349 Clouds 15 1016 77 10000 3.6 220 02:18 25.10.2020
6350 Clouds 15 1016 93 10000 1.5 140 00:49 25.10.2020
6351 Clouds 15 1016 93 10000 1.5 140 00:20 25.10.2020
6352 Clouds 15 1016 93 10000 1.5 40 23:54 24.10.2020
6353 Clouds 15 1016 93 10000 1.5 40 23:26 24.10.2020
6354 Clouds 15 1016 93 10000 2.6 280 22:57 24.10.2020
6355 Clouds 16 1016 93 10000 2.6 280 22:38 24.10.2020
6356 Clouds 16 1016 93 10000 2.6 280 22:20 24.10.2020
6357 Clouds 16 1015 93 10000 7.2 330 21:42 24.10.2020
6358 Clouds 16 1015 93 10000 7.2 330 21:21 24.10.2020
6359 Clear 16 1014 82 10000 5.7 320 20:48 24.10.2020
6360 Clear 16 1014 82 10000 5.7 320 20:23 24.10.2020
6361 Clear 17 1013 82 10000 5.1 320 19:57 24.10.2020
6362 Clear 18 1013 82 10000 5.1 320 19:37 24.10.2020
6363 Clear 19 1013 72 10000 5.7 330 19:19 24.10.2020
6364 Clear 19 1013 72 10000 5.7 330 18:46 24.10.2020
6365 Clear 20 1013 72 10000 5.7 330 18:26 24.10.2020
6366 Clear 21 1013 64 10000 4.1 330 17:41 24.10.2020
6367 Clear 20 1013 64 10000 4.1 330 17:22 24.10.2020
6368 Clear 22 1013 64 10000 5.1 300 16:47 24.10.2020
6369 Clear 22 1013 64 10000 5.1 300 16:28 24.10.2020
6370 Clouds 22 1014 64 10000 5.1 310 15:41 24.10.2020
6371 Clouds 23 1014 64 10000 5.1 310 15:20 24.10.2020
6372 Clouds 22 1014 68 10000 4.1 340 14:56 24.10.2020
6373 Clouds 23 1014 68 10000 4.1 340 14:29 24.10.2020
6374 Clouds 22 1015 72 10000 3.6 330 13:50 24.10.2020
6375 Clouds 22 1015 72 10000 3.6 330 13:31 24.10.2020
6376 Clouds 21 1015 77 10000 3.1 340 12:58 24.10.2020
6377 Clouds 21 1016 77 10000 3.6 310 12:37 24.10.2020
6378 Clouds 20 1016 77 10000 3.6 310 12:19 24.10.2020
6379 Rain 19 1017 77 10000 4.6 310 11:43 24.10.2020
6380 Clouds 19 1017 82 10000 5.7 320 11:18 24.10.2020
6381 Clouds 17 1017 87 10000 5.1 320 10:42 24.10.2020
6382 Clouds 18 1017 87 10000 5.1 320 10:24 24.10.2020
6383 Clouds 17 1016 87 10000 4.6 310 09:44 24.10.2020
6384 Clouds 17 1016 87 10000 5.1 320 09:25 24.10.2020
6385 Clouds 16 1016 93 10000 3.6 10 08:54 24.10.2020
6386 Clouds 16 1016 93 10000 3.1 10 08:18 24.10.2020
6387 Clouds 16 1016 93 10000 3.1 10 07:50 24.10.2020
6388 Clouds 16 1016 93 10000 3.1 10 07:20 24.10.2020
6389 Clouds 16 1015 93 10000 3.6 10 06:49 24.10.2020
6390 Drizzle 16 1015 93 8000 4.1 20 05:27 24.10.2020
6391 Mist 15 1015 93 4000 3.1 340 02:20 24.10.2020
6392 Fog 15 1016 93 800 4.1 330 00:55 24.10.2020
6393 Fog 15 1016 93 800 4.1 330 00:37 24.10.2020
6394 Fog 16 1016 93 800 4.1 330 00:19 24.10.2020
6395 Clear 16 1016 87 10000 3.6 300 23:40 23.10.2020
6396 Clear 16 1016 87 10000 3.6 300 23:22 23.10.2020
6397 Clear 18 1016 93 10000 2.6 250 22:42 23.10.2020
6398 Clear 17 1016 93 10000 2.6 250 22:21 23.10.2020
6399 Clouds 18 1015 93 10000 2.6 240 21:56 23.10.2020
6400 Clouds 18 1015 93 10000 2.6 240 21:38 23.10.2020
6401 Clouds 19 1015 93 10000 2.6 240 21:20 23.10.2020
6402 Clouds 19 1015 93 10000 3.1 230 20:39 23.10.2020
6403 Clouds 19 1015 93 10000 3.1 230 20:19 23.10.2020
6404 Clouds 19 1015 88 10000 4.1 210 19:45 23.10.2020
6405 Clouds 19 1015 88 10000 4.1 200 19:26 23.10.2020
6406 Clouds 19 1015 88 10000 5.1 190 18:47 23.10.2020
6407 Clouds 19 1015 88 10000 5.1 190 18:29 23.10.2020
6408 Clouds 20 1015 82 10000 5.7 180 17:46 23.10.2020
6409 Clear 22 1015 73 10000 4.6 180 17:22 23.10.2020
6410 Clear 21 1015 64 10000 4.1 160 16:51 23.10.2020
6411 Clear 21 1015 64 10000 4.1 160 16:33 23.10.2020
6412 Clear 22 1015 60 10000 4.1 180 15:58 23.10.2020
6413 Clear 22 1015 60 10000 4.1 180 15:39 23.10.2020
6414 Clouds 22 1016 56 10000 4.1 310 15:19 23.10.2020
6415 Clouds 22 1016 56 10000 4.1 310 14:47 23.10.2020
6416 Clouds 22 1016 56 10000 4.1 310 14:29 23.10.2020
6417 Clouds 22 1016 60 10000 4.1 210 13:42 23.10.2020
6418 Clouds 22 1016 60 10000 4.1 210 13:23 23.10.2020
6419 Clear 21 1016 60 10000 2.1 200 12:50 23.10.2020
6420 Clear 23 1016 60 10000 2.1 200 12:30 23.10.2020
6421 Clear 22 1016 56 10000 1.5 0 11:50 23.10.2020
6422 Clear 21 1016 56 10000 1.5 0 11:27 23.10.2020
6423 Clear 22 1016 60 10000 1.5 0 10:54 23.10.2020
6424 Clear 20 1016 60 10000 1.5 0 10:26 23.10.2020
6425 Clear 20 1016 72 10000 1 0 09:57 23.10.2020
6426 Clear 20 1016 72 10000 1 0 09:39 23.10.2020
6427 Clear 20 1016 72 10000 1 0 09:20 23.10.2020
6428 Clear 20 1017 82 8000 2.1 340 08:50 23.10.2020
6429 Clouds 18 1017 82 8000 2.1 340 08:24 23.10.2020
6430 Clouds 16 1016 87 10000 2.6 360 07:26 23.10.2020
6431 Clouds 16 1016 87 10000 2.6 360 07:26 23.10.2020
6432 Clouds 15 1016 93 10000 3.1 30 06:49 23.10.2020
6433 Clouds 15 1015 93 10000 2.1 330 06:20 23.10.2020
6434 Clear 17 1012 93 10000 3.6 230 03:38 23.10.2020
6435 Clear 17 1012 93 10000 6.2 230 02:26 23.10.2020
6436 Clear 17 1012 93 10000 4.6 220 00:49 23.10.2020
6437 Clear 17 1012 93 10000 4.6 220 00:29 23.10.2020
6438 Clear 17 1013 93 10000 6.2 230 23:37 22.10.2020
6439 Clear 17 1013 93 10000 6.2 230 23:18 22.10.2020
6440 Clear 17 1013 93 10000 7.2 230 22:44 22.10.2020
6441 Clear 17 1013 93 10000 7.2 230 22:22 22.10.2020
6442 Clear 17 1014 87 10000 7.2 220 21:49 22.10.2020
6443 Clear 17 1014 87 10000 7.2 220 21:31 22.10.2020
6444 Clear 17 1014 87 10000 8.7 220 20:59 22.10.2020
6445 Clear 17 1014 87 10000 8.7 220 20:41 22.10.2020
6446 Clear 17 1014 87 10000 8.7 220 20:21 22.10.2020
6447 Clear 17 1014 82 10000 7.7 210 19:42 22.10.2020
6448 Clear 17 1014 82 10000 7.7 210 19:20 22.10.2020
6449 Clear 18 1014 77 10000 8.7 200 18:44 22.10.2020
6450 Clear 18 1014 77 10000 8.7 200 18:22 22.10.2020
6451 Clear 19 1014 72 10000 9.3 200 17:48 22.10.2020
6452 Clear 20 1014 72 10000 9.3 200 17:26 22.10.2020
6453 Clear 21 1014 64 10000 9.3 200 16:59 22.10.2020
6454 Clear 21 1014 64 10000 9.3 200 16:41 22.10.2020
6455 Clear 21 1014 64 10000 9.3 200 16:23 22.10.2020
6456 Clear 22 1015 64 10000 8.7 190 15:48 22.10.2020
6457 Clear 22 1015 64 10000 8.7 190 15:26 22.10.2020
6458 Clear 22 1015 60 10000 8.2 200 14:50 22.10.2020
6459 Clear 23 1015 60 10000 8.2 200 14:26 22.10.2020
6460 Clear 23 1015 60 10000 8.2 200 14:26 22.10.2020
6461 Clear 22 1015 56 10000 7.7 200 13:49 22.10.2020
6462 Clear 23 1015 56 10000 7.7 200 13:24 22.10.2020
6463 Clear 23 1015 53 10000 6.7 210 12:57 22.10.2020
6464 Clear 22 1015 53 10000 6.7 210 12:27 22.10.2020
6465 Clear 22 1016 53 10000 5.1 210 11:50 22.10.2020
6466 Clear 22 1016 53 10000 5.1 210 11:20 22.10.2020
6467 Clear 22 1016 49 10000 4.1 200 10:52 22.10.2020
6468 Clear 21 1016 49 10000 4.1 200 10:30 22.10.2020
6469 Clear 20 1016 68 10000 5.1 210 09:59 22.10.2020
6470 Clear 20 1016 68 10000 5.1 210 09:41 22.10.2020
6471 Clear 19 1017 77 10000 4.1 210 08:57 22.10.2020
6472 Clear 18 1017 77 10000 4.1 210 08:38 22.10.2020
6473 Clear 18 1017 77 10000 4.1 210 08:18 22.10.2020
6474 Clear 16 1017 93 10000 5.1 230 07:43 22.10.2020
6475 Clear 15 1017 87 10000 5.1 220 06:59 22.10.2020
6476 Clear 14 1017 87 10000 5.1 220 06:36 22.10.2020
6477 Clear 14 1017 87 10000 5.7 210 05:42 22.10.2020
6478 Clear 14 1017 87 10000 5.7 210 05:20 22.10.2020
6479 Clear 14 1018 87 10000 8.2 210 02:25 22.10.2020
6480 Clear 14 1019 87 10000 7.7 200 00:27 22.10.2020
6481 Clear 14 1020 87 10000 8.2 200 23:58 21.10.2020
6482 Clear 14 1020 87 10000 8.2 200 23:37 21.10.2020
6483 Clear 14 1020 82 10000 6.2 200 22:58 21.10.2020
6484 Clear 15 1020 82 10000 6.2 200 22:36 21.10.2020
6485 Clear 14 1020 82 10000 6.2 200 22:18 21.10.2020
6486 Clear 14 1020 82 10000 7.2 200 21:42 21.10.2020
6487 Clear 15 1020 82 10000 7.2 200 21:19 21.10.2020
6488 Clear 15 1020 77 10000 7.2 190 20:48 21.10.2020
6489 Clear 15 1020 77 10000 7.2 190 20:19 21.10.2020
6490 Clear 15 1019 77 10000 7.7 190 19:59 21.10.2020
6491 Clear 15 1019 77 10000 7.7 190 19:38 21.10.2020
6492 Clear 16 1019 77 10000 7.7 190 19:18 21.10.2020
6493 Clear 17 1019 63 10000 7.2 180 18:46 21.10.2020
6494 Clear 17 1019 63 10000 7.2 180 18:25 21.10.2020
6495 Clear 17 1019 59 10000 5.1 170 17:45 21.10.2020
6496 Clear 18 1019 59 10000 5.1 170 17:20 21.10.2020
6497 Clear 19 1019 59 10000 6.7 170 16:56 21.10.2020
6498 Clear 19 1019 59 10000 6.7 170 16:36 21.10.2020
6499 Clear 20 1019 59 10000 6.7 170 16:18 21.10.2020
6500 Clear 20 1020 55 10000 7.2 160 15:42 21.10.2020
6501 Clear 20 1020 55 10000 7.2 160 15:20 21.10.2020
6502 Clear 19 1020 52 10000 5.1 170 14:45 21.10.2020
6503 Clear 19 1020 52 10000 5.1 170 14:27 21.10.2020
6504 Clear 19 1021 52 10000 4.6 190 13:46 21.10.2020
6505 Clear 19 1021 52 10000 4.6 190 13:26 21.10.2020
6506 Clear 19 1021 52 10000 5.7 190 12:55 21.10.2020
6507 Clear 19 1021 52 10000 5.7 190 12:37 21.10.2020
6508 Clear 18 1021 52 10000 5.7 190 12:18 21.10.2020
6509 Clear 19 1022 55 10000 6.7 190 11:40 21.10.2020
6510 Clear 18 1022 55 10000 6.7 190 11:20 21.10.2020
6511 Clear 18 1023 55 10000 7.2 190 10:46 21.10.2020
6512 Clear 18 1023 55 10000 7.2 190 10:25 21.10.2020
6513 Clear 17 1023 59 10000 8.2 190 09:53 21.10.2020
6514 Clear 17 1023 59 10000 8.2 190 09:53 21.10.2020
6515 Clear 16 1023 59 10000 8.2 190 09:33 21.10.2020
6516 Clear 16 1023 67 10000 6.2 190 08:56 21.10.2020
6517 Clear 15 1023 67 10000 6.2 190 08:38 21.10.2020
6518 Clear 15 1023 67 10000 6.2 190 08:19 21.10.2020
6519 Clear 12 1022 93 10000 1.5 180 07:37 21.10.2020
6520 Clear 10 1022 87 10000 1 0 06:55 21.10.2020
6521 Clear 9 1022 87 10000 1 0 06:29 21.10.2020
6522 Clear 9 1022 81 10000 1.5 180 04:47 21.10.2020
6523 Clear 11 1023 81 10000 1.5 200 00:52 21.10.2020
6524 Clear 12 1024 76 10000 2.1 170 23:49 20.10.2020
6525 Clear 12 1024 76 10000 2.1 170 23:19 20.10.2020
6526 Clear 13 1024 66 10000 3.6 190 22:29 20.10.2020
6527 Clear 13 1024 62 10000 4.6 190 21:50 20.10.2020
6528 Clear 14 1024 62 10000 4.6 190 21:21 20.10.2020
6529 Clear 14 1024 67 10000 6.2 180 20:57 20.10.2020
6530 Clear 14 1024 67 10000 6.2 180 20:38 20.10.2020
6531 Clear 14 1024 67 10000 6.2 180 20:20 20.10.2020
6532 Clear 15 1024 62 10000 6.7 190 19:44 20.10.2020
6533 Clear 16 1024 62 10000 6.7 190 19:22 20.10.2020
6534 Clear 16 1023 51 10000 7.7 190 18:54 20.10.2020
6535 Clear 17 1023 51 10000 7.7 190 18:36 20.10.2020
6536 Clear 18 1022 48 10000 6.7 180 17:50 20.10.2020
6537 Clear 18 1022 48 10000 6.7 180 17:31 20.10.2020
6538 Clear 19 1021 45 10000 4.1 180 16:48 20.10.2020
6539 Clear 19 1021 45 10000 4.1 180 16:28 20.10.2020
6540 Clear 19 1021 48 10000 3.6 200 15:57 20.10.2020
6541 Clear 19 1021 48 10000 3.6 200 15:39 20.10.2020
6542 Clear 19 1021 48 10000 3.6 200 15:20 20.10.2020
6543 Clouds 19 1022 48 10000 3.1 160 14:42 20.10.2020
6544 Clouds 19 1022 48 10000 3.1 160 14:24 20.10.2020
6545 Clouds 19 1022 52 10000 5.7 200 13:44 20.10.2020
6546 Clouds 19 1022 52 10000 5.7 200 13:25 20.10.2020
6547 Clouds 19 1023 59 10000 5.1 210 12:59 20.10.2020
6548 Clouds 19 1023 59 10000 5.1 210 12:40 20.10.2020
6549 Clouds 19 1023 59 10000 5.1 210 12:22 20.10.2020
6550 Clouds 19 1023 45 10000 2.1 0 11:45 20.10.2020
6551 Clouds 20 1023 45 10000 2.1 0 11:27 20.10.2020
6552 Clouds 19 1022 48 10000 3.1 220 10:39 20.10.2020
6553 Clouds 18 1022 48 10000 3.1 220 10:19 20.10.2020
6554 Clouds 18 1021 67 10000 4.6 210 09:43 20.10.2020
6555 Clouds 17 1021 87 10000 1.5 0 09:19 20.10.2020
6556 Clouds 16 1021 87 10000 1.5 0 08:39 20.10.2020
6557 Clouds 15 1020 93 10000 0.5 0 07:54 20.10.2020
6558 Clouds 14 1020 93 10000 0.5 0 07:26 20.10.2020
6559 Clouds 14 1019 93 10000 2.1 20 06:34 20.10.2020
6560 Rain 14 1019 93 10000 1 0 05:53 20.10.2020
6561 Clouds 14 1018 93 10000 3.1 40 03:59 20.10.2020
6562 Clouds 13 1018 93 10000 2.6 10 02:30 20.10.2020
6563 Clouds 14 1018 93 10000 2.6 330 01:20 20.10.2020
6564 Clouds 14 1018 93 10000 3.1 340 00:50 20.10.2020
6565 Clouds 14 1018 93 10000 3.1 340 00:23 20.10.2020
6566 Clouds 15 1017 87 10000 4.1 330 23:47 19.10.2020
6567 Clouds 15 1017 87 10000 4.1 330 23:47 19.10.2020
6568 Rain 15 1017 87 10000 4.1 330 23:24 19.10.2020
6569 Rain 15 1017 67 10000 4.6 330 22:47 19.10.2020
6570 Rain 15 1017 67 10000 4.6 330 22:25 19.10.2020
6571 Clouds 15 1016 67 10000 3.1 10 21:49 19.10.2020
6572 Clouds 15 1016 67 10000 3.1 10 21:23 19.10.2020
6573 Clouds 15 1016 67 10000 4.1 330 20:52 19.10.2020
6574 Clouds 15 1016 67 10000 4.1 330 20:33 19.10.2020
6575 Clouds 16 1016 55 10000 3.6 280 19:56 19.10.2020
6576 Clouds 16 1016 55 10000 3.6 280 19:38 19.10.2020
6577 Clouds 16 1016 55 10000 3.6 280 19:18 19.10.2020
6578 Clouds 17 1015 45 10000 6.2 240 18:42 19.10.2020
6579 Clouds 18 1015 45 10000 6.2 240 18:19 19.10.2020
6580 Clouds 18 1014 45 10000 5.7 230 17:45 19.10.2020
6581 Clouds 19 1014 45 10000 5.7 230 17:25 19.10.2020
6582 Clouds 19 1014 52 10000 5.1 220 16:48 19.10.2020
6583 Clouds 19 1014 52 10000 5.1 220 16:28 19.10.2020
6584 Clouds 19 1016 58 10000 3.58 203 15:44 19.10.2020
6585 Clouds 18 1016 59 10000 3.58 225 15:25 19.10.2020
6586 Clouds 18 1016 59 10000 3.58 225 15:25 19.10.2020
6587 Clouds 19 1016 57 10000 3.13 248 14:53 19.10.2020
6588 Clouds 19 1016 56 10000 3.13 270 14:28 19.10.2020
6589 Clouds 19 1016 58 10000 3.13 293 13:55 19.10.2020
6590 Clouds 19 1016 59 10000 3.13 293 13:36 19.10.2020
6591 Clouds 18 1017 63 10000 4.02 225 13:18 19.10.2020
6592 Clouds 18 1017 69 10000 3.13 248 12:43 19.10.2020
6593 Clouds 18 1017 64 10000 2.68 225 12:25 19.10.2020
6594 Clouds 19 1017 62 10000 0.89 270 11:42 19.10.2020
6595 Clouds 18 1016 63 10000 5.7 170 11:21 19.10.2020
6596 Clouds 18 1016 63 10000 5.7 170 10:44 19.10.2020
6597 Clouds 18 1016 63 10000 5.7 170 10:44 19.10.2020
6598 Clouds 18 1016 63 10000 5.7 170 10:21 19.10.2020
6599 Clouds 17 1016 72 10000 6.7 190 09:52 19.10.2020
6600 Clouds 17 1016 72 10000 6.7 190 09:23 19.10.2020
6601 Clouds 16 1016 77 10000 4.6 200 08:49 19.10.2020
6602 Clouds 16 1016 77 10000 4.6 200 08:24 19.10.2020
6603 Clouds 16 1015 87 10000 4.1 200 07:55 19.10.2020
6604 Clouds 15 1015 87 10000 4.1 200 07:20 19.10.2020
6605 Clouds 15 1014 87 10000 3.6 200 06:20 19.10.2020
6606 Clouds 15 1014 87 10000 2.6 260 04:30 19.10.2020
6607 Clouds 15 1014 93 10000 3.6 240 03:44 19.10.2020
6608 Clouds 15 1016 82 10000 3.6 210 00:59 19.10.2020
6609 Clouds 15 1016 82 10000 3.6 210 00:26 19.10.2020
6610 Clouds 15 1017 77 10000 4.6 200 23:48 18.10.2020
6611 Clouds 15 1017 77 10000 4.6 200 23:29 18.10.2020
6612 Clouds 15 1017 82 10000 6.2 180 22:57 18.10.2020
6613 Clouds 15 1017 82 10000 6.2 180 22:24 18.10.2020
6614 Clouds 16 1017 77 10000 6.7 180 21:59 18.10.2020
6615 Clouds 16 1017 77 10000 6.7 180 21:37 18.10.2020
6616 Clouds 16 1017 77 10000 7.2 180 21:18 18.10.2020
6617 Clouds 16 1017 77 10000 7.2 180 20:42 18.10.2020
6618 Clouds 16 1017 77 10000 7.2 180 20:21 18.10.2020
6619 Clouds 16 1017 72 10000 6.7 190 19:47 18.10.2020
6620 Clouds 16 1017 72 10000 6.7 190 19:26 18.10.2020
6621 Clouds 17 1016 67 10000 7.2 170 18:50 18.10.2020
6622 Clouds 18 1016 67 10000 7.2 170 18:29 18.10.2020
6623 Clouds 19 1016 55 10000 6.7 180 17:45 18.10.2020
6624 Clouds 20 1016 55 10000 6.7 180 17:25 18.10.2020
6625 Clouds 20 1016 49 10000 6.2 180 16:58 18.10.2020
6626 Clouds 20 1016 49 10000 6.2 180 16:39 18.10.2020
6627 Clouds 21 1016 49 10000 6.2 180 16:21 18.10.2020
6628 Clouds 20 1017 46 10000 6.7 190 15:42 18.10.2020
6629 Clouds 20 1017 46 10000 6.7 190 15:19 18.10.2020
6630 Clouds 21 1017 49 10000 5.7 190 14:56 18.10.2020
6631 Clouds 21 1017 49 10000 5.7 190 14:30 18.10.2020
6632 Clouds 20 1017 52 10000 5.1 180 13:57 18.10.2020
6633 Clouds 20 1017 52 10000 5.1 180 13:38 18.10.2020
6634 Clouds 20 1017 52 10000 5.1 180 13:20 18.10.2020
6635 Clouds 20 1018 49 10000 2.6 180 12:42 18.10.2020
6636 Clouds 20 1018 49 10000 2.6 180 12:21 18.10.2020
6637 Clouds 19 1018 59 10000 4.1 180 11:42 18.10.2020
6638 Clouds 19 1018 59 10000 4.1 180 11:23 18.10.2020
6639 Clouds 18 1018 67 10000 2.6 140 10:44 18.10.2020
6640 Clouds 18 1018<